<?xml version="1.0" encoding="UTF-8" ?>
<gpx version="1.1" xmlns:xsi="http://www.w3.org/2001/XMLSchema-instance"
    xmlns="http://www.topografix.com/GPX/1/1"
    xsi:schemaLocation="http://www.topografix.com/GPX/1/1 http://www.topografix.com/GPX/1/1/gpx.xsd"
    creator="Openrunner - https://www.openrunner.com" >	<trk>
	                   <name>GR 380_1-25087721</name>
						<trkseg>
					<trkpt lat="48.576040" lon="-3.820470">
						<ele>25</ele>
						<time>2026-09-01T08:42:30Z</time>
					</trkpt>
					<trkpt lat="48.576000" lon="-3.819320">
						<ele>26</ele>
						<time>2026-09-01T08:43:08Z</time>
					</trkpt>
					<trkpt lat="48.575640" lon="-3.817280">
						<ele>25</ele>
						<time>2026-09-01T08:44:18Z</time>
					</trkpt>
					<trkpt lat="48.575760" lon="-3.817210">
						<ele>27</ele>
						<time>2026-09-01T08:44:24Z</time>
					</trkpt>
					<trkpt lat="48.575820" lon="-3.817200">
						<ele>28</ele>
						<time>2026-09-01T08:44:27Z</time>
					</trkpt>
					<trkpt lat="48.575780" lon="-3.816960">
						<ele>30</ele>
						<time>2026-09-01T08:44:36Z</time>
					</trkpt>
					<trkpt lat="48.575730" lon="-3.816910">
						<ele>29</ele>
						<time>2026-09-01T08:44:39Z</time>
					</trkpt>
					<trkpt lat="48.575710" lon="-3.816830">
						<ele>30</ele>
						<time>2026-09-01T08:44:42Z</time>
					</trkpt>
					<trkpt lat="48.575480" lon="-3.815100">
						<ele>49</ele>
						<time>2026-09-01T08:45:40Z</time>
					</trkpt>
					<trkpt lat="48.575380" lon="-3.814910">
						<ele>49</ele>
						<time>2026-09-01T08:45:48Z</time>
					</trkpt>
					<trkpt lat="48.575260" lon="-3.814770">
						<ele>48</ele>
						<time>2026-09-01T08:45:56Z</time>
					</trkpt>
					<trkpt lat="48.575240" lon="-3.814690">
						<ele>49</ele>
						<time>2026-09-01T08:45:58Z</time>
					</trkpt>
					<trkpt lat="48.575290" lon="-3.814470">
						<ele>51</ele>
						<time>2026-09-01T08:46:06Z</time>
					</trkpt>
					<trkpt lat="48.575140" lon="-3.814230">
						<ele>51</ele>
						<time>2026-09-01T08:46:17Z</time>
					</trkpt>
					<trkpt lat="48.574910" lon="-3.813780">
						<ele>48</ele>
						<time>2026-09-01T08:46:36Z</time>
					</trkpt>
					<trkpt lat="48.574120" lon="-3.811860">
						<ele>46</ele>
						<time>2026-09-01T08:47:51Z</time>
					</trkpt>
					<trkpt lat="48.573820" lon="-3.811260">
						<ele>47</ele>
						<time>2026-09-01T08:48:16Z</time>
					</trkpt>
					<trkpt lat="48.573640" lon="-3.811030">
						<ele>47</ele>
						<time>2026-09-01T08:48:27Z</time>
					</trkpt>
					<trkpt lat="48.572440" lon="-3.809870">
						<ele>51</ele>
						<time>2026-09-01T08:49:39Z</time>
					</trkpt>
					<trkpt lat="48.571960" lon="-3.809340">
						<ele>52</ele>
						<time>2026-09-01T08:50:08Z</time>
					</trkpt>
					<trkpt lat="48.571820" lon="-3.809150">
						<ele>52</ele>
						<time>2026-09-01T08:50:18Z</time>
					</trkpt>
					<trkpt lat="48.571570" lon="-3.808610">
						<ele>54</ele>
						<time>2026-09-01T08:50:40Z</time>
					</trkpt>
					<trkpt lat="48.571360" lon="-3.807540">
						<ele>52</ele>
						<time>2026-09-01T08:51:17Z</time>
					</trkpt>
					<trkpt lat="48.571310" lon="-3.807040">
						<ele>50</ele>
						<time>2026-09-01T08:51:33Z</time>
					</trkpt>
					<trkpt lat="48.571360" lon="-3.805900">
						<ele>49</ele>
						<time>2026-09-01T08:52:11Z</time>
					</trkpt>
					<trkpt lat="48.571340" lon="-3.805240">
						<ele>48</ele>
						<time>2026-09-01T08:52:33Z</time>
					</trkpt>
					<trkpt lat="48.571270" lon="-3.804750">
						<ele>46</ele>
						<time>2026-09-01T08:52:50Z</time>
					</trkpt>
					<trkpt lat="48.571150" lon="-3.804160">
						<ele>44</ele>
						<time>2026-09-01T08:53:10Z</time>
					</trkpt>
					<trkpt lat="48.571000" lon="-3.803630">
						<ele>43</ele>
						<time>2026-09-01T08:53:29Z</time>
					</trkpt>
					<trkpt lat="48.570850" lon="-3.803240">
						<ele>41</ele>
						<time>2026-09-01T08:53:44Z</time>
					</trkpt>
					<trkpt lat="48.570480" lon="-3.802570">
						<ele>40</ele>
						<time>2026-09-01T08:54:13Z</time>
					</trkpt>
					<trkpt lat="48.570280" lon="-3.802290">
						<ele>42</ele>
						<time>2026-09-01T08:54:27Z</time>
					</trkpt>
					<trkpt lat="48.569970" lon="-3.801970">
						<ele>45</ele>
						<time>2026-09-01T08:54:45Z</time>
					</trkpt>
					<trkpt lat="48.569850" lon="-3.801870">
						<ele>46</ele>
						<time>2026-09-01T08:54:52Z</time>
					</trkpt>
					<trkpt lat="48.569450" lon="-3.801620">
						<ele>45</ele>
						<time>2026-09-01T08:55:14Z</time>
					</trkpt>
					<trkpt lat="48.569210" lon="-3.801430">
						<ele>45</ele>
						<time>2026-09-01T08:55:28Z</time>
					</trkpt>
					<trkpt lat="48.568800" lon="-3.801090">
						<ele>43</ele>
						<time>2026-09-01T08:55:51Z</time>
					</trkpt>
					<trkpt lat="48.568350" lon="-3.800670">
						<ele>41</ele>
						<time>2026-09-01T08:56:17Z</time>
					</trkpt>
					<trkpt lat="48.567140" lon="-3.799810">
						<ele>28</ele>
						<time>2026-09-01T08:57:24Z</time>
					</trkpt>
					<trkpt lat="48.566850" lon="-3.799540">
						<ele>27</ele>
						<time>2026-09-01T08:57:41Z</time>
					</trkpt>
					<trkpt lat="48.566670" lon="-3.799270">
						<ele>27</ele>
						<time>2026-09-01T08:57:54Z</time>
					</trkpt>
					<trkpt lat="48.566620" lon="-3.799230">
						<ele>27</ele>
						<time>2026-09-01T08:57:57Z</time>
					</trkpt>
					<trkpt lat="48.566580" lon="-3.799230">
						<ele>27</ele>
						<time>2026-09-01T08:57:59Z</time>
					</trkpt>
					<trkpt lat="48.566500" lon="-3.799290">
						<ele>27</ele>
						<time>2026-09-01T08:58:03Z</time>
					</trkpt>
					<trkpt lat="48.565840" lon="-3.798450">
						<ele>31</ele>
						<time>2026-09-01T08:58:47Z</time>
					</trkpt>
					<trkpt lat="48.565910" lon="-3.798090">
						<ele>30</ele>
						<time>2026-09-01T08:58:59Z</time>
					</trkpt>
					<trkpt lat="48.565910" lon="-3.797760">
						<ele>30</ele>
						<time>2026-09-01T08:59:10Z</time>
					</trkpt>
					<trkpt lat="48.565730" lon="-3.795310">
						<ele>34</ele>
						<time>2026-09-01T09:00:32Z</time>
					</trkpt>
					<trkpt lat="48.565740" lon="-3.794990">
						<ele>36</ele>
						<time>2026-09-01T09:00:42Z</time>
					</trkpt>
					<trkpt lat="48.565870" lon="-3.794180">
						<ele>40</ele>
						<time>2026-09-01T09:01:10Z</time>
					</trkpt>
					<trkpt lat="48.565910" lon="-3.792610">
						<ele>39</ele>
						<time>2026-09-01T09:02:02Z</time>
					</trkpt>
					<trkpt lat="48.565950" lon="-3.792250">
						<ele>39</ele>
						<time>2026-09-01T09:02:14Z</time>
					</trkpt>
					<trkpt lat="48.566020" lon="-3.791900">
						<ele>39</ele>
						<time>2026-09-01T09:02:26Z</time>
					</trkpt>
					<trkpt lat="48.566090" lon="-3.791690">
						<ele>39</ele>
						<time>2026-09-01T09:02:34Z</time>
					</trkpt>
					<trkpt lat="48.565960" lon="-3.791410">
						<ele>40</ele>
						<time>2026-09-01T09:02:45Z</time>
					</trkpt>
					<trkpt lat="48.565720" lon="-3.791130">
						<ele>42</ele>
						<time>2026-09-01T09:03:00Z</time>
					</trkpt>
					<trkpt lat="48.565470" lon="-3.790550">
						<ele>44</ele>
						<time>2026-09-01T09:03:23Z</time>
					</trkpt>
					<trkpt lat="48.565420" lon="-3.790220">
						<ele>43</ele>
						<time>2026-09-01T09:03:34Z</time>
					</trkpt>
					<trkpt lat="48.565000" lon="-3.789330">
						<ele>46</ele>
						<time>2026-09-01T09:04:11Z</time>
					</trkpt>
					<trkpt lat="48.564520" lon="-3.788950">
						<ele>56</ele>
						<time>2026-09-01T09:04:38Z</time>
					</trkpt>
					<trkpt lat="48.563590" lon="-3.788150">
						<ele>66</ele>
						<time>2026-09-01T09:05:31Z</time>
					</trkpt>
					<trkpt lat="48.563360" lon="-3.787800">
						<ele>69</ele>
						<time>2026-09-01T09:05:48Z</time>
					</trkpt>
					<trkpt lat="48.563750" lon="-3.787710">
						<ele>65</ele>
						<time>2026-09-01T09:06:07Z</time>
					</trkpt>
					<trkpt lat="48.564430" lon="-3.787110">
						<ele>60</ele>
						<time>2026-09-01T09:06:47Z</time>
					</trkpt>
					<trkpt lat="48.564740" lon="-3.786700">
						<ele>59</ele>
						<time>2026-09-01T09:07:07Z</time>
					</trkpt>
					<trkpt lat="48.565070" lon="-3.785980">
						<ele>60</ele>
						<time>2026-09-01T09:07:36Z</time>
					</trkpt>
					<trkpt lat="48.565670" lon="-3.784840">
						<ele>59</ele>
						<time>2026-09-01T09:08:25Z</time>
					</trkpt>
					<trkpt lat="48.566100" lon="-3.784140">
						<ele>60</ele>
						<time>2026-09-01T09:08:56Z</time>
					</trkpt>
					<trkpt lat="48.566500" lon="-3.783580">
						<ele>58</ele>
						<time>2026-09-01T09:09:24Z</time>
					</trkpt>
					<trkpt lat="48.566650" lon="-3.783170">
						<ele>58</ele>
						<time>2026-09-01T09:09:39Z</time>
					</trkpt>
					<trkpt lat="48.566870" lon="-3.782780">
						<ele>56</ele>
						<time>2026-09-01T09:09:56Z</time>
					</trkpt>
					<trkpt lat="48.566930" lon="-3.782460">
						<ele>56</ele>
						<time>2026-09-01T09:10:07Z</time>
					</trkpt>
					<trkpt lat="48.566770" lon="-3.781480">
						<ele>55</ele>
						<time>2026-09-01T09:10:40Z</time>
					</trkpt>
					<trkpt lat="48.566560" lon="-3.780870">
						<ele>55</ele>
						<time>2026-09-01T09:11:03Z</time>
					</trkpt>
					<trkpt lat="48.566360" lon="-3.780380">
						<ele>57</ele>
						<time>2026-09-01T09:11:22Z</time>
					</trkpt>
					<trkpt lat="48.566120" lon="-3.780010">
						<ele>58</ele>
						<time>2026-09-01T09:11:39Z</time>
					</trkpt>
					<trkpt lat="48.565840" lon="-3.779660">
						<ele>57</ele>
						<time>2026-09-01T09:11:58Z</time>
					</trkpt>
					<trkpt lat="48.565500" lon="-3.779300">
						<ele>58</ele>
						<time>2026-09-01T09:12:18Z</time>
					</trkpt>
					<trkpt lat="48.564810" lon="-3.778670">
						<ele>63</ele>
						<time>2026-09-01T09:12:59Z</time>
					</trkpt>
					<trkpt lat="48.563890" lon="-3.777710">
						<ele>61</ele>
						<time>2026-09-01T09:13:55Z</time>
					</trkpt>
					<trkpt lat="48.563700" lon="-3.777480">
						<ele>60</ele>
						<time>2026-09-01T09:14:07Z</time>
					</trkpt>
					<trkpt lat="48.563600" lon="-3.777290">
						<ele>61</ele>
						<time>2026-09-01T09:14:15Z</time>
					</trkpt>
					<trkpt lat="48.563500" lon="-3.776510">
						<ele>61</ele>
						<time>2026-09-01T09:14:41Z</time>
					</trkpt>
					<trkpt lat="48.563370" lon="-3.775750">
						<ele>64</ele>
						<time>2026-09-01T09:15:07Z</time>
					</trkpt>
					<trkpt lat="48.563270" lon="-3.775530">
						<ele>64</ele>
						<time>2026-09-01T09:15:16Z</time>
					</trkpt>
					<trkpt lat="48.562630" lon="-3.775020">
						<ele>70</ele>
						<time>2026-09-01T09:15:52Z</time>
					</trkpt>
					<trkpt lat="48.562730" lon="-3.774410">
						<ele>65</ele>
						<time>2026-09-01T09:16:13Z</time>
					</trkpt>
					<trkpt lat="48.562910" lon="-3.774410">
						<ele>63</ele>
						<time>2026-09-01T09:16:22Z</time>
					</trkpt>
					<trkpt lat="48.563380" lon="-3.774260">
						<ele>58</ele>
						<time>2026-09-01T09:16:46Z</time>
					</trkpt>
					<trkpt lat="48.563500" lon="-3.774190">
						<ele>58</ele>
						<time>2026-09-01T09:16:53Z</time>
					</trkpt>
					<trkpt lat="48.563530" lon="-3.773890">
						<ele>58</ele>
						<time>2026-09-01T09:17:03Z</time>
					</trkpt>
					<trkpt lat="48.563520" lon="-3.773510">
						<ele>59</ele>
						<time>2026-09-01T09:17:15Z</time>
					</trkpt>
					<trkpt lat="48.563470" lon="-3.773190">
						<ele>60</ele>
						<time>2026-09-01T09:17:26Z</time>
					</trkpt>
					<trkpt lat="48.563300" lon="-3.772740">
						<ele>60</ele>
						<time>2026-09-01T09:17:43Z</time>
					</trkpt>
					<trkpt lat="48.563240" lon="-3.772330">
						<ele>60</ele>
						<time>2026-09-01T09:17:57Z</time>
					</trkpt>
					<trkpt lat="48.563160" lon="-3.772180">
						<ele>60</ele>
						<time>2026-09-01T09:18:04Z</time>
					</trkpt>
					<trkpt lat="48.563130" lon="-3.771940">
						<ele>60</ele>
						<time>2026-09-01T09:18:12Z</time>
					</trkpt>
					<trkpt lat="48.563240" lon="-3.771350">
						<ele>61</ele>
						<time>2026-09-01T09:18:32Z</time>
					</trkpt>
					<trkpt lat="48.563240" lon="-3.771230">
						<ele>62</ele>
						<time>2026-09-01T09:18:36Z</time>
					</trkpt>
					<trkpt lat="48.563070" lon="-3.770100">
						<ele>65</ele>
						<time>2026-09-01T09:19:14Z</time>
					</trkpt>
					<trkpt lat="48.562890" lon="-3.769570">
						<ele>64</ele>
						<time>2026-09-01T09:19:34Z</time>
					</trkpt>
					<trkpt lat="48.562930" lon="-3.769400">
						<ele>65</ele>
						<time>2026-09-01T09:19:40Z</time>
					</trkpt>
					<trkpt lat="48.563150" lon="-3.769900">
						<ele>67</ele>
						<time>2026-09-01T09:20:00Z</time>
					</trkpt>
					<trkpt lat="48.563400" lon="-3.770390">
						<ele>69</ele>
						<time>2026-09-01T09:20:20Z</time>
					</trkpt>
					<trkpt lat="48.563750" lon="-3.770820">
						<ele>76</ele>
						<time>2026-09-01T09:20:43Z</time>
					</trkpt>
					<trkpt lat="48.564030" lon="-3.770960">
						<ele>81</ele>
						<time>2026-09-01T09:20:58Z</time>
					</trkpt>
					<trkpt lat="48.564380" lon="-3.771200">
						<ele>84</ele>
						<time>2026-09-01T09:21:17Z</time>
					</trkpt>
					<trkpt lat="48.564630" lon="-3.771410">
						<ele>86</ele>
						<time>2026-09-01T09:21:31Z</time>
					</trkpt>
					<trkpt lat="48.564990" lon="-3.771480">
						<ele>94</ele>
						<time>2026-09-01T09:21:49Z</time>
					</trkpt>
					<trkpt lat="48.565210" lon="-3.771390">
						<ele>96</ele>
						<time>2026-09-01T09:22:01Z</time>
					</trkpt>
					<trkpt lat="48.565340" lon="-3.771160">
						<ele>99</ele>
						<time>2026-09-01T09:22:11Z</time>
					</trkpt>
					<trkpt lat="48.565590" lon="-3.770940">
						<ele>102</ele>
						<time>2026-09-01T09:22:25Z</time>
					</trkpt>
					<trkpt lat="48.565960" lon="-3.770720">
						<ele>105</ele>
						<time>2026-09-01T09:22:45Z</time>
					</trkpt>
					<trkpt lat="48.566160" lon="-3.770570">
						<ele>106</ele>
						<time>2026-09-01T09:22:56Z</time>
					</trkpt>
					<trkpt lat="48.566440" lon="-3.770430">
						<ele>108</ele>
						<time>2026-09-01T09:23:11Z</time>
					</trkpt>
					<trkpt lat="48.566530" lon="-3.770330">
						<ele>108</ele>
						<time>2026-09-01T09:23:17Z</time>
					</trkpt>
					<trkpt lat="48.566740" lon="-3.769820">
						<ele>109</ele>
						<time>2026-09-01T09:23:37Z</time>
					</trkpt>
					<trkpt lat="48.566960" lon="-3.769440">
						<ele>110</ele>
						<time>2026-09-01T09:23:53Z</time>
					</trkpt>
					<trkpt lat="48.567310" lon="-3.769120">
						<ele>111</ele>
						<time>2026-09-01T09:24:14Z</time>
					</trkpt>
					<trkpt lat="48.567670" lon="-3.768870">
						<ele>112</ele>
						<time>2026-09-01T09:24:34Z</time>
					</trkpt>
					<trkpt lat="48.567970" lon="-3.768700">
						<ele>113</ele>
						<time>2026-09-01T09:24:50Z</time>
					</trkpt>
					<trkpt lat="48.568680" lon="-3.768070">
						<ele>112</ele>
						<time>2026-09-01T09:25:31Z</time>
					</trkpt>
					<trkpt lat="48.568920" lon="-3.767810">
						<ele>112</ele>
						<time>2026-09-01T09:25:46Z</time>
					</trkpt>
					<trkpt lat="48.569590" lon="-3.767370">
						<ele>110</ele>
						<time>2026-09-01T09:26:22Z</time>
					</trkpt>
					<trkpt lat="48.570000" lon="-3.766850">
						<ele>109</ele>
						<time>2026-09-01T09:26:49Z</time>
					</trkpt>
					<trkpt lat="48.569980" lon="-3.766790">
						<ele>108</ele>
						<time>2026-09-01T09:26:51Z</time>
					</trkpt>
					<trkpt lat="48.569830" lon="-3.766600">
						<ele>107</ele>
						<time>2026-09-01T09:27:01Z</time>
					</trkpt>
					<trkpt lat="48.569710" lon="-3.766280">
						<ele>105</ele>
						<time>2026-09-01T09:27:13Z</time>
					</trkpt>
					<trkpt lat="48.569510" lon="-3.765850">
						<ele>103</ele>
						<time>2026-09-01T09:27:31Z</time>
					</trkpt>
					<trkpt lat="48.569170" lon="-3.765290">
						<ele>101</ele>
						<time>2026-09-01T09:27:56Z</time>
					</trkpt>
					<trkpt lat="48.569020" lon="-3.764920">
						<ele>101</ele>
						<time>2026-09-01T09:28:10Z</time>
					</trkpt>
					<trkpt lat="48.569000" lon="-3.764810">
						<ele>101</ele>
						<time>2026-09-01T09:28:14Z</time>
					</trkpt>
					<trkpt lat="48.569010" lon="-3.764550">
						<ele>103</ele>
						<time>2026-09-01T09:28:23Z</time>
					</trkpt>
					<trkpt lat="48.569050" lon="-3.764280">
						<ele>104</ele>
						<time>2026-09-01T09:28:32Z</time>
					</trkpt>
					<trkpt lat="48.568630" lon="-3.764130">
						<ele>101</ele>
						<time>2026-09-01T09:28:53Z</time>
					</trkpt>
					<trkpt lat="48.568070" lon="-3.763670">
						<ele>98</ele>
						<time>2026-09-01T09:29:25Z</time>
					</trkpt>
					<trkpt lat="48.567980" lon="-3.763550">
						<ele>97</ele>
						<time>2026-09-01T09:29:31Z</time>
					</trkpt>
					<trkpt lat="48.567680" lon="-3.763050">
						<ele>97</ele>
						<time>2026-09-01T09:29:54Z</time>
					</trkpt>
					<trkpt lat="48.567590" lon="-3.762860">
						<ele>97</ele>
						<time>2026-09-01T09:30:01Z</time>
					</trkpt>
					<trkpt lat="48.567340" lon="-3.761740">
						<ele>100</ele>
						<time>2026-09-01T09:30:40Z</time>
					</trkpt>
					<trkpt lat="48.567150" lon="-3.761420">
						<ele>100</ele>
						<time>2026-09-01T09:30:55Z</time>
					</trkpt>
					<trkpt lat="48.567140" lon="-3.761300">
						<ele>101</ele>
						<time>2026-09-01T09:30:59Z</time>
					</trkpt>
					<trkpt lat="48.567150" lon="-3.761230">
						<ele>101</ele>
						<time>2026-09-01T09:31:01Z</time>
					</trkpt>
					<trkpt lat="48.567360" lon="-3.761010">
						<ele>102</ele>
						<time>2026-09-01T09:31:14Z</time>
					</trkpt>
					<trkpt lat="48.567390" lon="-3.760840">
						<ele>103</ele>
						<time>2026-09-01T09:31:20Z</time>
					</trkpt>
					<trkpt lat="48.567500" lon="-3.760590">
						<ele>102</ele>
						<time>2026-09-01T09:31:30Z</time>
					</trkpt>
					<trkpt lat="48.567660" lon="-3.760450">
						<ele>102</ele>
						<time>2026-09-01T09:31:39Z</time>
					</trkpt>
					<trkpt lat="48.567740" lon="-3.760400">
						<ele>103</ele>
						<time>2026-09-01T09:31:43Z</time>
					</trkpt>
					<trkpt lat="48.567850" lon="-3.760370">
						<ele>103</ele>
						<time>2026-09-01T09:31:49Z</time>
					</trkpt>
					<trkpt lat="48.568100" lon="-3.760380">
						<ele>105</ele>
						<time>2026-09-01T09:32:01Z</time>
					</trkpt>
					<trkpt lat="48.568190" lon="-3.760360">
						<ele>105</ele>
						<time>2026-09-01T09:32:06Z</time>
					</trkpt>
					<trkpt lat="48.568430" lon="-3.760220">
						<ele>107</ele>
						<time>2026-09-01T09:32:19Z</time>
					</trkpt>
					<trkpt lat="48.568470" lon="-3.760080">
						<ele>107</ele>
						<time>2026-09-01T09:32:24Z</time>
					</trkpt>
					<trkpt lat="48.568490" lon="-3.758780">
						<ele>107</ele>
						<time>2026-09-01T09:33:07Z</time>
					</trkpt>
					<trkpt lat="48.568520" lon="-3.758660">
						<ele>108</ele>
						<time>2026-09-01T09:33:11Z</time>
					</trkpt>
					<trkpt lat="48.568550" lon="-3.758580">
						<ele>108</ele>
						<time>2026-09-01T09:33:14Z</time>
					</trkpt>
					<trkpt lat="48.568880" lon="-3.758200">
						<ele>110</ele>
						<time>2026-09-01T09:33:35Z</time>
					</trkpt>
					<trkpt lat="48.569030" lon="-3.757980">
						<ele>111</ele>
						<time>2026-09-01T09:33:45Z</time>
					</trkpt>
					<trkpt lat="48.569160" lon="-3.757620">
						<ele>112</ele>
						<time>2026-09-01T09:33:59Z</time>
					</trkpt>
					<trkpt lat="48.569470" lon="-3.757010">
						<ele>113</ele>
						<time>2026-09-01T09:34:24Z</time>
					</trkpt>
					<trkpt lat="48.569590" lon="-3.756850">
						<ele>114</ele>
						<time>2026-09-01T09:34:32Z</time>
					</trkpt>
					<trkpt lat="48.569610" lon="-3.756780">
						<ele>114</ele>
						<time>2026-09-01T09:34:35Z</time>
					</trkpt>
					<trkpt lat="48.569630" lon="-3.755780">
						<ele>110</ele>
						<time>2026-09-01T09:35:08Z</time>
					</trkpt>
					<trkpt lat="48.569600" lon="-3.755610">
						<ele>109</ele>
						<time>2026-09-01T09:35:14Z</time>
					</trkpt>
					<trkpt lat="48.569480" lon="-3.755480">
						<ele>108</ele>
						<time>2026-09-01T09:35:21Z</time>
					</trkpt>
					<trkpt lat="48.569240" lon="-3.755390">
						<ele>106</ele>
						<time>2026-09-01T09:35:34Z</time>
					</trkpt>
					<trkpt lat="48.569050" lon="-3.755380">
						<ele>105</ele>
						<time>2026-09-01T09:35:43Z</time>
					</trkpt>
					<trkpt lat="48.568660" lon="-3.755450">
						<ele>104</ele>
						<time>2026-09-01T09:36:03Z</time>
					</trkpt>
					<trkpt lat="48.568530" lon="-3.755430">
						<ele>104</ele>
						<time>2026-09-01T09:36:09Z</time>
					</trkpt>
					<trkpt lat="48.568460" lon="-3.755370">
						<ele>104</ele>
						<time>2026-09-01T09:36:13Z</time>
					</trkpt>
					<trkpt lat="48.568360" lon="-3.755190">
						<ele>104</ele>
						<time>2026-09-01T09:36:21Z</time>
					</trkpt>
					<trkpt lat="48.568290" lon="-3.755000">
						<ele>105</ele>
						<time>2026-09-01T09:36:28Z</time>
					</trkpt>
					<trkpt lat="48.568250" lon="-3.754790">
						<ele>105</ele>
						<time>2026-09-01T09:36:36Z</time>
					</trkpt>
					<trkpt lat="48.568260" lon="-3.754500">
						<ele>106</ele>
						<time>2026-09-01T09:36:45Z</time>
					</trkpt>
					<trkpt lat="48.568380" lon="-3.753770">
						<ele>108</ele>
						<time>2026-09-01T09:37:10Z</time>
					</trkpt>
					<trkpt lat="48.568630" lon="-3.752580">
						<ele>107</ele>
						<time>2026-09-01T09:37:51Z</time>
					</trkpt>
					<trkpt lat="48.568630" lon="-3.752180">
						<ele>107</ele>
						<time>2026-09-01T09:38:05Z</time>
					</trkpt>
					<trkpt lat="48.568510" lon="-3.751840">
						<ele>106</ele>
						<time>2026-09-01T09:38:17Z</time>
					</trkpt>
					<trkpt lat="48.568370" lon="-3.751660">
						<ele>106</ele>
						<time>2026-09-01T09:38:27Z</time>
					</trkpt>
					<trkpt lat="48.568300" lon="-3.751600">
						<ele>106</ele>
						<time>2026-09-01T09:38:31Z</time>
					</trkpt>
					<trkpt lat="48.567670" lon="-3.751300">
						<ele>103</ele>
						<time>2026-09-01T09:39:04Z</time>
					</trkpt>
					<trkpt lat="48.567570" lon="-3.751140">
						<ele>103</ele>
						<time>2026-09-01T09:39:11Z</time>
					</trkpt>
					<trkpt lat="48.567490" lon="-3.750880">
						<ele>102</ele>
						<time>2026-09-01T09:39:21Z</time>
					</trkpt>
					<trkpt lat="48.567500" lon="-3.749290">
						<ele>94</ele>
						<time>2026-09-01T09:40:13Z</time>
					</trkpt>
					<trkpt lat="48.567390" lon="-3.749260">
						<ele>93</ele>
						<time>2026-09-01T09:40:19Z</time>
					</trkpt>
					<trkpt lat="48.567270" lon="-3.749270">
						<ele>92</ele>
						<time>2026-09-01T09:40:25Z</time>
					</trkpt>
					<trkpt lat="48.567090" lon="-3.749170">
						<ele>91</ele>
						<time>2026-09-01T09:40:34Z</time>
					</trkpt>
					<trkpt lat="48.567060" lon="-3.749080">
						<ele>91</ele>
						<time>2026-09-01T09:40:38Z</time>
					</trkpt>
					<trkpt lat="48.566870" lon="-3.748890">
						<ele>90</ele>
						<time>2026-09-01T09:40:49Z</time>
					</trkpt>
					<trkpt lat="48.566850" lon="-3.748820">
						<ele>90</ele>
						<time>2026-09-01T09:40:52Z</time>
					</trkpt>
					<trkpt lat="48.566730" lon="-3.748670">
						<ele>89</ele>
						<time>2026-09-01T09:40:59Z</time>
					</trkpt>
					<trkpt lat="48.566720" lon="-3.748570">
						<ele>89</ele>
						<time>2026-09-01T09:41:03Z</time>
					</trkpt>
					<trkpt lat="48.566540" lon="-3.748410">
						<ele>88</ele>
						<time>2026-09-01T09:41:13Z</time>
					</trkpt>
					<trkpt lat="48.566400" lon="-3.748150">
						<ele>87</ele>
						<time>2026-09-01T09:41:24Z</time>
					</trkpt>
					<trkpt lat="48.566250" lon="-3.748030">
						<ele>87</ele>
						<time>2026-09-01T09:41:33Z</time>
					</trkpt>
					<trkpt lat="48.566190" lon="-3.747940">
						<ele>87</ele>
						<time>2026-09-01T09:41:37Z</time>
					</trkpt>
					<trkpt lat="48.566020" lon="-3.747840">
						<ele>85</ele>
						<time>2026-09-01T09:41:46Z</time>
					</trkpt>
					<trkpt lat="48.565930" lon="-3.747820">
						<ele>84</ele>
						<time>2026-09-01T09:41:51Z</time>
					</trkpt>
					<trkpt lat="48.565700" lon="-3.747600">
						<ele>83</ele>
						<time>2026-09-01T09:42:04Z</time>
					</trkpt>
					<trkpt lat="48.565680" lon="-3.747610">
						<ele>82</ele>
						<time>2026-09-01T09:42:05Z</time>
					</trkpt>
					<trkpt lat="48.565670" lon="-3.747580">
						<ele>82</ele>
						<time>2026-09-01T09:42:07Z</time>
					</trkpt>
					<trkpt lat="48.565590" lon="-3.747560">
						<ele>81</ele>
						<time>2026-09-01T09:42:11Z</time>
					</trkpt>
					<trkpt lat="48.565470" lon="-3.747430">
						<ele>81</ele>
						<time>2026-09-01T09:42:18Z</time>
					</trkpt>
					<trkpt lat="48.565340" lon="-3.747370">
						<ele>80</ele>
						<time>2026-09-01T09:42:25Z</time>
					</trkpt>
					<trkpt lat="48.565310" lon="-3.747320">
						<ele>80</ele>
						<time>2026-09-01T09:42:27Z</time>
					</trkpt>
					<trkpt lat="48.565080" lon="-3.747150">
						<ele>78</ele>
						<time>2026-09-01T09:42:40Z</time>
					</trkpt>
					<trkpt lat="48.564890" lon="-3.746770">
						<ele>79</ele>
						<time>2026-09-01T09:42:56Z</time>
					</trkpt>
					<trkpt lat="48.564820" lon="-3.746710">
						<ele>79</ele>
						<time>2026-09-01T09:43:00Z</time>
					</trkpt>
					<trkpt lat="48.564740" lon="-3.746380">
						<ele>81</ele>
						<time>2026-09-01T09:43:11Z</time>
					</trkpt>
					<trkpt lat="48.564650" lon="-3.746220">
						<ele>81</ele>
						<time>2026-09-01T09:43:18Z</time>
					</trkpt>
					<trkpt lat="48.564650" lon="-3.746060">
						<ele>82</ele>
						<time>2026-09-01T09:43:24Z</time>
					</trkpt>
					<trkpt lat="48.564560" lon="-3.745710">
						<ele>83</ele>
						<time>2026-09-01T09:43:36Z</time>
					</trkpt>
					<trkpt lat="48.564460" lon="-3.745120">
						<ele>84</ele>
						<time>2026-09-01T09:43:56Z</time>
					</trkpt>
					<trkpt lat="48.564430" lon="-3.745020">
						<ele>84</ele>
						<time>2026-09-01T09:44:00Z</time>
					</trkpt>
					<trkpt lat="48.564360" lon="-3.744920">
						<ele>83</ele>
						<time>2026-09-01T09:44:05Z</time>
					</trkpt>
					<trkpt lat="48.564280" lon="-3.744620">
						<ele>82</ele>
						<time>2026-09-01T09:44:15Z</time>
					</trkpt>
					<trkpt lat="48.564200" lon="-3.744090">
						<ele>82</ele>
						<time>2026-09-01T09:44:33Z</time>
					</trkpt>
					<trkpt lat="48.564170" lon="-3.744040">
						<ele>81</ele>
						<time>2026-09-01T09:44:36Z</time>
					</trkpt>
					<trkpt lat="48.564040" lon="-3.743500">
						<ele>82</ele>
						<time>2026-09-01T09:44:55Z</time>
					</trkpt>
					<trkpt lat="48.564030" lon="-3.743180">
						<ele>83</ele>
						<time>2026-09-01T09:45:05Z</time>
					</trkpt>
					<trkpt lat="48.563980" lon="-3.742920">
						<ele>84</ele>
						<time>2026-09-01T09:45:14Z</time>
					</trkpt>
					<trkpt lat="48.564000" lon="-3.742540">
						<ele>86</ele>
						<time>2026-09-01T09:45:27Z</time>
					</trkpt>
					<trkpt lat="48.563960" lon="-3.742300">
						<ele>86</ele>
						<time>2026-09-01T09:45:35Z</time>
					</trkpt>
					<trkpt lat="48.563970" lon="-3.742180">
						<ele>87</ele>
						<time>2026-09-01T09:45:39Z</time>
					</trkpt>
					<trkpt lat="48.563920" lon="-3.741680">
						<ele>88</ele>
						<time>2026-09-01T09:45:56Z</time>
					</trkpt>
					<trkpt lat="48.563760" lon="-3.740850">
						<ele>89</ele>
						<time>2026-09-01T09:46:24Z</time>
					</trkpt>
					<trkpt lat="48.563760" lon="-3.740710">
						<ele>89</ele>
						<time>2026-09-01T09:46:29Z</time>
					</trkpt>
					<trkpt lat="48.563650" lon="-3.740400">
						<ele>87</ele>
						<time>2026-09-01T09:46:41Z</time>
					</trkpt>
					<trkpt lat="48.563620" lon="-3.739580">
						<ele>89</ele>
						<time>2026-09-01T09:47:08Z</time>
					</trkpt>
					<trkpt lat="48.563560" lon="-3.739360">
						<ele>89</ele>
						<time>2026-09-01T09:47:16Z</time>
					</trkpt>
					<trkpt lat="48.563450" lon="-3.738280">
						<ele>89</ele>
						<time>2026-09-01T09:47:52Z</time>
					</trkpt>
					<trkpt lat="48.563440" lon="-3.737760">
						<ele>87</ele>
						<time>2026-09-01T09:48:09Z</time>
					</trkpt>
					<trkpt lat="48.563560" lon="-3.737200">
						<ele>87</ele>
						<time>2026-09-01T09:48:29Z</time>
					</trkpt>
					<trkpt lat="48.563780" lon="-3.736980">
						<ele>89</ele>
						<time>2026-09-01T09:48:42Z</time>
					</trkpt>
					<trkpt lat="48.563920" lon="-3.736740">
						<ele>90</ele>
						<time>2026-09-01T09:48:52Z</time>
					</trkpt>
					<trkpt lat="48.564360" lon="-3.735570">
						<ele>93</ele>
						<time>2026-09-01T09:49:37Z</time>
					</trkpt>
					<trkpt lat="48.564420" lon="-3.735050">
						<ele>97</ele>
						<time>2026-09-01T09:49:54Z</time>
					</trkpt>
					<trkpt lat="48.564320" lon="-3.734570">
						<ele>104</ele>
						<time>2026-09-01T09:50:11Z</time>
					</trkpt>
					<trkpt lat="48.564520" lon="-3.734540">
						<ele>106</ele>
						<time>2026-09-01T09:50:21Z</time>
					</trkpt>
					<trkpt lat="48.565210" lon="-3.734160">
						<ele>115</ele>
						<time>2026-09-01T09:50:58Z</time>
					</trkpt>
					<trkpt lat="48.565620" lon="-3.733810">
						<ele>119</ele>
						<time>2026-09-01T09:51:22Z</time>
					</trkpt>
					<trkpt lat="48.566550" lon="-3.732830">
						<ele>124</ele>
						<time>2026-09-01T09:52:18Z</time>
					</trkpt>
					<trkpt lat="48.567080" lon="-3.732380">
						<ele>126</ele>
						<time>2026-09-01T09:52:49Z</time>
					</trkpt>
					<trkpt lat="48.566840" lon="-3.732070">
						<ele>127</ele>
						<time>2026-09-01T09:53:04Z</time>
					</trkpt>
					<trkpt lat="48.566540" lon="-3.731140">
						<ele>129</ele>
						<time>2026-09-01T09:53:39Z</time>
					</trkpt>
					<trkpt lat="48.566230" lon="-3.730520">
						<ele>130</ele>
						<time>2026-09-01T09:54:04Z</time>
					</trkpt>
					<trkpt lat="48.566060" lon="-3.730260">
						<ele>131</ele>
						<time>2026-09-01T09:54:17Z</time>
					</trkpt>
					<trkpt lat="48.565650" lon="-3.729750">
						<ele>132</ele>
						<time>2026-09-01T09:54:43Z</time>
					</trkpt>
					<trkpt lat="48.565400" lon="-3.729370">
						<ele>132</ele>
						<time>2026-09-01T09:55:01Z</time>
					</trkpt>
					<trkpt lat="48.565120" lon="-3.729110">
						<ele>131</ele>
						<time>2026-09-01T09:55:17Z</time>
					</trkpt>
					<trkpt lat="48.564790" lon="-3.728710">
						<ele>131</ele>
						<time>2026-09-01T09:55:39Z</time>
					</trkpt>
					<trkpt lat="48.564620" lon="-3.728570">
						<ele>131</ele>
						<time>2026-09-01T09:55:48Z</time>
					</trkpt>
					<trkpt lat="48.564080" lon="-3.727940">
						<ele>132</ele>
						<time>2026-09-01T09:56:22Z</time>
					</trkpt>
					<trkpt lat="48.563940" lon="-3.727830">
						<ele>132</ele>
						<time>2026-09-01T09:56:30Z</time>
					</trkpt>
					<trkpt lat="48.563720" lon="-3.727710">
						<ele>131</ele>
						<time>2026-09-01T09:56:42Z</time>
					</trkpt>
					<trkpt lat="48.563610" lon="-3.727560">
						<ele>131</ele>
						<time>2026-09-01T09:56:49Z</time>
					</trkpt>
					<trkpt lat="48.563560" lon="-3.727570">
						<ele>131</ele>
						<time>2026-09-01T09:56:52Z</time>
					</trkpt>
					<trkpt lat="48.563410" lon="-3.727440">
						<ele>131</ele>
						<time>2026-09-01T09:57:01Z</time>
					</trkpt>
					<trkpt lat="48.563390" lon="-3.727370">
						<ele>131</ele>
						<time>2026-09-01T09:57:03Z</time>
					</trkpt>
					<trkpt lat="48.563080" lon="-3.727040">
						<ele>129</ele>
						<time>2026-09-01T09:57:22Z</time>
					</trkpt>
					<trkpt lat="48.562990" lon="-3.726910">
						<ele>129</ele>
						<time>2026-09-01T09:57:28Z</time>
					</trkpt>
					<trkpt lat="48.562880" lon="-3.726840">
						<ele>128</ele>
						<time>2026-09-01T09:57:34Z</time>
					</trkpt>
					<trkpt lat="48.562800" lon="-3.726830">
						<ele>128</ele>
						<time>2026-09-01T09:57:38Z</time>
					</trkpt>
					<trkpt lat="48.562700" lon="-3.726720">
						<ele>127</ele>
						<time>2026-09-01T09:57:44Z</time>
					</trkpt>
					<trkpt lat="48.562540" lon="-3.726640">
						<ele>126</ele>
						<time>2026-09-01T09:57:53Z</time>
					</trkpt>
					<trkpt lat="48.562400" lon="-3.726530">
						<ele>126</ele>
						<time>2026-09-01T09:58:01Z</time>
					</trkpt>
					<trkpt lat="48.562310" lon="-3.726510">
						<ele>125</ele>
						<time>2026-09-01T09:58:05Z</time>
					</trkpt>
					<trkpt lat="48.561940" lon="-3.726180">
						<ele>125</ele>
						<time>2026-09-01T09:58:27Z</time>
					</trkpt>
					<trkpt lat="48.561800" lon="-3.726020">
						<ele>126</ele>
						<time>2026-09-01T09:58:36Z</time>
					</trkpt>
					<trkpt lat="48.561520" lon="-3.725420">
						<ele>125</ele>
						<time>2026-09-01T09:59:00Z</time>
					</trkpt>
					<trkpt lat="48.561270" lon="-3.724800">
						<ele>122</ele>
						<time>2026-09-01T09:59:24Z</time>
					</trkpt>
					<trkpt lat="48.560450" lon="-3.722350">
						<ele>117</ele>
						<time>2026-09-01T10:00:55Z</time>
					</trkpt>
					<trkpt lat="48.560100" lon="-3.720940">
						<ele>110</ele>
						<time>2026-09-01T10:01:45Z</time>
					</trkpt>
					<trkpt lat="48.559940" lon="-3.720720">
						<ele>106</ele>
						<time>2026-09-01T10:01:56Z</time>
					</trkpt>
					<trkpt lat="48.560070" lon="-3.720300">
						<ele>107</ele>
						<time>2026-09-01T10:02:11Z</time>
					</trkpt>
					<trkpt lat="48.560040" lon="-3.720410">
						<ele>107</ele>
						<time>2026-09-01T10:02:15Z</time>
					</trkpt>
					<trkpt lat="48.559980" lon="-3.720140">
						<ele>105</ele>
						<time>2026-09-01T10:02:24Z</time>
					</trkpt>
					<trkpt lat="48.559960" lon="-3.719330">
						<ele>106</ele>
						<time>2026-09-01T10:02:51Z</time>
					</trkpt>
					<trkpt lat="48.559860" lon="-3.719160">
						<ele>107</ele>
						<time>2026-09-01T10:02:59Z</time>
					</trkpt>
					<trkpt lat="48.559790" lon="-3.719110">
						<ele>108</ele>
						<time>2026-09-01T10:03:03Z</time>
					</trkpt>
					<trkpt lat="48.559640" lon="-3.719060">
						<ele>109</ele>
						<time>2026-09-01T10:03:10Z</time>
					</trkpt>
					<trkpt lat="48.559130" lon="-3.719100">
						<ele>113</ele>
						<time>2026-09-01T10:03:36Z</time>
					</trkpt>
					<trkpt lat="48.559010" lon="-3.719090">
						<ele>112</ele>
						<time>2026-09-01T10:03:42Z</time>
					</trkpt>
					<trkpt lat="48.558760" lon="-3.718930">
						<ele>113</ele>
						<time>2026-09-01T10:03:55Z</time>
					</trkpt>
					<trkpt lat="48.558550" lon="-3.718720">
						<ele>114</ele>
						<time>2026-09-01T10:04:08Z</time>
					</trkpt>
					<trkpt lat="48.558280" lon="-3.718230">
						<ele>115</ele>
						<time>2026-09-01T10:04:29Z</time>
					</trkpt>
					<trkpt lat="48.558130" lon="-3.718010">
						<ele>115</ele>
						<time>2026-09-01T10:04:40Z</time>
					</trkpt>
					<trkpt lat="48.557910" lon="-3.717750">
						<ele>116</ele>
						<time>2026-09-01T10:04:54Z</time>
					</trkpt>
					<trkpt lat="48.557870" lon="-3.717650">
						<ele>116</ele>
						<time>2026-09-01T10:04:57Z</time>
					</trkpt>
					<trkpt lat="48.557930" lon="-3.717610">
						<ele>116</ele>
						<time>2026-09-01T10:05:01Z</time>
					</trkpt>
					<trkpt lat="48.557420" lon="-3.717850">
						<ele>114</ele>
						<time>2026-09-01T10:05:27Z</time>
					</trkpt>
					<trkpt lat="48.557100" lon="-3.717880">
						<ele>114</ele>
						<time>2026-09-01T10:05:44Z</time>
					</trkpt>
					<trkpt lat="48.555620" lon="-3.717610">
						<ele>117</ele>
						<time>2026-09-01T10:06:58Z</time>
					</trkpt>
					<trkpt lat="48.555060" lon="-3.717480">
						<ele>118</ele>
						<time>2026-09-01T10:07:26Z</time>
					</trkpt>
					<trkpt lat="48.554220" lon="-3.717650">
						<ele>115</ele>
						<time>2026-09-01T10:08:09Z</time>
					</trkpt>
					<trkpt lat="48.554050" lon="-3.717710">
						<ele>114</ele>
						<time>2026-09-01T10:08:18Z</time>
					</trkpt>
					<trkpt lat="48.553910" lon="-3.717510">
						<ele>113</ele>
						<time>2026-09-01T10:08:27Z</time>
					</trkpt>
					<trkpt lat="48.553740" lon="-3.717380">
						<ele>111</ele>
						<time>2026-09-01T10:08:37Z</time>
					</trkpt>
					<trkpt lat="48.553690" lon="-3.717310">
						<ele>110</ele>
						<time>2026-09-01T10:08:40Z</time>
					</trkpt>
					<trkpt lat="48.553150" lon="-3.716160">
						<ele>101</ele>
						<time>2026-09-01T10:09:27Z</time>
					</trkpt>
					<trkpt lat="48.553000" lon="-3.716050">
						<ele>100</ele>
						<time>2026-09-01T10:09:35Z</time>
					</trkpt>
					<trkpt lat="48.552630" lon="-3.715910">
						<ele>98</ele>
						<time>2026-09-01T10:09:54Z</time>
					</trkpt>
					<trkpt lat="48.552190" lon="-3.715610">
						<ele>99</ele>
						<time>2026-09-01T10:10:18Z</time>
					</trkpt>
					<trkpt lat="48.552010" lon="-3.715450">
						<ele>100</ele>
						<time>2026-09-01T10:10:29Z</time>
					</trkpt>
					<trkpt lat="48.551110" lon="-3.714510">
						<ele>108</ele>
						<time>2026-09-01T10:11:24Z</time>
					</trkpt>
					<trkpt lat="48.551190" lon="-3.713990">
						<ele>114</ele>
						<time>2026-09-01T10:11:41Z</time>
					</trkpt>
					<trkpt lat="48.551140" lon="-3.713810">
						<ele>116</ele>
						<time>2026-09-01T10:11:48Z</time>
					</trkpt>
					<trkpt lat="48.550880" lon="-3.713410">
						<ele>120</ele>
						<time>2026-09-01T10:12:06Z</time>
					</trkpt>
					<trkpt lat="48.550600" lon="-3.712880">
						<ele>122</ele>
						<time>2026-09-01T10:12:29Z</time>
					</trkpt>
					<trkpt lat="48.550590" lon="-3.712610">
						<ele>124</ele>
						<time>2026-09-01T10:12:38Z</time>
					</trkpt>
					<trkpt lat="48.550710" lon="-3.712240">
						<ele>126</ele>
						<time>2026-09-01T10:12:51Z</time>
					</trkpt>
					<trkpt lat="48.550370" lon="-3.711410">
						<ele>126</ele>
						<time>2026-09-01T10:13:24Z</time>
					</trkpt>
					<trkpt lat="48.550300" lon="-3.711080">
						<ele>127</ele>
						<time>2026-09-01T10:13:35Z</time>
					</trkpt>
					<trkpt lat="48.550290" lon="-3.710770">
						<ele>127</ele>
						<time>2026-09-01T10:13:46Z</time>
					</trkpt>
					<trkpt lat="48.550380" lon="-3.710380">
						<ele>129</ele>
						<time>2026-09-01T10:13:59Z</time>
					</trkpt>
					<trkpt lat="48.551650" lon="-3.707430">
						<ele>137</ele>
						<time>2026-09-01T10:15:56Z</time>
					</trkpt>
					<trkpt lat="48.551910" lon="-3.706770">
						<ele>139</ele>
						<time>2026-09-01T10:16:21Z</time>
					</trkpt>
					<trkpt lat="48.552410" lon="-3.705670">
						<ele>139</ele>
						<time>2026-09-01T10:17:05Z</time>
					</trkpt>
					<trkpt lat="48.552650" lon="-3.705290">
						<ele>140</ele>
						<time>2026-09-01T10:17:23Z</time>
					</trkpt>
					<trkpt lat="48.552820" lon="-3.704910">
						<ele>141</ele>
						<time>2026-09-01T10:17:38Z</time>
					</trkpt>
					<trkpt lat="48.552730" lon="-3.704210">
						<ele>144</ele>
						<time>2026-09-01T10:18:02Z</time>
					</trkpt>
					<trkpt lat="48.553040" lon="-3.703220">
						<ele>147</ele>
						<time>2026-09-01T10:18:38Z</time>
					</trkpt>
					<trkpt lat="48.553060" lon="-3.702080">
						<ele>152</ele>
						<time>2026-09-01T10:19:16Z</time>
					</trkpt>
					<trkpt lat="48.553140" lon="-3.701620">
						<ele>153</ele>
						<time>2026-09-01T10:19:32Z</time>
					</trkpt>
					<trkpt lat="48.553580" lon="-3.699830">
						<ele>157</ele>
						<time>2026-09-01T10:20:35Z</time>
					</trkpt>
					<trkpt lat="48.553570" lon="-3.699680">
						<ele>156</ele>
						<time>2026-09-01T10:20:40Z</time>
					</trkpt>
					<trkpt lat="48.552370" lon="-3.698940">
						<ele>150</ele>
						<time>2026-09-01T10:21:45Z</time>
					</trkpt>
					<trkpt lat="48.552150" lon="-3.698830">
						<ele>150</ele>
						<time>2026-09-01T10:21:56Z</time>
					</trkpt>
					<trkpt lat="48.552000" lon="-3.698820">
						<ele>150</ele>
						<time>2026-09-01T10:22:04Z</time>
					</trkpt>
					<trkpt lat="48.551870" lon="-3.698840">
						<ele>151</ele>
						<time>2026-09-01T10:22:10Z</time>
					</trkpt>
					<trkpt lat="48.548560" lon="-3.701190">
						<ele>142</ele>
						<time>2026-09-01T10:25:13Z</time>
					</trkpt>
					<trkpt lat="48.548280" lon="-3.701360">
						<ele>142</ele>
						<time>2026-09-01T10:25:28Z</time>
					</trkpt>
					<trkpt lat="48.548240" lon="-3.701350">
						<ele>142</ele>
						<time>2026-09-01T10:25:30Z</time>
					</trkpt>
					<trkpt lat="48.548090" lon="-3.701220">
						<ele>143</ele>
						<time>2026-09-01T10:25:39Z</time>
					</trkpt>
					<trkpt lat="48.547720" lon="-3.700760">
						<ele>144</ele>
						<time>2026-09-01T10:26:03Z</time>
					</trkpt>
					<trkpt lat="48.547160" lon="-3.700150">
						<ele>144</ele>
						<time>2026-09-01T10:26:38Z</time>
					</trkpt>
					<trkpt lat="48.546780" lon="-3.699950">
						<ele>145</ele>
						<time>2026-09-01T10:26:58Z</time>
					</trkpt>
					<trkpt lat="48.545640" lon="-3.699690">
						<ele>147</ele>
						<time>2026-09-01T10:27:55Z</time>
					</trkpt>
					<trkpt lat="48.545100" lon="-3.699610">
						<ele>149</ele>
						<time>2026-09-01T10:28:23Z</time>
					</trkpt>
					<trkpt lat="48.545030" lon="-3.699960">
						<ele>148</ele>
						<time>2026-09-01T10:28:35Z</time>
					</trkpt>
					<trkpt lat="48.544170" lon="-3.699590">
						<ele>150</ele>
						<time>2026-09-01T10:29:19Z</time>
					</trkpt>
					<trkpt lat="48.544050" lon="-3.699430">
						<ele>150</ele>
						<time>2026-09-01T10:29:27Z</time>
					</trkpt>
					<trkpt lat="48.543870" lon="-3.699460">
						<ele>149</ele>
						<time>2026-09-01T10:29:37Z</time>
					</trkpt>
					<trkpt lat="48.543640" lon="-3.699440">
						<ele>148</ele>
						<time>2026-09-01T10:29:48Z</time>
					</trkpt>
					<trkpt lat="48.542340" lon="-3.699170">
						<ele>141</ele>
						<time>2026-09-01T10:30:54Z</time>
					</trkpt>
					<trkpt lat="48.541900" lon="-3.699130">
						<ele>142</ele>
						<time>2026-09-01T10:31:16Z</time>
					</trkpt>
					<trkpt lat="48.541870" lon="-3.698830">
						<ele>142</ele>
						<time>2026-09-01T10:31:26Z</time>
					</trkpt>
					<trkpt lat="48.541800" lon="-3.698470">
						<ele>143</ele>
						<time>2026-09-01T10:31:38Z</time>
					</trkpt>
					<trkpt lat="48.541640" lon="-3.697940">
						<ele>142</ele>
						<time>2026-09-01T10:31:58Z</time>
					</trkpt>
					<trkpt lat="48.541530" lon="-3.697760">
						<ele>142</ele>
						<time>2026-09-01T10:32:06Z</time>
					</trkpt>
					<trkpt lat="48.541380" lon="-3.697650">
						<ele>142</ele>
						<time>2026-09-01T10:32:14Z</time>
					</trkpt>
					<trkpt lat="48.540500" lon="-3.697430">
						<ele>142</ele>
						<time>2026-09-01T10:32:59Z</time>
					</trkpt>
					<trkpt lat="48.540310" lon="-3.697350">
						<ele>142</ele>
						<time>2026-09-01T10:33:09Z</time>
					</trkpt>
					<trkpt lat="48.540190" lon="-3.697230">
						<ele>142</ele>
						<time>2026-09-01T10:33:16Z</time>
					</trkpt>
					<trkpt lat="48.540130" lon="-3.697010">
						<ele>142</ele>
						<time>2026-09-01T10:33:24Z</time>
					</trkpt>
					<trkpt lat="48.540110" lon="-3.696590">
						<ele>142</ele>
						<time>2026-09-01T10:33:38Z</time>
					</trkpt>
					<trkpt lat="48.540150" lon="-3.696190">
						<ele>143</ele>
						<time>2026-09-01T10:33:51Z</time>
					</trkpt>
					<trkpt lat="48.540370" lon="-3.694890">
						<ele>144</ele>
						<time>2026-09-01T10:34:35Z</time>
					</trkpt>
					<trkpt lat="48.540370" lon="-3.694360">
						<ele>143</ele>
						<time>2026-09-01T10:34:53Z</time>
					</trkpt>
					<trkpt lat="48.540340" lon="-3.694080">
						<ele>142</ele>
						<time>2026-09-01T10:35:02Z</time>
					</trkpt>
					<trkpt lat="48.539550" lon="-3.694650">
						<ele>139</ele>
						<time>2026-09-01T10:35:46Z</time>
					</trkpt>
					<trkpt lat="48.539380" lon="-3.694800">
						<ele>139</ele>
						<time>2026-09-01T10:35:56Z</time>
					</trkpt>
					<trkpt lat="48.539100" lon="-3.695130">
						<ele>137</ele>
						<time>2026-09-01T10:36:14Z</time>
					</trkpt>
					<trkpt lat="48.538680" lon="-3.695690">
						<ele>133</ele>
						<time>2026-09-01T10:36:42Z</time>
					</trkpt>
					<trkpt lat="48.538600" lon="-3.695840">
						<ele>132</ele>
						<time>2026-09-01T10:36:48Z</time>
					</trkpt>
					<trkpt lat="48.538310" lon="-3.696590">
						<ele>128</ele>
						<time>2026-09-01T10:37:17Z</time>
					</trkpt>
					<trkpt lat="48.538210" lon="-3.696600">
						<ele>128</ele>
						<time>2026-09-01T10:37:22Z</time>
					</trkpt>
					<trkpt lat="48.538130" lon="-3.696580">
						<ele>127</ele>
						<time>2026-09-01T10:37:26Z</time>
					</trkpt>
					<trkpt lat="48.538040" lon="-3.696530">
						<ele>127</ele>
						<time>2026-09-01T10:37:31Z</time>
					</trkpt>
					<trkpt lat="48.537950" lon="-3.696440">
						<ele>127</ele>
						<time>2026-09-01T10:37:36Z</time>
					</trkpt>
					<trkpt lat="48.537860" lon="-3.696310">
						<ele>127</ele>
						<time>2026-09-01T10:37:43Z</time>
					</trkpt>
					<trkpt lat="48.537740" lon="-3.695980">
						<ele>127</ele>
						<time>2026-09-01T10:37:55Z</time>
					</trkpt>
					<trkpt lat="48.537610" lon="-3.695730">
						<ele>127</ele>
						<time>2026-09-01T10:38:06Z</time>
					</trkpt>
					<trkpt lat="48.537500" lon="-3.695650">
						<ele>127</ele>
						<time>2026-09-01T10:38:12Z</time>
					</trkpt>
					<trkpt lat="48.537390" lon="-3.695620">
						<ele>127</ele>
						<time>2026-09-01T10:38:17Z</time>
					</trkpt>
					<trkpt lat="48.537150" lon="-3.695640">
						<ele>126</ele>
						<time>2026-09-01T10:38:29Z</time>
					</trkpt>
					<trkpt lat="48.537070" lon="-3.695690">
						<ele>126</ele>
						<time>2026-09-01T10:38:34Z</time>
					</trkpt>
					<trkpt lat="48.536920" lon="-3.695720">
						<ele>125</ele>
						<time>2026-09-01T10:38:41Z</time>
					</trkpt>
					<trkpt lat="48.536850" lon="-3.695700">
						<ele>125</ele>
						<time>2026-09-01T10:38:45Z</time>
					</trkpt>
					<trkpt lat="48.536690" lon="-3.695560">
						<ele>126</ele>
						<time>2026-09-01T10:38:54Z</time>
					</trkpt>
					<trkpt lat="48.536390" lon="-3.695470">
						<ele>127</ele>
						<time>2026-09-01T10:39:09Z</time>
					</trkpt>
					<trkpt lat="48.536040" lon="-3.695470">
						<ele>127</ele>
						<time>2026-09-01T10:39:27Z</time>
					</trkpt>
					<trkpt lat="48.535500" lon="-3.695520">
						<ele>128</ele>
						<time>2026-09-01T10:39:54Z</time>
					</trkpt>
					<trkpt lat="48.535150" lon="-3.695370">
						<ele>133</ele>
						<time>2026-09-01T10:40:12Z</time>
					</trkpt>
					<trkpt lat="48.535050" lon="-3.695220">
						<ele>135</ele>
						<time>2026-09-01T10:40:19Z</time>
					</trkpt>
					<trkpt lat="48.535020" lon="-3.695100">
						<ele>137</ele>
						<time>2026-09-01T10:40:23Z</time>
					</trkpt>
					<trkpt lat="48.534940" lon="-3.694310">
						<ele>140</ele>
						<time>2026-09-01T10:40:50Z</time>
					</trkpt>
					<trkpt lat="48.534850" lon="-3.694070">
						<ele>141</ele>
						<time>2026-09-01T10:40:59Z</time>
					</trkpt>
					<trkpt lat="48.533920" lon="-3.693350">
						<ele>142</ele>
						<time>2026-09-01T10:41:51Z</time>
					</trkpt>
					<trkpt lat="48.533420" lon="-3.693240">
						<ele>140</ele>
						<time>2026-09-01T10:42:17Z</time>
					</trkpt>
					<trkpt lat="48.533150" lon="-3.693220">
						<ele>139</ele>
						<time>2026-09-01T10:42:30Z</time>
					</trkpt>
					<trkpt lat="48.533060" lon="-3.693160">
						<ele>138</ele>
						<time>2026-09-01T10:42:35Z</time>
					</trkpt>
					<trkpt lat="48.532920" lon="-3.693000">
						<ele>138</ele>
						<time>2026-09-01T10:42:44Z</time>
					</trkpt>
					<trkpt lat="48.532800" lon="-3.692700">
						<ele>140</ele>
						<time>2026-09-01T10:42:55Z</time>
					</trkpt>
					<trkpt lat="48.532740" lon="-3.692420">
						<ele>140</ele>
						<time>2026-09-01T10:43:05Z</time>
					</trkpt>
					<trkpt lat="48.532600" lon="-3.691480">
						<ele>142</ele>
						<time>2026-09-01T10:43:37Z</time>
					</trkpt>
					<trkpt lat="48.532540" lon="-3.691220">
						<ele>142</ele>
						<time>2026-09-01T10:43:46Z</time>
					</trkpt>
					<trkpt lat="48.532490" lon="-3.691060">
						<ele>142</ele>
						<time>2026-09-01T10:43:52Z</time>
					</trkpt>
					<trkpt lat="48.532330" lon="-3.690830">
						<ele>142</ele>
						<time>2026-09-01T10:44:03Z</time>
					</trkpt>
					<trkpt lat="48.532210" lon="-3.690710">
						<ele>142</ele>
						<time>2026-09-01T10:44:10Z</time>
					</trkpt>
					<trkpt lat="48.532040" lon="-3.690620">
						<ele>141</ele>
						<time>2026-09-01T10:44:19Z</time>
					</trkpt>
					<trkpt lat="48.531780" lon="-3.690570">
						<ele>140</ele>
						<time>2026-09-01T10:44:32Z</time>
					</trkpt>
					<trkpt lat="48.531760" lon="-3.690770">
						<ele>140</ele>
						<time>2026-09-01T10:44:39Z</time>
					</trkpt>
					<trkpt lat="48.531770" lon="-3.690970">
						<ele>140</ele>
						<time>2026-09-01T10:44:46Z</time>
					</trkpt>
					<trkpt lat="48.531820" lon="-3.691230">
						<ele>141</ele>
						<time>2026-09-01T10:44:55Z</time>
					</trkpt>
					<trkpt lat="48.531830" lon="-3.691470">
						<ele>141</ele>
						<time>2026-09-01T10:45:03Z</time>
					</trkpt>
					<trkpt lat="48.531810" lon="-3.691590">
						<ele>141</ele>
						<time>2026-09-01T10:45:07Z</time>
					</trkpt>
					<trkpt lat="48.531680" lon="-3.691600">
						<ele>141</ele>
						<time>2026-09-01T10:45:13Z</time>
					</trkpt>
					<trkpt lat="48.531510" lon="-3.691530">
						<ele>141</ele>
						<time>2026-09-01T10:45:22Z</time>
					</trkpt>
					<trkpt lat="48.531290" lon="-3.691380">
						<ele>141</ele>
						<time>2026-09-01T10:45:34Z</time>
					</trkpt>
					<trkpt lat="48.531110" lon="-3.691220">
						<ele>141</ele>
						<time>2026-09-01T10:45:45Z</time>
					</trkpt>
					<trkpt lat="48.531050" lon="-3.690990">
						<ele>141</ele>
						<time>2026-09-01T10:45:53Z</time>
					</trkpt>
					<trkpt lat="48.530980" lon="-3.690890">
						<ele>141</ele>
						<time>2026-09-01T10:45:58Z</time>
					</trkpt>
					<trkpt lat="48.529900" lon="-3.689640">
						<ele>140</ele>
						<time>2026-09-01T10:47:06Z</time>
					</trkpt>
					<trkpt lat="48.530180" lon="-3.688090">
						<ele>141</ele>
						<time>2026-09-01T10:47:59Z</time>
					</trkpt>
					<trkpt lat="48.530180" lon="-3.687840">
						<ele>142</ele>
						<time>2026-09-01T10:48:07Z</time>
					</trkpt>
					<trkpt lat="48.530120" lon="-3.687670">
						<ele>143</ele>
						<time>2026-09-01T10:48:14Z</time>
					</trkpt>
					<trkpt lat="48.529990" lon="-3.687500">
						<ele>143</ele>
						<time>2026-09-01T10:48:22Z</time>
					</trkpt>
					<trkpt lat="48.529620" lon="-3.687230">
						<ele>144</ele>
						<time>2026-09-01T10:48:43Z</time>
					</trkpt>
					<trkpt lat="48.529460" lon="-3.687080">
						<ele>145</ele>
						<time>2026-09-01T10:48:52Z</time>
					</trkpt>
					<trkpt lat="48.529330" lon="-3.686880">
						<ele>146</ele>
						<time>2026-09-01T10:49:02Z</time>
					</trkpt>
					<trkpt lat="48.529300" lon="-3.686750">
						<ele>146</ele>
						<time>2026-09-01T10:49:06Z</time>
					</trkpt>
					<trkpt lat="48.529230" lon="-3.685860">
						<ele>151</ele>
						<time>2026-09-01T10:49:36Z</time>
					</trkpt>
					<trkpt lat="48.529240" lon="-3.685100">
						<ele>152</ele>
						<time>2026-09-01T10:50:01Z</time>
					</trkpt>
					<trkpt lat="48.529280" lon="-3.684770">
						<ele>153</ele>
						<time>2026-09-01T10:50:12Z</time>
					</trkpt>
					<trkpt lat="48.529270" lon="-3.684350">
						<ele>154</ele>
						<time>2026-09-01T10:50:26Z</time>
					</trkpt>
					<trkpt lat="48.529130" lon="-3.683020">
						<ele>156</ele>
						<time>2026-09-01T10:51:11Z</time>
					</trkpt>
					<trkpt lat="48.529020" lon="-3.682290">
						<ele>157</ele>
						<time>2026-09-01T10:51:36Z</time>
					</trkpt>
					<trkpt lat="48.529030" lon="-3.681450">
						<ele>158</ele>
						<time>2026-09-01T10:52:03Z</time>
					</trkpt>
					<trkpt lat="48.529060" lon="-3.681040">
						<ele>158</ele>
						<time>2026-09-01T10:52:17Z</time>
					</trkpt>
					<trkpt lat="48.528920" lon="-3.680940">
						<ele>159</ele>
						<time>2026-09-01T10:52:25Z</time>
					</trkpt>
					<trkpt lat="48.528420" lon="-3.680670">
						<ele>162</ele>
						<time>2026-09-01T10:52:51Z</time>
					</trkpt>
					<trkpt lat="48.528260" lon="-3.680620">
						<ele>162</ele>
						<time>2026-09-01T10:53:00Z</time>
					</trkpt>
					<trkpt lat="48.527810" lon="-3.679970">
						<ele>164</ele>
						<time>2026-09-01T10:53:31Z</time>
					</trkpt>
					<trkpt lat="48.527570" lon="-3.679700">
						<ele>164</ele>
						<time>2026-09-01T10:53:46Z</time>
					</trkpt>
					<trkpt lat="48.527530" lon="-3.679570">
						<ele>164</ele>
						<time>2026-09-01T10:53:50Z</time>
					</trkpt>
					<trkpt lat="48.527520" lon="-3.679190">
						<ele>164</ele>
						<time>2026-09-01T10:54:03Z</time>
					</trkpt>
					<trkpt lat="48.527490" lon="-3.679050">
						<ele>164</ele>
						<time>2026-09-01T10:54:08Z</time>
					</trkpt>
					<trkpt lat="48.527360" lon="-3.678780">
						<ele>165</ele>
						<time>2026-09-01T10:54:19Z</time>
					</trkpt>
					<trkpt lat="48.527310" lon="-3.678600">
						<ele>165</ele>
						<time>2026-09-01T10:54:25Z</time>
					</trkpt>
					<trkpt lat="48.527290" lon="-3.678770">
						<ele>165</ele>
						<time>2026-09-01T10:54:31Z</time>
					</trkpt>
					<trkpt lat="48.527250" lon="-3.678780">
						<ele>165</ele>
						<time>2026-09-01T10:54:33Z</time>
					</trkpt>
					<trkpt lat="48.526980" lon="-3.678510">
						<ele>167</ele>
						<time>2026-09-01T10:54:49Z</time>
					</trkpt>
					<trkpt lat="48.526390" lon="-3.677730">
						<ele>171</ele>
						<time>2026-09-01T10:55:29Z</time>
					</trkpt>
					<trkpt lat="48.526160" lon="-3.677300">
						<ele>173</ele>
						<time>2026-09-01T10:55:47Z</time>
					</trkpt>
					<trkpt lat="48.526130" lon="-3.677150">
						<ele>174</ele>
						<time>2026-09-01T10:55:52Z</time>
					</trkpt>
					<trkpt lat="48.525960" lon="-3.676680">
						<ele>178</ele>
						<time>2026-09-01T10:56:10Z</time>
					</trkpt>
					<trkpt lat="48.525490" lon="-3.675950">
						<ele>179</ele>
						<time>2026-09-01T10:56:44Z</time>
					</trkpt>
					<trkpt lat="48.525210" lon="-3.675670">
						<ele>181</ele>
						<time>2026-09-01T10:57:01Z</time>
					</trkpt>
					<trkpt lat="48.524880" lon="-3.675410">
						<ele>182</ele>
						<time>2026-09-01T10:57:19Z</time>
					</trkpt>
					<trkpt lat="48.524560" lon="-3.675110">
						<ele>182</ele>
						<time>2026-09-01T10:57:38Z</time>
					</trkpt>
					<trkpt lat="48.523920" lon="-3.674420">
						<ele>184</ele>
						<time>2026-09-01T10:58:17Z</time>
					</trkpt>
					<trkpt lat="48.523650" lon="-3.674080">
						<ele>185</ele>
						<time>2026-09-01T10:58:35Z</time>
					</trkpt>
					<trkpt lat="48.523210" lon="-3.673750">
						<ele>186</ele>
						<time>2026-09-01T10:59:00Z</time>
					</trkpt>
					<trkpt lat="48.522930" lon="-3.673470">
						<ele>186</ele>
						<time>2026-09-01T10:59:16Z</time>
					</trkpt>
					<trkpt lat="48.522720" lon="-3.673220">
						<ele>186</ele>
						<time>2026-09-01T10:59:30Z</time>
					</trkpt>
					<trkpt lat="48.522540" lon="-3.673090">
						<ele>186</ele>
						<time>2026-09-01T10:59:40Z</time>
					</trkpt>
					<trkpt lat="48.522170" lon="-3.672890">
						<ele>188</ele>
						<time>2026-09-01T10:59:59Z</time>
					</trkpt>
					<trkpt lat="48.522020" lon="-3.672850">
						<ele>188</ele>
						<time>2026-09-01T11:00:07Z</time>
					</trkpt>
					<trkpt lat="48.520990" lon="-3.672330">
						<ele>191</ele>
						<time>2026-09-01T11:01:01Z</time>
					</trkpt>
					<trkpt lat="48.520750" lon="-3.672230">
						<ele>191</ele>
						<time>2026-09-01T11:01:14Z</time>
					</trkpt>
					<trkpt lat="48.520410" lon="-3.672020">
						<ele>190</ele>
						<time>2026-09-01T11:01:32Z</time>
					</trkpt>
					<trkpt lat="48.520150" lon="-3.671750">
						<ele>189</ele>
						<time>2026-09-01T11:01:48Z</time>
					</trkpt>
					<trkpt lat="48.520060" lon="-3.671540">
						<ele>189</ele>
						<time>2026-09-01T11:01:56Z</time>
					</trkpt>
					<trkpt lat="48.520060" lon="-3.671400">
						<ele>189</ele>
						<time>2026-09-01T11:02:01Z</time>
					</trkpt>
					<trkpt lat="48.519940" lon="-3.671090">
						<ele>188</ele>
						<time>2026-09-01T11:02:13Z</time>
					</trkpt>
					<trkpt lat="48.519830" lon="-3.670920">
						<ele>187</ele>
						<time>2026-09-01T11:02:21Z</time>
					</trkpt>
					<trkpt lat="48.519660" lon="-3.670530">
						<ele>186</ele>
						<time>2026-09-01T11:02:36Z</time>
					</trkpt>
					<trkpt lat="48.519650" lon="-3.670360">
						<ele>185</ele>
						<time>2026-09-01T11:02:42Z</time>
					</trkpt>
					<trkpt lat="48.519770" lon="-3.669530">
						<ele>182</ele>
						<time>2026-09-01T11:03:10Z</time>
					</trkpt>
					<trkpt lat="48.519820" lon="-3.669340">
						<ele>181</ele>
						<time>2026-09-01T11:03:17Z</time>
					</trkpt>
					<trkpt lat="48.519970" lon="-3.668970">
						<ele>179</ele>
						<time>2026-09-01T11:03:31Z</time>
					</trkpt>
					<trkpt lat="48.520200" lon="-3.668210">
						<ele>177</ele>
						<time>2026-09-01T11:03:59Z</time>
					</trkpt>
					<trkpt lat="48.520280" lon="-3.668050">
						<ele>176</ele>
						<time>2026-09-01T11:04:05Z</time>
					</trkpt>
					<trkpt lat="48.520270" lon="-3.667810">
						<ele>175</ele>
						<time>2026-09-01T11:04:13Z</time>
					</trkpt>
					<trkpt lat="48.520360" lon="-3.666790">
						<ele>171</ele>
						<time>2026-09-01T11:04:48Z</time>
					</trkpt>
					<trkpt lat="48.520420" lon="-3.665760">
						<ele>167</ele>
						<time>2026-09-01T11:05:22Z</time>
					</trkpt>
					<trkpt lat="48.520270" lon="-3.665480">
						<ele>166</ele>
						<time>2026-09-01T11:05:34Z</time>
					</trkpt>
					<trkpt lat="48.520040" lon="-3.665210">
						<ele>165</ele>
						<time>2026-09-01T11:05:48Z</time>
					</trkpt>
					<trkpt lat="48.519990" lon="-3.664530">
						<ele>164</ele>
						<time>2026-09-01T11:06:11Z</time>
					</trkpt>
					<trkpt lat="48.519900" lon="-3.663950">
						<ele>163</ele>
						<time>2026-09-01T11:06:31Z</time>
					</trkpt>
					<trkpt lat="48.519620" lon="-3.663540">
						<ele>163</ele>
						<time>2026-09-01T11:06:50Z</time>
					</trkpt>
					<trkpt lat="48.519370" lon="-3.662800">
						<ele>164</ele>
						<time>2026-09-01T11:07:18Z</time>
					</trkpt>
					<trkpt lat="48.519220" lon="-3.662080">
						<ele>164</ele>
						<time>2026-09-01T11:07:43Z</time>
					</trkpt>
					<trkpt lat="48.519230" lon="-3.661150">
						<ele>159</ele>
						<time>2026-09-01T11:08:14Z</time>
					</trkpt>
					<trkpt lat="48.519320" lon="-3.660360">
						<ele>150</ele>
						<time>2026-09-01T11:08:40Z</time>
					</trkpt>
					<trkpt lat="48.519530" lon="-3.659850">
						<ele>145</ele>
						<time>2026-09-01T11:09:00Z</time>
					</trkpt>
					<trkpt lat="48.519860" lon="-3.659570">
						<ele>144</ele>
						<time>2026-09-01T11:09:19Z</time>
					</trkpt>
					<trkpt lat="48.520250" lon="-3.659080">
						<ele>142</ele>
						<time>2026-09-01T11:09:44Z</time>
					</trkpt>
					<trkpt lat="48.520630" lon="-3.658500">
						<ele>142</ele>
						<time>2026-09-01T11:10:12Z</time>
					</trkpt>
					<trkpt lat="48.520960" lon="-3.657450">
						<ele>141</ele>
						<time>2026-09-01T11:10:50Z</time>
					</trkpt>
					<trkpt lat="48.520770" lon="-3.656260">
						<ele>141</ele>
						<time>2026-09-01T11:11:31Z</time>
					</trkpt>
					<trkpt lat="48.520600" lon="-3.655510">
						<ele>140</ele>
						<time>2026-09-01T11:11:57Z</time>
					</trkpt>
					<trkpt lat="48.520420" lon="-3.654980">
						<ele>138</ele>
						<time>2026-09-01T11:12:17Z</time>
					</trkpt>
					<trkpt lat="48.520460" lon="-3.654510">
						<ele>137</ele>
						<time>2026-09-01T11:12:32Z</time>
					</trkpt>
					<trkpt lat="48.520730" lon="-3.654330">
						<ele>136</ele>
						<time>2026-09-01T11:12:47Z</time>
					</trkpt>
					<trkpt lat="48.521120" lon="-3.654180">
						<ele>135</ele>
						<time>2026-09-01T11:13:07Z</time>
					</trkpt>
					<trkpt lat="48.521380" lon="-3.654120">
						<ele>135</ele>
						<time>2026-09-01T11:13:20Z</time>
					</trkpt>
					<trkpt lat="48.521950" lon="-3.654120">
						<ele>133</ele>
						<time>2026-09-01T11:13:49Z</time>
					</trkpt>
					<trkpt lat="48.522170" lon="-3.654170">
						<ele>132</ele>
						<time>2026-09-01T11:14:00Z</time>
					</trkpt>
					<trkpt lat="48.522180" lon="-3.653910">
						<ele>131</ele>
						<time>2026-09-01T11:14:09Z</time>
					</trkpt>
					<trkpt lat="48.522270" lon="-3.653630">
						<ele>130</ele>
						<time>2026-09-01T11:14:19Z</time>
					</trkpt>
					<trkpt lat="48.522590" lon="-3.652900">
						<ele>129</ele>
						<time>2026-09-01T11:14:48Z</time>
					</trkpt>
					<trkpt lat="48.522770" lon="-3.652640">
						<ele>130</ele>
						<time>2026-09-01T11:15:00Z</time>
					</trkpt>
					<trkpt lat="48.522900" lon="-3.652510">
						<ele>130</ele>
						<time>2026-09-01T11:15:08Z</time>
					</trkpt>
					<trkpt lat="48.523450" lon="-3.652140">
						<ele>131</ele>
						<time>2026-09-01T11:15:38Z</time>
					</trkpt>
					<trkpt lat="48.523530" lon="-3.652030">
						<ele>131</ele>
						<time>2026-09-01T11:15:44Z</time>
					</trkpt>
					<trkpt lat="48.523750" lon="-3.651240">
						<ele>135</ele>
						<time>2026-09-01T11:16:12Z</time>
					</trkpt>
					<trkpt lat="48.523830" lon="-3.651090">
						<ele>135</ele>
						<time>2026-09-01T11:16:19Z</time>
					</trkpt>
					<trkpt lat="48.524050" lon="-3.650890">
						<ele>135</ele>
						<time>2026-09-01T11:16:31Z</time>
					</trkpt>
					<trkpt lat="48.525170" lon="-3.650400">
						<ele>150</ele>
						<time>2026-09-01T11:17:30Z</time>
					</trkpt>
					<trkpt lat="48.525350" lon="-3.650370">
						<ele>152</ele>
						<time>2026-09-01T11:17:39Z</time>
					</trkpt>
					<trkpt lat="48.525520" lon="-3.650390">
						<ele>154</ele>
						<time>2026-09-01T11:17:47Z</time>
					</trkpt>
					<trkpt lat="48.525770" lon="-3.650460">
						<ele>157</ele>
						<time>2026-09-01T11:18:00Z</time>
					</trkpt>
					<trkpt lat="48.526250" lon="-3.650630">
						<ele>160</ele>
						<time>2026-09-01T11:18:25Z</time>
					</trkpt>
					<trkpt lat="48.526550" lon="-3.650700">
						<ele>162</ele>
						<time>2026-09-01T11:18:40Z</time>
					</trkpt>
					<trkpt lat="48.527230" lon="-3.650940">
						<ele>164</ele>
						<time>2026-09-01T11:19:15Z</time>
					</trkpt>
					<trkpt lat="48.527900" lon="-3.651060">
						<ele>167</ele>
						<time>2026-09-01T11:19:49Z</time>
					</trkpt>
					<trkpt lat="48.527960" lon="-3.651090">
						<ele>167</ele>
						<time>2026-09-01T11:19:52Z</time>
					</trkpt>
					<trkpt lat="48.527900" lon="-3.651060">
						<ele>167</ele>
						<time>2026-09-01T11:19:55Z</time>
					</trkpt>
					<trkpt lat="48.527990" lon="-3.650960">
						<ele>167</ele>
						<time>2026-09-01T11:20:01Z</time>
					</trkpt>
					<trkpt lat="48.528040" lon="-3.650820">
						<ele>168</ele>
						<time>2026-09-01T11:20:06Z</time>
					</trkpt>
					<trkpt lat="48.527570" lon="-3.648830">
						<ele>175</ele>
						<time>2026-09-01T11:21:16Z</time>
					</trkpt>
					<trkpt lat="48.527440" lon="-3.648170">
						<ele>176</ele>
						<time>2026-09-01T11:21:39Z</time>
					</trkpt>
					<trkpt lat="48.527820" lon="-3.647970">
						<ele>179</ele>
						<time>2026-09-01T11:21:59Z</time>
					</trkpt>
					<trkpt lat="48.528330" lon="-3.647830">
						<ele>183</ele>
						<time>2026-09-01T11:22:25Z</time>
					</trkpt>
					<trkpt lat="48.528490" lon="-3.647750">
						<ele>183</ele>
						<time>2026-09-01T11:22:33Z</time>
					</trkpt>
					<trkpt lat="48.529050" lon="-3.647190">
						<ele>186</ele>
						<time>2026-09-01T11:23:07Z</time>
					</trkpt>
					<trkpt lat="48.529240" lon="-3.647050">
						<ele>187</ele>
						<time>2026-09-01T11:23:17Z</time>
					</trkpt>
					<trkpt lat="48.530150" lon="-3.646520">
						<ele>191</ele>
						<time>2026-09-01T11:24:06Z</time>
					</trkpt>
					<trkpt lat="48.530190" lon="-3.646460">
						<ele>191</ele>
						<time>2026-09-01T11:24:09Z</time>
					</trkpt>
					<trkpt lat="48.530240" lon="-3.646240">
						<ele>192</ele>
						<time>2026-09-01T11:24:17Z</time>
					</trkpt>
					<trkpt lat="48.530270" lon="-3.645290">
						<ele>197</ele>
						<time>2026-09-01T11:24:48Z</time>
					</trkpt>
					<trkpt lat="48.530300" lon="-3.645200">
						<ele>198</ele>
						<time>2026-09-01T11:24:52Z</time>
					</trkpt>
					<trkpt lat="48.530500" lon="-3.645070">
						<ele>198</ele>
						<time>2026-09-01T11:25:03Z</time>
					</trkpt>
					<trkpt lat="48.530870" lon="-3.644880">
						<ele>198</ele>
						<time>2026-09-01T11:25:22Z</time>
					</trkpt>
					<trkpt lat="48.531010" lon="-3.644760">
						<ele>197</ele>
						<time>2026-09-01T11:25:30Z</time>
					</trkpt>
					<trkpt lat="48.531090" lon="-3.644600">
						<ele>197</ele>
						<time>2026-09-01T11:25:37Z</time>
					</trkpt>
					<trkpt lat="48.531110" lon="-3.644680">
						<ele>197</ele>
						<time>2026-09-01T11:25:40Z</time>
					</trkpt>
					<trkpt lat="48.531020" lon="-3.643890">
						<ele>196</ele>
						<time>2026-09-01T11:26:06Z</time>
					</trkpt>
					<trkpt lat="48.530990" lon="-3.642830">
						<ele>193</ele>
						<time>2026-09-01T11:26:41Z</time>
					</trkpt>
					<trkpt lat="48.531000" lon="-3.641740">
						<ele>193</ele>
						<time>2026-09-01T11:27:17Z</time>
					</trkpt>
					<trkpt lat="48.530930" lon="-3.640860">
						<ele>194</ele>
						<time>2026-09-01T11:27:47Z</time>
					</trkpt>
					<trkpt lat="48.530890" lon="-3.640660">
						<ele>195</ele>
						<time>2026-09-01T11:27:54Z</time>
					</trkpt>
					<trkpt lat="48.530790" lon="-3.640720">
						<ele>195</ele>
						<time>2026-09-01T11:27:59Z</time>
					</trkpt>
					<trkpt lat="48.530450" lon="-3.640820">
						<ele>196</ele>
						<time>2026-09-01T11:28:16Z</time>
					</trkpt>
					<trkpt lat="48.530130" lon="-3.640820">
						<ele>197</ele>
						<time>2026-09-01T11:28:32Z</time>
					</trkpt>
					<trkpt lat="48.529520" lon="-3.640590">
						<ele>197</ele>
						<time>2026-09-01T11:29:04Z</time>
					</trkpt>
					<trkpt lat="48.529240" lon="-3.640530">
						<ele>196</ele>
						<time>2026-09-01T11:29:18Z</time>
					</trkpt>
					<trkpt lat="48.529110" lon="-3.640540">
						<ele>196</ele>
						<time>2026-09-01T11:29:25Z</time>
					</trkpt>
					<trkpt lat="48.528550" lon="-3.640670">
						<ele>196</ele>
						<time>2026-09-01T11:29:53Z</time>
					</trkpt>
					<trkpt lat="48.528360" lon="-3.640630">
						<ele>197</ele>
						<time>2026-09-01T11:30:03Z</time>
					</trkpt>
					<trkpt lat="48.527960" lon="-3.640430">
						<ele>199</ele>
						<time>2026-09-01T11:30:24Z</time>
					</trkpt>
					<trkpt lat="48.527830" lon="-3.640390">
						<ele>199</ele>
						<time>2026-09-01T11:30:30Z</time>
					</trkpt>
					<trkpt lat="48.528010" lon="-3.639910">
						<ele>200</ele>
						<time>2026-09-01T11:30:49Z</time>
					</trkpt>
					<trkpt lat="48.528050" lon="-3.639640">
						<ele>201</ele>
						<time>2026-09-01T11:30:58Z</time>
					</trkpt>
					<trkpt lat="48.528030" lon="-3.639060">
						<ele>203</ele>
						<time>2026-09-01T11:31:17Z</time>
					</trkpt>
					<trkpt lat="48.527930" lon="-3.637840">
						<ele>209</ele>
						<time>2026-09-01T11:31:58Z</time>
					</trkpt>
					<trkpt lat="48.527920" lon="-3.635550">
						<ele>214</ele>
						<time>2026-09-01T11:33:14Z</time>
					</trkpt>
					<trkpt lat="48.527950" lon="-3.635300">
						<ele>214</ele>
						<time>2026-09-01T11:33:22Z</time>
					</trkpt>
					<trkpt lat="48.528060" lon="-3.634830">
						<ele>214</ele>
						<time>2026-09-01T11:33:39Z</time>
					</trkpt>
					<trkpt lat="48.528420" lon="-3.633660">
						<ele>212</ele>
						<time>2026-09-01T11:34:21Z</time>
					</trkpt>
					<trkpt lat="48.528730" lon="-3.632050">
						<ele>214</ele>
						<time>2026-09-01T11:35:17Z</time>
					</trkpt>
					<trkpt lat="48.528840" lon="-3.631850">
						<ele>215</ele>
						<time>2026-09-01T11:35:26Z</time>
					</trkpt>
					<trkpt lat="48.529000" lon="-3.631660">
						<ele>216</ele>
						<time>2026-09-01T11:35:36Z</time>
					</trkpt>
					<trkpt lat="48.529280" lon="-3.631420">
						<ele>216</ele>
						<time>2026-09-01T11:35:52Z</time>
					</trkpt>
					<trkpt lat="48.529610" lon="-3.631090">
						<ele>216</ele>
						<time>2026-09-01T11:36:12Z</time>
					</trkpt>
					<trkpt lat="48.529790" lon="-3.630840">
						<ele>216</ele>
						<time>2026-09-01T11:36:24Z</time>
					</trkpt>
					<trkpt lat="48.529900" lon="-3.630640">
						<ele>216</ele>
						<time>2026-09-01T11:36:32Z</time>
					</trkpt>
					<trkpt lat="48.530000" lon="-3.630360">
						<ele>215</ele>
						<time>2026-09-01T11:36:43Z</time>
					</trkpt>
					<trkpt lat="48.530520" lon="-3.630760">
						<ele>214</ele>
						<time>2026-09-01T11:37:12Z</time>
					</trkpt>
					<trkpt lat="48.530700" lon="-3.630940">
						<ele>213</ele>
						<time>2026-09-01T11:37:23Z</time>
					</trkpt>
					<trkpt lat="48.530910" lon="-3.631210">
						<ele>212</ele>
						<time>2026-09-01T11:37:37Z</time>
					</trkpt>
					<trkpt lat="48.531330" lon="-3.631640">
						<ele>211</ele>
						<time>2026-09-01T11:38:02Z</time>
					</trkpt>
					<trkpt lat="48.531590" lon="-3.631860">
						<ele>210</ele>
						<time>2026-09-01T11:38:17Z</time>
					</trkpt>
					<trkpt lat="48.531670" lon="-3.631870">
						<ele>210</ele>
						<time>2026-09-01T11:38:21Z</time>
					</trkpt>
					<trkpt lat="48.532320" lon="-3.631700">
						<ele>206</ele>
						<time>2026-09-01T11:38:54Z</time>
					</trkpt>
					<trkpt lat="48.532580" lon="-3.631730">
						<ele>203</ele>
						<time>2026-09-01T11:39:07Z</time>
					</trkpt>
					<trkpt lat="48.532690" lon="-3.631700">
						<ele>202</ele>
						<time>2026-09-01T11:39:13Z</time>
					</trkpt>
					<trkpt lat="48.533170" lon="-3.631440">
						<ele>196</ele>
						<time>2026-09-01T11:39:38Z</time>
					</trkpt>
					<trkpt lat="48.533280" lon="-3.631390">
						<ele>194</ele>
						<time>2026-09-01T11:39:44Z</time>
					</trkpt>
					<trkpt lat="48.533580" lon="-3.631320">
						<ele>190</ele>
						<time>2026-09-01T11:39:59Z</time>
					</trkpt>
					<trkpt lat="48.533730" lon="-3.631220">
						<ele>188</ele>
						<time>2026-09-01T11:40:07Z</time>
					</trkpt>
					<trkpt lat="48.533810" lon="-3.631030">
						<ele>186</ele>
						<time>2026-09-01T11:40:15Z</time>
					</trkpt>
					<trkpt lat="48.533900" lon="-3.630520">
						<ele>182</ele>
						<time>2026-09-01T11:40:32Z</time>
					</trkpt>
					<trkpt lat="48.534170" lon="-3.630480">
						<ele>178</ele>
						<time>2026-09-01T11:40:46Z</time>
					</trkpt>
					<trkpt lat="48.534710" lon="-3.630120">
						<ele>167</ele>
						<time>2026-09-01T11:41:16Z</time>
					</trkpt>
					<trkpt lat="48.534970" lon="-3.629820">
						<ele>162</ele>
						<time>2026-09-01T11:41:32Z</time>
					</trkpt>
					<trkpt lat="48.535020" lon="-3.629720">
						<ele>161</ele>
						<time>2026-09-01T11:41:36Z</time>
					</trkpt>
					<trkpt lat="48.535060" lon="-3.629520">
						<ele>160</ele>
						<time>2026-09-01T11:41:43Z</time>
					</trkpt>
					<trkpt lat="48.535100" lon="-3.629470">
						<ele>160</ele>
						<time>2026-09-01T11:41:46Z</time>
					</trkpt>
					<trkpt lat="48.535150" lon="-3.629490">
						<ele>159</ele>
						<time>2026-09-01T11:41:48Z</time>
					</trkpt>
					<trkpt lat="48.535260" lon="-3.629480">
						<ele>158</ele>
						<time>2026-09-01T11:41:54Z</time>
					</trkpt>
					<trkpt lat="48.535410" lon="-3.629430">
						<ele>156</ele>
						<time>2026-09-01T11:42:01Z</time>
					</trkpt>
					<trkpt lat="48.535940" lon="-3.629150">
						<ele>149</ele>
						<time>2026-09-01T11:42:29Z</time>
					</trkpt>
					<trkpt lat="48.536040" lon="-3.629140">
						<ele>148</ele>
						<time>2026-09-01T11:42:34Z</time>
					</trkpt>
					<trkpt lat="48.536150" lon="-3.629200">
						<ele>148</ele>
						<time>2026-09-01T11:42:40Z</time>
					</trkpt>
					<trkpt lat="48.536290" lon="-3.629410">
						<ele>147</ele>
						<time>2026-09-01T11:42:50Z</time>
					</trkpt>
					<trkpt lat="48.536560" lon="-3.630150">
						<ele>147</ele>
						<time>2026-09-01T11:43:18Z</time>
					</trkpt>
					<trkpt lat="48.536630" lon="-3.630470">
						<ele>148</ele>
						<time>2026-09-01T11:43:29Z</time>
					</trkpt>
					<trkpt lat="48.537050" lon="-3.630540">
						<ele>146</ele>
						<time>2026-09-01T11:43:51Z</time>
					</trkpt>
					<trkpt lat="48.537240" lon="-3.630520">
						<ele>145</ele>
						<time>2026-09-01T11:44:00Z</time>
					</trkpt>
					<trkpt lat="48.537320" lon="-3.630420">
						<ele>144</ele>
						<time>2026-09-01T11:44:05Z</time>
					</trkpt>
					<trkpt lat="48.537710" lon="-3.629650">
						<ele>141</ele>
						<time>2026-09-01T11:44:37Z</time>
					</trkpt>
					<trkpt lat="48.537720" lon="-3.629240">
						<ele>139</ele>
						<time>2026-09-01T11:44:51Z</time>
					</trkpt>
					<trkpt lat="48.537680" lon="-3.627830">
						<ele>134</ele>
						<time>2026-09-01T11:45:38Z</time>
					</trkpt>
					<trkpt lat="48.537710" lon="-3.627450">
						<ele>133</ele>
						<time>2026-09-01T11:45:50Z</time>
					</trkpt>
					<trkpt lat="48.537850" lon="-3.626910">
						<ele>132</ele>
						<time>2026-09-01T11:46:10Z</time>
					</trkpt>
					<trkpt lat="48.537650" lon="-3.626710">
						<ele>131</ele>
						<time>2026-09-01T11:46:22Z</time>
					</trkpt>
					<trkpt lat="48.537580" lon="-3.626480">
						<ele>131</ele>
						<time>2026-09-01T11:46:30Z</time>
					</trkpt>
					<trkpt lat="48.537590" lon="-3.626190">
						<ele>131</ele>
						<time>2026-09-01T11:46:40Z</time>
					</trkpt>
					<trkpt lat="48.537710" lon="-3.625650">
						<ele>133</ele>
						<time>2026-09-01T11:46:59Z</time>
					</trkpt>
					<trkpt lat="48.537980" lon="-3.625210">
						<ele>134</ele>
						<time>2026-09-01T11:47:18Z</time>
					</trkpt>
					<trkpt lat="48.538100" lon="-3.624940">
						<ele>133</ele>
						<time>2026-09-01T11:47:29Z</time>
					</trkpt>
					<trkpt lat="48.538150" lon="-3.624730">
						<ele>132</ele>
						<time>2026-09-01T11:47:37Z</time>
					</trkpt>
					<trkpt lat="48.538090" lon="-3.624510">
						<ele>132</ele>
						<time>2026-09-01T11:47:44Z</time>
					</trkpt>
					<trkpt lat="48.538220" lon="-3.624140">
						<ele>130</ele>
						<time>2026-09-01T11:47:58Z</time>
					</trkpt>
					<trkpt lat="48.538390" lon="-3.623500">
						<ele>125</ele>
						<time>2026-09-01T11:48:21Z</time>
					</trkpt>
					<trkpt lat="48.538660" lon="-3.623280">
						<ele>123</ele>
						<time>2026-09-01T11:48:37Z</time>
					</trkpt>
					<trkpt lat="48.539010" lon="-3.623230">
						<ele>123</ele>
						<time>2026-09-01T11:48:54Z</time>
					</trkpt>
					<trkpt lat="48.539330" lon="-3.623360">
						<ele>120</ele>
						<time>2026-09-01T11:49:11Z</time>
					</trkpt>
					<trkpt lat="48.539420" lon="-3.623290">
						<ele>120</ele>
						<time>2026-09-01T11:49:16Z</time>
					</trkpt>
					<trkpt lat="48.539670" lon="-3.622880">
						<ele>120</ele>
						<time>2026-09-01T11:49:34Z</time>
					</trkpt>
					<trkpt lat="48.539700" lon="-3.622740">
						<ele>121</ele>
						<time>2026-09-01T11:49:39Z</time>
					</trkpt>
					<trkpt lat="48.539630" lon="-3.622540">
						<ele>123</ele>
						<time>2026-09-01T11:49:47Z</time>
					</trkpt>
					<trkpt lat="48.539320" lon="-3.622090">
						<ele>128</ele>
						<time>2026-09-01T11:50:08Z</time>
					</trkpt>
					<trkpt lat="48.539430" lon="-3.621270">
						<ele>133</ele>
						<time>2026-09-01T11:50:36Z</time>
					</trkpt>
					<trkpt lat="48.539630" lon="-3.620320">
						<ele>134</ele>
						<time>2026-09-01T11:51:09Z</time>
					</trkpt>
					<trkpt lat="48.539650" lon="-3.619220">
						<ele>135</ele>
						<time>2026-09-01T11:51:45Z</time>
					</trkpt>
					<trkpt lat="48.539870" lon="-3.618860">
						<ele>139</ele>
						<time>2026-09-01T11:52:02Z</time>
					</trkpt>
					<trkpt lat="48.540350" lon="-3.617630">
						<ele>157</ele>
						<time>2026-09-01T11:52:49Z</time>
					</trkpt>
					<trkpt lat="48.540680" lon="-3.617790">
						<ele>158</ele>
						<time>2026-09-01T11:53:06Z</time>
					</trkpt>
					<trkpt lat="48.540650" lon="-3.617470">
						<ele>163</ele>
						<time>2026-09-01T11:53:17Z</time>
					</trkpt>
					<trkpt lat="48.541140" lon="-3.617340">
						<ele>172</ele>
						<time>2026-09-01T11:53:42Z</time>
					</trkpt>
					<trkpt lat="48.541010" lon="-3.617110">
						<ele>175</ele>
						<time>2026-09-01T11:53:52Z</time>
					</trkpt>
					<trkpt lat="48.540870" lon="-3.616940">
						<ele>177</ele>
						<time>2026-09-01T11:54:01Z</time>
					</trkpt>
					<trkpt lat="48.540910" lon="-3.616810">
						<ele>181</ele>
						<time>2026-09-01T11:54:06Z</time>
					</trkpt>
					<trkpt lat="48.541370" lon="-3.616870">
						<ele>186</ele>
						<time>2026-09-01T11:54:29Z</time>
					</trkpt>
					<trkpt lat="48.541300" lon="-3.616680">
						<ele>189</ele>
						<time>2026-09-01T11:54:36Z</time>
					</trkpt>
					<trkpt lat="48.540870" lon="-3.616400">
						<ele>190</ele>
						<time>2026-09-01T11:54:59Z</time>
					</trkpt>
					<trkpt lat="48.540700" lon="-3.616220">
						<ele>193</ele>
						<time>2026-09-01T11:55:10Z</time>
					</trkpt>
					<trkpt lat="48.540780" lon="-3.616040">
						<ele>198</ele>
						<time>2026-09-01T11:55:17Z</time>
					</trkpt>
					<trkpt lat="48.540940" lon="-3.616020">
						<ele>200</ele>
						<time>2026-09-01T11:55:25Z</time>
					</trkpt>
					<trkpt lat="48.541140" lon="-3.615940">
						<ele>204</ele>
						<time>2026-09-01T11:55:35Z</time>
					</trkpt>
					<trkpt lat="48.541320" lon="-3.615850">
						<ele>208</ele>
						<time>2026-09-01T11:55:45Z</time>
					</trkpt>
					<trkpt lat="48.541420" lon="-3.615760">
						<ele>212</ele>
						<time>2026-09-01T11:55:51Z</time>
					</trkpt>
					<trkpt lat="48.541480" lon="-3.615600">
						<ele>216</ele>
						<time>2026-09-01T11:55:57Z</time>
					</trkpt>
					<trkpt lat="48.541390" lon="-3.615370">
						<ele>220</ele>
						<time>2026-09-01T11:56:06Z</time>
					</trkpt>
					<trkpt lat="48.541420" lon="-3.615330">
						<ele>221</ele>
						<time>2026-09-01T11:56:08Z</time>
					</trkpt>
					<trkpt lat="48.541500" lon="-3.615380">
						<ele>220</ele>
						<time>2026-09-01T11:56:12Z</time>
					</trkpt>
					<trkpt lat="48.541590" lon="-3.615350">
						<ele>222</ele>
						<time>2026-09-01T11:56:16Z</time>
					</trkpt>
					<trkpt lat="48.541610" lon="-3.615200">
						<ele>225</ele>
						<time>2026-09-01T11:56:22Z</time>
					</trkpt>
					<trkpt lat="48.541430" lon="-3.614760">
						<ele>232</ele>
						<time>2026-09-01T11:56:39Z</time>
					</trkpt>
					<trkpt lat="48.541400" lon="-3.614310">
						<ele>238</ele>
						<time>2026-09-01T11:56:54Z</time>
					</trkpt>
					<trkpt lat="48.541460" lon="-3.614150">
						<ele>241</ele>
						<time>2026-09-01T11:57:00Z</time>
					</trkpt>
					<trkpt lat="48.541510" lon="-3.614150">
						<ele>242</ele>
						<time>2026-09-01T11:57:02Z</time>
					</trkpt>
					<trkpt lat="48.541670" lon="-3.614240">
						<ele>242</ele>
						<time>2026-09-01T11:57:11Z</time>
					</trkpt>
					<trkpt lat="48.541990" lon="-3.614250">
						<ele>245</ele>
						<time>2026-09-01T11:57:27Z</time>
					</trkpt>
					<trkpt lat="48.542180" lon="-3.614230">
						<ele>247</ele>
						<time>2026-09-01T11:57:36Z</time>
					</trkpt>
					<trkpt lat="48.542360" lon="-3.614150">
						<ele>249</ele>
						<time>2026-09-01T11:57:46Z</time>
					</trkpt>
					<trkpt lat="48.542480" lon="-3.614050">
						<ele>250</ele>
						<time>2026-09-01T11:57:53Z</time>
					</trkpt>
					<trkpt lat="48.542790" lon="-3.613930">
						<ele>252</ele>
						<time>2026-09-01T11:58:09Z</time>
					</trkpt>
					<trkpt lat="48.542920" lon="-3.613680">
						<ele>253</ele>
						<time>2026-09-01T11:58:19Z</time>
					</trkpt>
					<trkpt lat="48.543210" lon="-3.613480">
						<ele>256</ele>
						<time>2026-09-01T11:58:35Z</time>
					</trkpt>
					<trkpt lat="48.543420" lon="-3.613390">
						<ele>257</ele>
						<time>2026-09-01T11:58:46Z</time>
					</trkpt>
					<trkpt lat="48.543500" lon="-3.613270">
						<ele>258</ele>
						<time>2026-09-01T11:58:52Z</time>
					</trkpt>
					<trkpt lat="48.543590" lon="-3.613230">
						<ele>258</ele>
						<time>2026-09-01T11:58:56Z</time>
					</trkpt>
					<trkpt lat="48.544130" lon="-3.613090">
						<ele>260</ele>
						<time>2026-09-01T11:59:24Z</time>
					</trkpt>
					<trkpt lat="48.544580" lon="-3.613040">
						<ele>260</ele>
						<time>2026-09-01T11:59:46Z</time>
					</trkpt>
					<trkpt lat="48.544720" lon="-3.612990">
						<ele>260</ele>
						<time>2026-09-01T11:59:54Z</time>
					</trkpt>
					<trkpt lat="48.544870" lon="-3.612980">
						<ele>260</ele>
						<time>2026-09-01T12:00:01Z</time>
					</trkpt>
					<trkpt lat="48.545200" lon="-3.613030">
						<ele>258</ele>
						<time>2026-09-01T12:00:18Z</time>
					</trkpt>
					<trkpt lat="48.545530" lon="-3.613130">
						<ele>255</ele>
						<time>2026-09-01T12:00:35Z</time>
					</trkpt>
					<trkpt lat="48.545660" lon="-3.613140">
						<ele>254</ele>
						<time>2026-09-01T12:00:41Z</time>
					</trkpt>
					<trkpt lat="48.545990" lon="-3.612940">
						<ele>253</ele>
						<time>2026-09-01T12:00:59Z</time>
					</trkpt>
					<trkpt lat="48.546110" lon="-3.612910">
						<ele>252</ele>
						<time>2026-09-01T12:01:05Z</time>
					</trkpt>
					<trkpt lat="48.546640" lon="-3.612620">
						<ele>249</ele>
						<time>2026-09-01T12:01:33Z</time>
					</trkpt>
					<trkpt lat="48.546740" lon="-3.612590">
						<ele>248</ele>
						<time>2026-09-01T12:01:38Z</time>
					</trkpt>
					<trkpt lat="48.547210" lon="-3.612620">
						<ele>245</ele>
						<time>2026-09-01T12:02:02Z</time>
					</trkpt>
					<trkpt lat="48.547230" lon="-3.612360">
						<ele>246</ele>
						<time>2026-09-01T12:02:10Z</time>
					</trkpt>
					<trkpt lat="48.547140" lon="-3.611470">
						<ele>249</ele>
						<time>2026-09-01T12:02:40Z</time>
					</trkpt>
					<trkpt lat="48.546990" lon="-3.611050">
						<ele>249</ele>
						<time>2026-09-01T12:02:56Z</time>
					</trkpt>
					<trkpt lat="48.546700" lon="-3.610370">
						<ele>252</ele>
						<time>2026-09-01T12:03:23Z</time>
					</trkpt>
					<trkpt lat="48.546380" lon="-3.609170">
						<ele>254</ele>
						<time>2026-09-01T12:04:06Z</time>
					</trkpt>
					<trkpt lat="48.546290" lon="-3.608750">
						<ele>253</ele>
						<time>2026-09-01T12:04:20Z</time>
					</trkpt>
					<trkpt lat="48.546060" lon="-3.607130">
						<ele>254</ele>
						<time>2026-09-01T12:05:15Z</time>
					</trkpt>
					<trkpt lat="48.545900" lon="-3.604690">
						<ele>251</ele>
						<time>2026-09-01T12:06:36Z</time>
					</trkpt>
					<trkpt lat="48.545630" lon="-3.602820">
						<ele>250</ele>
						<time>2026-09-01T12:07:40Z</time>
					</trkpt>
					<trkpt lat="48.545570" lon="-3.602160">
						<ele>248</ele>
						<time>2026-09-01T12:08:02Z</time>
					</trkpt>
					<trkpt lat="48.545540" lon="-3.601230">
						<ele>245</ele>
						<time>2026-09-01T12:08:33Z</time>
					</trkpt>
					<trkpt lat="48.545470" lon="-3.600930">
						<ele>244</ele>
						<time>2026-09-01T12:08:43Z</time>
					</trkpt>
					<trkpt lat="48.545630" lon="-3.599670">
						<ele>240</ele>
						<time>2026-09-01T12:09:26Z</time>
					</trkpt>
					<trkpt lat="48.545630" lon="-3.598880">
						<ele>236</ele>
						<time>2026-09-01T12:09:52Z</time>
					</trkpt>
					<trkpt lat="48.545600" lon="-3.598190">
						<ele>234</ele>
						<time>2026-09-01T12:10:15Z</time>
					</trkpt>
					<trkpt lat="48.545530" lon="-3.597530">
						<ele>236</ele>
						<time>2026-09-01T12:10:37Z</time>
					</trkpt>
					<trkpt lat="48.545430" lon="-3.597240">
						<ele>237</ele>
						<time>2026-09-01T12:10:48Z</time>
					</trkpt>
					<trkpt lat="48.545240" lon="-3.596910">
						<ele>238</ele>
						<time>2026-09-01T12:11:02Z</time>
					</trkpt>
					<trkpt lat="48.545010" lon="-3.596630">
						<ele>239</ele>
						<time>2026-09-01T12:11:17Z</time>
					</trkpt>
					<trkpt lat="48.544770" lon="-3.596260">
						<ele>238</ele>
						<time>2026-09-01T12:11:34Z</time>
					</trkpt>
					<trkpt lat="48.544560" lon="-3.595770">
						<ele>237</ele>
						<time>2026-09-01T12:11:54Z</time>
					</trkpt>
					<trkpt lat="48.544190" lon="-3.595070">
						<ele>232</ele>
						<time>2026-09-01T12:12:23Z</time>
					</trkpt>
					<trkpt lat="48.544100" lon="-3.594820">
						<ele>230</ele>
						<time>2026-09-01T12:12:33Z</time>
					</trkpt>
					<trkpt lat="48.544090" lon="-3.594440">
						<ele>226</ele>
						<time>2026-09-01T12:12:45Z</time>
					</trkpt>
					<trkpt lat="48.544470" lon="-3.593470">
						<ele>220</ele>
						<time>2026-09-01T12:13:23Z</time>
					</trkpt>
					<trkpt lat="48.544480" lon="-3.593360">
						<ele>219</ele>
						<time>2026-09-01T12:13:26Z</time>
					</trkpt>
					<trkpt lat="48.544140" lon="-3.593470">
						<ele>217</ele>
						<time>2026-09-01T12:13:44Z</time>
					</trkpt>
					<trkpt lat="48.544060" lon="-3.593470">
						<ele>217</ele>
						<time>2026-09-01T12:13:48Z</time>
					</trkpt>
					<trkpt lat="48.543940" lon="-3.593130">
						<ele>214</ele>
						<time>2026-09-01T12:14:01Z</time>
					</trkpt>
					<trkpt lat="48.543930" lon="-3.592490">
						<ele>209</ele>
						<time>2026-09-01T12:14:22Z</time>
					</trkpt>
					<trkpt lat="48.543310" lon="-3.592700">
						<ele>210</ele>
						<time>2026-09-01T12:14:54Z</time>
					</trkpt>
					<trkpt lat="48.542550" lon="-3.593190">
						<ele>210</ele>
						<time>2026-09-01T12:15:35Z</time>
					</trkpt>
					<trkpt lat="48.542210" lon="-3.593450">
						<ele>210</ele>
						<time>2026-09-01T12:15:54Z</time>
					</trkpt>
					<trkpt lat="48.541810" lon="-3.593890">
						<ele>209</ele>
						<time>2026-09-01T12:16:19Z</time>
					</trkpt>
					<trkpt lat="48.541690" lon="-3.594120">
						<ele>209</ele>
						<time>2026-09-01T12:16:28Z</time>
					</trkpt>
					<trkpt lat="48.541620" lon="-3.594150">
						<ele>209</ele>
						<time>2026-09-01T12:16:32Z</time>
					</trkpt>
					<trkpt lat="48.541510" lon="-3.593940">
						<ele>208</ele>
						<time>2026-09-01T12:16:41Z</time>
					</trkpt>
					<trkpt lat="48.541340" lon="-3.593700">
						<ele>208</ele>
						<time>2026-09-01T12:16:53Z</time>
					</trkpt>
					<trkpt lat="48.541280" lon="-3.593650">
						<ele>208</ele>
						<time>2026-09-01T12:16:56Z</time>
					</trkpt>
					<trkpt lat="48.541000" lon="-3.593120">
						<ele>207</ele>
						<time>2026-09-01T12:17:19Z</time>
					</trkpt>
					<trkpt lat="48.540760" lon="-3.592810">
						<ele>206</ele>
						<time>2026-09-01T12:17:34Z</time>
					</trkpt>
					<trkpt lat="48.540690" lon="-3.592730">
						<ele>206</ele>
						<time>2026-09-01T12:17:39Z</time>
					</trkpt>
					<trkpt lat="48.540340" lon="-3.592520">
						<ele>205</ele>
						<time>2026-09-01T12:17:58Z</time>
					</trkpt>
					<trkpt lat="48.540220" lon="-3.592490">
						<ele>205</ele>
						<time>2026-09-01T12:18:04Z</time>
					</trkpt>
					<trkpt lat="48.540150" lon="-3.592510">
						<ele>205</ele>
						<time>2026-09-01T12:18:07Z</time>
					</trkpt>
					<trkpt lat="48.539930" lon="-3.592730">
						<ele>207</ele>
						<time>2026-09-01T12:18:20Z</time>
					</trkpt>
					<trkpt lat="48.539600" lon="-3.593280">
						<ele>210</ele>
						<time>2026-09-01T12:18:45Z</time>
					</trkpt>
					<trkpt lat="48.539190" lon="-3.593860">
						<ele>214</ele>
						<time>2026-09-01T12:19:13Z</time>
					</trkpt>
					<trkpt lat="48.539010" lon="-3.594030">
						<ele>216</ele>
						<time>2026-09-01T12:19:24Z</time>
					</trkpt>
					<trkpt lat="48.538760" lon="-3.594140">
						<ele>215</ele>
						<time>2026-09-01T12:19:37Z</time>
					</trkpt>
					<trkpt lat="48.538170" lon="-3.593910">
						<ele>215</ele>
						<time>2026-09-01T12:20:07Z</time>
					</trkpt>
					<trkpt lat="48.538070" lon="-3.593970">
						<ele>215</ele>
						<time>2026-09-01T12:20:13Z</time>
					</trkpt>
					<trkpt lat="48.537950" lon="-3.593990">
						<ele>216</ele>
						<time>2026-09-01T12:20:19Z</time>
					</trkpt>
					<trkpt lat="48.537160" lon="-3.594360">
						<ele>220</ele>
						<time>2026-09-01T12:21:00Z</time>
					</trkpt>
					<trkpt lat="48.536830" lon="-3.594220">
						<ele>223</ele>
						<time>2026-09-01T12:21:17Z</time>
					</trkpt>
					<trkpt lat="48.536760" lon="-3.594210">
						<ele>223</ele>
						<time>2026-09-01T12:21:21Z</time>
					</trkpt>
					<trkpt lat="48.536570" lon="-3.594260">
						<ele>225</ele>
						<time>2026-09-01T12:21:30Z</time>
					</trkpt>
					<trkpt lat="48.536470" lon="-3.594320">
						<ele>226</ele>
						<time>2026-09-01T12:21:36Z</time>
					</trkpt>
					<trkpt lat="48.536370" lon="-3.594470">
						<ele>227</ele>
						<time>2026-09-01T12:21:43Z</time>
					</trkpt>
					<trkpt lat="48.536330" lon="-3.594500">
						<ele>227</ele>
						<time>2026-09-01T12:21:45Z</time>
					</trkpt>
					<trkpt lat="48.536260" lon="-3.594500">
						<ele>227</ele>
						<time>2026-09-01T12:21:49Z</time>
					</trkpt>
					<trkpt lat="48.535910" lon="-3.594450">
						<ele>230</ele>
						<time>2026-09-01T12:22:06Z</time>
					</trkpt>
					<trkpt lat="48.535250" lon="-3.594210">
						<ele>233</ele>
						<time>2026-09-01T12:22:40Z</time>
					</trkpt>
					<trkpt lat="48.535180" lon="-3.594140">
						<ele>233</ele>
						<time>2026-09-01T12:22:44Z</time>
					</trkpt>
					<trkpt lat="48.534440" lon="-3.593940">
						<ele>235</ele>
						<time>2026-09-01T12:23:22Z</time>
					</trkpt>
					<trkpt lat="48.534320" lon="-3.593950">
						<ele>235</ele>
						<time>2026-09-01T12:23:28Z</time>
					</trkpt>
					<trkpt lat="48.534240" lon="-3.594020">
						<ele>236</ele>
						<time>2026-09-01T12:23:33Z</time>
					</trkpt>
					<trkpt lat="48.533690" lon="-3.593920">
						<ele>235</ele>
						<time>2026-09-01T12:24:00Z</time>
					</trkpt>
					<trkpt lat="48.533600" lon="-3.593940">
						<ele>235</ele>
						<time>2026-09-01T12:24:05Z</time>
					</trkpt>
					<trkpt lat="48.533470" lon="-3.594170">
						<ele>235</ele>
						<time>2026-09-01T12:24:15Z</time>
					</trkpt>
					<trkpt lat="48.533390" lon="-3.594260">
						<ele>236</ele>
						<time>2026-09-01T12:24:20Z</time>
					</trkpt>
					<trkpt lat="48.533350" lon="-3.594270">
						<ele>236</ele>
						<time>2026-09-01T12:24:22Z</time>
					</trkpt>
					<trkpt lat="48.533070" lon="-3.594140">
						<ele>234</ele>
						<time>2026-09-01T12:24:37Z</time>
					</trkpt>
					<trkpt lat="48.532920" lon="-3.594130">
						<ele>234</ele>
						<time>2026-09-01T12:24:44Z</time>
					</trkpt>
					<trkpt lat="48.532500" lon="-3.594190">
						<ele>233</ele>
						<time>2026-09-01T12:25:05Z</time>
					</trkpt>
					<trkpt lat="48.532240" lon="-3.594270">
						<ele>232</ele>
						<time>2026-09-01T12:25:18Z</time>
					</trkpt>
					<trkpt lat="48.531980" lon="-3.594290">
						<ele>232</ele>
						<time>2026-09-01T12:25:32Z</time>
					</trkpt>
					<trkpt lat="48.531620" lon="-3.594280">
						<ele>230</ele>
						<time>2026-09-01T12:25:50Z</time>
					</trkpt>
					<trkpt lat="48.531350" lon="-3.594310">
						<ele>230</ele>
						<time>2026-09-01T12:26:03Z</time>
					</trkpt>
					<trkpt lat="48.531220" lon="-3.594350">
						<ele>230</ele>
						<time>2026-09-01T12:26:10Z</time>
					</trkpt>
					<trkpt lat="48.531120" lon="-3.594430">
						<ele>230</ele>
						<time>2026-09-01T12:26:15Z</time>
					</trkpt>
					<trkpt lat="48.531030" lon="-3.594550">
						<ele>231</ele>
						<time>2026-09-01T12:26:21Z</time>
					</trkpt>
					<trkpt lat="48.530590" lon="-3.594850">
						<ele>234</ele>
						<time>2026-09-01T12:26:46Z</time>
					</trkpt>
					<trkpt lat="48.530410" lon="-3.594920">
						<ele>235</ele>
						<time>2026-09-01T12:26:55Z</time>
					</trkpt>
					<trkpt lat="48.530250" lon="-3.594930">
						<ele>235</ele>
						<time>2026-09-01T12:27:03Z</time>
					</trkpt>
					<trkpt lat="48.530240" lon="-3.594830">
						<ele>235</ele>
						<time>2026-09-01T12:27:06Z</time>
					</trkpt>
					<trkpt lat="48.529840" lon="-3.594300">
						<ele>232</ele>
						<time>2026-09-01T12:27:33Z</time>
					</trkpt>
					<trkpt lat="48.529340" lon="-3.593800">
						<ele>230</ele>
						<time>2026-09-01T12:28:03Z</time>
					</trkpt>
					<trkpt lat="48.529210" lon="-3.593750">
						<ele>229</ele>
						<time>2026-09-01T12:28:10Z</time>
					</trkpt>
					<trkpt lat="48.528880" lon="-3.593810">
						<ele>230</ele>
						<time>2026-09-01T12:28:26Z</time>
					</trkpt>
					<trkpt lat="48.528110" lon="-3.593830">
						<ele>230</ele>
						<time>2026-09-01T12:29:05Z</time>
					</trkpt>
					<trkpt lat="48.527930" lon="-3.593860">
						<ele>231</ele>
						<time>2026-09-01T12:29:14Z</time>
					</trkpt>
					<trkpt lat="48.527800" lon="-3.593910">
						<ele>232</ele>
						<time>2026-09-01T12:29:21Z</time>
					</trkpt>
					<trkpt lat="48.527580" lon="-3.593890">
						<ele>232</ele>
						<time>2026-09-01T12:29:32Z</time>
					</trkpt>
					<trkpt lat="48.527260" lon="-3.593620">
						<ele>233</ele>
						<time>2026-09-01T12:29:50Z</time>
					</trkpt>
					<trkpt lat="48.526740" lon="-3.593340">
						<ele>231</ele>
						<time>2026-09-01T12:30:18Z</time>
					</trkpt>
					<trkpt lat="48.526660" lon="-3.593270">
						<ele>230</ele>
						<time>2026-09-01T12:30:22Z</time>
					</trkpt>
					<trkpt lat="48.526440" lon="-3.592970">
						<ele>229</ele>
						<time>2026-09-01T12:30:37Z</time>
					</trkpt>
					<trkpt lat="48.526310" lon="-3.592600">
						<ele>226</ele>
						<time>2026-09-01T12:30:51Z</time>
					</trkpt>
					<trkpt lat="48.526100" lon="-3.592750">
						<ele>229</ele>
						<time>2026-09-01T12:31:02Z</time>
					</trkpt>
					<trkpt lat="48.526020" lon="-3.592770">
						<ele>229</ele>
						<time>2026-09-01T12:31:07Z</time>
					</trkpt>
					<trkpt lat="48.525890" lon="-3.592760">
						<ele>230</ele>
						<time>2026-09-01T12:31:13Z</time>
					</trkpt>
					<trkpt lat="48.525690" lon="-3.592680">
						<ele>231</ele>
						<time>2026-09-01T12:31:23Z</time>
					</trkpt>
					<trkpt lat="48.525260" lon="-3.592420">
						<ele>232</ele>
						<time>2026-09-01T12:31:47Z</time>
					</trkpt>
					<trkpt lat="48.524880" lon="-3.592230">
						<ele>233</ele>
						<time>2026-09-01T12:32:07Z</time>
					</trkpt>
					<trkpt lat="48.524370" lon="-3.592160">
						<ele>235</ele>
						<time>2026-09-01T12:32:32Z</time>
					</trkpt>
					<trkpt lat="48.523790" lon="-3.592140">
						<ele>236</ele>
						<time>2026-09-01T12:33:01Z</time>
					</trkpt>
					<trkpt lat="48.523690" lon="-3.592160">
						<ele>236</ele>
						<time>2026-09-01T12:33:06Z</time>
					</trkpt>
					<trkpt lat="48.523660" lon="-3.592050">
						<ele>236</ele>
						<time>2026-09-01T12:33:10Z</time>
					</trkpt>
					<trkpt lat="48.523440" lon="-3.591720">
						<ele>235</ele>
						<time>2026-09-01T12:33:26Z</time>
					</trkpt>
					<trkpt lat="48.523190" lon="-3.591510">
						<ele>234</ele>
						<time>2026-09-01T12:33:40Z</time>
					</trkpt>
					<trkpt lat="48.523060" lon="-3.591470">
						<ele>233</ele>
						<time>2026-09-01T12:33:47Z</time>
					</trkpt>
					<trkpt lat="48.522910" lon="-3.591460">
						<ele>233</ele>
						<time>2026-09-01T12:33:54Z</time>
					</trkpt>
					<trkpt lat="48.522600" lon="-3.591500">
						<ele>233</ele>
						<time>2026-09-01T12:34:10Z</time>
					</trkpt>
					<trkpt lat="48.522440" lon="-3.591630">
						<ele>234</ele>
						<time>2026-09-01T12:34:19Z</time>
					</trkpt>
					<trkpt lat="48.520100" lon="-3.590250">
						<ele>223</ele>
						<time>2026-09-01T12:36:25Z</time>
					</trkpt>
					<trkpt lat="48.519890" lon="-3.590160">
						<ele>221</ele>
						<time>2026-09-01T12:36:36Z</time>
					</trkpt>
					<trkpt lat="48.519440" lon="-3.590080">
						<ele>219</ele>
						<time>2026-09-01T12:36:58Z</time>
					</trkpt>
					<trkpt lat="48.518990" lon="-3.590110">
						<ele>217</ele>
						<time>2026-09-01T12:37:21Z</time>
					</trkpt>
					<trkpt lat="48.518720" lon="-3.590170">
						<ele>216</ele>
						<time>2026-09-01T12:37:34Z</time>
					</trkpt>
					<trkpt lat="48.518280" lon="-3.590210">
						<ele>214</ele>
						<time>2026-09-01T12:37:56Z</time>
					</trkpt>
					<trkpt lat="48.518190" lon="-3.589820">
						<ele>212</ele>
						<time>2026-09-01T12:38:10Z</time>
					</trkpt>
					<trkpt lat="48.517970" lon="-3.589480">
						<ele>211</ele>
						<time>2026-09-01T12:38:26Z</time>
					</trkpt>
					<trkpt lat="48.517650" lon="-3.589230">
						<ele>210</ele>
						<time>2026-09-01T12:38:44Z</time>
					</trkpt>
					<trkpt lat="48.517450" lon="-3.589110">
						<ele>210</ele>
						<time>2026-09-01T12:38:55Z</time>
					</trkpt>
					<trkpt lat="48.517540" lon="-3.588280">
						<ele>206</ele>
						<time>2026-09-01T12:39:23Z</time>
					</trkpt>
					<trkpt lat="48.517640" lon="-3.587790">
						<ele>204</ele>
						<time>2026-09-01T12:39:40Z</time>
					</trkpt>
					<trkpt lat="48.517760" lon="-3.586930">
						<ele>201</ele>
						<time>2026-09-01T12:40:09Z</time>
					</trkpt>
					<trkpt lat="48.517810" lon="-3.585940">
						<ele>198</ele>
						<time>2026-09-01T12:40:42Z</time>
					</trkpt>
					<trkpt lat="48.517470" lon="-3.585940">
						<ele>198</ele>
						<time>2026-09-01T12:40:59Z</time>
					</trkpt>
					<trkpt lat="48.516980" lon="-3.583600">
						<ele>196</ele>
						<time>2026-09-01T12:42:20Z</time>
					</trkpt>
					<trkpt lat="48.517200" lon="-3.583630">
						<ele>196</ele>
						<time>2026-09-01T12:42:31Z</time>
					</trkpt>
					<trkpt lat="48.517320" lon="-3.583400">
						<ele>196</ele>
						<time>2026-09-01T12:42:41Z</time>
					</trkpt>
					<trkpt lat="48.517350" lon="-3.583290">
						<ele>196</ele>
						<time>2026-09-01T12:42:45Z</time>
					</trkpt>
					<trkpt lat="48.517680" lon="-3.580550">
						<ele>200</ele>
						<time>2026-09-01T12:44:17Z</time>
					</trkpt>
					<trkpt lat="48.517680" lon="-3.580350">
						<ele>201</ele>
						<time>2026-09-01T12:44:24Z</time>
					</trkpt>
					<trkpt lat="48.517320" lon="-3.579140">
						<ele>202</ele>
						<time>2026-09-01T12:45:08Z</time>
					</trkpt>
					<trkpt lat="48.516840" lon="-3.575990">
						<ele>192</ele>
						<time>2026-09-01T12:46:55Z</time>
					</trkpt>
					<trkpt lat="48.516770" lon="-3.575100">
						<ele>189</ele>
						<time>2026-09-01T12:47:24Z</time>
					</trkpt>
					<trkpt lat="48.516690" lon="-3.574780">
						<ele>187</ele>
						<time>2026-09-01T12:47:36Z</time>
					</trkpt>
					<trkpt lat="48.516380" lon="-3.575070">
						<ele>187</ele>
						<time>2026-09-01T12:47:54Z</time>
					</trkpt>
					<trkpt lat="48.516040" lon="-3.575440">
						<ele>187</ele>
						<time>2026-09-01T12:48:15Z</time>
					</trkpt>
					<trkpt lat="48.515870" lon="-3.575530">
						<ele>187</ele>
						<time>2026-09-01T12:48:24Z</time>
					</trkpt>
					<trkpt lat="48.515680" lon="-3.575550">
						<ele>187</ele>
						<time>2026-09-01T12:48:34Z</time>
					</trkpt>
					<trkpt lat="48.515380" lon="-3.575540">
						<ele>188</ele>
						<time>2026-09-01T12:48:49Z</time>
					</trkpt>
					<trkpt lat="48.515130" lon="-3.575480">
						<ele>189</ele>
						<time>2026-09-01T12:49:01Z</time>
					</trkpt>
					<trkpt lat="48.514610" lon="-3.575530">
						<ele>188</ele>
						<time>2026-09-01T12:49:27Z</time>
					</trkpt>
					<trkpt lat="48.513720" lon="-3.575060">
						<ele>188</ele>
						<time>2026-09-01T12:50:15Z</time>
					</trkpt>
					<trkpt lat="48.513660" lon="-3.575000">
						<ele>188</ele>
						<time>2026-09-01T12:50:18Z</time>
					</trkpt>
					<trkpt lat="48.513680" lon="-3.574920">
						<ele>189</ele>
						<time>2026-09-01T12:50:21Z</time>
					</trkpt>
					<trkpt lat="48.513490" lon="-3.574970">
						<ele>190</ele>
						<time>2026-09-01T12:50:31Z</time>
					</trkpt>
					<trkpt lat="48.513480" lon="-3.575060">
						<ele>189</ele>
						<time>2026-09-01T12:50:34Z</time>
					</trkpt>
					<trkpt lat="48.512580" lon="-3.574810">
						<ele>192</ele>
						<time>2026-09-01T12:51:19Z</time>
					</trkpt>
					<trkpt lat="48.512460" lon="-3.574740">
						<ele>193</ele>
						<time>2026-09-01T12:51:26Z</time>
					</trkpt>
					<trkpt lat="48.512260" lon="-3.574540">
						<ele>196</ele>
						<time>2026-09-01T12:51:38Z</time>
					</trkpt>
					<trkpt lat="48.512070" lon="-3.574270">
						<ele>200</ele>
						<time>2026-09-01T12:51:51Z</time>
					</trkpt>
					<trkpt lat="48.511700" lon="-3.574270">
						<ele>199</ele>
						<time>2026-09-01T12:52:09Z</time>
					</trkpt>
					<trkpt lat="48.511670" lon="-3.574280">
						<ele>199</ele>
						<time>2026-09-01T12:52:11Z</time>
					</trkpt>
					<trkpt lat="48.511620" lon="-3.574370">
						<ele>198</ele>
						<time>2026-09-01T12:52:15Z</time>
					</trkpt>
					<trkpt lat="48.511640" lon="-3.574740">
						<ele>194</ele>
						<time>2026-09-01T12:52:27Z</time>
					</trkpt>
					<trkpt lat="48.511580" lon="-3.574860">
						<ele>194</ele>
						<time>2026-09-01T12:52:32Z</time>
					</trkpt>
					<trkpt lat="48.511330" lon="-3.575120">
						<ele>194</ele>
						<time>2026-09-01T12:52:47Z</time>
					</trkpt>
					<trkpt lat="48.510770" lon="-3.575780">
						<ele>196</ele>
						<time>2026-09-01T12:53:23Z</time>
					</trkpt>
					<trkpt lat="48.510230" lon="-3.576590">
						<ele>195</ele>
						<time>2026-09-01T12:54:01Z</time>
					</trkpt>
					<trkpt lat="48.510130" lon="-3.576680">
						<ele>194</ele>
						<time>2026-09-01T12:54:07Z</time>
					</trkpt>
					<trkpt lat="48.509880" lon="-3.576820">
						<ele>196</ele>
						<time>2026-09-01T12:54:20Z</time>
					</trkpt>
					<trkpt lat="48.509400" lon="-3.577290">
						<ele>196</ele>
						<time>2026-09-01T12:54:49Z</time>
					</trkpt>
					<trkpt lat="48.509160" lon="-3.577490">
						<ele>196</ele>
						<time>2026-09-01T12:55:03Z</time>
					</trkpt>
					<trkpt lat="48.508860" lon="-3.577700">
						<ele>196</ele>
						<time>2026-09-01T12:55:19Z</time>
					</trkpt>
					<trkpt lat="48.508370" lon="-3.577930">
						<ele>195</ele>
						<time>2026-09-01T12:55:45Z</time>
					</trkpt>
					<trkpt lat="48.506900" lon="-3.578540">
						<ele>201</ele>
						<time>2026-09-01T12:57:01Z</time>
					</trkpt>
					<trkpt lat="48.506580" lon="-3.578500">
						<ele>203</ele>
						<time>2026-09-01T12:57:17Z</time>
					</trkpt>
					<trkpt lat="48.506150" lon="-3.578580">
						<ele>201</ele>
						<time>2026-09-01T12:57:39Z</time>
					</trkpt>
					<trkpt lat="48.505920" lon="-3.578590">
						<ele>200</ele>
						<time>2026-09-01T12:57:50Z</time>
					</trkpt>
					<trkpt lat="48.505680" lon="-3.578760">
						<ele>199</ele>
						<time>2026-09-01T12:58:04Z</time>
					</trkpt>
					<trkpt lat="48.505610" lon="-3.578900">
						<ele>199</ele>
						<time>2026-09-01T12:58:09Z</time>
					</trkpt>
					<trkpt lat="48.505600" lon="-3.579040">
						<ele>198</ele>
						<time>2026-09-01T12:58:14Z</time>
					</trkpt>
					<trkpt lat="48.505650" lon="-3.579220">
						<ele>197</ele>
						<time>2026-09-01T12:58:21Z</time>
					</trkpt>
					<trkpt lat="48.505650" lon="-3.579420">
						<ele>197</ele>
						<time>2026-09-01T12:58:27Z</time>
					</trkpt>
					<trkpt lat="48.505520" lon="-3.579690">
						<ele>198</ele>
						<time>2026-09-01T12:58:38Z</time>
					</trkpt>
					<trkpt lat="48.505370" lon="-3.579770">
						<ele>200</ele>
						<time>2026-09-01T12:58:46Z</time>
					</trkpt>
					<trkpt lat="48.505260" lon="-3.579800">
						<ele>201</ele>
						<time>2026-09-01T12:58:52Z</time>
					</trkpt>
					<trkpt lat="48.505090" lon="-3.579900">
						<ele>203</ele>
						<time>2026-09-01T12:59:01Z</time>
					</trkpt>
					<trkpt lat="48.504930" lon="-3.580170">
						<ele>203</ele>
						<time>2026-09-01T12:59:13Z</time>
					</trkpt>
					<trkpt lat="48.504720" lon="-3.580370">
						<ele>202</ele>
						<time>2026-09-01T12:59:25Z</time>
					</trkpt>
					<trkpt lat="48.504500" lon="-3.580370">
						<ele>202</ele>
						<time>2026-09-01T12:59:36Z</time>
					</trkpt>
					<trkpt lat="48.504400" lon="-3.580340">
						<ele>201</ele>
						<time>2026-09-01T12:59:41Z</time>
					</trkpt>
					<trkpt lat="48.504270" lon="-3.580190">
						<ele>202</ele>
						<time>2026-09-01T12:59:50Z</time>
					</trkpt>
					<trkpt lat="48.504260" lon="-3.580120">
						<ele>202</ele>
						<time>2026-09-01T12:59:52Z</time>
					</trkpt>
					<trkpt lat="48.504200" lon="-3.580230">
						<ele>202</ele>
						<time>2026-09-01T12:59:57Z</time>
					</trkpt>
					<trkpt lat="48.504190" lon="-3.580350">
						<ele>201</ele>
						<time>2026-09-01T13:00:01Z</time>
					</trkpt>
					<trkpt lat="48.504220" lon="-3.580670">
						<ele>199</ele>
						<time>2026-09-01T13:00:11Z</time>
					</trkpt>
					<trkpt lat="48.504410" lon="-3.581640">
						<ele>192</ele>
						<time>2026-09-01T13:00:45Z</time>
					</trkpt>
					<trkpt lat="48.504400" lon="-3.581850">
						<ele>191</ele>
						<time>2026-09-01T13:00:52Z</time>
					</trkpt>
					<trkpt lat="48.504300" lon="-3.581970">
						<ele>191</ele>
						<time>2026-09-01T13:00:58Z</time>
					</trkpt>
					<trkpt lat="48.504150" lon="-3.582010">
						<ele>191</ele>
						<time>2026-09-01T13:01:06Z</time>
					</trkpt>
					<trkpt lat="48.503770" lon="-3.582310">
						<ele>194</ele>
						<time>2026-09-01T13:01:27Z</time>
					</trkpt>
					<trkpt lat="48.503630" lon="-3.582520">
						<ele>195</ele>
						<time>2026-09-01T13:01:37Z</time>
					</trkpt>
					<trkpt lat="48.503440" lon="-3.582880">
						<ele>196</ele>
						<time>2026-09-01T13:01:53Z</time>
					</trkpt>
					<trkpt lat="48.503170" lon="-3.584030">
						<ele>196</ele>
						<time>2026-09-01T13:02:33Z</time>
					</trkpt>
					<trkpt lat="48.502980" lon="-3.584670">
						<ele>197</ele>
						<time>2026-09-01T13:02:56Z</time>
					</trkpt>
					<trkpt lat="48.502690" lon="-3.585320">
						<ele>196</ele>
						<time>2026-09-01T13:03:22Z</time>
					</trkpt>
					<trkpt lat="48.502190" lon="-3.586860">
						<ele>201</ele>
						<time>2026-09-01T13:04:19Z</time>
					</trkpt>
					<trkpt lat="48.501850" lon="-3.587680">
						<ele>202</ele>
						<time>2026-09-01T13:04:51Z</time>
					</trkpt>
					<trkpt lat="48.501710" lon="-3.588100">
						<ele>199</ele>
						<time>2026-09-01T13:05:07Z</time>
					</trkpt>
					<trkpt lat="48.501670" lon="-3.588140">
						<ele>199</ele>
						<time>2026-09-01T13:05:09Z</time>
					</trkpt>
					<trkpt lat="48.501570" lon="-3.588200">
						<ele>199</ele>
						<time>2026-09-01T13:05:15Z</time>
					</trkpt>
					<trkpt lat="48.501420" lon="-3.588020">
						<ele>203</ele>
						<time>2026-09-01T13:05:24Z</time>
					</trkpt>
					<trkpt lat="48.501160" lon="-3.587770">
						<ele>208</ele>
						<time>2026-09-01T13:05:40Z</time>
					</trkpt>
					<trkpt lat="48.500380" lon="-3.587080">
						<ele>225</ele>
						<time>2026-09-01T13:06:25Z</time>
					</trkpt>
					<trkpt lat="48.500140" lon="-3.586910">
						<ele>230</ele>
						<time>2026-09-01T13:06:38Z</time>
					</trkpt>
					<trkpt lat="48.500000" lon="-3.586840">
						<ele>232</ele>
						<time>2026-09-01T13:06:46Z</time>
					</trkpt>
					<trkpt lat="48.499380" lon="-3.586670">
						<ele>240</ele>
						<time>2026-09-01T13:07:17Z</time>
					</trkpt>
					<trkpt lat="48.498830" lon="-3.586560">
						<ele>246</ele>
						<time>2026-09-01T13:07:45Z</time>
					</trkpt>
					<trkpt lat="48.498020" lon="-3.586460">
						<ele>252</ele>
						<time>2026-09-01T13:08:26Z</time>
					</trkpt>
					<trkpt lat="48.497800" lon="-3.586480">
						<ele>253</ele>
						<time>2026-09-01T13:08:37Z</time>
					</trkpt>
					<trkpt lat="48.496780" lon="-3.586760">
						<ele>254</ele>
						<time>2026-09-01T13:09:28Z</time>
					</trkpt>
					<trkpt lat="48.496610" lon="-3.586750">
						<ele>255</ele>
						<time>2026-09-01T13:09:37Z</time>
					</trkpt>
					<trkpt lat="48.496030" lon="-3.586580">
						<ele>258</ele>
						<time>2026-09-01T13:10:06Z</time>
					</trkpt>
					<trkpt lat="48.495930" lon="-3.586570">
						<ele>258</ele>
						<time>2026-09-01T13:10:12Z</time>
					</trkpt>
					<trkpt lat="48.495830" lon="-3.586570">
						<ele>258</ele>
						<time>2026-09-01T13:10:17Z</time>
					</trkpt>
					<trkpt lat="48.495420" lon="-3.586660">
						<ele>261</ele>
						<time>2026-09-01T13:10:37Z</time>
					</trkpt>
					<trkpt lat="48.495250" lon="-3.586710">
						<ele>262</ele>
						<time>2026-09-01T13:10:46Z</time>
					</trkpt>
					<trkpt lat="48.495210" lon="-3.587600">
						<ele>260</ele>
						<time>2026-09-01T13:11:15Z</time>
					</trkpt>
					<trkpt lat="48.495190" lon="-3.587820">
						<ele>259</ele>
						<time>2026-09-01T13:11:23Z</time>
					</trkpt>
					<trkpt lat="48.495150" lon="-3.587940">
						<ele>260</ele>
						<time>2026-09-01T13:11:27Z</time>
					</trkpt>
					<trkpt lat="48.494920" lon="-3.588240">
						<ele>260</ele>
						<time>2026-09-01T13:11:43Z</time>
					</trkpt>
					<trkpt lat="48.494540" lon="-3.589100">
						<ele>260</ele>
						<time>2026-09-01T13:12:17Z</time>
					</trkpt>
					<trkpt lat="48.494490" lon="-3.589160">
						<ele>260</ele>
						<time>2026-09-01T13:12:20Z</time>
					</trkpt>
					<trkpt lat="48.494210" lon="-3.589350">
						<ele>261</ele>
						<time>2026-09-01T13:12:35Z</time>
					</trkpt>
					<trkpt lat="48.493540" lon="-3.590210">
						<ele>260</ele>
						<time>2026-09-01T13:13:19Z</time>
					</trkpt>
					<trkpt lat="48.493420" lon="-3.590420">
						<ele>260</ele>
						<time>2026-09-01T13:13:29Z</time>
					</trkpt>
					<trkpt lat="48.493140" lon="-3.591010">
						<ele>259</ele>
						<time>2026-09-01T13:13:53Z</time>
					</trkpt>
					<trkpt lat="48.492850" lon="-3.591760">
						<ele>258</ele>
						<time>2026-09-01T13:14:21Z</time>
					</trkpt>
					<trkpt lat="48.492730" lon="-3.592140">
						<ele>257</ele>
						<time>2026-09-01T13:14:35Z</time>
					</trkpt>
					<trkpt lat="48.492630" lon="-3.592670">
						<ele>256</ele>
						<time>2026-09-01T13:14:54Z</time>
					</trkpt>
					<trkpt lat="48.492550" lon="-3.592610">
						<ele>256</ele>
						<time>2026-09-01T13:14:58Z</time>
					</trkpt>
					<trkpt lat="48.492320" lon="-3.592210">
						<ele>255</ele>
						<time>2026-09-01T13:15:16Z</time>
					</trkpt>
					<trkpt lat="48.492160" lon="-3.592000">
						<ele>253</ele>
						<time>2026-09-01T13:15:26Z</time>
					</trkpt>
					<trkpt lat="48.491780" lon="-3.591670">
						<ele>251</ele>
						<time>2026-09-01T13:15:48Z</time>
					</trkpt>
					<trkpt lat="48.491420" lon="-3.591200">
						<ele>248</ele>
						<time>2026-09-01T13:16:12Z</time>
					</trkpt>
					<trkpt lat="48.491220" lon="-3.591090">
						<ele>247</ele>
						<time>2026-09-01T13:16:23Z</time>
					</trkpt>
					<trkpt lat="48.491030" lon="-3.591040">
						<ele>246</ele>
						<time>2026-09-01T13:16:32Z</time>
					</trkpt>
					<trkpt lat="48.490720" lon="-3.591000">
						<ele>244</ele>
						<time>2026-09-01T13:16:48Z</time>
					</trkpt>
					<trkpt lat="48.490640" lon="-3.591780">
						<ele>242</ele>
						<time>2026-09-01T13:17:14Z</time>
					</trkpt>
					<trkpt lat="48.490440" lon="-3.592690">
						<ele>241</ele>
						<time>2026-09-01T13:17:46Z</time>
					</trkpt>
					<trkpt lat="48.490390" lon="-3.593150">
						<ele>240</ele>
						<time>2026-09-01T13:18:01Z</time>
					</trkpt>
					<trkpt lat="48.490260" lon="-3.593470">
						<ele>239</ele>
						<time>2026-09-01T13:18:14Z</time>
					</trkpt>
					<trkpt lat="48.490050" lon="-3.593820">
						<ele>238</ele>
						<time>2026-09-01T13:18:29Z</time>
					</trkpt>
					<trkpt lat="48.489960" lon="-3.594120">
						<ele>238</ele>
						<time>2026-09-01T13:18:40Z</time>
					</trkpt>
					<trkpt lat="48.489900" lon="-3.594440">
						<ele>238</ele>
						<time>2026-09-01T13:18:51Z</time>
					</trkpt>
					<trkpt lat="48.489880" lon="-3.595450">
						<ele>236</ele>
						<time>2026-09-01T13:19:25Z</time>
					</trkpt>
					<trkpt lat="48.489930" lon="-3.595650">
						<ele>235</ele>
						<time>2026-09-01T13:19:32Z</time>
					</trkpt>
					<trkpt lat="48.489970" lon="-3.596180">
						<ele>233</ele>
						<time>2026-09-01T13:19:50Z</time>
					</trkpt>
					<trkpt lat="48.489900" lon="-3.596410">
						<ele>233</ele>
						<time>2026-09-01T13:19:58Z</time>
					</trkpt>
					<trkpt lat="48.490270" lon="-3.596720">
						<ele>233</ele>
						<time>2026-09-01T13:20:19Z</time>
					</trkpt>
					<trkpt lat="48.490530" lon="-3.597130">
						<ele>235</ele>
						<time>2026-09-01T13:20:38Z</time>
					</trkpt>
					<trkpt lat="48.490820" lon="-3.597730">
						<ele>237</ele>
						<time>2026-09-01T13:21:03Z</time>
					</trkpt>
					<trkpt lat="48.491010" lon="-3.597970">
						<ele>238</ele>
						<time>2026-09-01T13:21:15Z</time>
					</trkpt>
					<trkpt lat="48.491230" lon="-3.598290">
						<ele>238</ele>
						<time>2026-09-01T13:21:30Z</time>
					</trkpt>
					<trkpt lat="48.491230" lon="-3.598320">
						<ele>238</ele>
						<time>2026-09-01T13:21:31Z</time>
					</trkpt>
					<trkpt lat="48.492120" lon="-3.598880">
						<ele>236</ele>
						<time>2026-09-01T13:22:20Z</time>
					</trkpt>
					<trkpt lat="48.492780" lon="-3.599430">
						<ele>233</ele>
						<time>2026-09-01T13:22:57Z</time>
					</trkpt>
					<trkpt lat="48.492860" lon="-3.599450">
						<ele>233</ele>
						<time>2026-09-01T13:23:01Z</time>
					</trkpt>
					<trkpt lat="48.493330" lon="-3.599410">
						<ele>233</ele>
						<time>2026-09-01T13:23:25Z</time>
					</trkpt>
					<trkpt lat="48.493450" lon="-3.599430">
						<ele>232</ele>
						<time>2026-09-01T13:23:31Z</time>
					</trkpt>
					<trkpt lat="48.493590" lon="-3.599500">
						<ele>230</ele>
						<time>2026-09-01T13:23:38Z</time>
					</trkpt>
					<trkpt lat="48.493820" lon="-3.599690">
						<ele>229</ele>
						<time>2026-09-01T13:23:52Z</time>
					</trkpt>
					<trkpt lat="48.494180" lon="-3.600100">
						<ele>227</ele>
						<time>2026-09-01T13:24:14Z</time>
					</trkpt>
					<trkpt lat="48.494440" lon="-3.600290">
						<ele>226</ele>
						<time>2026-09-01T13:24:29Z</time>
					</trkpt>
					<trkpt lat="48.494940" lon="-3.600310">
						<ele>225</ele>
						<time>2026-09-01T13:24:54Z</time>
					</trkpt>
					<trkpt lat="48.495230" lon="-3.600280">
						<ele>223</ele>
						<time>2026-09-01T13:25:08Z</time>
					</trkpt>
					<trkpt lat="48.495900" lon="-3.600140">
						<ele>217</ele>
						<time>2026-09-01T13:25:42Z</time>
					</trkpt>
					<trkpt lat="48.496140" lon="-3.600150">
						<ele>213</ele>
						<time>2026-09-01T13:25:54Z</time>
					</trkpt>
					<trkpt lat="48.496250" lon="-3.600310">
						<ele>212</ele>
						<time>2026-09-01T13:26:02Z</time>
					</trkpt>
					<trkpt lat="48.496330" lon="-3.600560">
						<ele>210</ele>
						<time>2026-09-01T13:26:11Z</time>
					</trkpt>
					<trkpt lat="48.496650" lon="-3.600970">
						<ele>205</ele>
						<time>2026-09-01T13:26:32Z</time>
					</trkpt>
					<trkpt lat="48.496830" lon="-3.601530">
						<ele>205</ele>
						<time>2026-09-01T13:26:53Z</time>
					</trkpt>
					<trkpt lat="48.496860" lon="-3.601790">
						<ele>206</ele>
						<time>2026-09-01T13:27:01Z</time>
					</trkpt>
					<trkpt lat="48.496900" lon="-3.601830">
						<ele>206</ele>
						<time>2026-09-01T13:27:04Z</time>
					</trkpt>
					<trkpt lat="48.496980" lon="-3.601850">
						<ele>206</ele>
						<time>2026-09-01T13:27:08Z</time>
					</trkpt>
					<trkpt lat="48.497070" lon="-3.601700">
						<ele>206</ele>
						<time>2026-09-01T13:27:14Z</time>
					</trkpt>
					<trkpt lat="48.497160" lon="-3.601660">
						<ele>206</ele>
						<time>2026-09-01T13:27:19Z</time>
					</trkpt>
					<trkpt lat="48.497340" lon="-3.601340">
						<ele>205</ele>
						<time>2026-09-01T13:27:33Z</time>
					</trkpt>
					<trkpt lat="48.497400" lon="-3.601300">
						<ele>205</ele>
						<time>2026-09-01T13:27:36Z</time>
					</trkpt>
					<trkpt lat="48.497490" lon="-3.601320">
						<ele>205</ele>
						<time>2026-09-01T13:27:41Z</time>
					</trkpt>
					<trkpt lat="48.497500" lon="-3.601460">
						<ele>206</ele>
						<time>2026-09-01T13:27:46Z</time>
					</trkpt>
					<trkpt lat="48.497460" lon="-3.602080">
						<ele>207</ele>
						<time>2026-09-01T13:28:06Z</time>
					</trkpt>
					<trkpt lat="48.497600" lon="-3.602510">
						<ele>208</ele>
						<time>2026-09-01T13:28:22Z</time>
					</trkpt>
					<trkpt lat="48.497980" lon="-3.603110">
						<ele>211</ele>
						<time>2026-09-01T13:28:50Z</time>
					</trkpt>
					<trkpt lat="48.498080" lon="-3.603150">
						<ele>211</ele>
						<time>2026-09-01T13:28:55Z</time>
					</trkpt>
					<trkpt lat="48.498390" lon="-3.603390">
						<ele>213</ele>
						<time>2026-09-01T13:29:12Z</time>
					</trkpt>
					<trkpt lat="48.498410" lon="-3.603520">
						<ele>213</ele>
						<time>2026-09-01T13:29:17Z</time>
					</trkpt>
					<trkpt lat="48.498410" lon="-3.604300">
						<ele>215</ele>
						<time>2026-09-01T13:29:43Z</time>
					</trkpt>
					<trkpt lat="48.498580" lon="-3.604580">
						<ele>216</ele>
						<time>2026-09-01T13:29:55Z</time>
					</trkpt>
					<trkpt lat="48.498670" lon="-3.604780">
						<ele>217</ele>
						<time>2026-09-01T13:30:03Z</time>
					</trkpt>
					<trkpt lat="48.498790" lon="-3.605260">
						<ele>220</ele>
						<time>2026-09-01T13:30:20Z</time>
					</trkpt>
					<trkpt lat="48.498760" lon="-3.605490">
						<ele>221</ele>
						<time>2026-09-01T13:30:28Z</time>
					</trkpt>
					<trkpt lat="48.498570" lon="-3.606160">
						<ele>222</ele>
						<time>2026-09-01T13:30:52Z</time>
					</trkpt>
					<trkpt lat="48.498490" lon="-3.606570">
						<ele>223</ele>
						<time>2026-09-01T13:31:06Z</time>
					</trkpt>
					<trkpt lat="48.498080" lon="-3.608900">
						<ele>221</ele>
						<time>2026-09-01T13:32:26Z</time>
					</trkpt>
					<trkpt lat="48.498030" lon="-3.609450">
						<ele>222</ele>
						<time>2026-09-01T13:32:45Z</time>
					</trkpt>
					<trkpt lat="48.498030" lon="-3.610100">
						<ele>222</ele>
						<time>2026-09-01T13:33:06Z</time>
					</trkpt>
					<trkpt lat="48.497970" lon="-3.610470">
						<ele>221</ele>
						<time>2026-09-01T13:33:19Z</time>
					</trkpt>
					<trkpt lat="48.497800" lon="-3.611160">
						<ele>219</ele>
						<time>2026-09-01T13:33:43Z</time>
					</trkpt>
					<trkpt lat="48.497770" lon="-3.611670">
						<ele>220</ele>
						<time>2026-09-01T13:34:00Z</time>
					</trkpt>
					<trkpt lat="48.497800" lon="-3.611840">
						<ele>221</ele>
						<time>2026-09-01T13:34:06Z</time>
					</trkpt>
					<trkpt lat="48.497750" lon="-3.611970">
						<ele>221</ele>
						<time>2026-09-01T13:34:11Z</time>
					</trkpt>
					<trkpt lat="48.497660" lon="-3.612370">
						<ele>221</ele>
						<time>2026-09-01T13:34:25Z</time>
					</trkpt>
					<trkpt lat="48.497590" lon="-3.612550">
						<ele>221</ele>
						<time>2026-09-01T13:34:32Z</time>
					</trkpt>
					<trkpt lat="48.497430" lon="-3.612830">
						<ele>221</ele>
						<time>2026-09-01T13:34:44Z</time>
					</trkpt>
					<trkpt lat="48.497350" lon="-3.612890">
						<ele>221</ele>
						<time>2026-09-01T13:34:49Z</time>
					</trkpt>
					<trkpt lat="48.497230" lon="-3.612930">
						<ele>220</ele>
						<time>2026-09-01T13:34:55Z</time>
					</trkpt>
					<trkpt lat="48.497130" lon="-3.613010">
						<ele>220</ele>
						<time>2026-09-01T13:35:01Z</time>
					</trkpt>
					<trkpt lat="48.497000" lon="-3.613600">
						<ele>221</ele>
						<time>2026-09-01T13:35:21Z</time>
					</trkpt>
					<trkpt lat="48.496720" lon="-3.614480">
						<ele>225</ele>
						<time>2026-09-01T13:35:54Z</time>
					</trkpt>
					<trkpt lat="48.496310" lon="-3.614800">
						<ele>226</ele>
						<time>2026-09-01T13:36:17Z</time>
					</trkpt>
					<trkpt lat="48.495830" lon="-3.615450">
						<ele>228</ele>
						<time>2026-09-01T13:36:49Z</time>
					</trkpt>
					<trkpt lat="48.495610" lon="-3.615660">
						<ele>229</ele>
						<time>2026-09-01T13:37:02Z</time>
					</trkpt>
					<trkpt lat="48.495470" lon="-3.615830">
						<ele>229</ele>
						<time>2026-09-01T13:37:11Z</time>
					</trkpt>
					<trkpt lat="48.495440" lon="-3.615900">
						<ele>230</ele>
						<time>2026-09-01T13:37:14Z</time>
					</trkpt>
					<trkpt lat="48.495420" lon="-3.616270">
						<ele>231</ele>
						<time>2026-09-01T13:37:26Z</time>
					</trkpt>
					<trkpt lat="48.495220" lon="-3.617170">
						<ele>234</ele>
						<time>2026-09-01T13:37:57Z</time>
					</trkpt>
					<trkpt lat="48.495220" lon="-3.617760">
						<ele>235</ele>
						<time>2026-09-01T13:38:17Z</time>
					</trkpt>
					<trkpt lat="48.495180" lon="-3.617960">
						<ele>236</ele>
						<time>2026-09-01T13:38:24Z</time>
					</trkpt>
					<trkpt lat="48.495280" lon="-3.618150">
						<ele>236</ele>
						<time>2026-09-01T13:38:32Z</time>
					</trkpt>
					<trkpt lat="48.495340" lon="-3.618340">
						<ele>237</ele>
						<time>2026-09-01T13:38:39Z</time>
					</trkpt>
					<trkpt lat="48.495620" lon="-3.618230">
						<ele>236</ele>
						<time>2026-09-01T13:38:53Z</time>
					</trkpt>
					<trkpt lat="48.495700" lon="-3.618500">
						<ele>236</ele>
						<time>2026-09-01T13:39:03Z</time>
					</trkpt>
					<trkpt lat="48.495760" lon="-3.618590">
						<ele>237</ele>
						<time>2026-09-01T13:39:07Z</time>
					</trkpt>
					<trkpt lat="48.496800" lon="-3.619480">
						<ele>239</ele>
						<time>2026-09-01T13:40:07Z</time>
					</trkpt>
					<trkpt lat="48.497580" lon="-3.619950">
						<ele>240</ele>
						<time>2026-09-01T13:40:49Z</time>
					</trkpt>
					<trkpt lat="48.497810" lon="-3.620010">
						<ele>241</ele>
						<time>2026-09-01T13:41:01Z</time>
					</trkpt>
					<trkpt lat="48.498040" lon="-3.622060">
						<ele>240</ele>
						<time>2026-09-01T13:42:10Z</time>
					</trkpt>
					<trkpt lat="48.498040" lon="-3.622440">
						<ele>240</ele>
						<time>2026-09-01T13:42:23Z</time>
					</trkpt>
					<trkpt lat="48.497980" lon="-3.622710">
						<ele>240</ele>
						<time>2026-09-01T13:42:32Z</time>
					</trkpt>
					<trkpt lat="48.497930" lon="-3.623400">
						<ele>240</ele>
						<time>2026-09-01T13:42:55Z</time>
					</trkpt>
					<trkpt lat="48.497950" lon="-3.623540">
						<ele>240</ele>
						<time>2026-09-01T13:43:00Z</time>
					</trkpt>
					<trkpt lat="48.498080" lon="-3.623890">
						<ele>240</ele>
						<time>2026-09-01T13:43:13Z</time>
					</trkpt>
					<trkpt lat="48.498090" lon="-3.624220">
						<ele>240</ele>
						<time>2026-09-01T13:43:24Z</time>
					</trkpt>
					<trkpt lat="48.497950" lon="-3.626350">
						<ele>240</ele>
						<time>2026-09-01T13:44:35Z</time>
					</trkpt>
					<trkpt lat="48.497960" lon="-3.626430">
						<ele>240</ele>
						<time>2026-09-01T13:44:38Z</time>
					</trkpt>
					<trkpt lat="48.498050" lon="-3.626520">
						<ele>241</ele>
						<time>2026-09-01T13:44:43Z</time>
					</trkpt>
					<trkpt lat="48.498600" lon="-3.626630">
						<ele>243</ele>
						<time>2026-09-01T13:45:11Z</time>
					</trkpt>
					<trkpt lat="48.498470" lon="-3.626860">
						<ele>242</ele>
						<time>2026-09-01T13:45:21Z</time>
					</trkpt>
					<trkpt lat="48.497930" lon="-3.628090">
						<ele>238</ele>
						<time>2026-09-01T13:46:10Z</time>
					</trkpt>
					<trkpt lat="48.497690" lon="-3.628030">
						<ele>238</ele>
						<time>2026-09-01T13:46:22Z</time>
					</trkpt>
					<trkpt lat="48.497450" lon="-3.628020">
						<ele>238</ele>
						<time>2026-09-01T13:46:34Z</time>
					</trkpt>
					<trkpt lat="48.497090" lon="-3.628050">
						<ele>236</ele>
						<time>2026-09-01T13:46:52Z</time>
					</trkpt>
					<trkpt lat="48.496690" lon="-3.628160">
						<ele>234</ele>
						<time>2026-09-01T13:47:12Z</time>
					</trkpt>
					<trkpt lat="48.496600" lon="-3.628220">
						<ele>233</ele>
						<time>2026-09-01T13:47:17Z</time>
					</trkpt>
					<trkpt lat="48.496270" lon="-3.628720">
						<ele>229</ele>
						<time>2026-09-01T13:47:41Z</time>
					</trkpt>
					<trkpt lat="48.495930" lon="-3.628920">
						<ele>226</ele>
						<time>2026-09-01T13:47:59Z</time>
					</trkpt>
					<trkpt lat="48.495590" lon="-3.629080">
						<ele>224</ele>
						<time>2026-09-01T13:48:17Z</time>
					</trkpt>
					<trkpt lat="48.495380" lon="-3.629130">
						<ele>224</ele>
						<time>2026-09-01T13:48:27Z</time>
					</trkpt>
					<trkpt lat="48.495310" lon="-3.629270">
						<ele>223</ele>
						<time>2026-09-01T13:48:33Z</time>
					</trkpt>
					<trkpt lat="48.495250" lon="-3.629740">
						<ele>220</ele>
						<time>2026-09-01T13:48:49Z</time>
					</trkpt>
					<trkpt lat="48.495260" lon="-3.630120">
						<ele>218</ele>
						<time>2026-09-01T13:49:02Z</time>
					</trkpt>
					<trkpt lat="48.495120" lon="-3.630130">
						<ele>218</ele>
						<time>2026-09-01T13:49:09Z</time>
					</trkpt>
					<trkpt lat="48.494920" lon="-3.630190">
						<ele>217</ele>
						<time>2026-09-01T13:49:19Z</time>
					</trkpt>
					<trkpt lat="48.494220" lon="-3.630580">
						<ele>215</ele>
						<time>2026-09-01T13:49:56Z</time>
					</trkpt>
					<trkpt lat="48.493430" lon="-3.631060">
						<ele>217</ele>
						<time>2026-09-01T13:50:39Z</time>
					</trkpt>
					<trkpt lat="48.493250" lon="-3.631140">
						<ele>217</ele>
						<time>2026-09-01T13:50:48Z</time>
					</trkpt>
					<trkpt lat="48.492960" lon="-3.631210">
						<ele>219</ele>
						<time>2026-09-01T13:51:03Z</time>
					</trkpt>
					<trkpt lat="48.491840" lon="-3.631350">
						<ele>225</ele>
						<time>2026-09-01T13:51:59Z</time>
					</trkpt>
					<trkpt lat="48.491980" lon="-3.631340">
						<ele>224</ele>
						<time>2026-09-01T13:52:06Z</time>
					</trkpt>
					<trkpt lat="48.491670" lon="-3.631910">
						<ele>224</ele>
						<time>2026-09-01T13:52:31Z</time>
					</trkpt>
					<trkpt lat="48.491670" lon="-3.631950">
						<ele>224</ele>
						<time>2026-09-01T13:52:32Z</time>
					</trkpt>
					<trkpt lat="48.491870" lon="-3.632470">
						<ele>222</ele>
						<time>2026-09-01T13:52:52Z</time>
					</trkpt>
					<trkpt lat="48.491900" lon="-3.632670">
						<ele>221</ele>
						<time>2026-09-01T13:52:59Z</time>
					</trkpt>
					<trkpt lat="48.491300" lon="-3.633310">
						<ele>224</ele>
						<time>2026-09-01T13:53:36Z</time>
					</trkpt>
					<trkpt lat="48.490680" lon="-3.633740">
						<ele>231</ele>
						<time>2026-09-01T13:54:10Z</time>
					</trkpt>
					<trkpt lat="48.490500" lon="-3.633920">
						<ele>232</ele>
						<time>2026-09-01T13:54:21Z</time>
					</trkpt>
					<trkpt lat="48.490080" lon="-3.634260">
						<ele>236</ele>
						<time>2026-09-01T13:54:44Z</time>
					</trkpt>
					<trkpt lat="48.489530" lon="-3.634660">
						<ele>236</ele>
						<time>2026-09-01T13:55:15Z</time>
					</trkpt>
					<trkpt lat="48.489250" lon="-3.634830">
						<ele>236</ele>
						<time>2026-09-01T13:55:30Z</time>
					</trkpt>
					<trkpt lat="48.489120" lon="-3.634880">
						<ele>236</ele>
						<time>2026-09-01T13:55:37Z</time>
					</trkpt>
					<trkpt lat="48.488830" lon="-3.634880">
						<ele>234</ele>
						<time>2026-09-01T13:55:51Z</time>
					</trkpt>
					<trkpt lat="48.488440" lon="-3.634760">
						<ele>233</ele>
						<time>2026-09-01T13:56:11Z</time>
					</trkpt>
					<trkpt lat="48.488300" lon="-3.634670">
						<ele>232</ele>
						<time>2026-09-01T13:56:19Z</time>
					</trkpt>
					<trkpt lat="48.488260" lon="-3.634670">
						<ele>232</ele>
						<time>2026-09-01T13:56:21Z</time>
					</trkpt>
					<trkpt lat="48.488000" lon="-3.634800">
						<ele>229</ele>
						<time>2026-09-01T13:56:35Z</time>
					</trkpt>
					<trkpt lat="48.487790" lon="-3.634970">
						<ele>227</ele>
						<time>2026-09-01T13:56:46Z</time>
					</trkpt>
					<trkpt lat="48.487790" lon="-3.635550">
						<ele>223</ele>
						<time>2026-09-01T13:57:06Z</time>
					</trkpt>
					<trkpt lat="48.487760" lon="-3.635740">
						<ele>222</ele>
						<time>2026-09-01T13:57:12Z</time>
					</trkpt>
					<trkpt lat="48.487700" lon="-3.635800">
						<ele>221</ele>
						<time>2026-09-01T13:57:16Z</time>
					</trkpt>
					<trkpt lat="48.487560" lon="-3.635850">
						<ele>221</ele>
						<time>2026-09-01T13:57:23Z</time>
					</trkpt>
					<trkpt lat="48.486650" lon="-3.636030">
						<ele>214</ele>
						<time>2026-09-01T13:58:09Z</time>
					</trkpt>
					<trkpt lat="48.486640" lon="-3.636100">
						<ele>214</ele>
						<time>2026-09-01T13:58:11Z</time>
					</trkpt>
					<trkpt lat="48.486840" lon="-3.636400">
						<ele>214</ele>
						<time>2026-09-01T13:58:25Z</time>
					</trkpt>
					<trkpt lat="48.486870" lon="-3.636590">
						<ele>214</ele>
						<time>2026-09-01T13:58:32Z</time>
					</trkpt>
					<trkpt lat="48.487100" lon="-3.637280">
						<ele>214</ele>
						<time>2026-09-01T13:58:57Z</time>
					</trkpt>
					<trkpt lat="48.487120" lon="-3.637580">
						<ele>214</ele>
						<time>2026-09-01T13:59:07Z</time>
					</trkpt>
					<trkpt lat="48.487100" lon="-3.637750">
						<ele>214</ele>
						<time>2026-09-01T13:59:13Z</time>
					</trkpt>
					<trkpt lat="48.487020" lon="-3.637910">
						<ele>215</ele>
						<time>2026-09-01T13:59:20Z</time>
					</trkpt>
					<trkpt lat="48.486830" lon="-3.638170">
						<ele>216</ele>
						<time>2026-09-01T13:59:33Z</time>
					</trkpt>
					<trkpt lat="48.486660" lon="-3.638320">
						<ele>217</ele>
						<time>2026-09-01T13:59:43Z</time>
					</trkpt>
					<trkpt lat="48.486590" lon="-3.638440">
						<ele>217</ele>
						<time>2026-09-01T13:59:48Z</time>
					</trkpt>
					<trkpt lat="48.486290" lon="-3.638770">
						<ele>217</ele>
						<time>2026-09-01T14:00:06Z</time>
					</trkpt>
					<trkpt lat="48.486210" lon="-3.638930">
						<ele>217</ele>
						<time>2026-09-01T14:00:13Z</time>
					</trkpt>
					<trkpt lat="48.485950" lon="-3.639880">
						<ele>217</ele>
						<time>2026-09-01T14:00:47Z</time>
					</trkpt>
					<trkpt lat="48.486140" lon="-3.640000">
						<ele>214</ele>
						<time>2026-09-01T14:00:57Z</time>
					</trkpt>
					<trkpt lat="48.486280" lon="-3.640290">
						<ele>211</ele>
						<time>2026-09-01T14:01:09Z</time>
					</trkpt>
					<trkpt lat="48.486240" lon="-3.640820">
						<ele>210</ele>
						<time>2026-09-01T14:01:27Z</time>
					</trkpt>
					<trkpt lat="48.486540" lon="-3.641310">
						<ele>204</ele>
						<time>2026-09-01T14:01:49Z</time>
					</trkpt>
					<trkpt lat="48.486460" lon="-3.642250">
						<ele>198</ele>
						<time>2026-09-01T14:02:21Z</time>
					</trkpt>
					<trkpt lat="48.486050" lon="-3.643050">
						<ele>197</ele>
						<time>2026-09-01T14:02:54Z</time>
					</trkpt>
					<trkpt lat="48.485420" lon="-3.644450">
						<ele>195</ele>
						<time>2026-09-01T14:03:50Z</time>
					</trkpt>
					<trkpt lat="48.484530" lon="-3.645390">
						<ele>199</ele>
						<time>2026-09-01T14:04:45Z</time>
					</trkpt>
					<trkpt lat="48.484010" lon="-3.645490">
						<ele>205</ele>
						<time>2026-09-01T14:05:11Z</time>
					</trkpt>
					<trkpt lat="48.483660" lon="-3.645660">
						<ele>209</ele>
						<time>2026-09-01T14:05:29Z</time>
					</trkpt>
					<trkpt lat="48.483520" lon="-3.645420">
						<ele>212</ele>
						<time>2026-09-01T14:05:40Z</time>
					</trkpt>
					<trkpt lat="48.483180" lon="-3.645590">
						<ele>215</ele>
						<time>2026-09-01T14:05:58Z</time>
					</trkpt>
					<trkpt lat="48.483190" lon="-3.646430">
						<ele>208</ele>
						<time>2026-09-01T14:06:26Z</time>
					</trkpt>
					<trkpt lat="48.483230" lon="-3.646720">
						<ele>205</ele>
						<time>2026-09-01T14:06:36Z</time>
					</trkpt>
					<trkpt lat="48.483420" lon="-3.647340">
						<ele>199</ele>
						<time>2026-09-01T14:06:58Z</time>
					</trkpt>
					<trkpt lat="48.483470" lon="-3.647620">
						<ele>197</ele>
						<time>2026-09-01T14:07:08Z</time>
					</trkpt>
					<trkpt lat="48.483560" lon="-3.648440">
						<ele>194</ele>
						<time>2026-09-01T14:07:35Z</time>
					</trkpt>
					<trkpt lat="48.483570" lon="-3.648970">
						<ele>195</ele>
						<time>2026-09-01T14:07:53Z</time>
					</trkpt>
					<trkpt lat="48.483610" lon="-3.649450">
						<ele>196</ele>
						<time>2026-09-01T14:08:09Z</time>
					</trkpt>
					<trkpt lat="48.483830" lon="-3.651130">
						<ele>202</ele>
						<time>2026-09-01T14:09:06Z</time>
					</trkpt>
					<trkpt lat="48.483910" lon="-3.651390">
						<ele>204</ele>
						<time>2026-09-01T14:09:15Z</time>
					</trkpt>
					<trkpt lat="48.484360" lon="-3.652270">
						<ele>208</ele>
						<time>2026-09-01T14:09:52Z</time>
					</trkpt>
					<trkpt lat="48.484320" lon="-3.652450">
						<ele>208</ele>
						<time>2026-09-01T14:09:58Z</time>
					</trkpt>
					<trkpt lat="48.484240" lon="-3.652650">
						<ele>208</ele>
						<time>2026-09-01T14:10:06Z</time>
					</trkpt>
					<trkpt lat="48.484120" lon="-3.653410">
						<ele>208</ele>
						<time>2026-09-01T14:10:32Z</time>
					</trkpt>
					<trkpt lat="48.484040" lon="-3.654850">
						<ele>213</ele>
						<time>2026-09-01T14:11:20Z</time>
					</trkpt>
					<trkpt lat="48.484070" lon="-3.655740">
						<ele>215</ele>
						<time>2026-09-01T14:11:50Z</time>
					</trkpt>
					<trkpt lat="48.484050" lon="-3.656410">
						<ele>217</ele>
						<time>2026-09-01T14:12:12Z</time>
					</trkpt>
					<trkpt lat="48.483920" lon="-3.657090">
						<ele>220</ele>
						<time>2026-09-01T14:12:35Z</time>
					</trkpt>
					<trkpt lat="48.483890" lon="-3.657440">
						<ele>221</ele>
						<time>2026-09-01T14:12:47Z</time>
					</trkpt>
					<trkpt lat="48.483880" lon="-3.658030">
						<ele>223</ele>
						<time>2026-09-01T14:13:07Z</time>
					</trkpt>
					<trkpt lat="48.484060" lon="-3.660460">
						<ele>232</ele>
						<time>2026-09-01T14:14:28Z</time>
					</trkpt>
					<trkpt lat="48.484370" lon="-3.660560">
						<ele>234</ele>
						<time>2026-09-01T14:14:44Z</time>
					</trkpt>
					<trkpt lat="48.484800" lon="-3.660560">
						<ele>236</ele>
						<time>2026-09-01T14:15:05Z</time>
					</trkpt>
					<trkpt lat="48.485550" lon="-3.660450">
						<ele>241</ele>
						<time>2026-09-01T14:15:43Z</time>
					</trkpt>
					<trkpt lat="48.486480" lon="-3.660150">
						<ele>245</ele>
						<time>2026-09-01T14:16:30Z</time>
					</trkpt>
					<trkpt lat="48.486850" lon="-3.660080">
						<ele>245</ele>
						<time>2026-09-01T14:16:49Z</time>
					</trkpt>
					<trkpt lat="48.486970" lon="-3.660220">
						<ele>246</ele>
						<time>2026-09-01T14:16:57Z</time>
					</trkpt>
					<trkpt lat="48.486820" lon="-3.660650">
						<ele>247</ele>
						<time>2026-09-01T14:17:13Z</time>
					</trkpt>
					<trkpt lat="48.487660" lon="-3.661370">
						<ele>248</ele>
						<time>2026-09-01T14:18:01Z</time>
					</trkpt>
					<trkpt lat="48.487930" lon="-3.661490">
						<ele>247</ele>
						<time>2026-09-01T14:18:15Z</time>
					</trkpt>
					<trkpt lat="48.488520" lon="-3.661670">
						<ele>245</ele>
						<time>2026-09-01T14:18:45Z</time>
					</trkpt>
					<trkpt lat="48.489010" lon="-3.662040">
						<ele>242</ele>
						<time>2026-09-01T14:19:13Z</time>
					</trkpt>
					<trkpt lat="48.489260" lon="-3.662340">
						<ele>240</ele>
						<time>2026-09-01T14:19:29Z</time>
					</trkpt>
					<trkpt lat="48.489470" lon="-3.662810">
						<ele>238</ele>
						<time>2026-09-01T14:19:48Z</time>
					</trkpt>
					<trkpt lat="48.489590" lon="-3.662980">
						<ele>237</ele>
						<time>2026-09-01T14:19:56Z</time>
					</trkpt>
					<trkpt lat="48.489650" lon="-3.663370">
						<ele>236</ele>
						<time>2026-09-01T14:20:09Z</time>
					</trkpt>
					<trkpt lat="48.489690" lon="-3.663410">
						<ele>235</ele>
						<time>2026-09-01T14:20:11Z</time>
					</trkpt>
					<trkpt lat="48.489850" lon="-3.663440">
						<ele>234</ele>
						<time>2026-09-01T14:20:20Z</time>
					</trkpt>
					<trkpt lat="48.489930" lon="-3.663500">
						<ele>234</ele>
						<time>2026-09-01T14:20:24Z</time>
					</trkpt>
					<trkpt lat="48.489990" lon="-3.663700">
						<ele>233</ele>
						<time>2026-09-01T14:20:31Z</time>
					</trkpt>
					<trkpt lat="48.489980" lon="-3.664190">
						<ele>231</ele>
						<time>2026-09-01T14:20:48Z</time>
					</trkpt>
					<trkpt lat="48.490020" lon="-3.664370">
						<ele>231</ele>
						<time>2026-09-01T14:20:54Z</time>
					</trkpt>
					<trkpt lat="48.490040" lon="-3.664650">
						<ele>232</ele>
						<time>2026-09-01T14:21:03Z</time>
					</trkpt>
					<trkpt lat="48.490210" lon="-3.665150">
						<ele>233</ele>
						<time>2026-09-01T14:21:22Z</time>
					</trkpt>
					<trkpt lat="48.490210" lon="-3.666220">
						<ele>237</ele>
						<time>2026-09-01T14:21:57Z</time>
					</trkpt>
					<trkpt lat="48.490300" lon="-3.666610">
						<ele>239</ele>
						<time>2026-09-01T14:22:11Z</time>
					</trkpt>
					<trkpt lat="48.490310" lon="-3.667090">
						<ele>241</ele>
						<time>2026-09-01T14:22:27Z</time>
					</trkpt>
					<trkpt lat="48.490430" lon="-3.667420">
						<ele>242</ele>
						<time>2026-09-01T14:22:39Z</time>
					</trkpt>
					<trkpt lat="48.490440" lon="-3.667610">
						<ele>243</ele>
						<time>2026-09-01T14:22:46Z</time>
					</trkpt>
					<trkpt lat="48.490490" lon="-3.667870">
						<ele>244</ele>
						<time>2026-09-01T14:22:55Z</time>
					</trkpt>
					<trkpt lat="48.490640" lon="-3.668290">
						<ele>246</ele>
						<time>2026-09-01T14:23:11Z</time>
					</trkpt>
					<trkpt lat="48.490260" lon="-3.668680">
						<ele>247</ele>
						<time>2026-09-01T14:23:34Z</time>
					</trkpt>
					<trkpt lat="48.490100" lon="-3.668900">
						<ele>248</ele>
						<time>2026-09-01T14:23:44Z</time>
					</trkpt>
					<trkpt lat="48.490040" lon="-3.669030">
						<ele>249</ele>
						<time>2026-09-01T14:23:50Z</time>
					</trkpt>
					<trkpt lat="48.489660" lon="-3.670310">
						<ele>254</ele>
						<time>2026-09-01T14:24:36Z</time>
					</trkpt>
					<trkpt lat="48.489340" lon="-3.671080">
						<ele>257</ele>
						<time>2026-09-01T14:25:06Z</time>
					</trkpt>
					<trkpt lat="48.489280" lon="-3.671410">
						<ele>257</ele>
						<time>2026-09-01T14:25:18Z</time>
					</trkpt>
					<trkpt lat="48.489110" lon="-3.671330">
						<ele>258</ele>
						<time>2026-09-01T14:25:27Z</time>
					</trkpt>
					<trkpt lat="48.489010" lon="-3.671760">
						<ele>257</ele>
						<time>2026-09-01T14:25:42Z</time>
					</trkpt>
					<trkpt lat="48.489030" lon="-3.671890">
						<ele>257</ele>
						<time>2026-09-01T14:25:46Z</time>
					</trkpt>
					<trkpt lat="48.489020" lon="-3.672040">
						<ele>257</ele>
						<time>2026-09-01T14:25:51Z</time>
					</trkpt>
					<trkpt lat="48.488510" lon="-3.671740">
						<ele>258</ele>
						<time>2026-09-01T14:26:18Z</time>
					</trkpt>
					<trkpt lat="48.487750" lon="-3.671350">
						<ele>264</ele>
						<time>2026-09-01T14:26:59Z</time>
					</trkpt>
					<trkpt lat="48.487510" lon="-3.671100">
						<ele>266</ele>
						<time>2026-09-01T14:27:13Z</time>
					</trkpt>
					<trkpt lat="48.487320" lon="-3.670850">
						<ele>267</ele>
						<time>2026-09-01T14:27:26Z</time>
					</trkpt>
					<trkpt lat="48.487190" lon="-3.670470">
						<ele>268</ele>
						<time>2026-09-01T14:27:40Z</time>
					</trkpt>
					<trkpt lat="48.487020" lon="-3.670160">
						<ele>269</ele>
						<time>2026-09-01T14:27:53Z</time>
					</trkpt>
					<trkpt lat="48.486480" lon="-3.669640">
						<ele>269</ele>
						<time>2026-09-01T14:28:25Z</time>
					</trkpt>
					<trkpt lat="48.486530" lon="-3.669680">
						<ele>269</ele>
						<time>2026-09-01T14:28:28Z</time>
					</trkpt>
					<trkpt lat="48.486480" lon="-3.669930">
						<ele>270</ele>
						<time>2026-09-01T14:28:37Z</time>
					</trkpt>
					<trkpt lat="48.486490" lon="-3.670250">
						<ele>270</ele>
						<time>2026-09-01T14:28:48Z</time>
					</trkpt>
					<trkpt lat="48.486470" lon="-3.670420">
						<ele>270</ele>
						<time>2026-09-01T14:28:53Z</time>
					</trkpt>
					<trkpt lat="48.486340" lon="-3.671180">
						<ele>273</ele>
						<time>2026-09-01T14:29:19Z</time>
					</trkpt>
					<trkpt lat="48.486260" lon="-3.671390">
						<ele>274</ele>
						<time>2026-09-01T14:29:27Z</time>
					</trkpt>
					<trkpt lat="48.486250" lon="-3.671480">
						<ele>275</ele>
						<time>2026-09-01T14:29:30Z</time>
					</trkpt>
					<trkpt lat="48.486270" lon="-3.671590">
						<ele>275</ele>
						<time>2026-09-01T14:29:34Z</time>
					</trkpt>
					<trkpt lat="48.486350" lon="-3.671710">
						<ele>276</ele>
						<time>2026-09-01T14:29:40Z</time>
					</trkpt>
					<trkpt lat="48.486390" lon="-3.671860">
						<ele>276</ele>
						<time>2026-09-01T14:29:45Z</time>
					</trkpt>
					<trkpt lat="48.486350" lon="-3.672110">
						<ele>278</ele>
						<time>2026-09-01T14:29:54Z</time>
					</trkpt>
					<trkpt lat="48.486220" lon="-3.672410">
						<ele>281</ele>
						<time>2026-09-01T14:30:06Z</time>
					</trkpt>
					<trkpt lat="48.486150" lon="-3.672720">
						<ele>281</ele>
						<time>2026-09-01T14:30:16Z</time>
					</trkpt>
					<trkpt lat="48.486100" lon="-3.673090">
						<ele>280</ele>
						<time>2026-09-01T14:30:29Z</time>
					</trkpt>
					<trkpt lat="48.486110" lon="-3.673250">
						<ele>279</ele>
						<time>2026-09-01T14:30:34Z</time>
					</trkpt>
					<trkpt lat="48.486000" lon="-3.674090">
						<ele>274</ele>
						<time>2026-09-01T14:31:03Z</time>
					</trkpt>
					<trkpt lat="48.486020" lon="-3.674250">
						<ele>273</ele>
						<time>2026-09-01T14:31:08Z</time>
					</trkpt>
					<trkpt lat="48.486170" lon="-3.674510">
						<ele>272</ele>
						<time>2026-09-01T14:31:20Z</time>
					</trkpt>
					<trkpt lat="48.486260" lon="-3.675710">
						<ele>272</ele>
						<time>2026-09-01T14:32:00Z</time>
					</trkpt>
					<trkpt lat="48.486290" lon="-3.675840">
						<ele>273</ele>
						<time>2026-09-01T14:32:04Z</time>
					</trkpt>
					<trkpt lat="48.486330" lon="-3.675880">
						<ele>273</ele>
						<time>2026-09-01T14:32:07Z</time>
					</trkpt>
					<trkpt lat="48.486310" lon="-3.676110">
						<ele>274</ele>
						<time>2026-09-01T14:32:14Z</time>
					</trkpt>
					<trkpt lat="48.486360" lon="-3.676130">
						<ele>274</ele>
						<time>2026-09-01T14:32:17Z</time>
					</trkpt>
					<trkpt lat="48.485970" lon="-3.676060">
						<ele>272</ele>
						<time>2026-09-01T14:32:36Z</time>
					</trkpt>
					<trkpt lat="48.485910" lon="-3.676030">
						<ele>271</ele>
						<time>2026-09-01T14:32:40Z</time>
					</trkpt>
					<trkpt lat="48.485680" lon="-3.675870">
						<ele>268</ele>
						<time>2026-09-01T14:32:52Z</time>
					</trkpt>
					<trkpt lat="48.485250" lon="-3.675510">
						<ele>263</ele>
						<time>2026-09-01T14:33:17Z</time>
					</trkpt>
					<trkpt lat="48.484610" lon="-3.675080">
						<ele>260</ele>
						<time>2026-09-01T14:33:52Z</time>
					</trkpt>
					<trkpt lat="48.483910" lon="-3.674530">
						<ele>258</ele>
						<time>2026-09-01T14:34:31Z</time>
					</trkpt>
					<trkpt lat="48.483790" lon="-3.674490">
						<ele>258</ele>
						<time>2026-09-01T14:34:38Z</time>
					</trkpt>
					<trkpt lat="48.483630" lon="-3.674600">
						<ele>257</ele>
						<time>2026-09-01T14:34:46Z</time>
					</trkpt>
					<trkpt lat="48.483360" lon="-3.674710">
						<ele>256</ele>
						<time>2026-09-01T14:35:00Z</time>
					</trkpt>
					<trkpt lat="48.482300" lon="-3.675070">
						<ele>253</ele>
						<time>2026-09-01T14:35:55Z</time>
					</trkpt>
					<trkpt lat="48.481760" lon="-3.675210">
						<ele>250</ele>
						<time>2026-09-01T14:36:22Z</time>
					</trkpt>
					<trkpt lat="48.481630" lon="-3.675280">
						<ele>249</ele>
						<time>2026-09-01T14:36:29Z</time>
					</trkpt>
					<trkpt lat="48.481360" lon="-3.675620">
						<ele>247</ele>
						<time>2026-09-01T14:36:47Z</time>
					</trkpt>
					<trkpt lat="48.481040" lon="-3.676170">
						<ele>244</ele>
						<time>2026-09-01T14:37:11Z</time>
					</trkpt>
					<trkpt lat="48.480950" lon="-3.676430">
						<ele>244</ele>
						<time>2026-09-01T14:37:21Z</time>
					</trkpt>
					<trkpt lat="48.480800" lon="-3.677120">
						<ele>244</ele>
						<time>2026-09-01T14:37:45Z</time>
					</trkpt>
					<trkpt lat="48.480740" lon="-3.677270">
						<ele>244</ele>
						<time>2026-09-01T14:37:51Z</time>
					</trkpt>
					<trkpt lat="48.480690" lon="-3.677310">
						<ele>243</ele>
						<time>2026-09-01T14:37:53Z</time>
					</trkpt>
					<trkpt lat="48.480610" lon="-3.677330">
						<ele>242</ele>
						<time>2026-09-01T14:37:58Z</time>
					</trkpt>
					<trkpt lat="48.480540" lon="-3.677310">
						<ele>240</ele>
						<time>2026-09-01T14:38:01Z</time>
					</trkpt>
					<trkpt lat="48.479920" lon="-3.676940">
						<ele>230</ele>
						<time>2026-09-01T14:38:34Z</time>
					</trkpt>
					<trkpt lat="48.479770" lon="-3.676910">
						<ele>229</ele>
						<time>2026-09-01T14:38:42Z</time>
					</trkpt>
					<trkpt lat="48.479650" lon="-3.676960">
						<ele>228</ele>
						<time>2026-09-01T14:38:48Z</time>
					</trkpt>
					<trkpt lat="48.479690" lon="-3.677470">
						<ele>227</ele>
						<time>2026-09-01T14:39:05Z</time>
					</trkpt>
					<trkpt lat="48.479690" lon="-3.677800">
						<ele>228</ele>
						<time>2026-09-01T14:39:16Z</time>
					</trkpt>
					<trkpt lat="48.479670" lon="-3.678280">
						<ele>228</ele>
						<time>2026-09-01T14:39:32Z</time>
					</trkpt>
					<trkpt lat="48.479620" lon="-3.678590">
						<ele>228</ele>
						<time>2026-09-01T14:39:43Z</time>
					</trkpt>
					<trkpt lat="48.478910" lon="-3.681410">
						<ele>238</ele>
						<time>2026-09-01T14:41:23Z</time>
					</trkpt>
					<trkpt lat="48.478730" lon="-3.681890">
						<ele>239</ele>
						<time>2026-09-01T14:41:41Z</time>
					</trkpt>
					<trkpt lat="48.478490" lon="-3.682320">
						<ele>238</ele>
						<time>2026-09-01T14:42:00Z</time>
					</trkpt>
					<trkpt lat="48.478520" lon="-3.682410">
						<ele>238</ele>
						<time>2026-09-01T14:42:03Z</time>
					</trkpt>
					<trkpt lat="48.478390" lon="-3.682630">
						<ele>237</ele>
						<time>2026-09-01T14:42:13Z</time>
					</trkpt>
					<trkpt lat="48.478220" lon="-3.683180">
						<ele>232</ele>
						<time>2026-09-01T14:42:33Z</time>
					</trkpt>
					<trkpt lat="48.478160" lon="-3.683450">
						<ele>230</ele>
						<time>2026-09-01T14:42:42Z</time>
					</trkpt>
					<trkpt lat="48.478030" lon="-3.684370">
						<ele>227</ele>
						<time>2026-09-01T14:43:14Z</time>
					</trkpt>
					<trkpt lat="48.477970" lon="-3.685420">
						<ele>226</ele>
						<time>2026-09-01T14:43:49Z</time>
					</trkpt>
					<trkpt lat="48.477840" lon="-3.686690">
						<ele>222</ele>
						<time>2026-09-01T14:44:31Z</time>
					</trkpt>
					<trkpt lat="48.477590" lon="-3.688600">
						<ele>224</ele>
						<time>2026-09-01T14:45:36Z</time>
					</trkpt>
					<trkpt lat="48.477470" lon="-3.689090">
						<ele>225</ele>
						<time>2026-09-01T14:45:53Z</time>
					</trkpt>
					<trkpt lat="48.477460" lon="-3.689360">
						<ele>225</ele>
						<time>2026-09-01T14:46:02Z</time>
					</trkpt>
					<trkpt lat="48.477450" lon="-3.689300">
						<ele>225</ele>
						<time>2026-09-01T14:46:04Z</time>
					</trkpt>
					<trkpt lat="48.477390" lon="-3.689280">
						<ele>225</ele>
						<time>2026-09-01T14:46:07Z</time>
					</trkpt>
					<trkpt lat="48.477180" lon="-3.689130">
						<ele>223</ele>
						<time>2026-09-01T14:46:19Z</time>
					</trkpt>
					<trkpt lat="48.477040" lon="-3.689140">
						<ele>223</ele>
						<time>2026-09-01T14:46:26Z</time>
					</trkpt>
					<trkpt lat="48.476660" lon="-3.689310">
						<ele>221</ele>
						<time>2026-09-01T14:46:46Z</time>
					</trkpt>
					<trkpt lat="48.476570" lon="-3.689330">
						<ele>220</ele>
						<time>2026-09-01T14:46:50Z</time>
					</trkpt>
					<trkpt lat="48.476340" lon="-3.689320">
						<ele>219</ele>
						<time>2026-09-01T14:47:02Z</time>
					</trkpt>
					<trkpt lat="48.475990" lon="-3.689190">
						<ele>216</ele>
						<time>2026-09-01T14:47:20Z</time>
					</trkpt>
					<trkpt lat="48.475880" lon="-3.689210">
						<ele>215</ele>
						<time>2026-09-01T14:47:25Z</time>
					</trkpt>
					<trkpt lat="48.475810" lon="-3.689290">
						<ele>215</ele>
						<time>2026-09-01T14:47:30Z</time>
					</trkpt>
					<trkpt lat="48.475520" lon="-3.689960">
						<ele>213</ele>
						<time>2026-09-01T14:47:56Z</time>
					</trkpt>
					<trkpt lat="48.475450" lon="-3.690220">
						<ele>213</ele>
						<time>2026-09-01T14:48:06Z</time>
					</trkpt>
					<trkpt lat="48.475400" lon="-3.690800">
						<ele>212</ele>
						<time>2026-09-01T14:48:25Z</time>
					</trkpt>
					<trkpt lat="48.475290" lon="-3.691480">
						<ele>213</ele>
						<time>2026-09-01T14:48:48Z</time>
					</trkpt>
					<trkpt lat="48.475120" lon="-3.692280">
						<ele>213</ele>
						<time>2026-09-01T14:49:16Z</time>
					</trkpt>
					<trkpt lat="48.475020" lon="-3.693000">
						<ele>213</ele>
						<time>2026-09-01T14:49:41Z</time>
					</trkpt>
					<trkpt lat="48.474740" lon="-3.692960">
						<ele>211</ele>
						<time>2026-09-01T14:49:55Z</time>
					</trkpt>
					<trkpt lat="48.474690" lon="-3.693090">
						<ele>211</ele>
						<time>2026-09-01T14:50:00Z</time>
					</trkpt>
					<trkpt lat="48.474440" lon="-3.693500">
						<ele>210</ele>
						<time>2026-09-01T14:50:18Z</time>
					</trkpt>
					<trkpt lat="48.474290" lon="-3.693810">
						<ele>208</ele>
						<time>2026-09-01T14:50:31Z</time>
					</trkpt>
					<trkpt lat="48.474160" lon="-3.694140">
						<ele>207</ele>
						<time>2026-09-01T14:50:44Z</time>
					</trkpt>
					<trkpt lat="48.474100" lon="-3.694420">
						<ele>207</ele>
						<time>2026-09-01T14:50:53Z</time>
					</trkpt>
					<trkpt lat="48.474080" lon="-3.694670">
						<ele>207</ele>
						<time>2026-09-01T14:51:02Z</time>
					</trkpt>
					<trkpt lat="48.474100" lon="-3.695130">
						<ele>206</ele>
						<time>2026-09-01T14:51:17Z</time>
					</trkpt>
					<trkpt lat="48.474050" lon="-3.695230">
						<ele>206</ele>
						<time>2026-09-01T14:51:21Z</time>
					</trkpt>
					<trkpt lat="48.473980" lon="-3.695290">
						<ele>205</ele>
						<time>2026-09-01T14:51:25Z</time>
					</trkpt>
					<trkpt lat="48.473940" lon="-3.695290">
						<ele>205</ele>
						<time>2026-09-01T14:51:27Z</time>
					</trkpt>
					<trkpt lat="48.471490" lon="-3.695060">
						<ele>198</ele>
						<time>2026-09-01T14:53:30Z</time>
					</trkpt>
					<trkpt lat="48.470910" lon="-3.694990">
						<ele>197</ele>
						<time>2026-09-01T14:53:59Z</time>
					</trkpt>
					<trkpt lat="48.470400" lon="-3.694870">
						<ele>197</ele>
						<time>2026-09-01T14:54:25Z</time>
					</trkpt>
					<trkpt lat="48.470070" lon="-3.694820">
						<ele>197</ele>
						<time>2026-09-01T14:54:42Z</time>
					</trkpt>
					<trkpt lat="48.469320" lon="-3.694760">
						<ele>198</ele>
						<time>2026-09-01T14:55:19Z</time>
					</trkpt>
					<trkpt lat="48.467170" lon="-3.694510">
						<ele>203</ele>
						<time>2026-09-01T14:57:07Z</time>
					</trkpt>
					<trkpt lat="48.466570" lon="-3.694510">
						<ele>204</ele>
						<time>2026-09-01T14:57:37Z</time>
					</trkpt>
					<trkpt lat="48.466190" lon="-3.694560">
						<ele>207</ele>
						<time>2026-09-01T14:57:56Z</time>
					</trkpt>
					<trkpt lat="48.465980" lon="-3.694650">
						<ele>208</ele>
						<time>2026-09-01T14:58:07Z</time>
					</trkpt>
					<trkpt lat="48.465780" lon="-3.694700">
						<ele>209</ele>
						<time>2026-09-01T14:58:17Z</time>
					</trkpt>
					<trkpt lat="48.465590" lon="-3.694690">
						<ele>208</ele>
						<time>2026-09-01T14:58:27Z</time>
					</trkpt>
					<trkpt lat="48.465290" lon="-3.694630">
						<ele>207</ele>
						<time>2026-09-01T14:58:42Z</time>
					</trkpt>
					<trkpt lat="48.464930" lon="-3.694500">
						<ele>206</ele>
						<time>2026-09-01T14:59:00Z</time>
					</trkpt>
					<trkpt lat="48.464090" lon="-3.694110">
						<ele>199</ele>
						<time>2026-09-01T14:59:44Z</time>
					</trkpt>
					<trkpt lat="48.463140" lon="-3.693720">
						<ele>194</ele>
						<time>2026-09-01T15:00:34Z</time>
					</trkpt>
					<trkpt lat="48.463050" lon="-3.693660">
						<ele>193</ele>
						<time>2026-09-01T15:00:39Z</time>
					</trkpt>
					<trkpt lat="48.462640" lon="-3.693190">
						<ele>190</ele>
						<time>2026-09-01T15:01:04Z</time>
					</trkpt>
					<trkpt lat="48.460520" lon="-3.690490">
						<ele>175</ele>
						<time>2026-09-01T15:03:23Z</time>
					</trkpt>
					<trkpt lat="48.460430" lon="-3.690390">
						<ele>174</ele>
						<time>2026-09-01T15:03:29Z</time>
					</trkpt>
					<trkpt lat="48.460310" lon="-3.690310">
						<ele>173</ele>
						<time>2026-09-01T15:03:35Z</time>
					</trkpt>
					<trkpt lat="48.460190" lon="-3.690280">
						<ele>173</ele>
						<time>2026-09-01T15:03:41Z</time>
					</trkpt>
					<trkpt lat="48.459970" lon="-3.690280">
						<ele>172</ele>
						<time>2026-09-01T15:03:52Z</time>
					</trkpt>
					<trkpt lat="48.458330" lon="-3.690370">
						<ele>174</ele>
						<time>2026-09-01T15:05:15Z</time>
					</trkpt>
					<trkpt lat="48.457030" lon="-3.690410">
						<ele>172</ele>
						<time>2026-09-01T15:06:20Z</time>
					</trkpt>
					<trkpt lat="48.455670" lon="-3.690050">
						<ele>174</ele>
						<time>2026-09-01T15:07:29Z</time>
					</trkpt>
					<trkpt lat="48.455260" lon="-3.689980">
						<ele>173</ele>
						<time>2026-09-01T15:07:49Z</time>
					</trkpt>
					<trkpt lat="48.454710" lon="-3.689820">
						<ele>173</ele>
						<time>2026-09-01T15:08:17Z</time>
					</trkpt>
					<trkpt lat="48.453850" lon="-3.689400">
						<ele>169</ele>
						<time>2026-09-01T15:09:03Z</time>
					</trkpt>
					<trkpt lat="48.453520" lon="-3.689270">
						<ele>166</ele>
						<time>2026-09-01T15:09:20Z</time>
					</trkpt>
					<trkpt lat="48.453450" lon="-3.689200">
						<ele>165</ele>
						<time>2026-09-01T15:09:24Z</time>
					</trkpt>
					<trkpt lat="48.453370" lon="-3.688920">
						<ele>164</ele>
						<time>2026-09-01T15:09:34Z</time>
					</trkpt>
					<trkpt lat="48.453300" lon="-3.688860">
						<ele>164</ele>
						<time>2026-09-01T15:09:38Z</time>
					</trkpt>
					<trkpt lat="48.453030" lon="-3.688790">
						<ele>166</ele>
						<time>2026-09-01T15:09:52Z</time>
					</trkpt>
					<trkpt lat="48.452680" lon="-3.688610">
						<ele>168</ele>
						<time>2026-09-01T15:10:10Z</time>
					</trkpt>
					<trkpt lat="48.452520" lon="-3.688570">
						<ele>170</ele>
						<time>2026-09-01T15:10:18Z</time>
					</trkpt>
					<trkpt lat="48.452470" lon="-3.688610">
						<ele>170</ele>
						<time>2026-09-01T15:10:21Z</time>
					</trkpt>
					<trkpt lat="48.452430" lon="-3.688720">
						<ele>170</ele>
						<time>2026-09-01T15:10:25Z</time>
					</trkpt>
					<trkpt lat="48.452400" lon="-3.689060">
						<ele>169</ele>
						<time>2026-09-01T15:10:37Z</time>
					</trkpt>
					<trkpt lat="48.452330" lon="-3.689220">
						<ele>168</ele>
						<time>2026-09-01T15:10:43Z</time>
					</trkpt>
					<trkpt lat="48.452190" lon="-3.689390">
						<ele>167</ele>
						<time>2026-09-01T15:10:52Z</time>
					</trkpt>
					<trkpt lat="48.451870" lon="-3.689650">
						<ele>164</ele>
						<time>2026-09-01T15:11:10Z</time>
					</trkpt>
					<trkpt lat="48.451620" lon="-3.689910">
						<ele>161</ele>
						<time>2026-09-01T15:11:26Z</time>
					</trkpt>
					<trkpt lat="48.451330" lon="-3.690050">
						<ele>160</ele>
						<time>2026-09-01T15:11:41Z</time>
					</trkpt>
					<trkpt lat="48.451050" lon="-3.690220">
						<ele>160</ele>
						<time>2026-09-01T15:11:56Z</time>
					</trkpt>
					<trkpt lat="48.450480" lon="-3.690630">
						<ele>162</ele>
						<time>2026-09-01T15:12:28Z</time>
					</trkpt>
					<trkpt lat="48.449870" lon="-3.691270">
						<ele>161</ele>
						<time>2026-09-01T15:13:05Z</time>
					</trkpt>
					<trkpt lat="48.449720" lon="-3.691370">
						<ele>161</ele>
						<time>2026-09-01T15:13:13Z</time>
					</trkpt>
					<trkpt lat="48.449620" lon="-3.691410">
						<ele>161</ele>
						<time>2026-09-01T15:13:18Z</time>
					</trkpt>
					<trkpt lat="48.448730" lon="-3.691520">
						<ele>162</ele>
						<time>2026-09-01T15:14:03Z</time>
					</trkpt>
					<trkpt lat="48.448680" lon="-3.691500">
						<ele>163</ele>
						<time>2026-09-01T15:14:05Z</time>
					</trkpt>
					<trkpt lat="48.448470" lon="-3.691240">
						<ele>165</ele>
						<time>2026-09-01T15:14:19Z</time>
					</trkpt>
					<trkpt lat="48.448370" lon="-3.691000">
						<ele>166</ele>
						<time>2026-09-01T15:14:28Z</time>
					</trkpt>
					<trkpt lat="48.448380" lon="-3.691040">
						<ele>166</ele>
						<time>2026-09-01T15:14:30Z</time>
					</trkpt>
					<trkpt lat="48.448280" lon="-3.691040">
						<ele>166</ele>
						<time>2026-09-01T15:14:35Z</time>
					</trkpt>
					<trkpt lat="48.448150" lon="-3.690990">
						<ele>167</ele>
						<time>2026-09-01T15:14:42Z</time>
					</trkpt>
					<trkpt lat="48.448010" lon="-3.691080">
						<ele>167</ele>
						<time>2026-09-01T15:14:49Z</time>
					</trkpt>
					<trkpt lat="48.447900" lon="-3.691090">
						<ele>167</ele>
						<time>2026-09-01T15:14:55Z</time>
					</trkpt>
					<trkpt lat="48.447230" lon="-3.690860">
						<ele>170</ele>
						<time>2026-09-01T15:15:29Z</time>
					</trkpt>
					<trkpt lat="48.447090" lon="-3.690870">
						<ele>170</ele>
						<time>2026-09-01T15:15:36Z</time>
					</trkpt>
					<trkpt lat="48.447020" lon="-3.690900">
						<ele>170</ele>
						<time>2026-09-01T15:15:40Z</time>
					</trkpt>
					<trkpt lat="48.446750" lon="-3.691220">
						<ele>169</ele>
						<time>2026-09-01T15:15:57Z</time>
					</trkpt>
					<trkpt lat="48.446680" lon="-3.691270">
						<ele>169</ele>
						<time>2026-09-01T15:16:01Z</time>
					</trkpt>
					<trkpt lat="48.446520" lon="-3.691260">
						<ele>168</ele>
						<time>2026-09-01T15:16:09Z</time>
					</trkpt>
					<trkpt lat="48.445950" lon="-3.690950">
						<ele>167</ele>
						<time>2026-09-01T15:16:39Z</time>
					</trkpt>
					<trkpt lat="48.445880" lon="-3.690900">
						<ele>167</ele>
						<time>2026-09-01T15:16:43Z</time>
					</trkpt>
					<trkpt lat="48.445860" lon="-3.690850">
						<ele>167</ele>
						<time>2026-09-01T15:16:45Z</time>
					</trkpt>
					<trkpt lat="48.445830" lon="-3.690490">
						<ele>168</ele>
						<time>2026-09-01T15:16:57Z</time>
					</trkpt>
					<trkpt lat="48.445860" lon="-3.690100">
						<ele>170</ele>
						<time>2026-09-01T15:17:10Z</time>
					</trkpt>
					<trkpt lat="48.445960" lon="-3.689480">
						<ele>173</ele>
						<time>2026-09-01T15:17:31Z</time>
					</trkpt>
					<trkpt lat="48.445940" lon="-3.689110">
						<ele>174</ele>
						<time>2026-09-01T15:17:43Z</time>
					</trkpt>
					<trkpt lat="48.445840" lon="-3.688580">
						<ele>177</ele>
						<time>2026-09-01T15:18:02Z</time>
					</trkpt>
					<trkpt lat="48.445880" lon="-3.688280">
						<ele>179</ele>
						<time>2026-09-01T15:18:12Z</time>
					</trkpt>
					<trkpt lat="48.445560" lon="-3.687980">
						<ele>182</ele>
						<time>2026-09-01T15:18:31Z</time>
					</trkpt>
					<trkpt lat="48.445430" lon="-3.687920">
						<ele>184</ele>
						<time>2026-09-01T15:18:38Z</time>
					</trkpt>
					<trkpt lat="48.445340" lon="-3.687910">
						<ele>185</ele>
						<time>2026-09-01T15:18:42Z</time>
					</trkpt>
					<trkpt lat="48.444950" lon="-3.687990">
						<ele>188</ele>
						<time>2026-09-01T15:19:02Z</time>
					</trkpt>
					<trkpt lat="48.444860" lon="-3.687990">
						<ele>189</ele>
						<time>2026-09-01T15:19:06Z</time>
					</trkpt>
					<trkpt lat="48.444810" lon="-3.687960">
						<ele>190</ele>
						<time>2026-09-01T15:19:09Z</time>
					</trkpt>
					<trkpt lat="48.444890" lon="-3.687530">
						<ele>190</ele>
						<time>2026-09-01T15:19:24Z</time>
					</trkpt>
					<trkpt lat="48.444870" lon="-3.686980">
						<ele>193</ele>
						<time>2026-09-01T15:19:42Z</time>
					</trkpt>
					<trkpt lat="48.444910" lon="-3.686730">
						<ele>194</ele>
						<time>2026-09-01T15:19:51Z</time>
					</trkpt>
					<trkpt lat="48.444890" lon="-3.686560">
						<ele>195</ele>
						<time>2026-09-01T15:19:56Z</time>
					</trkpt>
					<trkpt lat="48.444670" lon="-3.685680">
						<ele>201</ele>
						<time>2026-09-01T15:20:28Z</time>
					</trkpt>
					<trkpt lat="48.444510" lon="-3.683890">
						<ele>209</ele>
						<time>2026-09-01T15:21:28Z</time>
					</trkpt>
					<trkpt lat="48.444570" lon="-3.683280">
						<ele>212</ele>
						<time>2026-09-01T15:21:48Z</time>
					</trkpt>
					<trkpt lat="48.444670" lon="-3.682910">
						<ele>214</ele>
						<time>2026-09-01T15:22:01Z</time>
					</trkpt>
					<trkpt lat="48.443920" lon="-3.682520">
						<ele>224</ele>
						<time>2026-09-01T15:22:41Z</time>
					</trkpt>
					<trkpt lat="48.443250" lon="-3.682070">
						<ele>225</ele>
						<time>2026-09-01T15:23:18Z</time>
					</trkpt>
					<trkpt lat="48.443080" lon="-3.682900">
						<ele>225</ele>
						<time>2026-09-01T15:23:47Z</time>
					</trkpt>
					<trkpt lat="48.443020" lon="-3.683390">
						<ele>225</ele>
						<time>2026-09-01T15:24:03Z</time>
					</trkpt>
					<trkpt lat="48.442820" lon="-3.683720">
						<ele>226</ele>
						<time>2026-09-01T15:24:18Z</time>
					</trkpt>
					<trkpt lat="48.442360" lon="-3.685170">
						<ele>229</ele>
						<time>2026-09-01T15:25:11Z</time>
					</trkpt>
					<trkpt lat="48.442090" lon="-3.685740">
						<ele>222</ele>
						<time>2026-09-01T15:25:35Z</time>
					</trkpt>
					<trkpt lat="48.441970" lon="-3.686360">
						<ele>219</ele>
						<time>2026-09-01T15:25:56Z</time>
					</trkpt>
					<trkpt lat="48.441970" lon="-3.686910">
						<ele>216</ele>
						<time>2026-09-01T15:26:14Z</time>
					</trkpt>
					<trkpt lat="48.441830" lon="-3.687040">
						<ele>215</ele>
						<time>2026-09-01T15:26:22Z</time>
					</trkpt>
					<trkpt lat="48.441400" lon="-3.687050">
						<ele>212</ele>
						<time>2026-09-01T15:26:44Z</time>
					</trkpt>
					<trkpt lat="48.441150" lon="-3.687090">
						<ele>209</ele>
						<time>2026-09-01T15:26:57Z</time>
					</trkpt>
					<trkpt lat="48.440280" lon="-3.687400">
						<ele>199</ele>
						<time>2026-09-01T15:27:41Z</time>
					</trkpt>
					<trkpt lat="48.439950" lon="-3.687610">
						<ele>196</ele>
						<time>2026-09-01T15:27:59Z</time>
					</trkpt>
					<trkpt lat="48.439700" lon="-3.687830">
						<ele>193</ele>
						<time>2026-09-01T15:28:14Z</time>
					</trkpt>
					<trkpt lat="48.439400" lon="-3.688210">
						<ele>189</ele>
						<time>2026-09-01T15:28:33Z</time>
					</trkpt>
					<trkpt lat="48.439330" lon="-3.688400">
						<ele>188</ele>
						<time>2026-09-01T15:28:41Z</time>
					</trkpt>
					<trkpt lat="48.439210" lon="-3.688570">
						<ele>186</ele>
						<time>2026-09-01T15:28:49Z</time>
					</trkpt>
					<trkpt lat="48.439090" lon="-3.688600">
						<ele>184</ele>
						<time>2026-09-01T15:28:55Z</time>
					</trkpt>
					<trkpt lat="48.438960" lon="-3.688540">
						<ele>183</ele>
						<time>2026-09-01T15:29:02Z</time>
					</trkpt>
					<trkpt lat="48.438610" lon="-3.689600">
						<ele>176</ele>
						<time>2026-09-01T15:29:41Z</time>
					</trkpt>
					<trkpt lat="48.438350" lon="-3.690290">
						<ele>172</ele>
						<time>2026-09-01T15:30:07Z</time>
					</trkpt>
					<trkpt lat="48.438080" lon="-3.690830">
						<ele>169</ele>
						<time>2026-09-01T15:30:30Z</time>
					</trkpt>
					<trkpt lat="48.437070" lon="-3.692680">
						<ele>161</ele>
						<time>2026-09-01T15:31:49Z</time>
					</trkpt>
					<trkpt lat="48.436870" lon="-3.692910">
						<ele>160</ele>
						<time>2026-09-01T15:32:02Z</time>
					</trkpt>
					<trkpt lat="48.436000" lon="-3.693720">
						<ele>155</ele>
						<time>2026-09-01T15:32:53Z</time>
					</trkpt>
					<trkpt lat="48.435890" lon="-3.693860">
						<ele>154</ele>
						<time>2026-09-01T15:33:00Z</time>
					</trkpt>
					<trkpt lat="48.435250" lon="-3.694920">
						<ele>147</ele>
						<time>2026-09-01T15:33:48Z</time>
					</trkpt>
					<trkpt lat="48.434470" lon="-3.696340">
						<ele>138</ele>
						<time>2026-09-01T15:34:49Z</time>
					</trkpt>
					<trkpt lat="48.433990" lon="-3.696930">
						<ele>135</ele>
						<time>2026-09-01T15:35:20Z</time>
					</trkpt>
					<trkpt lat="48.433750" lon="-3.697160">
						<ele>134</ele>
						<time>2026-09-01T15:35:34Z</time>
					</trkpt>
					<trkpt lat="48.434030" lon="-3.697890">
						<ele>136</ele>
						<time>2026-09-01T15:36:02Z</time>
					</trkpt>
					<trkpt lat="48.434060" lon="-3.698170">
						<ele>138</ele>
						<time>2026-09-01T15:36:12Z</time>
					</trkpt>
					<trkpt lat="48.434050" lon="-3.698310">
						<ele>138</ele>
						<time>2026-09-01T15:36:16Z</time>
					</trkpt>
					<trkpt lat="48.434040" lon="-3.698400">
						<ele>139</ele>
						<time>2026-09-01T15:36:19Z</time>
					</trkpt>
					<trkpt lat="48.433960" lon="-3.698570">
						<ele>140</ele>
						<time>2026-09-01T15:36:26Z</time>
					</trkpt>
					<trkpt lat="48.433850" lon="-3.698740">
						<ele>141</ele>
						<time>2026-09-01T15:36:34Z</time>
					</trkpt>
					<trkpt lat="48.433250" lon="-3.699310">
						<ele>141</ele>
						<time>2026-09-01T15:37:10Z</time>
					</trkpt>
					<trkpt lat="48.433090" lon="-3.699390">
						<ele>142</ele>
						<time>2026-09-01T15:37:18Z</time>
					</trkpt>
					<trkpt lat="48.432950" lon="-3.699380">
						<ele>144</ele>
						<time>2026-09-01T15:37:25Z</time>
					</trkpt>
					<trkpt lat="48.432690" lon="-3.698930">
						<ele>143</ele>
						<time>2026-09-01T15:37:45Z</time>
					</trkpt>
					<trkpt lat="48.432650" lon="-3.699000">
						<ele>143</ele>
						<time>2026-09-01T15:37:48Z</time>
					</trkpt>
					<trkpt lat="48.432600" lon="-3.699540">
						<ele>148</ele>
						<time>2026-09-01T15:38:06Z</time>
					</trkpt>
					<trkpt lat="48.432620" lon="-3.700320">
						<ele>153</ele>
						<time>2026-09-01T15:38:32Z</time>
					</trkpt>
					<trkpt lat="48.432590" lon="-3.700700">
						<ele>155</ele>
						<time>2026-09-01T15:38:45Z</time>
					</trkpt>
					<trkpt lat="48.432500" lon="-3.701080">
						<ele>156</ele>
						<time>2026-09-01T15:38:58Z</time>
					</trkpt>
					<trkpt lat="48.432310" lon="-3.701540">
						<ele>157</ele>
						<time>2026-09-01T15:39:16Z</time>
					</trkpt>
					<trkpt lat="48.432140" lon="-3.701840">
						<ele>158</ele>
						<time>2026-09-01T15:39:29Z</time>
					</trkpt>
					<trkpt lat="48.431720" lon="-3.702500">
						<ele>162</ele>
						<time>2026-09-01T15:40:00Z</time>
					</trkpt>
					<trkpt lat="48.431620" lon="-3.702500">
						<ele>163</ele>
						<time>2026-09-01T15:40:05Z</time>
					</trkpt>
					<trkpt lat="48.431530" lon="-3.702400">
						<ele>162</ele>
						<time>2026-09-01T15:40:10Z</time>
					</trkpt>
					<trkpt lat="48.431460" lon="-3.702360">
						<ele>162</ele>
						<time>2026-09-01T15:40:14Z</time>
					</trkpt>
					<trkpt lat="48.431240" lon="-3.702400">
						<ele>161</ele>
						<time>2026-09-01T15:40:25Z</time>
					</trkpt>
					<trkpt lat="48.431160" lon="-3.702390">
						<ele>161</ele>
						<time>2026-09-01T15:40:29Z</time>
					</trkpt>
					<trkpt lat="48.430960" lon="-3.702210">
						<ele>160</ele>
						<time>2026-09-01T15:40:41Z</time>
					</trkpt>
					<trkpt lat="48.430890" lon="-3.702230">
						<ele>160</ele>
						<time>2026-09-01T15:40:44Z</time>
					</trkpt>
					<trkpt lat="48.430830" lon="-3.702320">
						<ele>160</ele>
						<time>2026-09-01T15:40:49Z</time>
					</trkpt>
					<trkpt lat="48.430770" lon="-3.702460">
						<ele>160</ele>
						<time>2026-09-01T15:40:54Z</time>
					</trkpt>
					<trkpt lat="48.430730" lon="-3.702660">
						<ele>159</ele>
						<time>2026-09-01T15:41:01Z</time>
					</trkpt>
					<trkpt lat="48.430730" lon="-3.703050">
						<ele>159</ele>
						<time>2026-09-01T15:41:14Z</time>
					</trkpt>
					<trkpt lat="48.430960" lon="-3.704580">
						<ele>159</ele>
						<time>2026-09-01T15:42:06Z</time>
					</trkpt>
					<trkpt lat="48.431020" lon="-3.704780">
						<ele>159</ele>
						<time>2026-09-01T15:42:13Z</time>
					</trkpt>
					<trkpt lat="48.430960" lon="-3.705250">
						<ele>158</ele>
						<time>2026-09-01T15:42:29Z</time>
					</trkpt>
					<trkpt lat="48.430950" lon="-3.705590">
						<ele>158</ele>
						<time>2026-09-01T15:42:41Z</time>
					</trkpt>
					<trkpt lat="48.430860" lon="-3.706280">
						<ele>159</ele>
						<time>2026-09-01T15:43:04Z</time>
					</trkpt>
					<trkpt lat="48.430560" lon="-3.707370">
						<ele>159</ele>
						<time>2026-09-01T15:43:43Z</time>
					</trkpt>
					<trkpt lat="48.430360" lon="-3.707980">
						<ele>160</ele>
						<time>2026-09-01T15:44:06Z</time>
					</trkpt>
					<trkpt lat="48.429950" lon="-3.709650">
						<ele>165</ele>
						<time>2026-09-01T15:45:05Z</time>
					</trkpt>
					<trkpt lat="48.429800" lon="-3.710080">
						<ele>166</ele>
						<time>2026-09-01T15:45:21Z</time>
					</trkpt>
					<trkpt lat="48.429580" lon="-3.710500">
						<ele>166</ele>
						<time>2026-09-01T15:45:39Z</time>
					</trkpt>
					<trkpt lat="48.428970" lon="-3.710710">
						<ele>169</ele>
						<time>2026-09-01T15:46:10Z</time>
					</trkpt>
					<trkpt lat="48.428130" lon="-3.710870">
						<ele>174</ele>
						<time>2026-09-01T15:46:52Z</time>
					</trkpt>
					<trkpt lat="48.427930" lon="-3.710890">
						<ele>175</ele>
						<time>2026-09-01T15:47:02Z</time>
					</trkpt>
					<trkpt lat="48.427700" lon="-3.710840">
						<ele>177</ele>
						<time>2026-09-01T15:47:14Z</time>
					</trkpt>
					<trkpt lat="48.426650" lon="-3.710460">
						<ele>184</ele>
						<time>2026-09-01T15:48:08Z</time>
					</trkpt>
					<trkpt lat="48.425950" lon="-3.710130">
						<ele>186</ele>
						<time>2026-09-01T15:48:45Z</time>
					</trkpt>
					<trkpt lat="48.425740" lon="-3.709930">
						<ele>186</ele>
						<time>2026-09-01T15:48:57Z</time>
					</trkpt>
					<trkpt lat="48.425530" lon="-3.709670">
						<ele>187</ele>
						<time>2026-09-01T15:49:11Z</time>
					</trkpt>
					<trkpt lat="48.425080" lon="-3.709240">
						<ele>187</ele>
						<time>2026-09-01T15:49:37Z</time>
					</trkpt>
					<trkpt lat="48.424810" lon="-3.709080">
						<ele>187</ele>
						<time>2026-09-01T15:49:52Z</time>
					</trkpt>
					<trkpt lat="48.424190" lon="-3.708820">
						<ele>186</ele>
						<time>2026-09-01T15:50:24Z</time>
					</trkpt>
					<trkpt lat="48.423350" lon="-3.708610">
						<ele>185</ele>
						<time>2026-09-01T15:51:07Z</time>
					</trkpt>
					<trkpt lat="48.422800" lon="-3.708510">
						<ele>187</ele>
						<time>2026-09-01T15:51:34Z</time>
					</trkpt>
					<trkpt lat="48.422400" lon="-3.708340">
						<ele>187</ele>
						<time>2026-09-01T15:51:55Z</time>
					</trkpt>
					<trkpt lat="48.421820" lon="-3.708230">
						<ele>185</ele>
						<time>2026-09-01T15:52:25Z</time>
					</trkpt>
					<trkpt lat="48.421110" lon="-3.707730">
						<ele>181</ele>
						<time>2026-09-01T15:53:04Z</time>
					</trkpt>
					<trkpt lat="48.420840" lon="-3.707700">
						<ele>181</ele>
						<time>2026-09-01T15:53:17Z</time>
					</trkpt>
					<trkpt lat="48.420260" lon="-3.707780">
						<ele>178</ele>
						<time>2026-09-01T15:53:46Z</time>
					</trkpt>
					<trkpt lat="48.419490" lon="-3.707560">
						<ele>174</ele>
						<time>2026-09-01T15:54:26Z</time>
					</trkpt>
					<trkpt lat="48.419320" lon="-3.707590">
						<ele>173</ele>
						<time>2026-09-01T15:54:34Z</time>
					</trkpt>
					<trkpt lat="48.419120" lon="-3.707680">
						<ele>173</ele>
						<time>2026-09-01T15:54:45Z</time>
					</trkpt>
					<trkpt lat="48.418980" lon="-3.707810">
						<ele>174</ele>
						<time>2026-09-01T15:54:53Z</time>
					</trkpt>
					<trkpt lat="48.418760" lon="-3.708090">
						<ele>176</ele>
						<time>2026-09-01T15:55:07Z</time>
					</trkpt>
					<trkpt lat="48.418610" lon="-3.708180">
						<ele>176</ele>
						<time>2026-09-01T15:55:15Z</time>
					</trkpt>
					<trkpt lat="48.418570" lon="-3.708250">
						<ele>177</ele>
						<time>2026-09-01T15:55:18Z</time>
					</trkpt>
					<trkpt lat="48.418510" lon="-3.708510">
						<ele>177</ele>
						<time>2026-09-01T15:55:28Z</time>
					</trkpt>
					<trkpt lat="48.418490" lon="-3.708720">
						<ele>177</ele>
						<time>2026-09-01T15:55:35Z</time>
					</trkpt>
					<trkpt lat="48.418410" lon="-3.708880">
						<ele>177</ele>
						<time>2026-09-01T15:55:41Z</time>
					</trkpt>
					<trkpt lat="48.418390" lon="-3.709040">
						<ele>177</ele>
						<time>2026-09-01T15:55:47Z</time>
					</trkpt>
					<trkpt lat="48.418400" lon="-3.709430">
						<ele>176</ele>
						<time>2026-09-01T15:56:00Z</time>
					</trkpt>
					<trkpt lat="48.418420" lon="-3.709560">
						<ele>176</ele>
						<time>2026-09-01T15:56:04Z</time>
					</trkpt>
					<trkpt lat="48.418500" lon="-3.709740">
						<ele>175</ele>
						<time>2026-09-01T15:56:11Z</time>
					</trkpt>
					<trkpt lat="48.418520" lon="-3.709960">
						<ele>174</ele>
						<time>2026-09-01T15:56:19Z</time>
					</trkpt>
					<trkpt lat="48.418440" lon="-3.710960">
						<ele>168</ele>
						<time>2026-09-01T15:56:52Z</time>
					</trkpt>
					<trkpt lat="48.418370" lon="-3.711490">
						<ele>162</ele>
						<time>2026-09-01T15:57:10Z</time>
					</trkpt>
					<trkpt lat="48.418320" lon="-3.711530">
						<ele>161</ele>
						<time>2026-09-01T15:57:13Z</time>
					</trkpt>
					<trkpt lat="48.418250" lon="-3.711540">
						<ele>160</ele>
						<time>2026-09-01T15:57:16Z</time>
					</trkpt>
					<trkpt lat="48.417940" lon="-3.711380">
						<ele>157</ele>
						<time>2026-09-01T15:57:33Z</time>
					</trkpt>
					<trkpt lat="48.417750" lon="-3.711230">
						<ele>155</ele>
						<time>2026-09-01T15:57:44Z</time>
					</trkpt>
					<trkpt lat="48.417610" lon="-3.711170">
						<ele>154</ele>
						<time>2026-09-01T15:57:51Z</time>
					</trkpt>
					<trkpt lat="48.417450" lon="-3.711170">
						<ele>152</ele>
						<time>2026-09-01T15:57:59Z</time>
					</trkpt>
					<trkpt lat="48.416940" lon="-3.711220">
						<ele>144</ele>
						<time>2026-09-01T15:58:24Z</time>
					</trkpt>
					<trkpt lat="48.416840" lon="-3.711250">
						<ele>143</ele>
						<time>2026-09-01T15:58:30Z</time>
					</trkpt>
					<trkpt lat="48.416730" lon="-3.711400">
						<ele>140</ele>
						<time>2026-09-01T15:58:37Z</time>
					</trkpt>
					<trkpt lat="48.416360" lon="-3.711620">
						<ele>133</ele>
						<time>2026-09-01T15:58:57Z</time>
					</trkpt>
					<trkpt lat="48.416230" lon="-3.711640">
						<ele>132</ele>
						<time>2026-09-01T15:59:03Z</time>
					</trkpt>
					<trkpt lat="48.415500" lon="-3.711130">
						<ele>128</ele>
						<time>2026-09-01T15:59:44Z</time>
					</trkpt>
					<trkpt lat="48.415310" lon="-3.711050">
						<ele>126</ele>
						<time>2026-09-01T15:59:54Z</time>
					</trkpt>
					<trkpt lat="48.415090" lon="-3.711070">
						<ele>123</ele>
						<time>2026-09-01T16:00:05Z</time>
					</trkpt>
					<trkpt lat="48.414690" lon="-3.710590">
						<ele>124</ele>
						<time>2026-09-01T16:00:30Z</time>
					</trkpt>
					<trkpt lat="48.414270" lon="-3.709890">
						<ele>125</ele>
						<time>2026-09-01T16:01:02Z</time>
					</trkpt>
					<trkpt lat="48.414130" lon="-3.709570">
						<ele>126</ele>
						<time>2026-09-01T16:01:14Z</time>
					</trkpt>
					<trkpt lat="48.413990" lon="-3.709090">
						<ele>128</ele>
						<time>2026-09-01T16:01:32Z</time>
					</trkpt>
					<trkpt lat="48.413780" lon="-3.707810">
						<ele>130</ele>
						<time>2026-09-01T16:02:15Z</time>
					</trkpt>
					<trkpt lat="48.413560" lon="-3.706220">
						<ele>127</ele>
						<time>2026-09-01T16:03:09Z</time>
					</trkpt>
					<trkpt lat="48.413210" lon="-3.704770">
						<ele>118</ele>
						<time>2026-09-01T16:04:01Z</time>
					</trkpt>
					<trkpt lat="48.412990" lon="-3.704140">
						<ele>115</ele>
						<time>2026-09-01T16:04:24Z</time>
					</trkpt>
					<trkpt lat="48.412690" lon="-3.703400">
						<ele>117</ele>
						<time>2026-09-01T16:04:53Z</time>
					</trkpt>
					<trkpt lat="48.412650" lon="-3.703130">
						<ele>118</ele>
						<time>2026-09-01T16:05:02Z</time>
					</trkpt>
					<trkpt lat="48.412610" lon="-3.703130">
						<ele>117</ele>
						<time>2026-09-01T16:05:04Z</time>
					</trkpt>
					<trkpt lat="48.411890" lon="-3.701220">
						<ele>122</ele>
						<time>2026-09-01T16:06:17Z</time>
					</trkpt>
					<trkpt lat="48.411850" lon="-3.701000">
						<ele>124</ele>
						<time>2026-09-01T16:06:25Z</time>
					</trkpt>
					<trkpt lat="48.411870" lon="-3.700940">
						<ele>125</ele>
						<time>2026-09-01T16:06:27Z</time>
					</trkpt>
					<trkpt lat="48.411650" lon="-3.700350">
						<ele>123</ele>
						<time>2026-09-01T16:06:50Z</time>
					</trkpt>
					<trkpt lat="48.411280" lon="-3.699050">
						<ele>125</ele>
						<time>2026-09-01T16:07:37Z</time>
					</trkpt>
					<trkpt lat="48.410690" lon="-3.697320">
						<ele>124</ele>
						<time>2026-09-01T16:08:41Z</time>
					</trkpt>
					<trkpt lat="48.410370" lon="-3.696460">
						<ele>124</ele>
						<time>2026-09-01T16:09:14Z</time>
					</trkpt>
					<trkpt lat="48.410070" lon="-3.695990">
						<ele>120</ele>
						<time>2026-09-01T16:09:36Z</time>
					</trkpt>
					<trkpt lat="48.409890" lon="-3.695770">
						<ele>119</ele>
						<time>2026-09-01T16:09:47Z</time>
					</trkpt>
					<trkpt lat="48.409550" lon="-3.695470">
						<ele>117</ele>
						<time>2026-09-01T16:10:07Z</time>
					</trkpt>
					<trkpt lat="48.408150" lon="-3.694450">
						<ele>116</ele>
						<time>2026-09-01T16:11:25Z</time>
					</trkpt>
					<trkpt lat="48.407910" lon="-3.694220">
						<ele>116</ele>
						<time>2026-09-01T16:11:39Z</time>
					</trkpt>
					<trkpt lat="48.407640" lon="-3.693800">
						<ele>115</ele>
						<time>2026-09-01T16:11:58Z</time>
					</trkpt>
					<trkpt lat="48.407490" lon="-3.693520">
						<ele>114</ele>
						<time>2026-09-01T16:12:10Z</time>
					</trkpt>
					<trkpt lat="48.407390" lon="-3.693250">
						<ele>115</ele>
						<time>2026-09-01T16:12:21Z</time>
					</trkpt>
					<trkpt lat="48.407270" lon="-3.692720">
						<ele>116</ele>
						<time>2026-09-01T16:12:39Z</time>
					</trkpt>
					<trkpt lat="48.406960" lon="-3.690790">
						<ele>117</ele>
						<time>2026-09-01T16:13:45Z</time>
					</trkpt>
					<trkpt lat="48.406890" lon="-3.690520">
						<ele>115</ele>
						<time>2026-09-01T16:13:55Z</time>
					</trkpt>
					<trkpt lat="48.406680" lon="-3.690000">
						<ele>110</ele>
						<time>2026-09-01T16:14:15Z</time>
					</trkpt>
					<trkpt lat="48.406470" lon="-3.689660">
						<ele>110</ele>
						<time>2026-09-01T16:14:30Z</time>
					</trkpt>
					<trkpt lat="48.406180" lon="-3.689330">
						<ele>109</ele>
						<time>2026-09-01T16:14:49Z</time>
					</trkpt>
					<trkpt lat="48.406010" lon="-3.689200">
						<ele>108</ele>
						<time>2026-09-01T16:14:58Z</time>
					</trkpt>
					<trkpt lat="48.405770" lon="-3.689060">
						<ele>108</ele>
						<time>2026-09-01T16:15:11Z</time>
					</trkpt>
					<trkpt lat="48.405630" lon="-3.689010">
						<ele>109</ele>
						<time>2026-09-01T16:15:18Z</time>
					</trkpt>
					<trkpt lat="48.405360" lon="-3.688960">
						<ele>111</ele>
						<time>2026-09-01T16:15:32Z</time>
					</trkpt>
					<trkpt lat="48.404480" lon="-3.688860">
						<ele>117</ele>
						<time>2026-09-01T16:16:16Z</time>
					</trkpt>
					<trkpt lat="48.404060" lon="-3.688730">
						<ele>118</ele>
						<time>2026-09-01T16:16:37Z</time>
					</trkpt>
					<trkpt lat="48.403540" lon="-3.688450">
						<ele>118</ele>
						<time>2026-09-01T16:17:05Z</time>
					</trkpt>
					<trkpt lat="48.402080" lon="-3.687560">
						<ele>114</ele>
						<time>2026-09-01T16:18:24Z</time>
					</trkpt>
					<trkpt lat="48.401820" lon="-3.687460">
						<ele>114</ele>
						<time>2026-09-01T16:18:37Z</time>
					</trkpt>
					<trkpt lat="48.401580" lon="-3.687420">
						<ele>114</ele>
						<time>2026-09-01T16:18:49Z</time>
					</trkpt>
					<trkpt lat="48.401280" lon="-3.687380">
						<ele>115</ele>
						<time>2026-09-01T16:19:04Z</time>
					</trkpt>
					<trkpt lat="48.400680" lon="-3.687360">
						<ele>117</ele>
						<time>2026-09-01T16:19:35Z</time>
					</trkpt>
					<trkpt lat="48.400530" lon="-3.687330">
						<ele>118</ele>
						<time>2026-09-01T16:19:42Z</time>
					</trkpt>
					<trkpt lat="48.400220" lon="-3.687210">
						<ele>118</ele>
						<time>2026-09-01T16:19:58Z</time>
					</trkpt>
					<trkpt lat="48.399810" lon="-3.686920">
						<ele>115</ele>
						<time>2026-09-01T16:20:21Z</time>
					</trkpt>
					<trkpt lat="48.399590" lon="-3.686670">
						<ele>112</ele>
						<time>2026-09-01T16:20:35Z</time>
					</trkpt>
					<trkpt lat="48.399000" lon="-3.686080">
						<ele>113</ele>
						<time>2026-09-01T16:21:10Z</time>
					</trkpt>
					<trkpt lat="48.398710" lon="-3.685860">
						<ele>113</ele>
						<time>2026-09-01T16:21:26Z</time>
					</trkpt>
					<trkpt lat="48.398600" lon="-3.685740">
						<ele>113</ele>
						<time>2026-09-01T16:21:33Z</time>
					</trkpt>
					<trkpt lat="48.398350" lon="-3.685630">
						<ele>114</ele>
						<time>2026-09-01T16:21:46Z</time>
					</trkpt>
					<trkpt lat="48.397180" lon="-3.685220">
						<ele>116</ele>
						<time>2026-09-01T16:22:46Z</time>
					</trkpt>
					<trkpt lat="48.396530" lon="-3.684910">
						<ele>115</ele>
						<time>2026-09-01T16:23:20Z</time>
					</trkpt>
					<trkpt lat="48.395660" lon="-3.684400">
						<ele>114</ele>
						<time>2026-09-01T16:24:07Z</time>
					</trkpt>
					<trkpt lat="48.394990" lon="-3.684170">
						<ele>113</ele>
						<time>2026-09-01T16:24:41Z</time>
					</trkpt>
					<trkpt lat="48.394490" lon="-3.684090">
						<ele>111</ele>
						<time>2026-09-01T16:25:07Z</time>
					</trkpt>
					<trkpt lat="48.394020" lon="-3.684110">
						<ele>109</ele>
						<time>2026-09-01T16:25:30Z</time>
					</trkpt>
					<trkpt lat="48.393040" lon="-3.684560">
						<ele>110</ele>
						<time>2026-09-01T16:26:21Z</time>
					</trkpt>
					<trkpt lat="48.391600" lon="-3.685140">
						<ele>109</ele>
						<time>2026-09-01T16:27:36Z</time>
					</trkpt>
					<trkpt lat="48.390940" lon="-3.685490">
						<ele>111</ele>
						<time>2026-09-01T16:28:11Z</time>
					</trkpt>
					<trkpt lat="48.390650" lon="-3.685720">
						<ele>112</ele>
						<time>2026-09-01T16:28:27Z</time>
					</trkpt>
					<trkpt lat="48.389250" lon="-3.687070">
						<ele>109</ele>
						<time>2026-09-01T16:29:51Z</time>
					</trkpt>
					<trkpt lat="48.388450" lon="-3.687770">
						<ele>110</ele>
						<time>2026-09-01T16:30:37Z</time>
					</trkpt>
					<trkpt lat="48.388080" lon="-3.688060">
						<ele>111</ele>
						<time>2026-09-01T16:30:58Z</time>
					</trkpt>
					<trkpt lat="48.387500" lon="-3.688630">
						<ele>110</ele>
						<time>2026-09-01T16:31:32Z</time>
					</trkpt>
					<trkpt lat="48.387350" lon="-3.688810">
						<ele>109</ele>
						<time>2026-09-01T16:31:42Z</time>
					</trkpt>
					<trkpt lat="48.387420" lon="-3.689010">
						<ele>109</ele>
						<time>2026-09-01T16:31:50Z</time>
					</trkpt>
					<trkpt lat="48.387420" lon="-3.689330">
						<ele>109</ele>
						<time>2026-09-01T16:32:00Z</time>
					</trkpt>
					<trkpt lat="48.386650" lon="-3.689620">
						<ele>104</ele>
						<time>2026-09-01T16:32:40Z</time>
					</trkpt>
					<trkpt lat="48.386440" lon="-3.689790">
						<ele>104</ele>
						<time>2026-09-01T16:32:52Z</time>
					</trkpt>
					<trkpt lat="48.386350" lon="-3.690080">
						<ele>105</ele>
						<time>2026-09-01T16:33:02Z</time>
					</trkpt>
					<trkpt lat="48.386250" lon="-3.690580">
						<ele>107</ele>
						<time>2026-09-01T16:33:20Z</time>
					</trkpt>
					<trkpt lat="48.385700" lon="-3.692220">
						<ele>119</ele>
						<time>2026-09-01T16:34:21Z</time>
					</trkpt>
					<trkpt lat="48.385570" lon="-3.692670">
						<ele>121</ele>
						<time>2026-09-01T16:34:37Z</time>
					</trkpt>
					<trkpt lat="48.385600" lon="-3.692840">
						<ele>121</ele>
						<time>2026-09-01T16:34:43Z</time>
					</trkpt>
					<trkpt lat="48.385600" lon="-3.693020">
						<ele>122</ele>
						<time>2026-09-01T16:34:49Z</time>
					</trkpt>
					<trkpt lat="48.385440" lon="-3.693470">
						<ele>123</ele>
						<time>2026-09-01T16:35:06Z</time>
					</trkpt>
					<trkpt lat="48.385280" lon="-3.693770">
						<ele>125</ele>
						<time>2026-09-01T16:35:19Z</time>
					</trkpt>
					<trkpt lat="48.385140" lon="-3.693920">
						<ele>127</ele>
						<time>2026-09-01T16:35:27Z</time>
					</trkpt>
					<trkpt lat="48.385020" lon="-3.694000">
						<ele>128</ele>
						<time>2026-09-01T16:35:34Z</time>
					</trkpt>
					<trkpt lat="48.384520" lon="-3.694240">
						<ele>132</ele>
						<time>2026-09-01T16:36:00Z</time>
					</trkpt>
					<trkpt lat="48.384410" lon="-3.694350">
						<ele>133</ele>
						<time>2026-09-01T16:36:07Z</time>
					</trkpt>
					<trkpt lat="48.383940" lon="-3.694960">
						<ele>135</ele>
						<time>2026-09-01T16:36:38Z</time>
					</trkpt>
					<trkpt lat="48.383720" lon="-3.695610">
						<ele>134</ele>
						<time>2026-09-01T16:37:02Z</time>
					</trkpt>
					<trkpt lat="48.383630" lon="-3.696050">
						<ele>135</ele>
						<time>2026-09-01T16:37:17Z</time>
					</trkpt>
					<trkpt lat="48.383610" lon="-3.696420">
						<ele>136</ele>
						<time>2026-09-01T16:37:30Z</time>
					</trkpt>
					<trkpt lat="48.383620" lon="-3.696930">
						<ele>139</ele>
						<time>2026-09-01T16:37:47Z</time>
					</trkpt>
					<trkpt lat="48.383700" lon="-3.697440">
						<ele>143</ele>
						<time>2026-09-01T16:38:04Z</time>
					</trkpt>
					<trkpt lat="48.383780" lon="-3.697500">
						<ele>143</ele>
						<time>2026-09-01T16:38:09Z</time>
					</trkpt>
					<trkpt lat="48.383850" lon="-3.697600">
						<ele>144</ele>
						<time>2026-09-01T16:38:13Z</time>
					</trkpt>
					<trkpt lat="48.384050" lon="-3.697960">
						<ele>147</ele>
						<time>2026-09-01T16:38:29Z</time>
					</trkpt>
					<trkpt lat="48.384150" lon="-3.698180">
						<ele>149</ele>
						<time>2026-09-01T16:38:38Z</time>
					</trkpt>
					<trkpt lat="48.384180" lon="-3.698380">
						<ele>151</ele>
						<time>2026-09-01T16:38:45Z</time>
					</trkpt>
					<trkpt lat="48.384150" lon="-3.698490">
						<ele>152</ele>
						<time>2026-09-01T16:38:49Z</time>
					</trkpt>
					<trkpt lat="48.383860" lon="-3.698780">
						<ele>151</ele>
						<time>2026-09-01T16:39:06Z</time>
					</trkpt>
					<trkpt lat="48.383790" lon="-3.698910">
						<ele>151</ele>
						<time>2026-09-01T16:39:12Z</time>
					</trkpt>
					<trkpt lat="48.383790" lon="-3.699070">
						<ele>151</ele>
						<time>2026-09-01T16:39:17Z</time>
					</trkpt>
					<trkpt lat="48.383940" lon="-3.699600">
						<ele>156</ele>
						<time>2026-09-01T16:39:36Z</time>
					</trkpt>
					<trkpt lat="48.383920" lon="-3.700050">
						<ele>159</ele>
						<time>2026-09-01T16:39:51Z</time>
					</trkpt>
					<trkpt lat="48.381520" lon="-3.710370">
						<ele>182</ele>
						<time>2026-09-01T16:45:54Z</time>
					</trkpt>
					<trkpt lat="48.381490" lon="-3.710590">
						<ele>182</ele>
						<time>2026-09-01T16:46:02Z</time>
					</trkpt>
					<trkpt lat="48.379830" lon="-3.710730">
						<ele>188</ele>
						<time>2026-09-01T16:47:25Z</time>
					</trkpt>
					<trkpt lat="48.379370" lon="-3.710730">
						<ele>190</ele>
						<time>2026-09-01T16:47:48Z</time>
					</trkpt>
					<trkpt lat="48.378810" lon="-3.711790">
						<ele>195</ele>
						<time>2026-09-01T16:48:33Z</time>
					</trkpt>
					<trkpt lat="48.378740" lon="-3.711850">
						<ele>195</ele>
						<time>2026-09-01T16:48:37Z</time>
					</trkpt>
					<trkpt lat="48.378330" lon="-3.711980">
						<ele>195</ele>
						<time>2026-09-01T16:48:58Z</time>
					</trkpt>
					<trkpt lat="48.377770" lon="-3.712400">
						<ele>194</ele>
						<time>2026-09-01T16:49:29Z</time>
					</trkpt>
					<trkpt lat="48.377180" lon="-3.713090">
						<ele>190</ele>
						<time>2026-09-01T16:50:07Z</time>
					</trkpt>
					<trkpt lat="48.376930" lon="-3.713330">
						<ele>188</ele>
						<time>2026-09-01T16:50:22Z</time>
					</trkpt>
					<trkpt lat="48.376690" lon="-3.713500">
						<ele>184</ele>
						<time>2026-09-01T16:50:35Z</time>
					</trkpt>
					<trkpt lat="48.376260" lon="-3.713690">
						<ele>179</ele>
						<time>2026-09-01T16:50:57Z</time>
					</trkpt>
					<trkpt lat="48.376060" lon="-3.713730">
						<ele>177</ele>
						<time>2026-09-01T16:51:08Z</time>
					</trkpt>
					<trkpt lat="48.375910" lon="-3.713820">
						<ele>175</ele>
						<time>2026-09-01T16:51:16Z</time>
					</trkpt>
					<trkpt lat="48.375090" lon="-3.714490">
						<ele>163</ele>
						<time>2026-09-01T16:52:02Z</time>
					</trkpt>
					<trkpt lat="48.374730" lon="-3.714650">
						<ele>158</ele>
						<time>2026-09-01T16:52:21Z</time>
					</trkpt>
					<trkpt lat="48.374480" lon="-3.714660">
						<ele>155</ele>
						<time>2026-09-01T16:52:34Z</time>
					</trkpt>
					<trkpt lat="48.374370" lon="-3.714720">
						<ele>154</ele>
						<time>2026-09-01T16:52:39Z</time>
					</trkpt>
					<trkpt lat="48.374050" lon="-3.715150">
						<ele>149</ele>
						<time>2026-09-01T16:53:01Z</time>
					</trkpt>
					<trkpt lat="48.373770" lon="-3.715420">
						<ele>144</ele>
						<time>2026-09-01T16:53:18Z</time>
					</trkpt>
					<trkpt lat="48.373450" lon="-3.715590">
						<ele>140</ele>
						<time>2026-09-01T16:53:35Z</time>
					</trkpt>
					<trkpt lat="48.373080" lon="-3.715750">
						<ele>136</ele>
						<time>2026-09-01T16:53:54Z</time>
					</trkpt>
					<trkpt lat="48.372740" lon="-3.715990">
						<ele>132</ele>
						<time>2026-09-01T16:54:13Z</time>
					</trkpt>
					<trkpt lat="48.372530" lon="-3.715940">
						<ele>130</ele>
						<time>2026-09-01T16:54:23Z</time>
					</trkpt>
					<trkpt lat="48.372310" lon="-3.715700">
						<ele>128</ele>
						<time>2026-09-01T16:54:37Z</time>
					</trkpt>
					<trkpt lat="48.372080" lon="-3.715560">
						<ele>126</ele>
						<time>2026-09-01T16:54:49Z</time>
					</trkpt>
					<trkpt lat="48.371940" lon="-3.715540">
						<ele>125</ele>
						<time>2026-09-01T16:54:56Z</time>
					</trkpt>
					<trkpt lat="48.371750" lon="-3.715570">
						<ele>123</ele>
						<time>2026-09-01T16:55:06Z</time>
					</trkpt>
					<trkpt lat="48.371570" lon="-3.715620">
						<ele>122</ele>
						<time>2026-09-01T16:55:15Z</time>
					</trkpt>
					<trkpt lat="48.371240" lon="-3.715770">
						<ele>119</ele>
						<time>2026-09-01T16:55:32Z</time>
					</trkpt>
					<trkpt lat="48.371070" lon="-3.715260">
						<ele>119</ele>
						<time>2026-09-01T16:55:51Z</time>
					</trkpt>
					<trkpt lat="48.370910" lon="-3.714940">
						<ele>119</ele>
						<time>2026-09-01T16:56:05Z</time>
					</trkpt>
					<trkpt lat="48.370690" lon="-3.715410">
						<ele>115</ele>
						<time>2026-09-01T16:56:24Z</time>
					</trkpt>
					<trkpt lat="48.370390" lon="-3.716390">
						<ele>109</ele>
						<time>2026-09-01T16:56:59Z</time>
					</trkpt>
					<trkpt lat="48.369950" lon="-3.717400">
						<ele>111</ele>
						<time>2026-09-01T16:57:40Z</time>
					</trkpt>
					<trkpt lat="48.369790" lon="-3.717580">
						<ele>113</ele>
						<time>2026-09-01T16:57:50Z</time>
					</trkpt>
					<trkpt lat="48.369670" lon="-3.717760">
						<ele>115</ele>
						<time>2026-09-01T16:57:58Z</time>
					</trkpt>
					<trkpt lat="48.369640" lon="-3.717870">
						<ele>116</ele>
						<time>2026-09-01T16:58:02Z</time>
					</trkpt>
					<trkpt lat="48.369610" lon="-3.718340">
						<ele>121</ele>
						<time>2026-09-01T16:58:18Z</time>
					</trkpt>
					<trkpt lat="48.369560" lon="-3.718500">
						<ele>122</ele>
						<time>2026-09-01T16:58:24Z</time>
					</trkpt>
					<trkpt lat="48.369270" lon="-3.719190">
						<ele>126</ele>
						<time>2026-09-01T16:58:51Z</time>
					</trkpt>
					<trkpt lat="48.369060" lon="-3.719580">
						<ele>131</ele>
						<time>2026-09-01T16:59:07Z</time>
					</trkpt>
					<trkpt lat="48.368830" lon="-3.719830">
						<ele>136</ele>
						<time>2026-09-01T16:59:22Z</time>
					</trkpt>
					<trkpt lat="48.368690" lon="-3.719940">
						<ele>138</ele>
						<time>2026-09-01T16:59:30Z</time>
					</trkpt>
					<trkpt lat="48.368600" lon="-3.719970">
						<ele>138</ele>
						<time>2026-09-01T16:59:34Z</time>
					</trkpt>
					<trkpt lat="48.368430" lon="-3.719970">
						<ele>139</ele>
						<time>2026-09-01T16:59:43Z</time>
					</trkpt>
					<trkpt lat="48.368290" lon="-3.720080">
						<ele>141</ele>
						<time>2026-09-01T16:59:51Z</time>
					</trkpt>
					<trkpt lat="48.367690" lon="-3.720330">
						<ele>140</ele>
						<time>2026-09-01T17:00:22Z</time>
					</trkpt>
					<trkpt lat="48.367550" lon="-3.720430">
						<ele>140</ele>
						<time>2026-09-01T17:00:30Z</time>
					</trkpt>
					<trkpt lat="48.368020" lon="-3.721360">
						<ele>150</ele>
						<time>2026-09-01T17:01:08Z</time>
					</trkpt>
					<trkpt lat="48.367130" lon="-3.721000">
						<ele>139</ele>
						<time>2026-09-01T17:01:54Z</time>
					</trkpt>
					<trkpt lat="48.366710" lon="-3.720740">
						<ele>133</ele>
						<time>2026-09-01T17:02:17Z</time>
					</trkpt>
					<trkpt lat="48.366320" lon="-3.720410">
						<ele>127</ele>
						<time>2026-09-01T17:02:40Z</time>
					</trkpt>
					<trkpt lat="48.366190" lon="-3.720360">
						<ele>125</ele>
						<time>2026-09-01T17:02:46Z</time>
					</trkpt>
					<trkpt lat="48.365960" lon="-3.720320">
						<ele>122</ele>
						<time>2026-09-01T17:02:58Z</time>
					</trkpt>
					<trkpt lat="48.365420" lon="-3.720390">
						<ele>116</ele>
						<time>2026-09-01T17:03:25Z</time>
					</trkpt>
					<trkpt lat="48.364810" lon="-3.720210">
						<ele>111</ele>
						<time>2026-09-01T17:03:56Z</time>
					</trkpt>
					<trkpt lat="48.364580" lon="-3.720220">
						<ele>109</ele>
						<time>2026-09-01T17:04:08Z</time>
					</trkpt>
					<trkpt lat="48.364100" lon="-3.720300">
						<ele>106</ele>
						<time>2026-09-01T17:04:32Z</time>
					</trkpt>
					<trkpt lat="48.363980" lon="-3.720290">
						<ele>105</ele>
						<time>2026-09-01T17:04:38Z</time>
					</trkpt>
					<trkpt lat="48.363870" lon="-3.720340">
						<ele>104</ele>
						<time>2026-09-01T17:04:44Z</time>
					</trkpt>
					<trkpt lat="48.363840" lon="-3.720470">
						<ele>103</ele>
						<time>2026-09-01T17:04:48Z</time>
					</trkpt>
					<trkpt lat="48.363880" lon="-3.720630">
						<ele>103</ele>
						<time>2026-09-01T17:04:54Z</time>
					</trkpt>
					<trkpt lat="48.363880" lon="-3.720890">
						<ele>104</ele>
						<time>2026-09-01T17:05:02Z</time>
					</trkpt>
					<trkpt lat="48.363710" lon="-3.721160">
						<ele>103</ele>
						<time>2026-09-01T17:05:15Z</time>
					</trkpt>
					<trkpt lat="48.363420" lon="-3.721740">
						<ele>99</ele>
						<time>2026-09-01T17:05:39Z</time>
					</trkpt>
					<trkpt lat="48.363500" lon="-3.721900">
						<ele>102</ele>
						<time>2026-09-01T17:05:46Z</time>
					</trkpt>
					<trkpt lat="48.363470" lon="-3.722290">
						<ele>106</ele>
						<time>2026-09-01T17:05:59Z</time>
					</trkpt>
					<trkpt lat="48.363320" lon="-3.722610">
						<ele>106</ele>
						<time>2026-09-01T17:06:12Z</time>
					</trkpt>
					<trkpt lat="48.362840" lon="-3.723350">
						<ele>107</ele>
						<time>2026-09-01T17:06:46Z</time>
					</trkpt>
					<trkpt lat="48.362640" lon="-3.723590">
						<ele>106</ele>
						<time>2026-09-01T17:06:59Z</time>
					</trkpt>
					<trkpt lat="48.362430" lon="-3.723960">
						<ele>108</ele>
						<time>2026-09-01T17:07:15Z</time>
					</trkpt>
					<trkpt lat="48.362040" lon="-3.724500">
						<ele>113</ele>
						<time>2026-09-01T17:07:42Z</time>
					</trkpt>
					<trkpt lat="48.361860" lon="-3.724670">
						<ele>114</ele>
						<time>2026-09-01T17:07:52Z</time>
					</trkpt>
					<trkpt lat="48.361650" lon="-3.724780">
						<ele>113</ele>
						<time>2026-09-01T17:08:03Z</time>
					</trkpt>
					<trkpt lat="48.361520" lon="-3.724890">
						<ele>113</ele>
						<time>2026-09-01T17:08:11Z</time>
					</trkpt>
					<trkpt lat="48.361380" lon="-3.725340">
						<ele>117</ele>
						<time>2026-09-01T17:08:27Z</time>
					</trkpt>
					<trkpt lat="48.361260" lon="-3.725570">
						<ele>117</ele>
						<time>2026-09-01T17:08:37Z</time>
					</trkpt>
					<trkpt lat="48.361120" lon="-3.725750">
						<ele>117</ele>
						<time>2026-09-01T17:08:46Z</time>
					</trkpt>
					<trkpt lat="48.360810" lon="-3.726520">
						<ele>118</ele>
						<time>2026-09-01T17:09:16Z</time>
					</trkpt>
					<trkpt lat="48.360710" lon="-3.726860">
						<ele>120</ele>
						<time>2026-09-01T17:09:29Z</time>
					</trkpt>
					<trkpt lat="48.360730" lon="-3.727260">
						<ele>122</ele>
						<time>2026-09-01T17:09:42Z</time>
					</trkpt>
					<trkpt lat="48.361040" lon="-3.728100">
						<ele>127</ele>
						<time>2026-09-01T17:10:14Z</time>
					</trkpt>
					<trkpt lat="48.361210" lon="-3.728690">
						<ele>130</ele>
						<time>2026-09-01T17:10:35Z</time>
					</trkpt>
					<trkpt lat="48.361520" lon="-3.729480">
						<ele>127</ele>
						<time>2026-09-01T17:11:06Z</time>
					</trkpt>
					<trkpt lat="48.361890" lon="-3.729890">
						<ele>123</ele>
						<time>2026-09-01T17:11:29Z</time>
					</trkpt>
					<trkpt lat="48.362130" lon="-3.730010">
						<ele>123</ele>
						<time>2026-09-01T17:11:41Z</time>
					</trkpt>
					<trkpt lat="48.362320" lon="-3.730010">
						<ele>124</ele>
						<time>2026-09-01T17:11:51Z</time>
					</trkpt>
					<trkpt lat="48.362970" lon="-3.729870">
						<ele>131</ele>
						<time>2026-09-01T17:12:24Z</time>
					</trkpt>
					<trkpt lat="48.363210" lon="-3.729620">
						<ele>136</ele>
						<time>2026-09-01T17:12:38Z</time>
					</trkpt>
					<trkpt lat="48.363420" lon="-3.729610">
						<ele>137</ele>
						<time>2026-09-01T17:12:49Z</time>
					</trkpt>
					<trkpt lat="48.363610" lon="-3.729640">
						<ele>140</ele>
						<time>2026-09-01T17:12:58Z</time>
					</trkpt>
					<trkpt lat="48.364100" lon="-3.729820">
						<ele>145</ele>
						<time>2026-09-01T17:13:24Z</time>
					</trkpt>
					<trkpt lat="48.364300" lon="-3.730120">
						<ele>147</ele>
						<time>2026-09-01T17:13:38Z</time>
					</trkpt>
					<trkpt lat="48.364090" lon="-3.730300">
						<ele>145</ele>
						<time>2026-09-01T17:13:50Z</time>
					</trkpt>
					<trkpt lat="48.364300" lon="-3.730560">
						<ele>148</ele>
						<time>2026-09-01T17:14:04Z</time>
					</trkpt>
					<trkpt lat="48.364260" lon="-3.731000">
						<ele>149</ele>
						<time>2026-09-01T17:14:18Z</time>
					</trkpt>
					<trkpt lat="48.364120" lon="-3.731260">
						<ele>150</ele>
						<time>2026-09-01T17:14:29Z</time>
					</trkpt>
					<trkpt lat="48.364350" lon="-3.731730">
						<ele>150</ele>
						<time>2026-09-01T17:14:49Z</time>
					</trkpt>
					<trkpt lat="48.364310" lon="-3.732490">
						<ele>155</ele>
						<time>2026-09-01T17:15:14Z</time>
					</trkpt>
					<trkpt lat="48.364070" lon="-3.733090">
						<ele>163</ele>
						<time>2026-09-01T17:15:37Z</time>
					</trkpt>
					<trkpt lat="48.363840" lon="-3.733760">
						<ele>169</ele>
						<time>2026-09-01T17:16:03Z</time>
					</trkpt>
					<trkpt lat="48.363930" lon="-3.734600">
						<ele>172</ele>
						<time>2026-09-01T17:16:31Z</time>
					</trkpt>
					<trkpt lat="48.364460" lon="-3.735010">
						<ele>169</ele>
						<time>2026-09-01T17:17:01Z</time>
					</trkpt>
					<trkpt lat="48.365020" lon="-3.735500">
						<ele>168</ele>
						<time>2026-09-01T17:17:33Z</time>
					</trkpt>
					<trkpt lat="48.365370" lon="-3.736120">
						<ele>161</ele>
						<time>2026-09-01T17:18:00Z</time>
					</trkpt>
					<trkpt lat="48.364970" lon="-3.737130">
						<ele>171</ele>
						<time>2026-09-01T17:18:39Z</time>
					</trkpt>
					<trkpt lat="48.364860" lon="-3.738360">
						<ele>170</ele>
						<time>2026-09-01T17:19:20Z</time>
					</trkpt>
					<trkpt lat="48.364660" lon="-3.741380">
						<ele>161</ele>
						<time>2026-09-01T17:21:01Z</time>
					</trkpt>
					<trkpt lat="48.364260" lon="-3.742010">
						<ele>162</ele>
						<time>2026-09-01T17:21:30Z</time>
					</trkpt>
					<trkpt lat="48.363910" lon="-3.742170">
						<ele>164</ele>
						<time>2026-09-01T17:21:49Z</time>
					</trkpt>
					<trkpt lat="48.363390" lon="-3.741830">
						<ele>170</ele>
						<time>2026-09-01T17:22:17Z</time>
					</trkpt>
					<trkpt lat="48.363040" lon="-3.741700">
						<ele>174</ele>
						<time>2026-09-01T17:22:35Z</time>
					</trkpt>
					<trkpt lat="48.362860" lon="-3.741820">
						<ele>176</ele>
						<time>2026-09-01T17:22:45Z</time>
					</trkpt>
					<trkpt lat="48.363090" lon="-3.742160">
						<ele>172</ele>
						<time>2026-09-01T17:23:01Z</time>
					</trkpt>
					<trkpt lat="48.363340" lon="-3.742140">
						<ele>168</ele>
						<time>2026-09-01T17:23:14Z</time>
					</trkpt>
					<trkpt lat="48.363290" lon="-3.742410">
						<ele>167</ele>
						<time>2026-09-01T17:23:23Z</time>
					</trkpt>
					<trkpt lat="48.363360" lon="-3.743110">
						<ele>165</ele>
						<time>2026-09-01T17:23:46Z</time>
					</trkpt>
					<trkpt lat="48.363260" lon="-3.743400">
						<ele>167</ele>
						<time>2026-09-01T17:23:57Z</time>
					</trkpt>
					<trkpt lat="48.363380" lon="-3.743720">
						<ele>165</ele>
						<time>2026-09-01T17:24:10Z</time>
					</trkpt>
					<trkpt lat="48.363440" lon="-3.744110">
						<ele>166</ele>
						<time>2026-09-01T17:24:23Z</time>
					</trkpt>
					<trkpt lat="48.363240" lon="-3.744580">
						<ele>168</ele>
						<time>2026-09-01T17:24:41Z</time>
					</trkpt>
					<trkpt lat="48.363310" lon="-3.744840">
						<ele>168</ele>
						<time>2026-09-01T17:24:51Z</time>
					</trkpt>
					<trkpt lat="48.363950" lon="-3.744200">
						<ele>166</ele>
						<time>2026-09-01T17:25:29Z</time>
					</trkpt>
					<trkpt lat="48.364000" lon="-3.743540">
						<ele>161</ele>
						<time>2026-09-01T17:25:51Z</time>
					</trkpt>
					<trkpt lat="48.364150" lon="-3.743560">
						<ele>160</ele>
						<time>2026-09-01T17:25:59Z</time>
					</trkpt>
					<trkpt lat="48.364160" lon="-3.744390">
						<ele>168</ele>
						<time>2026-09-01T17:26:26Z</time>
					</trkpt>
					<trkpt lat="48.363980" lon="-3.744650">
						<ele>169</ele>
						<time>2026-09-01T17:26:39Z</time>
					</trkpt>
					<trkpt lat="48.364120" lon="-3.744960">
						<ele>171</ele>
						<time>2026-09-01T17:26:51Z</time>
					</trkpt>
					<trkpt lat="48.364110" lon="-3.745530">
						<ele>174</ele>
						<time>2026-09-01T17:27:10Z</time>
					</trkpt>
					<trkpt lat="48.364300" lon="-3.746520">
						<ele>174</ele>
						<time>2026-09-01T17:27:45Z</time>
					</trkpt>
					<trkpt lat="48.364580" lon="-3.747010">
						<ele>172</ele>
						<time>2026-09-01T17:28:06Z</time>
					</trkpt>
					<trkpt lat="48.365130" lon="-3.746330">
						<ele>172</ele>
						<time>2026-09-01T17:28:42Z</time>
					</trkpt>
					<trkpt lat="48.365630" lon="-3.746220">
						<ele>173</ele>
						<time>2026-09-01T17:29:07Z</time>
					</trkpt>
					<trkpt lat="48.365840" lon="-3.745910">
						<ele>175</ele>
						<time>2026-09-01T17:29:22Z</time>
					</trkpt>
					<trkpt lat="48.366210" lon="-3.745710">
						<ele>176</ele>
						<time>2026-09-01T17:29:41Z</time>
					</trkpt>
					<trkpt lat="48.366470" lon="-3.745910">
						<ele>178</ele>
						<time>2026-09-01T17:29:56Z</time>
					</trkpt>
					<trkpt lat="48.366700" lon="-3.745830">
						<ele>178</ele>
						<time>2026-09-01T17:30:08Z</time>
					</trkpt>
					<trkpt lat="48.366820" lon="-3.744330">
						<ele>163</ele>
						<time>2026-09-01T17:30:58Z</time>
					</trkpt>
					<trkpt lat="48.366730" lon="-3.743720">
						<ele>165</ele>
						<time>2026-09-01T17:31:19Z</time>
					</trkpt>
					<trkpt lat="48.366390" lon="-3.743150">
						<ele>166</ele>
						<time>2026-09-01T17:31:44Z</time>
					</trkpt>
					<trkpt lat="48.366290" lon="-3.742640">
						<ele>167</ele>
						<time>2026-09-01T17:32:02Z</time>
					</trkpt>
					<trkpt lat="48.366330" lon="-3.742340">
						<ele>170</ele>
						<time>2026-09-01T17:32:12Z</time>
					</trkpt>
					<trkpt lat="48.366740" lon="-3.741570">
						<ele>184</ele>
						<time>2026-09-01T17:32:45Z</time>
					</trkpt>
					<trkpt lat="48.367090" lon="-3.740620">
						<ele>190</ele>
						<time>2026-09-01T17:33:21Z</time>
					</trkpt>
					<trkpt lat="48.367200" lon="-3.740680">
						<ele>193</ele>
						<time>2026-09-01T17:33:27Z</time>
					</trkpt>
					<trkpt lat="48.367140" lon="-3.741180">
						<ele>191</ele>
						<time>2026-09-01T17:33:44Z</time>
					</trkpt>
					<trkpt lat="48.367260" lon="-3.741520">
						<ele>193</ele>
						<time>2026-09-01T17:33:57Z</time>
					</trkpt>
					<trkpt lat="48.367600" lon="-3.741810">
						<ele>195</ele>
						<time>2026-09-01T17:34:16Z</time>
					</trkpt>
					<trkpt lat="48.367900" lon="-3.741790">
						<ele>196</ele>
						<time>2026-09-01T17:34:31Z</time>
					</trkpt>
					<trkpt lat="48.368350" lon="-3.742150">
						<ele>195</ele>
						<time>2026-09-01T17:34:57Z</time>
					</trkpt>
					<trkpt lat="48.368710" lon="-3.742660">
						<ele>194</ele>
						<time>2026-09-01T17:35:21Z</time>
					</trkpt>
					<trkpt lat="48.369100" lon="-3.743360">
						<ele>195</ele>
						<time>2026-09-01T17:35:52Z</time>
					</trkpt>
					<trkpt lat="48.369520" lon="-3.743810">
						<ele>198</ele>
						<time>2026-09-01T17:36:18Z</time>
					</trkpt>
					<trkpt lat="48.370030" lon="-3.744210">
						<ele>201</ele>
						<time>2026-09-01T17:36:46Z</time>
					</trkpt>
					<trkpt lat="48.370620" lon="-3.744830">
						<ele>194</ele>
						<time>2026-09-01T17:37:22Z</time>
					</trkpt>
					<trkpt lat="48.371140" lon="-3.744620">
						<ele>197</ele>
						<time>2026-09-01T17:37:49Z</time>
					</trkpt>
					<trkpt lat="48.371360" lon="-3.744740">
						<ele>196</ele>
						<time>2026-09-01T17:38:01Z</time>
					</trkpt>
					<trkpt lat="48.371620" lon="-3.745090">
						<ele>193</ele>
						<time>2026-09-01T17:38:18Z</time>
					</trkpt>
					<trkpt lat="48.372300" lon="-3.744960">
						<ele>201</ele>
						<time>2026-09-01T17:38:53Z</time>
					</trkpt>
					<trkpt lat="48.372440" lon="-3.745310">
						<ele>198</ele>
						<time>2026-09-01T17:39:06Z</time>
					</trkpt>
					<trkpt lat="48.373030" lon="-3.745370">
						<ele>204</ele>
						<time>2026-09-01T17:39:36Z</time>
					</trkpt>
					<trkpt lat="48.373670" lon="-3.745770">
						<ele>202</ele>
						<time>2026-09-01T17:40:11Z</time>
					</trkpt>
					<trkpt lat="48.374570" lon="-3.745730">
						<ele>205</ele>
						<time>2026-09-01T17:40:56Z</time>
					</trkpt>
					<trkpt lat="48.375120" lon="-3.745590">
						<ele>207</ele>
						<time>2026-09-01T17:41:24Z</time>
					</trkpt>
					<trkpt lat="48.375530" lon="-3.745550">
						<ele>208</ele>
						<time>2026-09-01T17:41:44Z</time>
					</trkpt>
					<trkpt lat="48.376420" lon="-3.745560">
						<ele>208</ele>
						<time>2026-09-01T17:42:29Z</time>
					</trkpt>
					<trkpt lat="48.377640" lon="-3.745270">
						<ele>205</ele>
						<time>2026-09-01T17:43:30Z</time>
					</trkpt>
					<trkpt lat="48.377690" lon="-3.745810">
						<ele>204</ele>
						<time>2026-09-01T17:43:49Z</time>
					</trkpt>
					<trkpt lat="48.377760" lon="-3.746090">
						<ele>205</ele>
						<time>2026-09-01T17:43:59Z</time>
					</trkpt>
					<trkpt lat="48.377850" lon="-3.746320">
						<ele>205</ele>
						<time>2026-09-01T17:44:07Z</time>
					</trkpt>
					<trkpt lat="48.378190" lon="-3.746950">
						<ele>208</ele>
						<time>2026-09-01T17:44:34Z</time>
					</trkpt>
					<trkpt lat="48.378280" lon="-3.747220">
						<ele>210</ele>
						<time>2026-09-01T17:44:44Z</time>
					</trkpt>
					<trkpt lat="48.378430" lon="-3.747440">
						<ele>210</ele>
						<time>2026-09-01T17:44:55Z</time>
					</trkpt>
					<trkpt lat="48.378490" lon="-3.747600">
						<ele>210</ele>
						<time>2026-09-01T17:45:01Z</time>
					</trkpt>
					<trkpt lat="48.378660" lon="-3.748320">
						<ele>213</ele>
						<time>2026-09-01T17:45:26Z</time>
					</trkpt>
					<trkpt lat="48.378670" lon="-3.748540">
						<ele>215</ele>
						<time>2026-09-01T17:45:34Z</time>
					</trkpt>
					<trkpt lat="48.378620" lon="-3.748830">
						<ele>218</ele>
						<time>2026-09-01T17:45:44Z</time>
					</trkpt>
					<trkpt lat="48.378660" lon="-3.749010">
						<ele>219</ele>
						<time>2026-09-01T17:45:50Z</time>
					</trkpt>
					<trkpt lat="48.378790" lon="-3.749160">
						<ele>220</ele>
						<time>2026-09-01T17:45:58Z</time>
					</trkpt>
					<trkpt lat="48.379060" lon="-3.749350">
						<ele>219</ele>
						<time>2026-09-01T17:46:13Z</time>
					</trkpt>
					<trkpt lat="48.379170" lon="-3.749530">
						<ele>221</ele>
						<time>2026-09-01T17:46:21Z</time>
					</trkpt>
					<trkpt lat="48.379240" lon="-3.749740">
						<ele>223</ele>
						<time>2026-09-01T17:46:29Z</time>
					</trkpt>
					<trkpt lat="48.379350" lon="-3.749830">
						<ele>224</ele>
						<time>2026-09-01T17:46:35Z</time>
					</trkpt>
					<trkpt lat="48.379410" lon="-3.749930">
						<ele>224</ele>
						<time>2026-09-01T17:46:40Z</time>
					</trkpt>
					<trkpt lat="48.379530" lon="-3.750010">
						<ele>224</ele>
						<time>2026-09-01T17:46:46Z</time>
					</trkpt>
					<trkpt lat="48.379640" lon="-3.750150">
						<ele>224</ele>
						<time>2026-09-01T17:46:54Z</time>
					</trkpt>
					<trkpt lat="48.379880" lon="-3.750490">
						<ele>225</ele>
						<time>2026-09-01T17:47:10Z</time>
					</trkpt>
					<trkpt lat="48.380120" lon="-3.750900">
						<ele>225</ele>
						<time>2026-09-01T17:47:28Z</time>
					</trkpt>
					<trkpt lat="48.380280" lon="-3.751260">
						<ele>222</ele>
						<time>2026-09-01T17:47:43Z</time>
					</trkpt>
					<trkpt lat="48.380360" lon="-3.751640">
						<ele>222</ele>
						<time>2026-09-01T17:47:56Z</time>
					</trkpt>
					<trkpt lat="48.380420" lon="-3.752260">
						<ele>220</ele>
						<time>2026-09-01T17:48:17Z</time>
					</trkpt>
					<trkpt lat="48.380410" lon="-3.752810">
						<ele>219</ele>
						<time>2026-09-01T17:48:35Z</time>
					</trkpt>
					<trkpt lat="48.380430" lon="-3.753030">
						<ele>219</ele>
						<time>2026-09-01T17:48:42Z</time>
					</trkpt>
					<trkpt lat="48.380480" lon="-3.753160">
						<ele>218</ele>
						<time>2026-09-01T17:48:47Z</time>
					</trkpt>
					<trkpt lat="48.380700" lon="-3.753510">
						<ele>217</ele>
						<time>2026-09-01T17:49:03Z</time>
					</trkpt>
					<trkpt lat="48.380900" lon="-3.753760">
						<ele>215</ele>
						<time>2026-09-01T17:49:16Z</time>
					</trkpt>
					<trkpt lat="48.381020" lon="-3.753960">
						<ele>216</ele>
						<time>2026-09-01T17:49:25Z</time>
					</trkpt>
					<trkpt lat="48.381080" lon="-3.753930">
						<ele>215</ele>
						<time>2026-09-01T17:49:29Z</time>
					</trkpt>
					<trkpt lat="48.379950" lon="-3.754590">
						<ele>225</ele>
						<time>2026-09-01T17:50:29Z</time>
					</trkpt>
					<trkpt lat="48.379120" lon="-3.755000">
						<ele>229</ele>
						<time>2026-09-01T17:51:13Z</time>
					</trkpt>
					<trkpt lat="48.378940" lon="-3.755130">
						<ele>229</ele>
						<time>2026-09-01T17:51:23Z</time>
					</trkpt>
					<trkpt lat="48.378860" lon="-3.755220">
						<ele>228</ele>
						<time>2026-09-01T17:51:28Z</time>
					</trkpt>
					<trkpt lat="48.378830" lon="-3.755290">
						<ele>228</ele>
						<time>2026-09-01T17:51:31Z</time>
					</trkpt>
					<trkpt lat="48.378810" lon="-3.755480">
						<ele>227</ele>
						<time>2026-09-01T17:51:37Z</time>
					</trkpt>
					<trkpt lat="48.378820" lon="-3.756100">
						<ele>225</ele>
						<time>2026-09-01T17:51:58Z</time>
					</trkpt>
					<trkpt lat="48.378920" lon="-3.756200">
						<ele>225</ele>
						<time>2026-09-01T17:52:04Z</time>
					</trkpt>
					<trkpt lat="48.379020" lon="-3.756570">
						<ele>224</ele>
						<time>2026-09-01T17:52:17Z</time>
					</trkpt>
					<trkpt lat="48.379170" lon="-3.756960">
						<ele>223</ele>
						<time>2026-09-01T17:52:32Z</time>
					</trkpt>
					<trkpt lat="48.379260" lon="-3.757110">
						<ele>222</ele>
						<time>2026-09-01T17:52:39Z</time>
					</trkpt>
					<trkpt lat="48.379520" lon="-3.757390">
						<ele>222</ele>
						<time>2026-09-01T17:52:55Z</time>
					</trkpt>
					<trkpt lat="48.379470" lon="-3.757630">
						<ele>221</ele>
						<time>2026-09-01T17:53:03Z</time>
					</trkpt>
					<trkpt lat="48.379430" lon="-3.758130">
						<ele>220</ele>
						<time>2026-09-01T17:53:20Z</time>
					</trkpt>
					<trkpt lat="48.379470" lon="-3.758690">
						<ele>220</ele>
						<time>2026-09-01T17:53:38Z</time>
					</trkpt>
					<trkpt lat="48.379350" lon="-3.759880">
						<ele>216</ele>
						<time>2026-09-01T17:54:18Z</time>
					</trkpt>
					<trkpt lat="48.379230" lon="-3.760570">
						<ele>213</ele>
						<time>2026-09-01T17:54:42Z</time>
					</trkpt>
					<trkpt lat="48.379020" lon="-3.761310">
						<ele>211</ele>
						<time>2026-09-01T17:55:09Z</time>
					</trkpt>
					<trkpt lat="48.378910" lon="-3.761870">
						<ele>209</ele>
						<time>2026-09-01T17:55:28Z</time>
					</trkpt>
					<trkpt lat="48.378860" lon="-3.762970">
						<ele>206</ele>
						<time>2026-09-01T17:56:05Z</time>
					</trkpt>
					<trkpt lat="48.379100" lon="-3.763700">
						<ele>206</ele>
						<time>2026-09-01T17:56:32Z</time>
					</trkpt>
					<trkpt lat="48.379130" lon="-3.764170">
						<ele>206</ele>
						<time>2026-09-01T17:56:48Z</time>
					</trkpt>
					<trkpt lat="48.379260" lon="-3.764480">
						<ele>207</ele>
						<time>2026-09-01T17:57:00Z</time>
					</trkpt>
					<trkpt lat="48.379350" lon="-3.764770">
						<ele>208</ele>
						<time>2026-09-01T17:57:11Z</time>
					</trkpt>
					<trkpt lat="48.379450" lon="-3.765250">
						<ele>210</ele>
						<time>2026-09-01T17:57:27Z</time>
					</trkpt>
					<trkpt lat="48.379550" lon="-3.765830">
						<ele>215</ele>
						<time>2026-09-01T17:57:47Z</time>
					</trkpt>
					<trkpt lat="48.379620" lon="-3.766490">
						<ele>218</ele>
						<time>2026-09-01T17:58:09Z</time>
					</trkpt>
					<trkpt lat="48.379670" lon="-3.766670">
						<ele>219</ele>
						<time>2026-09-01T17:58:16Z</time>
					</trkpt>
					<trkpt lat="48.379650" lon="-3.767040">
						<ele>220</ele>
						<time>2026-09-01T17:58:28Z</time>
					</trkpt>
					<trkpt lat="48.379670" lon="-3.767120">
						<ele>220</ele>
						<time>2026-09-01T17:58:31Z</time>
					</trkpt>
					<trkpt lat="48.379770" lon="-3.767240">
						<ele>221</ele>
						<time>2026-09-01T17:58:37Z</time>
					</trkpt>
					<trkpt lat="48.379870" lon="-3.767490">
						<ele>222</ele>
						<time>2026-09-01T17:58:47Z</time>
					</trkpt>
					<trkpt lat="48.380050" lon="-3.768230">
						<ele>223</ele>
						<time>2026-09-01T17:59:13Z</time>
					</trkpt>
					<trkpt lat="48.380280" lon="-3.768940">
						<ele>222</ele>
						<time>2026-09-01T17:59:40Z</time>
					</trkpt>
					<trkpt lat="48.380530" lon="-3.769420">
						<ele>221</ele>
						<time>2026-09-01T18:00:00Z</time>
					</trkpt>
					<trkpt lat="48.380640" lon="-3.769580">
						<ele>221</ele>
						<time>2026-09-01T18:00:08Z</time>
					</trkpt>
					<trkpt lat="48.381010" lon="-3.770430">
						<ele>220</ele>
						<time>2026-09-01T18:00:41Z</time>
					</trkpt>
					<trkpt lat="48.381580" lon="-3.771840">
						<ele>225</ele>
						<time>2026-09-01T18:01:36Z</time>
					</trkpt>
					<trkpt lat="48.381710" lon="-3.772030">
						<ele>226</ele>
						<time>2026-09-01T18:01:45Z</time>
					</trkpt>
					<trkpt lat="48.382080" lon="-3.772430">
						<ele>229</ele>
						<time>2026-09-01T18:02:08Z</time>
					</trkpt>
					<trkpt lat="48.382300" lon="-3.772740">
						<ele>231</ele>
						<time>2026-09-01T18:02:23Z</time>
					</trkpt>
					<trkpt lat="48.382160" lon="-3.772940">
						<ele>232</ele>
						<time>2026-09-01T18:02:33Z</time>
					</trkpt>
					<trkpt lat="48.381720" lon="-3.773280">
						<ele>236</ele>
						<time>2026-09-01T18:02:58Z</time>
					</trkpt>
					<trkpt lat="48.381340" lon="-3.773780">
						<ele>235</ele>
						<time>2026-09-01T18:03:23Z</time>
					</trkpt>
					<trkpt lat="48.381130" lon="-3.773950">
						<ele>234</ele>
						<time>2026-09-01T18:03:35Z</time>
					</trkpt>
					<trkpt lat="48.380940" lon="-3.774490">
						<ele>234</ele>
						<time>2026-09-01T18:03:55Z</time>
					</trkpt>
					<trkpt lat="48.380420" lon="-3.775790">
						<ele>230</ele>
						<time>2026-09-01T18:04:45Z</time>
					</trkpt>
					<trkpt lat="48.380130" lon="-3.776750">
						<ele>229</ele>
						<time>2026-09-01T18:05:21Z</time>
					</trkpt>
					<trkpt lat="48.380090" lon="-3.776990">
						<ele>229</ele>
						<time>2026-09-01T18:05:29Z</time>
					</trkpt>
					<trkpt lat="48.380090" lon="-3.777420">
						<ele>229</ele>
						<time>2026-09-01T18:05:43Z</time>
					</trkpt>
					<trkpt lat="48.380140" lon="-3.777800">
						<ele>230</ele>
						<time>2026-09-01T18:05:56Z</time>
					</trkpt>
					<trkpt lat="48.380290" lon="-3.777780">
						<ele>230</ele>
						<time>2026-09-01T18:06:03Z</time>
					</trkpt>
					<trkpt lat="48.380430" lon="-3.777810">
						<ele>231</ele>
						<time>2026-09-01T18:06:11Z</time>
					</trkpt>
					<trkpt lat="48.380710" lon="-3.777950">
						<ele>233</ele>
						<time>2026-09-01T18:06:25Z</time>
					</trkpt>
					<trkpt lat="48.380880" lon="-3.777990">
						<ele>234</ele>
						<time>2026-09-01T18:06:34Z</time>
					</trkpt>
					<trkpt lat="48.380980" lon="-3.777990">
						<ele>235</ele>
						<time>2026-09-01T18:06:39Z</time>
					</trkpt>
					<trkpt lat="48.381360" lon="-3.777910">
						<ele>236</ele>
						<time>2026-09-01T18:06:58Z</time>
					</trkpt>
					<trkpt lat="48.381490" lon="-3.777930">
						<ele>237</ele>
						<time>2026-09-01T18:07:05Z</time>
					</trkpt>
					<trkpt lat="48.381660" lon="-3.778030">
						<ele>238</ele>
						<time>2026-09-01T18:07:14Z</time>
					</trkpt>
					<trkpt lat="48.382720" lon="-3.778940">
						<ele>243</ele>
						<time>2026-09-01T18:08:15Z</time>
					</trkpt>
					<trkpt lat="48.383520" lon="-3.779410">
						<ele>241</ele>
						<time>2026-09-01T18:08:58Z</time>
					</trkpt>
					<trkpt lat="48.384140" lon="-3.779990">
						<ele>237</ele>
						<time>2026-09-01T18:09:34Z</time>
					</trkpt>
					<trkpt lat="48.384420" lon="-3.780330">
						<ele>238</ele>
						<time>2026-09-01T18:09:52Z</time>
					</trkpt>
					<trkpt lat="48.385050" lon="-3.781220">
						<ele>241</ele>
						<time>2026-09-01T18:10:36Z</time>
					</trkpt>
					<trkpt lat="48.385170" lon="-3.781500">
						<ele>242</ele>
						<time>2026-09-01T18:10:47Z</time>
					</trkpt>
					<trkpt lat="48.385300" lon="-3.782030">
						<ele>243</ele>
						<time>2026-09-01T18:11:05Z</time>
					</trkpt>
					<trkpt lat="48.385320" lon="-3.782450">
						<ele>243</ele>
						<time>2026-09-01T18:11:19Z</time>
					</trkpt>
					<trkpt lat="48.385300" lon="-3.783240">
						<ele>246</ele>
						<time>2026-09-01T18:11:46Z</time>
					</trkpt>
					<trkpt lat="48.385190" lon="-3.783760">
						<ele>246</ele>
						<time>2026-09-01T18:12:04Z</time>
					</trkpt>
					<trkpt lat="48.385130" lon="-3.784360">
						<ele>246</ele>
						<time>2026-09-01T18:12:24Z</time>
					</trkpt>
					<trkpt lat="48.385110" lon="-3.784800">
						<ele>247</ele>
						<time>2026-09-01T18:12:39Z</time>
					</trkpt>
					<trkpt lat="48.385110" lon="-3.786140">
						<ele>244</ele>
						<time>2026-09-01T18:13:23Z</time>
					</trkpt>
					<trkpt lat="48.384910" lon="-3.790070">
						<ele>243</ele>
						<time>2026-09-01T18:15:34Z</time>
					</trkpt>
					<trkpt lat="48.384780" lon="-3.791440">
						<ele>244</ele>
						<time>2026-09-01T18:16:20Z</time>
					</trkpt>
					<trkpt lat="48.384780" lon="-3.791800">
						<ele>244</ele>
						<time>2026-09-01T18:16:32Z</time>
					</trkpt>
					<trkpt lat="48.384700" lon="-3.792320">
						<ele>245</ele>
						<time>2026-09-01T18:16:50Z</time>
					</trkpt>
					<trkpt lat="48.384570" lon="-3.792540">
						<ele>245</ele>
						<time>2026-09-01T18:17:00Z</time>
					</trkpt>
					<trkpt lat="48.384400" lon="-3.792690">
						<ele>245</ele>
						<time>2026-09-01T18:17:10Z</time>
					</trkpt>
					<trkpt lat="48.384300" lon="-3.792730">
						<ele>246</ele>
						<time>2026-09-01T18:17:15Z</time>
					</trkpt>
					<trkpt lat="48.384150" lon="-3.792710">
						<ele>245</ele>
						<time>2026-09-01T18:17:22Z</time>
					</trkpt>
					<trkpt lat="48.383830" lon="-3.792490">
						<ele>244</ele>
						<time>2026-09-01T18:17:40Z</time>
					</trkpt>
					<trkpt lat="48.383700" lon="-3.792440">
						<ele>244</ele>
						<time>2026-09-01T18:17:47Z</time>
					</trkpt>
					<trkpt lat="48.383380" lon="-3.792530">
						<ele>243</ele>
						<time>2026-09-01T18:18:03Z</time>
					</trkpt>
					<trkpt lat="48.383210" lon="-3.792550">
						<ele>243</ele>
						<time>2026-09-01T18:18:11Z</time>
					</trkpt>
					<trkpt lat="48.382800" lon="-3.792720">
						<ele>241</ele>
						<time>2026-09-01T18:18:33Z</time>
					</trkpt>
					<trkpt lat="48.382140" lon="-3.793050">
						<ele>238</ele>
						<time>2026-09-01T18:19:07Z</time>
					</trkpt>
					<trkpt lat="48.381760" lon="-3.793290">
						<ele>236</ele>
						<time>2026-09-01T18:19:28Z</time>
					</trkpt>
					<trkpt lat="48.381670" lon="-3.793700">
						<ele>237</ele>
						<time>2026-09-01T18:19:42Z</time>
					</trkpt>
					<trkpt lat="48.381930" lon="-3.793680">
						<ele>238</ele>
						<time>2026-09-01T18:19:55Z</time>
					</trkpt>
					<trkpt lat="48.382100" lon="-3.793770">
						<ele>239</ele>
						<time>2026-09-01T18:20:04Z</time>
					</trkpt>
					<trkpt lat="48.382430" lon="-3.794260">
						<ele>239</ele>
						<time>2026-09-01T18:20:28Z</time>
					</trkpt>
					<trkpt lat="48.383210" lon="-3.795790">
						<ele>232</ele>
						<time>2026-09-01T18:21:32Z</time>
					</trkpt>
					<trkpt lat="48.383490" lon="-3.796180">
						<ele>230</ele>
						<time>2026-09-01T18:21:51Z</time>
					</trkpt>
					<trkpt lat="48.384020" lon="-3.797030">
						<ele>225</ele>
						<time>2026-09-01T18:22:30Z</time>
					</trkpt>
					<trkpt lat="48.384400" lon="-3.797900">
						<ele>218</ele>
						<time>2026-09-01T18:23:04Z</time>
					</trkpt>
					<trkpt lat="48.384580" lon="-3.798450">
						<ele>215</ele>
						<time>2026-09-01T18:23:25Z</time>
					</trkpt>
					<trkpt lat="48.385010" lon="-3.799330">
						<ele>209</ele>
						<time>2026-09-01T18:24:01Z</time>
					</trkpt>
					<trkpt lat="48.385050" lon="-3.799460">
						<ele>209</ele>
						<time>2026-09-01T18:24:06Z</time>
					</trkpt>
					<trkpt lat="48.385120" lon="-3.800030">
						<ele>206</ele>
						<time>2026-09-01T18:24:25Z</time>
					</trkpt>
					<trkpt lat="48.385410" lon="-3.801500">
						<ele>213</ele>
						<time>2026-09-01T18:25:16Z</time>
					</trkpt>
					<trkpt lat="48.385470" lon="-3.802190">
						<ele>216</ele>
						<time>2026-09-01T18:25:39Z</time>
					</trkpt>
					<trkpt lat="48.385560" lon="-3.802410">
						<ele>217</ele>
						<time>2026-09-01T18:25:48Z</time>
					</trkpt>
					<trkpt lat="48.385620" lon="-3.802480">
						<ele>217</ele>
						<time>2026-09-01T18:25:51Z</time>
					</trkpt>
					<trkpt lat="48.385880" lon="-3.802960">
						<ele>218</ele>
						<time>2026-09-01T18:26:12Z</time>
					</trkpt>
					<trkpt lat="48.386040" lon="-3.803450">
						<ele>220</ele>
						<time>2026-09-01T18:26:30Z</time>
					</trkpt>
					<trkpt lat="48.386090" lon="-3.803690">
						<ele>220</ele>
						<time>2026-09-01T18:26:38Z</time>
					</trkpt>
					<trkpt lat="48.386140" lon="-3.804230">
						<ele>221</ele>
						<time>2026-09-01T18:26:57Z</time>
					</trkpt>
					<trkpt lat="48.386110" lon="-3.804730">
						<ele>222</ele>
						<time>2026-09-01T18:27:13Z</time>
					</trkpt>
					<trkpt lat="48.385890" lon="-3.804730">
						<ele>222</ele>
						<time>2026-09-01T18:27:24Z</time>
					</trkpt>
					<trkpt lat="48.385640" lon="-3.804790">
						<ele>223</ele>
						<time>2026-09-01T18:27:37Z</time>
					</trkpt>
					<trkpt lat="48.385490" lon="-3.804870">
						<ele>223</ele>
						<time>2026-09-01T18:27:45Z</time>
					</trkpt>
					<trkpt lat="48.385370" lon="-3.804970">
						<ele>224</ele>
						<time>2026-09-01T18:27:52Z</time>
					</trkpt>
					<trkpt lat="48.385020" lon="-3.805370">
						<ele>225</ele>
						<time>2026-09-01T18:28:14Z</time>
					</trkpt>
					<trkpt lat="48.384750" lon="-3.805550">
						<ele>226</ele>
						<time>2026-09-01T18:28:29Z</time>
					</trkpt>
					<trkpt lat="48.384450" lon="-3.805620">
						<ele>228</ele>
						<time>2026-09-01T18:28:44Z</time>
					</trkpt>
					<trkpt lat="48.384280" lon="-3.805620">
						<ele>228</ele>
						<time>2026-09-01T18:28:52Z</time>
					</trkpt>
					<trkpt lat="48.383990" lon="-3.805560">
						<ele>228</ele>
						<time>2026-09-01T18:29:07Z</time>
					</trkpt>
					<trkpt lat="48.383750" lon="-3.805550">
						<ele>228</ele>
						<time>2026-09-01T18:29:19Z</time>
					</trkpt>
					<trkpt lat="48.383230" lon="-3.805690">
						<ele>227</ele>
						<time>2026-09-01T18:29:45Z</time>
					</trkpt>
					<trkpt lat="48.382070" lon="-3.806060">
						<ele>228</ele>
						<time>2026-09-01T18:30:45Z</time>
					</trkpt>
					<trkpt lat="48.381810" lon="-3.806220">
						<ele>228</ele>
						<time>2026-09-01T18:30:59Z</time>
					</trkpt>
					<trkpt lat="48.381460" lon="-3.806490">
						<ele>225</ele>
						<time>2026-09-01T18:31:18Z</time>
					</trkpt>
					<trkpt lat="48.380820" lon="-3.807040">
						<ele>220</ele>
						<time>2026-09-01T18:31:55Z</time>
					</trkpt>
					<trkpt lat="48.380440" lon="-3.807280">
						<ele>222</ele>
						<time>2026-09-01T18:32:16Z</time>
					</trkpt>
					<trkpt lat="48.380300" lon="-3.807310">
						<ele>223</ele>
						<time>2026-09-01T18:32:23Z</time>
					</trkpt>
					<trkpt lat="48.378780" lon="-3.807430">
						<ele>230</ele>
						<time>2026-09-01T18:33:39Z</time>
					</trkpt>
					<trkpt lat="48.378470" lon="-3.807400">
						<ele>231</ele>
						<time>2026-09-01T18:33:55Z</time>
					</trkpt>
					<trkpt lat="48.378280" lon="-3.807350">
						<ele>231</ele>
						<time>2026-09-01T18:34:04Z</time>
					</trkpt>
					<trkpt lat="48.378090" lon="-3.807260">
						<ele>231</ele>
						<time>2026-09-01T18:34:14Z</time>
					</trkpt>
					<trkpt lat="48.377750" lon="-3.806960">
						<ele>232</ele>
						<time>2026-09-01T18:34:34Z</time>
					</trkpt>
					<trkpt lat="48.377500" lon="-3.806650">
						<ele>232</ele>
						<time>2026-09-01T18:34:50Z</time>
					</trkpt>
					<trkpt lat="48.377310" lon="-3.806460">
						<ele>232</ele>
						<time>2026-09-01T18:35:02Z</time>
					</trkpt>
					<trkpt lat="48.376590" lon="-3.805940">
						<ele>228</ele>
						<time>2026-09-01T18:35:42Z</time>
					</trkpt>
					<trkpt lat="48.376210" lon="-3.805740">
						<ele>226</ele>
						<time>2026-09-01T18:36:02Z</time>
					</trkpt>
					<trkpt lat="48.375810" lon="-3.805490">
						<ele>224</ele>
						<time>2026-09-01T18:36:23Z</time>
					</trkpt>
					<trkpt lat="48.375670" lon="-3.805330">
						<ele>224</ele>
						<time>2026-09-01T18:36:32Z</time>
					</trkpt>
					<trkpt lat="48.375570" lon="-3.805270">
						<ele>224</ele>
						<time>2026-09-01T18:36:38Z</time>
					</trkpt>
					<trkpt lat="48.375070" lon="-3.805120">
						<ele>223</ele>
						<time>2026-09-01T18:37:03Z</time>
					</trkpt>
					<trkpt lat="48.374800" lon="-3.804990">
						<ele>223</ele>
						<time>2026-09-01T18:37:17Z</time>
					</trkpt>
					<trkpt lat="48.374180" lon="-3.804470">
						<ele>221</ele>
						<time>2026-09-01T18:37:53Z</time>
					</trkpt>
					<trkpt lat="48.374170" lon="-3.804630">
						<ele>221</ele>
						<time>2026-09-01T18:37:58Z</time>
					</trkpt>
					<trkpt lat="48.373890" lon="-3.805100">
						<ele>222</ele>
						<time>2026-09-01T18:38:19Z</time>
					</trkpt>
					<trkpt lat="48.373790" lon="-3.805180">
						<ele>223</ele>
						<time>2026-09-01T18:38:25Z</time>
					</trkpt>
					<trkpt lat="48.373690" lon="-3.805210">
						<ele>223</ele>
						<time>2026-09-01T18:38:30Z</time>
					</trkpt>
					<trkpt lat="48.373550" lon="-3.805180">
						<ele>223</ele>
						<time>2026-09-01T18:38:37Z</time>
					</trkpt>
					<trkpt lat="48.373400" lon="-3.805100">
						<ele>223</ele>
						<time>2026-09-01T18:38:45Z</time>
					</trkpt>
					<trkpt lat="48.373090" lon="-3.805090">
						<ele>222</ele>
						<time>2026-09-01T18:39:01Z</time>
					</trkpt>
					<trkpt lat="48.372960" lon="-3.805050">
						<ele>221</ele>
						<time>2026-09-01T18:39:07Z</time>
					</trkpt>
					<trkpt lat="48.372570" lon="-3.804730">
						<ele>219</ele>
						<time>2026-09-01T18:39:29Z</time>
					</trkpt>
					<trkpt lat="48.372220" lon="-3.804370">
						<ele>217</ele>
						<time>2026-09-01T18:39:51Z</time>
					</trkpt>
					<trkpt lat="48.372050" lon="-3.804130">
						<ele>217</ele>
						<time>2026-09-01T18:40:02Z</time>
					</trkpt>
					<trkpt lat="48.371940" lon="-3.803770">
						<ele>216</ele>
						<time>2026-09-01T18:40:15Z</time>
					</trkpt>
					<trkpt lat="48.371710" lon="-3.803910">
						<ele>215</ele>
						<time>2026-09-01T18:40:28Z</time>
					</trkpt>
					<trkpt lat="48.371410" lon="-3.804010">
						<ele>217</ele>
						<time>2026-09-01T18:40:43Z</time>
					</trkpt>
					<trkpt lat="48.371190" lon="-3.804040">
						<ele>219</ele>
						<time>2026-09-01T18:40:54Z</time>
					</trkpt>
					<trkpt lat="48.369770" lon="-3.805460">
						<ele>229</ele>
						<time>2026-09-01T18:42:20Z</time>
					</trkpt>
					<trkpt lat="48.369130" lon="-3.805660">
						<ele>235</ele>
						<time>2026-09-01T18:42:52Z</time>
					</trkpt>
					<trkpt lat="48.368620" lon="-3.805470">
						<ele>240</ele>
						<time>2026-09-01T18:43:19Z</time>
					</trkpt>
					<trkpt lat="48.368140" lon="-3.805110">
						<ele>243</ele>
						<time>2026-09-01T18:43:45Z</time>
					</trkpt>
					<trkpt lat="48.367740" lon="-3.804340">
						<ele>244</ele>
						<time>2026-09-01T18:44:18Z</time>
					</trkpt>
					<trkpt lat="48.367460" lon="-3.803610">
						<ele>245</ele>
						<time>2026-09-01T18:44:46Z</time>
					</trkpt>
					<trkpt lat="48.367250" lon="-3.803460">
						<ele>245</ele>
						<time>2026-09-01T18:44:58Z</time>
					</trkpt>
					<trkpt lat="48.367040" lon="-3.802790">
						<ele>248</ele>
						<time>2026-09-01T18:45:22Z</time>
					</trkpt>
					<trkpt lat="48.366770" lon="-3.801730">
						<ele>252</ele>
						<time>2026-09-01T18:46:00Z</time>
					</trkpt>
					<trkpt lat="48.366670" lon="-3.800490">
						<ele>255</ele>
						<time>2026-09-01T18:46:41Z</time>
					</trkpt>
					<trkpt lat="48.366490" lon="-3.799520">
						<ele>254</ele>
						<time>2026-09-01T18:47:15Z</time>
					</trkpt>
					<trkpt lat="48.366410" lon="-3.799600">
						<ele>255</ele>
						<time>2026-09-01T18:47:20Z</time>
					</trkpt>
					<trkpt lat="48.366180" lon="-3.799700">
						<ele>256</ele>
						<time>2026-09-01T18:47:32Z</time>
					</trkpt>
					<trkpt lat="48.365860" lon="-3.799770">
						<ele>259</ele>
						<time>2026-09-01T18:47:48Z</time>
					</trkpt>
					<trkpt lat="48.364940" lon="-3.800040">
						<ele>267</ele>
						<time>2026-09-01T18:48:35Z</time>
					</trkpt>
					<trkpt lat="48.364700" lon="-3.800050">
						<ele>268</ele>
						<time>2026-09-01T18:48:47Z</time>
					</trkpt>
					<trkpt lat="48.364650" lon="-3.800080">
						<ele>269</ele>
						<time>2026-09-01T18:48:50Z</time>
					</trkpt>
					<trkpt lat="48.364380" lon="-3.800650">
						<ele>270</ele>
						<time>2026-09-01T18:49:13Z</time>
					</trkpt>
					<trkpt lat="48.364310" lon="-3.800660">
						<ele>270</ele>
						<time>2026-09-01T18:49:16Z</time>
					</trkpt>
					<trkpt lat="48.364190" lon="-3.800540">
						<ele>271</ele>
						<time>2026-09-01T18:49:24Z</time>
					</trkpt>
					<trkpt lat="48.364100" lon="-3.800520">
						<ele>271</ele>
						<time>2026-09-01T18:49:28Z</time>
					</trkpt>
					<trkpt lat="48.363830" lon="-3.800690">
						<ele>271</ele>
						<time>2026-09-01T18:49:43Z</time>
					</trkpt>
					<trkpt lat="48.363330" lon="-3.800920">
						<ele>272</ele>
						<time>2026-09-01T18:50:09Z</time>
					</trkpt>
					<trkpt lat="48.363170" lon="-3.801100">
						<ele>270</ele>
						<time>2026-09-01T18:50:19Z</time>
					</trkpt>
					<trkpt lat="48.362720" lon="-3.802190">
						<ele>267</ele>
						<time>2026-09-01T18:51:02Z</time>
					</trkpt>
					<trkpt lat="48.362950" lon="-3.802460">
						<ele>268</ele>
						<time>2026-09-01T18:51:16Z</time>
					</trkpt>
					<trkpt lat="48.363000" lon="-3.802560">
						<ele>268</ele>
						<time>2026-09-01T18:51:20Z</time>
					</trkpt>
					<trkpt lat="48.363000" lon="-3.802670">
						<ele>268</ele>
						<time>2026-09-01T18:51:24Z</time>
					</trkpt>
					<trkpt lat="48.362950" lon="-3.803040">
						<ele>269</ele>
						<time>2026-09-01T18:51:37Z</time>
					</trkpt>
					<trkpt lat="48.362910" lon="-3.803680">
						<ele>271</ele>
						<time>2026-09-01T18:51:58Z</time>
					</trkpt>
					<trkpt lat="48.362730" lon="-3.804500">
						<ele>273</ele>
						<time>2026-09-01T18:52:27Z</time>
					</trkpt>
					<trkpt lat="48.362690" lon="-3.805000">
						<ele>274</ele>
						<time>2026-09-01T18:52:43Z</time>
					</trkpt>
					<trkpt lat="48.362640" lon="-3.805200">
						<ele>274</ele>
						<time>2026-09-01T18:52:50Z</time>
					</trkpt>
					<trkpt lat="48.362410" lon="-3.805830">
						<ele>274</ele>
						<time>2026-09-01T18:53:14Z</time>
					</trkpt>
					<trkpt lat="48.362210" lon="-3.806210">
						<ele>272</ele>
						<time>2026-09-01T18:53:31Z</time>
					</trkpt>
					<trkpt lat="48.362100" lon="-3.806370">
						<ele>272</ele>
						<time>2026-09-01T18:53:38Z</time>
					</trkpt>
					<trkpt lat="48.362020" lon="-3.806580">
						<ele>271</ele>
						<time>2026-09-01T18:53:46Z</time>
					</trkpt>
					<trkpt lat="48.361870" lon="-3.807070">
						<ele>271</ele>
						<time>2026-09-01T18:54:04Z</time>
					</trkpt>
					<trkpt lat="48.361750" lon="-3.807730">
						<ele>270</ele>
						<time>2026-09-01T18:54:27Z</time>
					</trkpt>
					<trkpt lat="48.361740" lon="-3.808220">
						<ele>269</ele>
						<time>2026-09-01T18:54:43Z</time>
					</trkpt>
					<trkpt lat="48.361780" lon="-3.808730">
						<ele>270</ele>
						<time>2026-09-01T18:55:00Z</time>
					</trkpt>
					<trkpt lat="48.361810" lon="-3.809830">
						<ele>272</ele>
						<time>2026-09-01T18:55:37Z</time>
					</trkpt>
					<trkpt lat="48.361940" lon="-3.810550">
						<ele>272</ele>
						<time>2026-09-01T18:56:02Z</time>
					</trkpt>
					<trkpt lat="48.362050" lon="-3.812090">
						<ele>268</ele>
						<time>2026-09-01T18:56:53Z</time>
					</trkpt>
					<trkpt lat="48.362040" lon="-3.812320">
						<ele>268</ele>
						<time>2026-09-01T18:57:01Z</time>
					</trkpt>
					<trkpt lat="48.361860" lon="-3.812910">
						<ele>268</ele>
						<time>2026-09-01T18:57:22Z</time>
					</trkpt>
					<trkpt lat="48.361860" lon="-3.813180">
						<ele>269</ele>
						<time>2026-09-01T18:57:31Z</time>
					</trkpt>
					<trkpt lat="48.361990" lon="-3.814170">
						<ele>273</ele>
						<time>2026-09-01T18:58:05Z</time>
					</trkpt>
					<trkpt lat="48.361990" lon="-3.814370">
						<ele>274</ele>
						<time>2026-09-01T18:58:12Z</time>
					</trkpt>
					<trkpt lat="48.361920" lon="-3.815030">
						<ele>277</ele>
						<time>2026-09-01T18:58:34Z</time>
					</trkpt>
					<trkpt lat="48.361960" lon="-3.816280">
						<ele>276</ele>
						<time>2026-09-01T18:59:15Z</time>
					</trkpt>
					<trkpt lat="48.361940" lon="-3.816490">
						<ele>275</ele>
						<time>2026-09-01T18:59:23Z</time>
					</trkpt>
					<trkpt lat="48.361720" lon="-3.817690">
						<ele>270</ele>
						<time>2026-09-01T19:00:04Z</time>
					</trkpt>
					<trkpt lat="48.360770" lon="-3.821680">
						<ele>275</ele>
						<time>2026-09-01T19:02:25Z</time>
					</trkpt>
					<trkpt lat="48.360370" lon="-3.823790">
						<ele>277</ele>
						<time>2026-09-01T19:03:38Z</time>
					</trkpt>
					<trkpt lat="48.360310" lon="-3.824420">
						<ele>275</ele>
						<time>2026-09-01T19:03:59Z</time>
					</trkpt>
					<trkpt lat="48.360310" lon="-3.824870">
						<ele>274</ele>
						<time>2026-09-01T19:04:14Z</time>
					</trkpt>
					<trkpt lat="48.360360" lon="-3.825560">
						<ele>273</ele>
						<time>2026-09-01T19:04:37Z</time>
					</trkpt>
					<trkpt lat="48.360480" lon="-3.826520">
						<ele>272</ele>
						<time>2026-09-01T19:05:09Z</time>
					</trkpt>
					<trkpt lat="48.360590" lon="-3.826950">
						<ele>270</ele>
						<time>2026-09-01T19:05:25Z</time>
					</trkpt>
					<trkpt lat="48.360840" lon="-3.827740">
						<ele>267</ele>
						<time>2026-09-01T19:05:54Z</time>
					</trkpt>
					<trkpt lat="48.360850" lon="-3.828080">
						<ele>267</ele>
						<time>2026-09-01T19:06:05Z</time>
					</trkpt>
					<trkpt lat="48.360830" lon="-3.828340">
						<ele>267</ele>
						<time>2026-09-01T19:06:14Z</time>
					</trkpt>
					<trkpt lat="48.360950" lon="-3.829370">
						<ele>268</ele>
						<time>2026-09-01T19:06:49Z</time>
					</trkpt>
					<trkpt lat="48.361130" lon="-3.831470">
						<ele>257</ele>
						<time>2026-09-01T19:07:59Z</time>
					</trkpt>
					<trkpt lat="48.361310" lon="-3.832880">
						<ele>252</ele>
						<time>2026-09-01T19:08:47Z</time>
					</trkpt>
					<trkpt lat="48.361480" lon="-3.833670">
						<ele>250</ele>
						<time>2026-09-01T19:09:14Z</time>
					</trkpt>
					<trkpt lat="48.361580" lon="-3.833990">
						<ele>249</ele>
						<time>2026-09-01T19:09:26Z</time>
					</trkpt>
					<trkpt lat="48.361870" lon="-3.835470">
						<ele>250</ele>
						<time>2026-09-01T19:10:17Z</time>
					</trkpt>
					<trkpt lat="48.361920" lon="-3.835920">
						<ele>251</ele>
						<time>2026-09-01T19:10:33Z</time>
					</trkpt>
					<trkpt lat="48.362240" lon="-3.837460">
						<ele>256</ele>
						<time>2026-09-01T19:11:26Z</time>
					</trkpt>
					<trkpt lat="48.362290" lon="-3.837610">
						<ele>257</ele>
						<time>2026-09-01T19:11:32Z</time>
					</trkpt>
					<trkpt lat="48.362400" lon="-3.837820">
						<ele>258</ele>
						<time>2026-09-01T19:11:41Z</time>
					</trkpt>
					<trkpt lat="48.362530" lon="-3.838000">
						<ele>259</ele>
						<time>2026-09-01T19:11:50Z</time>
					</trkpt>
					<trkpt lat="48.362670" lon="-3.838120">
						<ele>258</ele>
						<time>2026-09-01T19:11:58Z</time>
					</trkpt>
					<trkpt lat="48.362780" lon="-3.838180">
						<ele>257</ele>
						<time>2026-09-01T19:12:04Z</time>
					</trkpt>
					<trkpt lat="48.363050" lon="-3.838260">
						<ele>255</ele>
						<time>2026-09-01T19:12:17Z</time>
					</trkpt>
					<trkpt lat="48.363310" lon="-3.838300">
						<ele>253</ele>
						<time>2026-09-01T19:12:30Z</time>
					</trkpt>
					<trkpt lat="48.363470" lon="-3.838260">
						<ele>252</ele>
						<time>2026-09-01T19:12:39Z</time>
					</trkpt>
					<trkpt lat="48.363790" lon="-3.838300">
						<ele>250</ele>
						<time>2026-09-01T19:12:55Z</time>
					</trkpt>
					<trkpt lat="48.364200" lon="-3.838300">
						<ele>248</ele>
						<time>2026-09-01T19:13:15Z</time>
					</trkpt>
					<trkpt lat="48.364430" lon="-3.838330">
						<ele>247</ele>
						<time>2026-09-01T19:13:27Z</time>
					</trkpt>
					<trkpt lat="48.364590" lon="-3.838380">
						<ele>246</ele>
						<time>2026-09-01T19:13:35Z</time>
					</trkpt>
					<trkpt lat="48.365100" lon="-3.838590">
						<ele>247</ele>
						<time>2026-09-01T19:14:01Z</time>
					</trkpt>
					<trkpt lat="48.365640" lon="-3.838900">
						<ele>251</ele>
						<time>2026-09-01T19:14:30Z</time>
					</trkpt>
					<trkpt lat="48.366170" lon="-3.839300">
						<ele>253</ele>
						<time>2026-09-01T19:15:00Z</time>
					</trkpt>
					<trkpt lat="48.366410" lon="-3.839640">
						<ele>254</ele>
						<time>2026-09-01T19:15:16Z</time>
					</trkpt>
					<trkpt lat="48.366600" lon="-3.840010">
						<ele>254</ele>
						<time>2026-09-01T19:15:32Z</time>
					</trkpt>
					<trkpt lat="48.366870" lon="-3.840440">
						<ele>252</ele>
						<time>2026-09-01T19:15:52Z</time>
					</trkpt>
					<trkpt lat="48.367160" lon="-3.841040">
						<ele>249</ele>
						<time>2026-09-01T19:16:16Z</time>
					</trkpt>
					<trkpt lat="48.367320" lon="-3.841240">
						<ele>248</ele>
						<time>2026-09-01T19:16:27Z</time>
					</trkpt>
					<trkpt lat="48.367610" lon="-3.841730">
						<ele>244</ele>
						<time>2026-09-01T19:16:48Z</time>
					</trkpt>
					<trkpt lat="48.367660" lon="-3.841950">
						<ele>244</ele>
						<time>2026-09-01T19:16:56Z</time>
					</trkpt>
					<trkpt lat="48.367890" lon="-3.842450">
						<ele>243</ele>
						<time>2026-09-01T19:17:16Z</time>
					</trkpt>
					<trkpt lat="48.368240" lon="-3.842940">
						<ele>241</ele>
						<time>2026-09-01T19:17:40Z</time>
					</trkpt>
					<trkpt lat="48.368820" lon="-3.843880">
						<ele>241</ele>
						<time>2026-09-01T19:18:23Z</time>
					</trkpt>
					<trkpt lat="48.369070" lon="-3.844540">
						<ele>242</ele>
						<time>2026-09-01T19:18:48Z</time>
					</trkpt>
					<trkpt lat="48.369150" lon="-3.844830">
						<ele>242</ele>
						<time>2026-09-01T19:18:59Z</time>
					</trkpt>
					<trkpt lat="48.369210" lon="-3.844890">
						<ele>241</ele>
						<time>2026-09-01T19:19:02Z</time>
					</trkpt>
					<trkpt lat="48.369440" lon="-3.845000">
						<ele>241</ele>
						<time>2026-09-01T19:19:14Z</time>
					</trkpt>
					<trkpt lat="48.369750" lon="-3.845350">
						<ele>242</ele>
						<time>2026-09-01T19:19:34Z</time>
					</trkpt>
					<trkpt lat="48.370400" lon="-3.846320">
						<ele>244</ele>
						<time>2026-09-01T19:20:20Z</time>
					</trkpt>
					<trkpt lat="48.370760" lon="-3.846900">
						<ele>244</ele>
						<time>2026-09-01T19:20:46Z</time>
					</trkpt>
					<trkpt lat="48.370030" lon="-3.847060">
						<ele>245</ele>
						<time>2026-09-01T19:21:23Z</time>
					</trkpt>
					<trkpt lat="48.369210" lon="-3.847200">
						<ele>248</ele>
						<time>2026-09-01T19:22:04Z</time>
					</trkpt>
					<trkpt lat="48.369500" lon="-3.849280">
						<ele>247</ele>
						<time>2026-09-01T19:23:15Z</time>
					</trkpt>
					<trkpt lat="48.369510" lon="-3.849590">
						<ele>246</ele>
						<time>2026-09-01T19:23:25Z</time>
					</trkpt>
					<trkpt lat="48.369640" lon="-3.850610">
						<ele>243</ele>
						<time>2026-09-01T19:24:00Z</time>
					</trkpt>
					<trkpt lat="48.369690" lon="-3.851690">
						<ele>241</ele>
						<time>2026-09-01T19:24:36Z</time>
					</trkpt>
					<trkpt lat="48.369620" lon="-3.851890">
						<ele>241</ele>
						<time>2026-09-01T19:24:43Z</time>
					</trkpt>
					<trkpt lat="48.369120" lon="-3.852550">
						<ele>240</ele>
						<time>2026-09-01T19:25:16Z</time>
					</trkpt>
					<trkpt lat="48.368870" lon="-3.852830">
						<ele>239</ele>
						<time>2026-09-01T19:25:32Z</time>
					</trkpt>
					<trkpt lat="48.368380" lon="-3.853220">
						<ele>236</ele>
						<time>2026-09-01T19:26:00Z</time>
					</trkpt>
					<trkpt lat="48.368050" lon="-3.853590">
						<ele>237</ele>
						<time>2026-09-01T19:26:20Z</time>
					</trkpt>
					<trkpt lat="48.367940" lon="-3.853870">
						<ele>236</ele>
						<time>2026-09-01T19:26:31Z</time>
					</trkpt>
					<trkpt lat="48.367720" lon="-3.854610">
						<ele>235</ele>
						<time>2026-09-01T19:26:58Z</time>
					</trkpt>
					<trkpt lat="48.367190" lon="-3.855440">
						<ele>236</ele>
						<time>2026-09-01T19:27:36Z</time>
					</trkpt>
					<trkpt lat="48.366940" lon="-3.856080">
						<ele>236</ele>
						<time>2026-09-01T19:28:01Z</time>
					</trkpt>
					<trkpt lat="48.366770" lon="-3.856760">
						<ele>238</ele>
						<time>2026-09-01T19:28:25Z</time>
					</trkpt>
					<trkpt lat="48.366680" lon="-3.857480">
						<ele>239</ele>
						<time>2026-09-01T19:28:50Z</time>
					</trkpt>
					<trkpt lat="48.366510" lon="-3.859310">
						<ele>239</ele>
						<time>2026-09-01T19:29:51Z</time>
					</trkpt>
					<trkpt lat="48.366620" lon="-3.859520">
						<ele>239</ele>
						<time>2026-09-01T19:30:00Z</time>
					</trkpt>
					<trkpt lat="48.366690" lon="-3.859750">
						<ele>239</ele>
						<time>2026-09-01T19:30:08Z</time>
					</trkpt>
					<trkpt lat="48.366780" lon="-3.860070">
						<ele>238</ele>
						<time>2026-09-01T19:30:20Z</time>
					</trkpt>
					<trkpt lat="48.366880" lon="-3.860590">
						<ele>237</ele>
						<time>2026-09-01T19:30:38Z</time>
					</trkpt>
					<trkpt lat="48.367100" lon="-3.861100">
						<ele>237</ele>
						<time>2026-09-01T19:30:58Z</time>
					</trkpt>
					<trkpt lat="48.367220" lon="-3.861300">
						<ele>237</ele>
						<time>2026-09-01T19:31:07Z</time>
					</trkpt>
					<trkpt lat="48.367750" lon="-3.861930">
						<ele>239</ele>
						<time>2026-09-01T19:31:41Z</time>
					</trkpt>
					<trkpt lat="48.368200" lon="-3.862360">
						<ele>239</ele>
						<time>2026-09-01T19:32:08Z</time>
					</trkpt>
					<trkpt lat="48.368430" lon="-3.862520">
						<ele>239</ele>
						<time>2026-09-01T19:32:20Z</time>
					</trkpt>
					<trkpt lat="48.369240" lon="-3.862810">
						<ele>237</ele>
						<time>2026-09-01T19:33:02Z</time>
					</trkpt>
					<trkpt lat="48.369500" lon="-3.862940">
						<ele>235</ele>
						<time>2026-09-01T19:33:16Z</time>
					</trkpt>
					<trkpt lat="48.370440" lon="-3.863520">
						<ele>229</ele>
						<time>2026-09-01T19:34:06Z</time>
					</trkpt>
					<trkpt lat="48.370460" lon="-3.863700">
						<ele>229</ele>
						<time>2026-09-01T19:34:12Z</time>
					</trkpt>
					<trkpt lat="48.370690" lon="-3.864560">
						<ele>227</ele>
						<time>2026-09-01T19:34:43Z</time>
					</trkpt>
					<trkpt lat="48.370910" lon="-3.865680">
						<ele>224</ele>
						<time>2026-09-01T19:35:22Z</time>
					</trkpt>
					<trkpt lat="48.370920" lon="-3.866210">
						<ele>224</ele>
						<time>2026-09-01T19:35:40Z</time>
					</trkpt>
					<trkpt lat="48.370850" lon="-3.867570">
						<ele>224</ele>
						<time>2026-09-01T19:36:25Z</time>
					</trkpt>
					<trkpt lat="48.370930" lon="-3.868170">
						<ele>225</ele>
						<time>2026-09-01T19:36:45Z</time>
					</trkpt>
					<trkpt lat="48.371150" lon="-3.868920">
						<ele>224</ele>
						<time>2026-09-01T19:37:13Z</time>
					</trkpt>
					<trkpt lat="48.371130" lon="-3.869440">
						<ele>224</ele>
						<time>2026-09-01T19:37:30Z</time>
					</trkpt>
					<trkpt lat="48.371230" lon="-3.870240">
						<ele>223</ele>
						<time>2026-09-01T19:37:57Z</time>
					</trkpt>
					<trkpt lat="48.371420" lon="-3.870930">
						<ele>223</ele>
						<time>2026-09-01T19:38:22Z</time>
					</trkpt>
					<trkpt lat="48.371670" lon="-3.871560">
						<ele>223</ele>
						<time>2026-09-01T19:38:46Z</time>
					</trkpt>
					<trkpt lat="48.371810" lon="-3.871790">
						<ele>223</ele>
						<time>2026-09-01T19:38:57Z</time>
					</trkpt>
					<trkpt lat="48.371930" lon="-3.872110">
						<ele>224</ele>
						<time>2026-09-01T19:39:09Z</time>
					</trkpt>
					<trkpt lat="48.372030" lon="-3.872640">
						<ele>224</ele>
						<time>2026-09-01T19:39:27Z</time>
					</trkpt>
					<trkpt lat="48.372100" lon="-3.872850">
						<ele>224</ele>
						<time>2026-09-01T19:39:35Z</time>
					</trkpt>
					<trkpt lat="48.372190" lon="-3.873040">
						<ele>224</ele>
						<time>2026-09-01T19:39:43Z</time>
					</trkpt>
					<trkpt lat="48.372640" lon="-3.873780">
						<ele>223</ele>
						<time>2026-09-01T19:40:16Z</time>
					</trkpt>
					<trkpt lat="48.372670" lon="-3.873910">
						<ele>223</ele>
						<time>2026-09-01T19:40:21Z</time>
					</trkpt>
					<trkpt lat="48.372710" lon="-3.874110">
						<ele>223</ele>
						<time>2026-09-01T19:40:28Z</time>
					</trkpt>
					<trkpt lat="48.372750" lon="-3.875350">
						<ele>224</ele>
						<time>2026-09-01T19:41:09Z</time>
					</trkpt>
					<trkpt lat="48.372950" lon="-3.875910">
						<ele>226</ele>
						<time>2026-09-01T19:41:30Z</time>
					</trkpt>
					<trkpt lat="48.373130" lon="-3.877450">
						<ele>227</ele>
						<time>2026-09-01T19:42:22Z</time>
					</trkpt>
					<trkpt lat="48.373180" lon="-3.878190">
						<ele>228</ele>
						<time>2026-09-01T19:42:47Z</time>
					</trkpt>
					<trkpt lat="48.374000" lon="-3.882440">
						<ele>234</ele>
						<time>2026-09-01T19:45:14Z</time>
					</trkpt>
					<trkpt lat="48.372190" lon="-3.883720">
						<ele>234</ele>
						<time>2026-09-01T19:46:54Z</time>
					</trkpt>
					<trkpt lat="48.371290" lon="-3.884720">
						<ele>233</ele>
						<time>2026-09-01T19:47:50Z</time>
					</trkpt>
					<trkpt lat="48.369860" lon="-3.884940">
						<ele>233</ele>
						<time>2026-09-01T19:49:02Z</time>
					</trkpt>
					<trkpt lat="48.367680" lon="-3.886950">
						<ele>231</ele>
						<time>2026-09-01T19:51:10Z</time>
					</trkpt>
					<trkpt lat="48.369870" lon="-3.888900">
						<ele>232</ele>
						<time>2026-09-01T19:53:17Z</time>
					</trkpt>
					<trkpt lat="48.374070" lon="-3.891570">
						<ele>239</ele>
						<time>2026-09-01T19:57:05Z</time>
					</trkpt>
					<trkpt lat="48.373390" lon="-3.893080">
						<ele>235</ele>
						<time>2026-09-01T19:58:06Z</time>
					</trkpt>
					<trkpt lat="48.372870" lon="-3.894900">
						<ele>229</ele>
						<time>2026-09-01T19:59:12Z</time>
					</trkpt>
					<trkpt lat="48.373050" lon="-3.895220">
						<ele>228</ele>
						<time>2026-09-01T19:59:26Z</time>
					</trkpt>
					<trkpt lat="48.373110" lon="-3.895900">
						<ele>227</ele>
						<time>2026-09-01T19:59:49Z</time>
					</trkpt>
					<trkpt lat="48.372920" lon="-3.896560">
						<ele>227</ele>
						<time>2026-09-01T20:00:12Z</time>
					</trkpt>
					<trkpt lat="48.372790" lon="-3.897140">
						<ele>227</ele>
						<time>2026-09-01T20:00:33Z</time>
					</trkpt>
					<trkpt lat="48.372760" lon="-3.897680">
						<ele>228</ele>
						<time>2026-09-01T20:00:51Z</time>
					</trkpt>
					<trkpt lat="48.370090" lon="-3.902950">
						<ele>231</ele>
						<time>2026-09-01T20:04:31Z</time>
					</trkpt>
					<trkpt lat="48.369800" lon="-3.904210">
						<ele>232</ele>
						<time>2026-09-01T20:05:15Z</time>
					</trkpt>
					<trkpt lat="48.370950" lon="-3.906500">
						<ele>234</ele>
						<time>2026-09-01T20:06:51Z</time>
					</trkpt>
					<trkpt lat="48.371420" lon="-3.907350">
						<ele>233</ele>
						<time>2026-09-01T20:07:28Z</time>
					</trkpt>
					<trkpt lat="48.371370" lon="-3.908610">
						<ele>234</ele>
						<time>2026-09-01T20:08:10Z</time>
					</trkpt>
					<trkpt lat="48.373050" lon="-3.909980">
						<ele>232</ele>
						<time>2026-09-01T20:09:45Z</time>
					</trkpt>
					<trkpt lat="48.377760" lon="-3.910320">
						<ele>250</ele>
						<time>2026-09-01T20:13:41Z</time>
					</trkpt>
					<trkpt lat="48.379700" lon="-3.911120">
						<ele>249</ele>
						<time>2026-09-01T20:15:22Z</time>
					</trkpt>
					<trkpt lat="48.382740" lon="-3.912480">
						<ele>249</ele>
						<time>2026-09-01T20:18:01Z</time>
					</trkpt>
					<trkpt lat="48.382730" lon="-3.914030">
						<ele>255</ele>
						<time>2026-09-01T20:18:52Z</time>
					</trkpt>
					<trkpt lat="48.382910" lon="-3.914930">
						<ele>259</ele>
						<time>2026-09-01T20:19:23Z</time>
					</trkpt>
					<trkpt lat="48.383360" lon="-3.915720">
						<ele>262</ele>
						<time>2026-09-01T20:19:58Z</time>
					</trkpt>
					<trkpt lat="48.383130" lon="-3.917170">
						<ele>261</ele>
						<time>2026-09-01T20:20:47Z</time>
					</trkpt>
					<trkpt lat="48.382900" lon="-3.918080">
						<ele>256</ele>
						<time>2026-09-01T20:21:20Z</time>
					</trkpt>
					<trkpt lat="48.382840" lon="-3.918730">
						<ele>253</ele>
						<time>2026-09-01T20:21:42Z</time>
					</trkpt>
					<trkpt lat="48.383010" lon="-3.919320">
						<ele>253</ele>
						<time>2026-09-01T20:22:03Z</time>
					</trkpt>
					<trkpt lat="48.383150" lon="-3.919920">
						<ele>252</ele>
						<time>2026-09-01T20:22:24Z</time>
					</trkpt>
					<trkpt lat="48.383210" lon="-3.920090">
						<ele>251</ele>
						<time>2026-09-01T20:22:31Z</time>
					</trkpt>
					<trkpt lat="48.383430" lon="-3.920360">
						<ele>251</ele>
						<time>2026-09-01T20:22:45Z</time>
					</trkpt>
					<trkpt lat="48.383490" lon="-3.920470">
						<ele>251</ele>
						<time>2026-09-01T20:22:49Z</time>
					</trkpt>
					<trkpt lat="48.383620" lon="-3.921070">
						<ele>250</ele>
						<time>2026-09-01T20:23:10Z</time>
					</trkpt>
					<trkpt lat="48.383620" lon="-3.921290">
						<ele>250</ele>
						<time>2026-09-01T20:23:18Z</time>
					</trkpt>
					<trkpt lat="48.383410" lon="-3.921890">
						<ele>250</ele>
						<time>2026-09-01T20:23:40Z</time>
					</trkpt>
					<trkpt lat="48.383360" lon="-3.922180">
						<ele>250</ele>
						<time>2026-09-01T20:23:50Z</time>
					</trkpt>
					<trkpt lat="48.383500" lon="-3.923800">
						<ele>252</ele>
						<time>2026-09-01T20:24:45Z</time>
					</trkpt>
					<trkpt lat="48.383500" lon="-3.926710">
						<ele>256</ele>
						<time>2026-09-01T20:26:21Z</time>
					</trkpt>
					<trkpt lat="48.383550" lon="-3.928700">
						<ele>257</ele>
						<time>2026-09-01T20:27:27Z</time>
					</trkpt>
					<trkpt lat="48.383540" lon="-3.929020">
						<ele>256</ele>
						<time>2026-09-01T20:27:38Z</time>
					</trkpt>
					<trkpt lat="48.383190" lon="-3.928800">
						<ele>255</ele>
						<time>2026-09-01T20:27:57Z</time>
					</trkpt>
					<trkpt lat="48.382500" lon="-3.928310">
						<ele>254</ele>
						<time>2026-09-01T20:28:35Z</time>
					</trkpt>
					<trkpt lat="48.382130" lon="-3.929010">
						<ele>253</ele>
						<time>2026-09-01T20:29:05Z</time>
					</trkpt>
					<trkpt lat="48.381830" lon="-3.929490">
						<ele>253</ele>
						<time>2026-09-01T20:29:27Z</time>
					</trkpt>
					<trkpt lat="48.381520" lon="-3.929810">
						<ele>252</ele>
						<time>2026-09-01T20:29:46Z</time>
					</trkpt>
					<trkpt lat="48.381170" lon="-3.930480">
						<ele>251</ele>
						<time>2026-09-01T20:30:14Z</time>
					</trkpt>
					<trkpt lat="48.380960" lon="-3.930960">
						<ele>251</ele>
						<time>2026-09-01T20:30:33Z</time>
					</trkpt>
					<trkpt lat="48.380880" lon="-3.931200">
						<ele>251</ele>
						<time>2026-09-01T20:30:42Z</time>
					</trkpt>
					<trkpt lat="48.380690" lon="-3.932140">
						<ele>250</ele>
						<time>2026-09-01T20:31:15Z</time>
					</trkpt>
					<trkpt lat="48.380600" lon="-3.932340">
						<ele>250</ele>
						<time>2026-09-01T20:31:23Z</time>
					</trkpt>
					<trkpt lat="48.380300" lon="-3.932760">
						<ele>249</ele>
						<time>2026-09-01T20:31:43Z</time>
					</trkpt>
					<trkpt lat="48.376700" lon="-3.937050">
						<ele>256</ele>
						<time>2026-09-01T20:35:33Z</time>
					</trkpt>
					<trkpt lat="48.376590" lon="-3.937260">
						<ele>257</ele>
						<time>2026-09-01T20:35:42Z</time>
					</trkpt>
					<trkpt lat="48.376510" lon="-3.937520">
						<ele>258</ele>
						<time>2026-09-01T20:35:51Z</time>
					</trkpt>
					<trkpt lat="48.376480" lon="-3.937710">
						<ele>259</ele>
						<time>2026-09-01T20:35:58Z</time>
					</trkpt>
					<trkpt lat="48.376420" lon="-3.938180">
						<ele>260</ele>
						<time>2026-09-01T20:36:14Z</time>
					</trkpt>
					<trkpt lat="48.376400" lon="-3.938970">
						<ele>263</ele>
						<time>2026-09-01T20:36:40Z</time>
					</trkpt>
					<trkpt lat="48.376450" lon="-3.939630">
						<ele>265</ele>
						<time>2026-09-01T20:37:02Z</time>
					</trkpt>
					<trkpt lat="48.376560" lon="-3.939610">
						<ele>265</ele>
						<time>2026-09-01T20:37:08Z</time>
					</trkpt>
					<trkpt lat="48.377240" lon="-3.939740">
						<ele>266</ele>
						<time>2026-09-01T20:37:42Z</time>
					</trkpt>
					<trkpt lat="48.377460" lon="-3.939860">
						<ele>267</ele>
						<time>2026-09-01T20:37:54Z</time>
					</trkpt>
					<trkpt lat="48.377600" lon="-3.939990">
						<ele>267</ele>
						<time>2026-09-01T20:38:02Z</time>
					</trkpt>
					<trkpt lat="48.377920" lon="-3.940480">
						<ele>267</ele>
						<time>2026-09-01T20:38:25Z</time>
					</trkpt>
					<trkpt lat="48.378360" lon="-3.941080">
						<ele>267</ele>
						<time>2026-09-01T20:38:55Z</time>
					</trkpt>
					<trkpt lat="48.378620" lon="-3.941620">
						<ele>270</ele>
						<time>2026-09-01T20:39:17Z</time>
					</trkpt>
					<trkpt lat="48.378840" lon="-3.941920">
						<ele>271</ele>
						<time>2026-09-01T20:39:32Z</time>
					</trkpt>
					<trkpt lat="48.379040" lon="-3.942130">
						<ele>271</ele>
						<time>2026-09-01T20:39:44Z</time>
					</trkpt>
					<trkpt lat="48.379190" lon="-3.942410">
						<ele>271</ele>
						<time>2026-09-01T20:39:56Z</time>
					</trkpt>
					<trkpt lat="48.379280" lon="-3.942510">
						<ele>271</ele>
						<time>2026-09-01T20:40:01Z</time>
					</trkpt>
					<trkpt lat="48.379400" lon="-3.942570">
						<ele>272</ele>
						<time>2026-09-01T20:40:08Z</time>
					</trkpt>
					<trkpt lat="48.379540" lon="-3.942690">
						<ele>272</ele>
						<time>2026-09-01T20:40:16Z</time>
					</trkpt>
					<trkpt lat="48.379870" lon="-3.943130">
						<ele>275</ele>
						<time>2026-09-01T20:40:38Z</time>
					</trkpt>
					<trkpt lat="48.380680" lon="-3.943920">
						<ele>283</ele>
						<time>2026-09-01T20:41:26Z</time>
					</trkpt>
					<trkpt lat="48.380860" lon="-3.944070">
						<ele>285</ele>
						<time>2026-09-01T20:41:36Z</time>
					</trkpt>
					<trkpt lat="48.380930" lon="-3.944080">
						<ele>285</ele>
						<time>2026-09-01T20:41:40Z</time>
					</trkpt>
					<trkpt lat="48.381260" lon="-3.943890">
						<ele>287</ele>
						<time>2026-09-01T20:41:58Z</time>
					</trkpt>
					<trkpt lat="48.381820" lon="-3.943680">
						<ele>291</ele>
						<time>2026-09-01T20:42:26Z</time>
					</trkpt>
					<trkpt lat="48.382110" lon="-3.943640">
						<ele>291</ele>
						<time>2026-09-01T20:42:41Z</time>
					</trkpt>
					<trkpt lat="48.382210" lon="-3.943670">
						<ele>292</ele>
						<time>2026-09-01T20:42:46Z</time>
					</trkpt>
					<trkpt lat="48.382190" lon="-3.943830">
						<ele>293</ele>
						<time>2026-09-01T20:42:51Z</time>
					</trkpt>
					<trkpt lat="48.382520" lon="-3.943710">
						<ele>293</ele>
						<time>2026-09-01T20:43:08Z</time>
					</trkpt>
					<trkpt lat="48.382840" lon="-3.943540">
						<ele>293</ele>
						<time>2026-09-01T20:43:25Z</time>
					</trkpt>
					<trkpt lat="48.383210" lon="-3.943380">
						<ele>294</ele>
						<time>2026-09-01T20:43:45Z</time>
					</trkpt>
					<trkpt lat="48.383200" lon="-3.943520">
						<ele>294</ele>
						<time>2026-09-01T20:43:49Z</time>
					</trkpt>
					<trkpt lat="48.383250" lon="-3.943510">
						<ele>294</ele>
						<time>2026-09-01T20:43:52Z</time>
					</trkpt>
					<trkpt lat="48.383200" lon="-3.943520">
						<ele>294</ele>
						<time>2026-09-01T20:43:54Z</time>
					</trkpt>
					<trkpt lat="48.383140" lon="-3.944060">
						<ele>296</ele>
						<time>2026-09-01T20:44:13Z</time>
					</trkpt>
					<trkpt lat="48.383110" lon="-3.944110">
						<ele>296</ele>
						<time>2026-09-01T20:44:15Z</time>
					</trkpt>
					<trkpt lat="48.382570" lon="-3.944530">
						<ele>297</ele>
						<time>2026-09-01T20:44:45Z</time>
					</trkpt>
					<trkpt lat="48.382140" lon="-3.945190">
						<ele>299</ele>
						<time>2026-09-01T20:45:16Z</time>
					</trkpt>
					<trkpt lat="48.381690" lon="-3.945650">
						<ele>302</ele>
						<time>2026-09-01T20:45:43Z</time>
					</trkpt>
					<trkpt lat="48.381530" lon="-3.946050">
						<ele>304</ele>
						<time>2026-09-01T20:45:59Z</time>
					</trkpt>
					<trkpt lat="48.381350" lon="-3.946310">
						<ele>306</ele>
						<time>2026-09-01T20:46:11Z</time>
					</trkpt>
					<trkpt lat="48.381060" lon="-3.946600">
						<ele>309</ele>
						<time>2026-09-01T20:46:29Z</time>
					</trkpt>
					<trkpt lat="48.380870" lon="-3.946720">
						<ele>311</ele>
						<time>2026-09-01T20:46:39Z</time>
					</trkpt>
					<trkpt lat="48.380350" lon="-3.947280">
						<ele>316</ele>
						<time>2026-09-01T20:47:11Z</time>
					</trkpt>
					<trkpt lat="48.379470" lon="-3.948630">
						<ele>326</ele>
						<time>2026-09-01T20:48:14Z</time>
					</trkpt>
					<trkpt lat="48.379270" lon="-3.949090">
						<ele>329</ele>
						<time>2026-09-01T20:48:32Z</time>
					</trkpt>
					<trkpt lat="48.378850" lon="-3.949400">
						<ele>331</ele>
						<time>2026-09-01T20:48:56Z</time>
					</trkpt>
					<trkpt lat="48.378560" lon="-3.949670">
						<ele>333</ele>
						<time>2026-09-01T20:49:13Z</time>
					</trkpt>
					<trkpt lat="48.378220" lon="-3.949850">
						<ele>335</ele>
						<time>2026-09-01T20:49:31Z</time>
					</trkpt>
					<trkpt lat="48.377480" lon="-3.950600">
						<ele>342</ele>
						<time>2026-09-01T20:50:15Z</time>
					</trkpt>
					<trkpt lat="48.377100" lon="-3.951100">
						<ele>344</ele>
						<time>2026-09-01T20:50:41Z</time>
					</trkpt>
					<trkpt lat="48.377010" lon="-3.951120">
						<ele>345</ele>
						<time>2026-09-01T20:50:45Z</time>
					</trkpt>
					<trkpt lat="48.376680" lon="-3.951040">
						<ele>347</ele>
						<time>2026-09-01T20:51:02Z</time>
					</trkpt>
					<trkpt lat="48.376130" lon="-3.951070">
						<ele>351</ele>
						<time>2026-09-01T20:51:29Z</time>
					</trkpt>
					<trkpt lat="48.376000" lon="-3.951180">
						<ele>352</ele>
						<time>2026-09-01T20:51:37Z</time>
					</trkpt>
					<trkpt lat="48.375650" lon="-3.951380">
						<ele>356</ele>
						<time>2026-09-01T20:51:56Z</time>
					</trkpt>
					<trkpt lat="48.375540" lon="-3.951510">
						<ele>358</ele>
						<time>2026-09-01T20:52:03Z</time>
					</trkpt>
					<trkpt lat="48.375450" lon="-3.951690">
						<ele>359</ele>
						<time>2026-09-01T20:52:10Z</time>
					</trkpt>
					<trkpt lat="48.375330" lon="-3.951810">
						<ele>360</ele>
						<time>2026-09-01T20:52:17Z</time>
					</trkpt>
					<trkpt lat="48.374970" lon="-3.952040">
						<ele>364</ele>
						<time>2026-09-01T20:52:37Z</time>
					</trkpt>
					<trkpt lat="48.374830" lon="-3.952120">
						<ele>364</ele>
						<time>2026-09-01T20:52:44Z</time>
					</trkpt>
					<trkpt lat="48.374270" lon="-3.952280">
						<ele>368</ele>
						<time>2026-09-01T20:53:13Z</time>
					</trkpt>
					<trkpt lat="48.374060" lon="-3.952370">
						<ele>370</ele>
						<time>2026-09-01T20:53:24Z</time>
					</trkpt>
					<trkpt lat="48.373360" lon="-3.952590">
						<ele>374</ele>
						<time>2026-09-01T20:54:00Z</time>
					</trkpt>
					<trkpt lat="48.373160" lon="-3.952740">
						<ele>375</ele>
						<time>2026-09-01T20:54:11Z</time>
					</trkpt>
					<trkpt lat="48.373070" lon="-3.952850">
						<ele>375</ele>
						<time>2026-09-01T20:54:17Z</time>
					</trkpt>
					<trkpt lat="48.372670" lon="-3.953210">
						<ele>378</ele>
						<time>2026-09-01T20:54:40Z</time>
					</trkpt>
					<trkpt lat="48.372370" lon="-3.953430">
						<ele>378</ele>
						<time>2026-09-01T20:54:57Z</time>
					</trkpt>
					<trkpt lat="48.372170" lon="-3.953450">
						<ele>378</ele>
						<time>2026-09-01T20:55:07Z</time>
					</trkpt>
					<trkpt lat="48.371960" lon="-3.953510">
						<ele>378</ele>
						<time>2026-09-01T20:55:17Z</time>
					</trkpt>
					<trkpt lat="48.371620" lon="-3.953680">
						<ele>378</ele>
						<time>2026-09-01T20:55:35Z</time>
					</trkpt>
					<trkpt lat="48.371380" lon="-3.953870">
						<ele>375</ele>
						<time>2026-09-01T20:55:49Z</time>
					</trkpt>
					<trkpt lat="48.371230" lon="-3.953930">
						<ele>374</ele>
						<time>2026-09-01T20:55:57Z</time>
					</trkpt>
					<trkpt lat="48.370730" lon="-3.954330">
						<ele>372</ele>
						<time>2026-09-01T20:56:25Z</time>
					</trkpt>
					<trkpt lat="48.370620" lon="-3.954330">
						<ele>371</ele>
						<time>2026-09-01T20:56:30Z</time>
					</trkpt>
					<trkpt lat="48.368680" lon="-3.955350">
						<ele>366</ele>
						<time>2026-09-01T20:58:13Z</time>
					</trkpt>
					<trkpt lat="48.368290" lon="-3.955440">
						<ele>364</ele>
						<time>2026-09-01T20:58:33Z</time>
					</trkpt>
					<trkpt lat="48.368100" lon="-3.955430">
						<ele>364</ele>
						<time>2026-09-01T20:58:42Z</time>
					</trkpt>
					<trkpt lat="48.367990" lon="-3.955450">
						<ele>363</ele>
						<time>2026-09-01T20:58:48Z</time>
					</trkpt>
					<trkpt lat="48.367860" lon="-3.955410">
						<ele>363</ele>
						<time>2026-09-01T20:58:55Z</time>
					</trkpt>
					<trkpt lat="48.367590" lon="-3.955450">
						<ele>363</ele>
						<time>2026-09-01T20:59:08Z</time>
					</trkpt>
					<trkpt lat="48.367510" lon="-3.955500">
						<ele>363</ele>
						<time>2026-09-01T20:59:13Z</time>
					</trkpt>
					<trkpt lat="48.367440" lon="-3.955510">
						<ele>362</ele>
						<time>2026-09-01T20:59:16Z</time>
					</trkpt>
					<trkpt lat="48.367310" lon="-3.955470">
						<ele>362</ele>
						<time>2026-09-01T20:59:23Z</time>
					</trkpt>
					<trkpt lat="48.366920" lon="-3.955650">
						<ele>360</ele>
						<time>2026-09-01T20:59:43Z</time>
					</trkpt>
					<trkpt lat="48.366710" lon="-3.955650">
						<ele>359</ele>
						<time>2026-09-01T20:59:54Z</time>
					</trkpt>
					<trkpt lat="48.366430" lon="-3.955720">
						<ele>356</ele>
						<time>2026-09-01T21:00:08Z</time>
					</trkpt>
					<trkpt lat="48.366330" lon="-3.955770">
						<ele>355</ele>
						<time>2026-09-01T21:00:13Z</time>
					</trkpt>
					<trkpt lat="48.366290" lon="-3.955730">
						<ele>354</ele>
						<time>2026-09-01T21:00:16Z</time>
					</trkpt>
					<trkpt lat="48.366210" lon="-3.955720">
						<ele>353</ele>
						<time>2026-09-01T21:00:20Z</time>
					</trkpt>
					<trkpt lat="48.366030" lon="-3.955750">
						<ele>351</ele>
						<time>2026-09-01T21:00:29Z</time>
					</trkpt>
					<trkpt lat="48.365820" lon="-3.955880">
						<ele>348</ele>
						<time>2026-09-01T21:00:40Z</time>
					</trkpt>
					<trkpt lat="48.365600" lon="-3.955870">
						<ele>345</ele>
						<time>2026-09-01T21:00:51Z</time>
					</trkpt>
					<trkpt lat="48.365230" lon="-3.956180">
						<ele>340</ele>
						<time>2026-09-01T21:01:12Z</time>
					</trkpt>
					<trkpt lat="48.365060" lon="-3.956200">
						<ele>339</ele>
						<time>2026-09-01T21:01:21Z</time>
					</trkpt>
					<trkpt lat="48.364970" lon="-3.956800">
						<ele>337</ele>
						<time>2026-09-01T21:01:41Z</time>
					</trkpt>
					<trkpt lat="48.364920" lon="-3.957000">
						<ele>336</ele>
						<time>2026-09-01T21:01:48Z</time>
					</trkpt>
					<trkpt lat="48.364820" lon="-3.957180">
						<ele>334</ele>
						<time>2026-09-01T21:01:56Z</time>
					</trkpt>
					<trkpt lat="48.364350" lon="-3.957590">
						<ele>330</ele>
						<time>2026-09-01T21:02:23Z</time>
					</trkpt>
					<trkpt lat="48.363620" lon="-3.958690">
						<ele>325</ele>
						<time>2026-09-01T21:03:15Z</time>
					</trkpt>
					<trkpt lat="48.363440" lon="-3.958910">
						<ele>324</ele>
						<time>2026-09-01T21:03:27Z</time>
					</trkpt>
					<trkpt lat="48.363300" lon="-3.959020">
						<ele>324</ele>
						<time>2026-09-01T21:03:34Z</time>
					</trkpt>
					<trkpt lat="48.363150" lon="-3.959200">
						<ele>323</ele>
						<time>2026-09-01T21:03:44Z</time>
					</trkpt>
					<trkpt lat="48.361550" lon="-3.960240">
						<ele>317</ele>
						<time>2026-09-01T21:05:11Z</time>
					</trkpt>
					<trkpt lat="48.361350" lon="-3.960440">
						<ele>316</ele>
						<time>2026-09-01T21:05:23Z</time>
					</trkpt>
					<trkpt lat="48.361020" lon="-3.960640">
						<ele>316</ele>
						<time>2026-09-01T21:05:41Z</time>
					</trkpt>
					<trkpt lat="48.360760" lon="-3.960740">
						<ele>315</ele>
						<time>2026-09-01T21:05:55Z</time>
					</trkpt>
					<trkpt lat="48.360560" lon="-3.960740">
						<ele>314</ele>
						<time>2026-09-01T21:06:05Z</time>
					</trkpt>
					<trkpt lat="48.360160" lon="-3.960820">
						<ele>313</ele>
						<time>2026-09-01T21:06:25Z</time>
					</trkpt>
					<trkpt lat="48.359890" lon="-3.960900">
						<ele>313</ele>
						<time>2026-09-01T21:06:38Z</time>
					</trkpt>
					<trkpt lat="48.359650" lon="-3.960990">
						<ele>312</ele>
						<time>2026-09-01T21:06:51Z</time>
					</trkpt>
					<trkpt lat="48.359440" lon="-3.961140">
						<ele>311</ele>
						<time>2026-09-01T21:07:02Z</time>
					</trkpt>
					<trkpt lat="48.359100" lon="-3.961030">
						<ele>310</ele>
						<time>2026-09-01T21:07:20Z</time>
					</trkpt>
					<trkpt lat="48.358400" lon="-3.960880">
						<ele>305</ele>
						<time>2026-09-01T21:07:55Z</time>
					</trkpt>
					<trkpt lat="48.357500" lon="-3.960970">
						<ele>301</ele>
						<time>2026-09-01T21:08:40Z</time>
					</trkpt>
					<trkpt lat="48.357070" lon="-3.960950">
						<ele>300</ele>
						<time>2026-09-01T21:09:02Z</time>
					</trkpt>
					<trkpt lat="48.356840" lon="-3.961010">
						<ele>300</ele>
						<time>2026-09-01T21:09:14Z</time>
					</trkpt>
					<trkpt lat="48.356780" lon="-3.960910">
						<ele>300</ele>
						<time>2026-09-01T21:09:18Z</time>
					</trkpt>
					<trkpt lat="48.356630" lon="-3.961140">
						<ele>300</ele>
						<time>2026-09-01T21:09:29Z</time>
					</trkpt>
					<trkpt lat="48.356550" lon="-3.961380">
						<ele>301</ele>
						<time>2026-09-01T21:09:38Z</time>
					</trkpt>
					<trkpt lat="48.356460" lon="-3.961300">
						<ele>300</ele>
						<time>2026-09-01T21:09:43Z</time>
					</trkpt>
					<trkpt lat="48.356340" lon="-3.961120">
						<ele>299</ele>
						<time>2026-09-01T21:09:51Z</time>
					</trkpt>
					<trkpt lat="48.356080" lon="-3.960650">
						<ele>298</ele>
						<time>2026-09-01T21:10:12Z</time>
					</trkpt>
					<trkpt lat="48.355900" lon="-3.960480">
						<ele>298</ele>
						<time>2026-09-01T21:10:22Z</time>
					</trkpt>
					<trkpt lat="48.355590" lon="-3.960110">
						<ele>299</ele>
						<time>2026-09-01T21:10:42Z</time>
					</trkpt>
					<trkpt lat="48.355080" lon="-3.959420">
						<ele>302</ele>
						<time>2026-09-01T21:11:17Z</time>
					</trkpt>
					<trkpt lat="48.354680" lon="-3.958620">
						<ele>307</ele>
						<time>2026-09-01T21:11:50Z</time>
					</trkpt>
					<trkpt lat="48.354600" lon="-3.958400">
						<ele>309</ele>
						<time>2026-09-01T21:11:58Z</time>
					</trkpt>
					<trkpt lat="48.354420" lon="-3.957600">
						<ele>311</ele>
						<time>2026-09-01T21:12:26Z</time>
					</trkpt>
					<trkpt lat="48.354160" lon="-3.956600">
						<ele>316</ele>
						<time>2026-09-01T21:13:02Z</time>
					</trkpt>
					<trkpt lat="48.354030" lon="-3.956250">
						<ele>317</ele>
						<time>2026-09-01T21:13:15Z</time>
					</trkpt>
					<trkpt lat="48.353880" lon="-3.955960">
						<ele>319</ele>
						<time>2026-09-01T21:13:28Z</time>
					</trkpt>
					<trkpt lat="48.353800" lon="-3.955570">
						<ele>319</ele>
						<time>2026-09-01T21:13:41Z</time>
					</trkpt>
					<trkpt lat="48.353680" lon="-3.955170">
						<ele>321</ele>
						<time>2026-09-01T21:13:56Z</time>
					</trkpt>
					<trkpt lat="48.353590" lon="-3.954940">
						<ele>322</ele>
						<time>2026-09-01T21:14:05Z</time>
					</trkpt>
					<trkpt lat="48.353430" lon="-3.954710">
						<ele>324</ele>
						<time>2026-09-01T21:14:16Z</time>
					</trkpt>
					<trkpt lat="48.353330" lon="-3.954330">
						<ele>325</ele>
						<time>2026-09-01T21:14:29Z</time>
					</trkpt>
					<trkpt lat="48.353270" lon="-3.953950">
						<ele>325</ele>
						<time>2026-09-01T21:14:42Z</time>
					</trkpt>
					<trkpt lat="48.352820" lon="-3.952800">
						<ele>327</ele>
						<time>2026-09-01T21:15:27Z</time>
					</trkpt>
					<trkpt lat="48.352450" lon="-3.952010">
						<ele>329</ele>
						<time>2026-09-01T21:15:59Z</time>
					</trkpt>
					<trkpt lat="48.352290" lon="-3.951770">
						<ele>329</ele>
						<time>2026-09-01T21:16:10Z</time>
					</trkpt>
					<trkpt lat="48.351680" lon="-3.950270">
						<ele>332</ele>
						<time>2026-09-01T21:17:09Z</time>
					</trkpt>
					<trkpt lat="48.351300" lon="-3.948940">
						<ele>336</ele>
						<time>2026-09-01T21:17:57Z</time>
					</trkpt>
					<trkpt lat="48.351250" lon="-3.948820">
						<ele>336</ele>
						<time>2026-09-01T21:18:01Z</time>
					</trkpt>
					<trkpt lat="48.350870" lon="-3.948190">
						<ele>340</ele>
						<time>2026-09-01T21:18:30Z</time>
					</trkpt>
					<trkpt lat="48.350880" lon="-3.947910">
						<ele>342</ele>
						<time>2026-09-01T21:18:39Z</time>
					</trkpt>
					<trkpt lat="48.350850" lon="-3.947820">
						<ele>343</ele>
						<time>2026-09-01T21:18:42Z</time>
					</trkpt>
					<trkpt lat="48.350830" lon="-3.947570">
						<ele>344</ele>
						<time>2026-09-01T21:18:51Z</time>
					</trkpt>
					<trkpt lat="48.350570" lon="-3.946990">
						<ele>352</ele>
						<time>2026-09-01T21:19:14Z</time>
					</trkpt>
					<trkpt lat="48.349990" lon="-3.946770">
						<ele>357</ele>
						<time>2026-09-01T21:19:44Z</time>
					</trkpt>
					<trkpt lat="48.349860" lon="-3.946600">
						<ele>358</ele>
						<time>2026-09-01T21:19:53Z</time>
					</trkpt>
					<trkpt lat="48.350040" lon="-3.945970">
						<ele>368</ele>
						<time>2026-09-01T21:20:15Z</time>
					</trkpt>
					<trkpt lat="48.350300" lon="-3.945620">
						<ele>367</ele>
						<time>2026-09-01T21:20:33Z</time>
					</trkpt>
					<trkpt lat="48.350100" lon="-3.944600">
						<ele>366</ele>
						<time>2026-09-01T21:21:08Z</time>
					</trkpt>
					<trkpt lat="48.350000" lon="-3.944510">
						<ele>367</ele>
						<time>2026-09-01T21:21:14Z</time>
					</trkpt>
					<trkpt lat="48.349750" lon="-3.944640">
						<ele>364</ele>
						<time>2026-09-01T21:21:27Z</time>
					</trkpt>
					<trkpt lat="48.349520" lon="-3.944130">
						<ele>357</ele>
						<time>2026-09-01T21:21:48Z</time>
					</trkpt>
					<trkpt lat="48.349220" lon="-3.943950">
						<ele>351</ele>
						<time>2026-09-01T21:22:04Z</time>
					</trkpt>
					<trkpt lat="48.348660" lon="-3.943440">
						<ele>338</ele>
						<time>2026-09-01T21:22:37Z</time>
					</trkpt>
					<trkpt lat="48.348250" lon="-3.942800">
						<ele>328</ele>
						<time>2026-09-01T21:23:06Z</time>
					</trkpt>
					<trkpt lat="48.347910" lon="-3.942500">
						<ele>324</ele>
						<time>2026-09-01T21:23:26Z</time>
					</trkpt>
					<trkpt lat="48.347830" lon="-3.942350">
						<ele>323</ele>
						<time>2026-09-01T21:23:32Z</time>
					</trkpt>
					<trkpt lat="48.347730" lon="-3.942330">
						<ele>322</ele>
						<time>2026-09-01T21:23:37Z</time>
					</trkpt>
					<trkpt lat="48.347580" lon="-3.941980">
						<ele>320</ele>
						<time>2026-09-01T21:23:51Z</time>
					</trkpt>
					<trkpt lat="48.347240" lon="-3.941470">
						<ele>317</ele>
						<time>2026-09-01T21:24:15Z</time>
					</trkpt>
					<trkpt lat="48.347020" lon="-3.941220">
						<ele>315</ele>
						<time>2026-09-01T21:24:29Z</time>
					</trkpt>
					<trkpt lat="48.346890" lon="-3.941210">
						<ele>315</ele>
						<time>2026-09-01T21:24:36Z</time>
					</trkpt>
					<trkpt lat="48.345690" lon="-3.941800">
						<ele>308</ele>
						<time>2026-09-01T21:25:39Z</time>
					</trkpt>
					<trkpt lat="48.344970" lon="-3.942010">
						<ele>302</ele>
						<time>2026-09-01T21:26:15Z</time>
					</trkpt>
					<trkpt lat="48.344480" lon="-3.942250">
						<ele>299</ele>
						<time>2026-09-01T21:26:41Z</time>
					</trkpt>
					<trkpt lat="48.343690" lon="-3.942440">
						<ele>295</ele>
						<time>2026-09-01T21:27:21Z</time>
					</trkpt>
					<trkpt lat="48.342670" lon="-3.942730">
						<ele>292</ele>
						<time>2026-09-01T21:28:13Z</time>
					</trkpt>
					<trkpt lat="48.342460" lon="-3.942810">
						<ele>291</ele>
						<time>2026-09-01T21:28:24Z</time>
					</trkpt>
					<trkpt lat="48.342420" lon="-3.942930">
						<ele>291</ele>
						<time>2026-09-01T21:28:29Z</time>
					</trkpt>
					<trkpt lat="48.342420" lon="-3.943180">
						<ele>290</ele>
						<time>2026-09-01T21:28:37Z</time>
					</trkpt>
					<trkpt lat="48.342480" lon="-3.943850">
						<ele>289</ele>
						<time>2026-09-01T21:28:59Z</time>
					</trkpt>
					<trkpt lat="48.342760" lon="-3.944500">
						<ele>287</ele>
						<time>2026-09-01T21:29:25Z</time>
					</trkpt>
					<trkpt lat="48.343020" lon="-3.944910">
						<ele>286</ele>
						<time>2026-09-01T21:29:44Z</time>
					</trkpt>
					<trkpt lat="48.343060" lon="-3.945020">
						<ele>286</ele>
						<time>2026-09-01T21:29:48Z</time>
					</trkpt>
					<trkpt lat="48.343070" lon="-3.945100">
						<ele>285</ele>
						<time>2026-09-01T21:29:51Z</time>
					</trkpt>
					<trkpt lat="48.343030" lon="-3.945420">
						<ele>284</ele>
						<time>2026-09-01T21:30:02Z</time>
					</trkpt>
					<trkpt lat="48.343040" lon="-3.945590">
						<ele>284</ele>
						<time>2026-09-01T21:30:07Z</time>
					</trkpt>
					<trkpt lat="48.343130" lon="-3.945940">
						<ele>282</ele>
						<time>2026-09-01T21:30:20Z</time>
					</trkpt>
					<trkpt lat="48.343260" lon="-3.946220">
						<ele>282</ele>
						<time>2026-09-01T21:30:31Z</time>
					</trkpt>
					<trkpt lat="48.343300" lon="-3.946550">
						<ele>280</ele>
						<time>2026-09-01T21:30:42Z</time>
					</trkpt>
					<trkpt lat="48.343450" lon="-3.946850">
						<ele>280</ele>
						<time>2026-09-01T21:30:55Z</time>
					</trkpt>
					<trkpt lat="48.343590" lon="-3.947490">
						<ele>278</ele>
						<time>2026-09-01T21:31:17Z</time>
					</trkpt>
					<trkpt lat="48.343620" lon="-3.947850">
						<ele>277</ele>
						<time>2026-09-01T21:31:29Z</time>
					</trkpt>
					<trkpt lat="48.343620" lon="-3.951420">
						<ele>263</ele>
						<time>2026-09-01T21:33:28Z</time>
					</trkpt>
					<trkpt lat="48.343660" lon="-3.951650">
						<ele>262</ele>
						<time>2026-09-01T21:33:36Z</time>
					</trkpt>
					<trkpt lat="48.343610" lon="-3.952590">
						<ele>258</ele>
						<time>2026-09-01T21:34:07Z</time>
					</trkpt>
					<trkpt lat="48.343570" lon="-3.954320">
						<ele>257</ele>
						<time>2026-09-01T21:35:05Z</time>
					</trkpt>
					<trkpt lat="48.343500" lon="-3.955140">
						<ele>258</ele>
						<time>2026-09-01T21:35:32Z</time>
					</trkpt>
					<trkpt lat="48.343490" lon="-3.956600">
						<ele>248</ele>
						<time>2026-09-01T21:36:21Z</time>
					</trkpt>
					<trkpt lat="48.343520" lon="-3.956940">
						<ele>246</ele>
						<time>2026-09-01T21:36:32Z</time>
					</trkpt>
					<trkpt lat="48.343520" lon="-3.957340">
						<ele>244</ele>
						<time>2026-09-01T21:36:46Z</time>
					</trkpt>
					<trkpt lat="48.343580" lon="-3.958000">
						<ele>242</ele>
						<time>2026-09-01T21:37:08Z</time>
					</trkpt>
					<trkpt lat="48.343540" lon="-3.958520">
						<ele>241</ele>
						<time>2026-09-01T21:37:25Z</time>
					</trkpt>
					<trkpt lat="48.343570" lon="-3.959980">
						<ele>239</ele>
						<time>2026-09-01T21:38:14Z</time>
					</trkpt>
					<trkpt lat="48.343810" lon="-3.962900">
						<ele>235</ele>
						<time>2026-09-01T21:39:52Z</time>
					</trkpt>
					<trkpt lat="48.344030" lon="-3.964690">
						<ele>237</ele>
						<time>2026-09-01T21:40:52Z</time>
					</trkpt>
					<trkpt lat="48.344410" lon="-3.967140">
						<ele>229</ele>
						<time>2026-09-01T21:42:16Z</time>
					</trkpt>
					<trkpt lat="48.344600" lon="-3.969330">
						<ele>228</ele>
						<time>2026-09-01T21:43:29Z</time>
					</trkpt>
					<trkpt lat="48.344660" lon="-3.969580">
						<ele>228</ele>
						<time>2026-09-01T21:43:38Z</time>
					</trkpt>
					<trkpt lat="48.344760" lon="-3.969720">
						<ele>228</ele>
						<time>2026-09-01T21:43:45Z</time>
					</trkpt>
					<trkpt lat="48.345060" lon="-3.969930">
						<ele>230</ele>
						<time>2026-09-01T21:44:02Z</time>
					</trkpt>
					<trkpt lat="48.345090" lon="-3.970010">
						<ele>230</ele>
						<time>2026-09-01T21:44:05Z</time>
					</trkpt>
					<trkpt lat="48.345050" lon="-3.970260">
						<ele>229</ele>
						<time>2026-09-01T21:44:13Z</time>
					</trkpt>
					<trkpt lat="48.344830" lon="-3.970600">
						<ele>227</ele>
						<time>2026-09-01T21:44:29Z</time>
					</trkpt>
					<trkpt lat="48.344670" lon="-3.971300">
						<ele>228</ele>
						<time>2026-09-01T21:44:54Z</time>
					</trkpt>
					<trkpt lat="48.344580" lon="-3.971580">
						<ele>228</ele>
						<time>2026-09-01T21:45:04Z</time>
					</trkpt>
					<trkpt lat="48.344420" lon="-3.971820">
						<ele>228</ele>
						<time>2026-09-01T21:45:15Z</time>
					</trkpt>
					<trkpt lat="48.344280" lon="-3.971960">
						<ele>227</ele>
						<time>2026-09-01T21:45:24Z</time>
					</trkpt>
					<trkpt lat="48.344090" lon="-3.972280">
						<ele>226</ele>
						<time>2026-09-01T21:45:38Z</time>
					</trkpt>
					<trkpt lat="48.343880" lon="-3.973250">
						<ele>223</ele>
						<time>2026-09-01T21:46:12Z</time>
					</trkpt>
					<trkpt lat="48.343760" lon="-3.973670">
						<ele>221</ele>
						<time>2026-09-01T21:46:27Z</time>
					</trkpt>
					<trkpt lat="48.343870" lon="-3.973920">
						<ele>221</ele>
						<time>2026-09-01T21:46:37Z</time>
					</trkpt>
					<trkpt lat="48.344140" lon="-3.974260">
						<ele>220</ele>
						<time>2026-09-01T21:46:55Z</time>
					</trkpt>
					<trkpt lat="48.344870" lon="-3.975470">
						<ele>218</ele>
						<time>2026-09-01T21:47:49Z</time>
					</trkpt>
					<trkpt lat="48.344980" lon="-3.975740">
						<ele>218</ele>
						<time>2026-09-01T21:48:00Z</time>
					</trkpt>
					<trkpt lat="48.345030" lon="-3.975930">
						<ele>218</ele>
						<time>2026-09-01T21:48:06Z</time>
					</trkpt>
					<trkpt lat="48.345050" lon="-3.976260">
						<ele>218</ele>
						<time>2026-09-01T21:48:17Z</time>
					</trkpt>
					<trkpt lat="48.344940" lon="-3.977690">
						<ele>221</ele>
						<time>2026-09-01T21:49:05Z</time>
					</trkpt>
					<trkpt lat="48.344960" lon="-3.978030">
						<ele>222</ele>
						<time>2026-09-01T21:49:17Z</time>
					</trkpt>
					<trkpt lat="48.345200" lon="-3.980230">
						<ele>229</ele>
						<time>2026-09-01T21:50:31Z</time>
					</trkpt>
					<trkpt lat="48.345250" lon="-3.980550">
						<ele>229</ele>
						<time>2026-09-01T21:50:42Z</time>
					</trkpt>
					<trkpt lat="48.345450" lon="-3.981240">
						<ele>230</ele>
						<time>2026-09-01T21:51:07Z</time>
					</trkpt>
					<trkpt lat="48.345560" lon="-3.981500">
						<ele>229</ele>
						<time>2026-09-01T21:51:17Z</time>
					</trkpt>
					<trkpt lat="48.347200" lon="-3.984410">
						<ele>217</ele>
						<time>2026-09-01T21:53:24Z</time>
					</trkpt>
					<trkpt lat="48.347890" lon="-3.985500">
						<ele>214</ele>
						<time>2026-09-01T21:54:14Z</time>
					</trkpt>
					<trkpt lat="48.348470" lon="-3.986510">
						<ele>216</ele>
						<time>2026-09-01T21:54:58Z</time>
					</trkpt>
					<trkpt lat="48.347010" lon="-3.987050">
						<ele>198</ele>
						<time>2026-09-01T21:56:14Z</time>
					</trkpt>
					<trkpt lat="48.347130" lon="-3.988760">
						<ele>194</ele>
						<time>2026-09-01T21:57:11Z</time>
					</trkpt>
					<trkpt lat="48.347210" lon="-3.989520">
						<ele>194</ele>
						<time>2026-09-01T21:57:36Z</time>
					</trkpt>
					<trkpt lat="48.347270" lon="-3.989870">
						<ele>192</ele>
						<time>2026-09-01T21:57:48Z</time>
					</trkpt>
					<trkpt lat="48.347460" lon="-3.990620">
						<ele>191</ele>
						<time>2026-09-01T21:58:15Z</time>
					</trkpt>
					<trkpt lat="48.347580" lon="-3.991550">
						<ele>190</ele>
						<time>2026-09-01T21:58:47Z</time>
					</trkpt>
					<trkpt lat="48.347660" lon="-3.991860">
						<ele>188</ele>
						<time>2026-09-01T21:58:58Z</time>
					</trkpt>
					<trkpt lat="48.347480" lon="-3.991970">
						<ele>186</ele>
						<time>2026-09-01T21:59:07Z</time>
					</trkpt>
					<trkpt lat="48.347180" lon="-3.992360">
						<ele>180</ele>
						<time>2026-09-01T21:59:27Z</time>
					</trkpt>
					<trkpt lat="48.346980" lon="-3.992670">
						<ele>175</ele>
						<time>2026-09-01T21:59:42Z</time>
					</trkpt>
					<trkpt lat="48.346960" lon="-3.992930">
						<ele>172</ele>
						<time>2026-09-01T21:59:50Z</time>
					</trkpt>
					<trkpt lat="48.347310" lon="-3.994000">
						<ele>167</ele>
						<time>2026-09-01T22:00:30Z</time>
					</trkpt>
					<trkpt lat="48.347410" lon="-3.994130">
						<ele>167</ele>
						<time>2026-09-01T22:00:37Z</time>
					</trkpt>
					<trkpt lat="48.347840" lon="-3.994980">
						<ele>168</ele>
						<time>2026-09-01T22:01:12Z</time>
					</trkpt>
					<trkpt lat="48.348300" lon="-3.995650">
						<ele>169</ele>
						<time>2026-09-01T22:01:44Z</time>
					</trkpt>
					<trkpt lat="48.348560" lon="-3.995960">
						<ele>170</ele>
						<time>2026-09-01T22:02:01Z</time>
					</trkpt>
					<trkpt lat="48.348700" lon="-3.996080">
						<ele>171</ele>
						<time>2026-09-01T22:02:09Z</time>
					</trkpt>
					<trkpt lat="48.348860" lon="-3.996140">
						<ele>173</ele>
						<time>2026-09-01T22:02:17Z</time>
					</trkpt>
					<trkpt lat="48.348860" lon="-3.996330">
						<ele>172</ele>
						<time>2026-09-01T22:02:23Z</time>
					</trkpt>
					<trkpt lat="48.349040" lon="-3.997150">
						<ele>171</ele>
						<time>2026-09-01T22:02:52Z</time>
					</trkpt>
					<trkpt lat="48.349070" lon="-3.997480">
						<ele>171</ele>
						<time>2026-09-01T22:03:03Z</time>
					</trkpt>
					<trkpt lat="48.349340" lon="-3.997900">
						<ele>169</ele>
						<time>2026-09-01T22:03:23Z</time>
					</trkpt>
					<trkpt lat="48.349500" lon="-3.998210">
						<ele>168</ele>
						<time>2026-09-01T22:03:36Z</time>
					</trkpt>
					<trkpt lat="48.349930" lon="-3.999690">
						<ele>161</ele>
						<time>2026-09-01T22:04:29Z</time>
					</trkpt>
					<trkpt lat="48.350040" lon="-3.999990">
						<ele>160</ele>
						<time>2026-09-01T22:04:41Z</time>
					</trkpt>
					<trkpt lat="48.350130" lon="-4.000110">
						<ele>159</ele>
						<time>2026-09-01T22:04:47Z</time>
					</trkpt>
					<trkpt lat="48.350400" lon="-4.000330">
						<ele>157</ele>
						<time>2026-09-01T22:05:02Z</time>
					</trkpt>
					<trkpt lat="48.350750" lon="-4.000690">
						<ele>155</ele>
						<time>2026-09-01T22:05:23Z</time>
					</trkpt>
					<trkpt lat="48.350860" lon="-4.000860">
						<ele>154</ele>
						<time>2026-09-01T22:05:31Z</time>
					</trkpt>
					<trkpt lat="48.350940" lon="-4.001060">
						<ele>155</ele>
						<time>2026-09-01T22:05:39Z</time>
					</trkpt>
					<trkpt lat="48.350980" lon="-4.001410">
						<ele>155</ele>
						<time>2026-09-01T22:05:51Z</time>
					</trkpt>
					<trkpt lat="48.350910" lon="-4.001920">
						<ele>156</ele>
						<time>2026-09-01T22:06:08Z</time>
					</trkpt>
					<trkpt lat="48.350580" lon="-4.002620">
						<ele>157</ele>
						<time>2026-09-01T22:06:37Z</time>
					</trkpt>
					<trkpt lat="48.350480" lon="-4.002770">
						<ele>157</ele>
						<time>2026-09-01T22:06:44Z</time>
					</trkpt>
					<trkpt lat="48.350020" lon="-4.003640">
						<ele>161</ele>
						<time>2026-09-01T22:07:21Z</time>
					</trkpt>
					<trkpt lat="48.349710" lon="-4.003800">
						<ele>162</ele>
						<time>2026-09-01T22:07:37Z</time>
					</trkpt>
					<trkpt lat="48.349540" lon="-4.003790">
						<ele>162</ele>
						<time>2026-09-01T22:07:46Z</time>
					</trkpt>
					<trkpt lat="48.349320" lon="-4.003880">
						<ele>162</ele>
						<time>2026-09-01T22:07:57Z</time>
					</trkpt>
					<trkpt lat="48.349020" lon="-4.003860">
						<ele>161</ele>
						<time>2026-09-01T22:08:12Z</time>
					</trkpt>
					<trkpt lat="48.348530" lon="-4.003940">
						<ele>159</ele>
						<time>2026-09-01T22:08:37Z</time>
					</trkpt>
					<trkpt lat="48.348070" lon="-4.004110">
						<ele>159</ele>
						<time>2026-09-01T22:09:00Z</time>
					</trkpt>
					<trkpt lat="48.347910" lon="-4.004190">
						<ele>160</ele>
						<time>2026-09-01T22:09:09Z</time>
					</trkpt>
					<trkpt lat="48.347760" lon="-4.004320">
						<ele>162</ele>
						<time>2026-09-01T22:09:18Z</time>
					</trkpt>
					<trkpt lat="48.347610" lon="-4.004380">
						<ele>163</ele>
						<time>2026-09-01T22:09:25Z</time>
					</trkpt>
					<trkpt lat="48.346590" lon="-4.004350">
						<ele>160</ele>
						<time>2026-09-01T22:10:16Z</time>
					</trkpt>
					<trkpt lat="48.346360" lon="-4.004370">
						<ele>159</ele>
						<time>2026-09-01T22:10:28Z</time>
					</trkpt>
					<trkpt lat="48.345630" lon="-4.004470">
						<ele>156</ele>
						<time>2026-09-01T22:11:05Z</time>
					</trkpt>
					<trkpt lat="48.345060" lon="-4.004610">
						<ele>154</ele>
						<time>2026-09-01T22:11:33Z</time>
					</trkpt>
					<trkpt lat="48.344930" lon="-4.004840">
						<ele>156</ele>
						<time>2026-09-01T22:11:44Z</time>
					</trkpt>
					<trkpt lat="48.344740" lon="-4.005030">
						<ele>155</ele>
						<time>2026-09-01T22:11:55Z</time>
					</trkpt>
					<trkpt lat="48.344580" lon="-4.005240">
						<ele>155</ele>
						<time>2026-09-01T22:12:06Z</time>
					</trkpt>
					<trkpt lat="48.344320" lon="-4.005490">
						<ele>152</ele>
						<time>2026-09-01T22:12:21Z</time>
					</trkpt>
					<trkpt lat="48.343900" lon="-4.006120">
						<ele>153</ele>
						<time>2026-09-01T22:12:51Z</time>
					</trkpt>
					<trkpt lat="48.343790" lon="-4.006330">
						<ele>154</ele>
						<time>2026-09-01T22:13:00Z</time>
					</trkpt>
					<trkpt lat="48.343730" lon="-4.006390">
						<ele>154</ele>
						<time>2026-09-01T22:13:03Z</time>
					</trkpt>
					<trkpt lat="48.343580" lon="-4.006430">
						<ele>152</ele>
						<time>2026-09-01T22:13:11Z</time>
					</trkpt>
					<trkpt lat="48.343380" lon="-4.006670">
						<ele>151</ele>
						<time>2026-09-01T22:13:24Z</time>
					</trkpt>
					<trkpt lat="48.343090" lon="-4.006940">
						<ele>153</ele>
						<time>2026-09-01T22:13:41Z</time>
					</trkpt>
					<trkpt lat="48.343020" lon="-4.007360">
						<ele>155</ele>
						<time>2026-09-01T22:13:55Z</time>
					</trkpt>
					<trkpt lat="48.342900" lon="-4.007630">
						<ele>155</ele>
						<time>2026-09-01T22:14:06Z</time>
					</trkpt>
					<trkpt lat="48.342850" lon="-4.007890">
						<ele>155</ele>
						<time>2026-09-01T22:14:15Z</time>
					</trkpt>
					<trkpt lat="48.342710" lon="-4.008350">
						<ele>155</ele>
						<time>2026-09-01T22:14:32Z</time>
					</trkpt>
					<trkpt lat="48.342380" lon="-4.009120">
						<ele>156</ele>
						<time>2026-09-01T22:15:02Z</time>
					</trkpt>
					<trkpt lat="48.342180" lon="-4.009480">
						<ele>155</ele>
						<time>2026-09-01T22:15:18Z</time>
					</trkpt>
					<trkpt lat="48.342050" lon="-4.009820">
						<ele>156</ele>
						<time>2026-09-01T22:15:31Z</time>
					</trkpt>
					<trkpt lat="48.341920" lon="-4.010340">
						<ele>158</ele>
						<time>2026-09-01T22:15:49Z</time>
					</trkpt>
					<trkpt lat="48.341880" lon="-4.010670">
						<ele>161</ele>
						<time>2026-09-01T22:16:00Z</time>
					</trkpt>
					<trkpt lat="48.341630" lon="-4.011690">
						<ele>165</ele>
						<time>2026-09-01T22:16:37Z</time>
					</trkpt>
					<trkpt lat="48.341660" lon="-4.011730">
						<ele>166</ele>
						<time>2026-09-01T22:16:39Z</time>
					</trkpt>
					<trkpt lat="48.341630" lon="-4.011690">
						<ele>165</ele>
						<time>2026-09-01T22:16:41Z</time>
					</trkpt>
					<trkpt lat="48.341480" lon="-4.011670">
						<ele>163</ele>
						<time>2026-09-01T22:16:48Z</time>
					</trkpt>
					<trkpt lat="48.341030" lon="-4.011780">
						<ele>158</ele>
						<time>2026-09-01T22:17:11Z</time>
					</trkpt>
					<trkpt lat="48.340390" lon="-4.011890">
						<ele>149</ele>
						<time>2026-09-01T22:17:43Z</time>
					</trkpt>
					<trkpt lat="48.339950" lon="-4.012020">
						<ele>143</ele>
						<time>2026-09-01T22:18:06Z</time>
					</trkpt>
					<trkpt lat="48.339660" lon="-4.011990">
						<ele>139</ele>
						<time>2026-09-01T22:18:20Z</time>
					</trkpt>
					<trkpt lat="48.339550" lon="-4.012000">
						<ele>138</ele>
						<time>2026-09-01T22:18:26Z</time>
					</trkpt>
					<trkpt lat="48.339440" lon="-4.012090">
						<ele>137</ele>
						<time>2026-09-01T22:18:32Z</time>
					</trkpt>
					<trkpt lat="48.339380" lon="-4.012320">
						<ele>137</ele>
						<time>2026-09-01T22:18:40Z</time>
					</trkpt>
					<trkpt lat="48.339090" lon="-4.012450">
						<ele>134</ele>
						<time>2026-09-01T22:18:55Z</time>
					</trkpt>
					<trkpt lat="48.339030" lon="-4.012520">
						<ele>135</ele>
						<time>2026-09-01T22:18:59Z</time>
					</trkpt>
					<trkpt lat="48.338800" lon="-4.013150">
						<ele>145</ele>
						<time>2026-09-01T22:19:23Z</time>
					</trkpt>
					<trkpt lat="48.338860" lon="-4.013180">
						<ele>145</ele>
						<time>2026-09-01T22:19:26Z</time>
					</trkpt>
					<trkpt lat="48.338620" lon="-4.013060">
						<ele>145</ele>
						<time>2026-09-01T22:19:39Z</time>
					</trkpt>
					<trkpt lat="48.338110" lon="-4.012910">
						<ele>146</ele>
						<time>2026-09-01T22:20:05Z</time>
					</trkpt>
					<trkpt lat="48.337870" lon="-4.012860">
						<ele>146</ele>
						<time>2026-09-01T22:20:17Z</time>
					</trkpt>
					<trkpt lat="48.337600" lon="-4.012860">
						<ele>147</ele>
						<time>2026-09-01T22:20:31Z</time>
					</trkpt>
					<trkpt lat="48.337370" lon="-4.012820">
						<ele>147</ele>
						<time>2026-09-01T22:20:42Z</time>
					</trkpt>
					<trkpt lat="48.337170" lon="-4.012760">
						<ele>148</ele>
						<time>2026-09-01T22:20:52Z</time>
					</trkpt>
					<trkpt lat="48.337060" lon="-4.012680">
						<ele>147</ele>
						<time>2026-09-01T22:20:58Z</time>
					</trkpt>
					<trkpt lat="48.337050" lon="-4.012620">
						<ele>146</ele>
						<time>2026-09-01T22:21:01Z</time>
					</trkpt>
					<trkpt lat="48.337130" lon="-4.012060">
						<ele>137</ele>
						<time>2026-09-01T22:21:20Z</time>
					</trkpt>
					<trkpt lat="48.337110" lon="-4.011510">
						<ele>133</ele>
						<time>2026-09-01T22:21:38Z</time>
					</trkpt>
					<trkpt lat="48.336990" lon="-4.011030">
						<ele>135</ele>
						<time>2026-09-01T22:21:55Z</time>
					</trkpt>
					<trkpt lat="48.336940" lon="-4.010640">
						<ele>139</ele>
						<time>2026-09-01T22:22:08Z</time>
					</trkpt>
					<trkpt lat="48.336780" lon="-4.010280">
						<ele>144</ele>
						<time>2026-09-01T22:22:23Z</time>
					</trkpt>
					<trkpt lat="48.336740" lon="-4.010120">
						<ele>147</ele>
						<time>2026-09-01T22:22:28Z</time>
					</trkpt>
					<trkpt lat="48.336750" lon="-4.009960">
						<ele>150</ele>
						<time>2026-09-01T22:22:34Z</time>
					</trkpt>
					<trkpt lat="48.336810" lon="-4.009890">
						<ele>151</ele>
						<time>2026-09-01T22:22:37Z</time>
					</trkpt>
					<trkpt lat="48.337340" lon="-4.009780">
						<ele>151</ele>
						<time>2026-09-01T22:23:04Z</time>
					</trkpt>
					<trkpt lat="48.337630" lon="-4.009960">
						<ele>149</ele>
						<time>2026-09-01T22:23:20Z</time>
					</trkpt>
					<trkpt lat="48.338000" lon="-4.010030">
						<ele>150</ele>
						<time>2026-09-01T22:23:39Z</time>
					</trkpt>
					<trkpt lat="48.338000" lon="-4.009510">
						<ele>157</ele>
						<time>2026-09-01T22:23:56Z</time>
					</trkpt>
					<trkpt lat="48.338300" lon="-4.008710">
						<ele>167</ele>
						<time>2026-09-01T22:24:26Z</time>
					</trkpt>
					<trkpt lat="48.338500" lon="-4.008280">
						<ele>171</ele>
						<time>2026-09-01T22:24:44Z</time>
					</trkpt>
					<trkpt lat="48.338590" lon="-4.007710">
						<ele>177</ele>
						<time>2026-09-01T22:25:03Z</time>
					</trkpt>
					<trkpt lat="48.338510" lon="-4.007100">
						<ele>183</ele>
						<time>2026-09-01T22:25:24Z</time>
					</trkpt>
					<trkpt lat="48.338400" lon="-4.006710">
						<ele>186</ele>
						<time>2026-09-01T22:25:38Z</time>
					</trkpt>
					<trkpt lat="48.337620" lon="-4.006450">
						<ele>193</ele>
						<time>2026-09-01T22:26:18Z</time>
					</trkpt>
					<trkpt lat="48.337480" lon="-4.006370">
						<ele>194</ele>
						<time>2026-09-01T22:26:26Z</time>
					</trkpt>
					<trkpt lat="48.337420" lon="-4.006270">
						<ele>195</ele>
						<time>2026-09-01T22:26:30Z</time>
					</trkpt>
					<trkpt lat="48.337390" lon="-4.006090">
						<ele>197</ele>
						<time>2026-09-01T22:26:36Z</time>
					</trkpt>
					<trkpt lat="48.337400" lon="-4.005860">
						<ele>199</ele>
						<time>2026-09-01T22:26:44Z</time>
					</trkpt>
					<trkpt lat="48.337720" lon="-4.003440">
						<ele>220</ele>
						<time>2026-09-01T22:28:06Z</time>
					</trkpt>
					<trkpt lat="48.336910" lon="-4.003540">
						<ele>224</ele>
						<time>2026-09-01T22:28:47Z</time>
					</trkpt>
					<trkpt lat="48.335430" lon="-4.004090">
						<ele>233</ele>
						<time>2026-09-01T22:30:03Z</time>
					</trkpt>
					<trkpt lat="48.334110" lon="-4.004380">
						<ele>241</ele>
						<time>2026-09-01T22:31:10Z</time>
					</trkpt>
					<trkpt lat="48.332960" lon="-4.004060">
						<ele>248</ele>
						<time>2026-09-01T22:32:08Z</time>
					</trkpt>
					<trkpt lat="48.332220" lon="-4.004080">
						<ele>252</ele>
						<time>2026-09-01T22:32:45Z</time>
					</trkpt>
					<trkpt lat="48.332020" lon="-4.004070">
						<ele>253</ele>
						<time>2026-09-01T22:32:55Z</time>
					</trkpt>
					<trkpt lat="48.331850" lon="-4.004030">
						<ele>255</ele>
						<time>2026-09-01T22:33:04Z</time>
					</trkpt>
					<trkpt lat="48.331730" lon="-4.003950">
						<ele>256</ele>
						<time>2026-09-01T22:33:10Z</time>
					</trkpt>
					<trkpt lat="48.331260" lon="-4.003520">
						<ele>258</ele>
						<time>2026-09-01T22:33:38Z</time>
					</trkpt>
					<trkpt lat="48.330580" lon="-4.003290">
						<ele>258</ele>
						<time>2026-09-01T22:34:13Z</time>
					</trkpt>
					<trkpt lat="48.330090" lon="-4.003020">
						<ele>254</ele>
						<time>2026-09-01T22:34:39Z</time>
					</trkpt>
					<trkpt lat="48.329800" lon="-4.002920">
						<ele>251</ele>
						<time>2026-09-01T22:34:54Z</time>
					</trkpt>
					<trkpt lat="48.329750" lon="-4.002790">
						<ele>250</ele>
						<time>2026-09-01T22:34:59Z</time>
					</trkpt>
					<trkpt lat="48.329050" lon="-4.001520">
						<ele>236</ele>
						<time>2026-09-01T22:35:54Z</time>
					</trkpt>
					<trkpt lat="48.328910" lon="-4.001150">
						<ele>233</ele>
						<time>2026-09-01T22:36:08Z</time>
					</trkpt>
					<trkpt lat="48.328780" lon="-4.000710">
						<ele>230</ele>
						<time>2026-09-01T22:36:24Z</time>
					</trkpt>
					<trkpt lat="48.328460" lon="-4.000030">
						<ele>222</ele>
						<time>2026-09-01T22:36:52Z</time>
					</trkpt>
					<trkpt lat="48.328280" lon="-3.999510">
						<ele>218</ele>
						<time>2026-09-01T22:37:11Z</time>
					</trkpt>
					<trkpt lat="48.328220" lon="-3.999280">
						<ele>216</ele>
						<time>2026-09-01T22:37:19Z</time>
					</trkpt>
					<trkpt lat="48.328150" lon="-3.998710">
						<ele>214</ele>
						<time>2026-09-01T22:37:39Z</time>
					</trkpt>
					<trkpt lat="48.328100" lon="-3.997490">
						<ele>208</ele>
						<time>2026-09-01T22:38:19Z</time>
					</trkpt>
					<trkpt lat="48.327970" lon="-3.996360">
						<ele>201</ele>
						<time>2026-09-01T22:38:57Z</time>
					</trkpt>
					<trkpt lat="48.327730" lon="-3.995500">
						<ele>195</ele>
						<time>2026-09-01T22:39:29Z</time>
					</trkpt>
					<trkpt lat="48.327630" lon="-3.995220">
						<ele>193</ele>
						<time>2026-09-01T22:39:39Z</time>
					</trkpt>
					<trkpt lat="48.327500" lon="-3.994880">
						<ele>190</ele>
						<time>2026-09-01T22:39:52Z</time>
					</trkpt>
					<trkpt lat="48.327020" lon="-3.994070">
						<ele>186</ele>
						<time>2026-09-01T22:40:28Z</time>
					</trkpt>
					<trkpt lat="48.326590" lon="-3.993270">
						<ele>182</ele>
						<time>2026-09-01T22:41:02Z</time>
					</trkpt>
					<trkpt lat="48.326220" lon="-3.992900">
						<ele>180</ele>
						<time>2026-09-01T22:41:25Z</time>
					</trkpt>
					<trkpt lat="48.326010" lon="-3.992750">
						<ele>179</ele>
						<time>2026-09-01T22:41:36Z</time>
					</trkpt>
					<trkpt lat="48.326010" lon="-3.992710">
						<ele>179</ele>
						<time>2026-09-01T22:41:38Z</time>
					</trkpt>
					<trkpt lat="48.326220" lon="-3.992250">
						<ele>184</ele>
						<time>2026-09-01T22:41:56Z</time>
					</trkpt>
					<trkpt lat="48.326280" lon="-3.992160">
						<ele>185</ele>
						<time>2026-09-01T22:42:00Z</time>
					</trkpt>
					<trkpt lat="48.325950" lon="-3.991820">
						<ele>183</ele>
						<time>2026-09-01T22:42:20Z</time>
					</trkpt>
					<trkpt lat="48.325340" lon="-3.991110">
						<ele>183</ele>
						<time>2026-09-01T22:42:59Z</time>
					</trkpt>
					<trkpt lat="48.325160" lon="-3.990980">
						<ele>182</ele>
						<time>2026-09-01T22:43:09Z</time>
					</trkpt>
					<trkpt lat="48.324630" lon="-3.990730">
						<ele>180</ele>
						<time>2026-09-01T22:43:37Z</time>
					</trkpt>
					<trkpt lat="48.324490" lon="-3.990640">
						<ele>179</ele>
						<time>2026-09-01T22:43:44Z</time>
					</trkpt>
					<trkpt lat="48.324210" lon="-3.990380">
						<ele>178</ele>
						<time>2026-09-01T22:44:01Z</time>
					</trkpt>
					<trkpt lat="48.323970" lon="-3.990040">
						<ele>176</ele>
						<time>2026-09-01T22:44:17Z</time>
					</trkpt>
					<trkpt lat="48.323220" lon="-3.988680">
						<ele>174</ele>
						<time>2026-09-01T22:45:16Z</time>
					</trkpt>
					<trkpt lat="48.322760" lon="-3.987930">
						<ele>171</ele>
						<time>2026-09-01T22:45:50Z</time>
					</trkpt>
					<trkpt lat="48.322310" lon="-3.987570">
						<ele>168</ele>
						<time>2026-09-01T22:46:16Z</time>
					</trkpt>
					<trkpt lat="48.321730" lon="-3.987160">
						<ele>165</ele>
						<time>2026-09-01T22:46:48Z</time>
					</trkpt>
					<trkpt lat="48.321630" lon="-3.987030">
						<ele>164</ele>
						<time>2026-09-01T22:46:54Z</time>
					</trkpt>
					<trkpt lat="48.321470" lon="-3.987180">
						<ele>164</ele>
						<time>2026-09-01T22:47:04Z</time>
					</trkpt>
					<trkpt lat="48.320680" lon="-3.987500">
						<ele>163</ele>
						<time>2026-09-01T22:47:45Z</time>
					</trkpt>
					<trkpt lat="48.319810" lon="-3.987940">
						<ele>163</ele>
						<time>2026-09-01T22:48:31Z</time>
					</trkpt>
					<trkpt lat="48.319630" lon="-3.988010">
						<ele>163</ele>
						<time>2026-09-01T22:48:40Z</time>
					</trkpt>
					<trkpt lat="48.319320" lon="-3.988080">
						<ele>162</ele>
						<time>2026-09-01T22:48:56Z</time>
					</trkpt>
					<trkpt lat="48.319150" lon="-3.988050">
						<ele>162</ele>
						<time>2026-09-01T22:49:04Z</time>
					</trkpt>
					<trkpt lat="48.319010" lon="-3.987980">
						<ele>161</ele>
						<time>2026-09-01T22:49:12Z</time>
					</trkpt>
					<trkpt lat="48.318020" lon="-3.987340">
						<ele>155</ele>
						<time>2026-09-01T22:50:06Z</time>
					</trkpt>
					<trkpt lat="48.317160" lon="-3.986740">
						<ele>151</ele>
						<time>2026-09-01T22:50:53Z</time>
					</trkpt>
					<trkpt lat="48.316850" lon="-3.986460">
						<ele>151</ele>
						<time>2026-09-01T22:51:11Z</time>
					</trkpt>
					<trkpt lat="48.316470" lon="-3.986010">
						<ele>151</ele>
						<time>2026-09-01T22:51:35Z</time>
					</trkpt>
					<trkpt lat="48.315820" lon="-3.985030">
						<ele>151</ele>
						<time>2026-09-01T22:52:21Z</time>
					</trkpt>
					<trkpt lat="48.315150" lon="-3.984130">
						<ele>152</ele>
						<time>2026-09-01T22:53:06Z</time>
					</trkpt>
					<trkpt lat="48.314530" lon="-3.983040">
						<ele>147</ele>
						<time>2026-09-01T22:53:54Z</time>
					</trkpt>
					<trkpt lat="48.314260" lon="-3.983820">
						<ele>153</ele>
						<time>2026-09-01T22:54:23Z</time>
					</trkpt>
					<trkpt lat="48.314200" lon="-3.983870">
						<ele>154</ele>
						<time>2026-09-01T22:54:27Z</time>
					</trkpt>
					<trkpt lat="48.313970" lon="-3.983870">
						<ele>154</ele>
						<time>2026-09-01T22:54:38Z</time>
					</trkpt>
					<trkpt lat="48.313750" lon="-3.983830">
						<ele>153</ele>
						<time>2026-09-01T22:54:49Z</time>
					</trkpt>
					<trkpt lat="48.313410" lon="-3.983860">
						<ele>154</ele>
						<time>2026-09-01T22:55:06Z</time>
					</trkpt>
					<trkpt lat="48.313140" lon="-3.983920">
						<ele>155</ele>
						<time>2026-09-01T22:55:20Z</time>
					</trkpt>
					<trkpt lat="48.312980" lon="-3.983920">
						<ele>155</ele>
						<time>2026-09-01T22:55:28Z</time>
					</trkpt>
					<trkpt lat="48.312130" lon="-3.983800">
						<ele>155</ele>
						<time>2026-09-01T22:56:11Z</time>
					</trkpt>
					<trkpt lat="48.311870" lon="-3.983800">
						<ele>156</ele>
						<time>2026-09-01T22:56:24Z</time>
					</trkpt>
					<trkpt lat="48.311690" lon="-3.983860">
						<ele>157</ele>
						<time>2026-09-01T22:56:33Z</time>
					</trkpt>
					<trkpt lat="48.311350" lon="-3.984170">
						<ele>158</ele>
						<time>2026-09-01T22:56:53Z</time>
					</trkpt>
					<trkpt lat="48.311150" lon="-3.984400">
						<ele>159</ele>
						<time>2026-09-01T22:57:06Z</time>
					</trkpt>
					<trkpt lat="48.310990" lon="-3.984840">
						<ele>162</ele>
						<time>2026-09-01T22:57:22Z</time>
					</trkpt>
					<trkpt lat="48.310680" lon="-3.985490">
						<ele>164</ele>
						<time>2026-09-01T22:57:49Z</time>
					</trkpt>
					<trkpt lat="48.310170" lon="-3.986290">
						<ele>161</ele>
						<time>2026-09-01T22:58:26Z</time>
					</trkpt>
					<trkpt lat="48.309760" lon="-3.987020">
						<ele>155</ele>
						<time>2026-09-01T22:58:58Z</time>
					</trkpt>
					<trkpt lat="48.309690" lon="-3.987250">
						<ele>154</ele>
						<time>2026-09-01T22:59:06Z</time>
					</trkpt>
					<trkpt lat="48.309300" lon="-3.988040">
						<ele>150</ele>
						<time>2026-09-01T22:59:39Z</time>
					</trkpt>
					<trkpt lat="48.308820" lon="-3.988770">
						<ele>147</ele>
						<time>2026-09-01T23:00:13Z</time>
					</trkpt>
					<trkpt lat="48.308280" lon="-3.989420">
						<ele>144</ele>
						<time>2026-09-01T23:00:47Z</time>
					</trkpt>
					<trkpt lat="48.308190" lon="-3.989570">
						<ele>144</ele>
						<time>2026-09-01T23:00:54Z</time>
					</trkpt>
					<trkpt lat="48.307880" lon="-3.989960">
						<ele>145</ele>
						<time>2026-09-01T23:01:14Z</time>
					</trkpt>
					<trkpt lat="48.307790" lon="-3.990020">
						<ele>146</ele>
						<time>2026-09-01T23:01:19Z</time>
					</trkpt>
					<trkpt lat="48.307130" lon="-3.990230">
						<ele>147</ele>
						<time>2026-09-01T23:01:53Z</time>
					</trkpt>
					<trkpt lat="48.306800" lon="-3.990370">
						<ele>147</ele>
						<time>2026-09-01T23:02:10Z</time>
					</trkpt>
					<trkpt lat="48.306710" lon="-3.990430">
						<ele>147</ele>
						<time>2026-09-01T23:02:15Z</time>
					</trkpt>
					<trkpt lat="48.306630" lon="-3.990440">
						<ele>146</ele>
						<time>2026-09-01T23:02:19Z</time>
					</trkpt>
					<trkpt lat="48.306440" lon="-3.990810">
						<ele>145</ele>
						<time>2026-09-01T23:02:35Z</time>
					</trkpt>
					<trkpt lat="48.306400" lon="-3.990980">
						<ele>144</ele>
						<time>2026-09-01T23:02:41Z</time>
					</trkpt>
					<trkpt lat="48.306390" lon="-3.991180">
						<ele>145</ele>
						<time>2026-09-01T23:02:47Z</time>
					</trkpt>
					<trkpt lat="48.306330" lon="-3.991430">
						<ele>144</ele>
						<time>2026-09-01T23:02:56Z</time>
					</trkpt>
					<trkpt lat="48.306180" lon="-3.991770">
						<ele>143</ele>
						<time>2026-09-01T23:03:10Z</time>
					</trkpt>
					<trkpt lat="48.305600" lon="-3.992820">
						<ele>137</ele>
						<time>2026-09-01T23:03:55Z</time>
					</trkpt>
					<trkpt lat="48.305180" lon="-3.993640">
						<ele>127</ele>
						<time>2026-09-01T23:04:30Z</time>
					</trkpt>
					<trkpt lat="48.304970" lon="-3.993970">
						<ele>122</ele>
						<time>2026-09-01T23:04:45Z</time>
					</trkpt>
					<trkpt lat="48.304820" lon="-3.994140">
						<ele>119</ele>
						<time>2026-09-01T23:04:54Z</time>
					</trkpt>
					<trkpt lat="48.304680" lon="-3.994350">
						<ele>116</ele>
						<time>2026-09-01T23:05:04Z</time>
					</trkpt>
					<trkpt lat="48.304610" lon="-3.994480">
						<ele>114</ele>
						<time>2026-09-01T23:05:10Z</time>
					</trkpt>
					<trkpt lat="48.304600" lon="-3.994600">
						<ele>113</ele>
						<time>2026-09-01T23:05:14Z</time>
					</trkpt>
					<trkpt lat="48.304060" lon="-3.995440">
						<ele>106</ele>
						<time>2026-09-01T23:05:53Z</time>
					</trkpt>
					<trkpt lat="48.303900" lon="-3.995750">
						<ele>102</ele>
						<time>2026-09-01T23:06:06Z</time>
					</trkpt>
					<trkpt lat="48.303830" lon="-3.995850">
						<ele>101</ele>
						<time>2026-09-01T23:06:11Z</time>
					</trkpt>
					<trkpt lat="48.303740" lon="-3.995910">
						<ele>99</ele>
						<time>2026-09-01T23:06:16Z</time>
					</trkpt>
					<trkpt lat="48.303530" lon="-3.995990">
						<ele>96</ele>
						<time>2026-09-01T23:06:26Z</time>
					</trkpt>
					<trkpt lat="48.303230" lon="-3.996340">
						<ele>90</ele>
						<time>2026-09-01T23:06:45Z</time>
					</trkpt>
					<trkpt lat="48.302770" lon="-3.996770">
						<ele>83</ele>
						<time>2026-09-01T23:07:13Z</time>
					</trkpt>
					<trkpt lat="48.302030" lon="-3.997690">
						<ele>72</ele>
						<time>2026-09-01T23:08:01Z</time>
					</trkpt>
					<trkpt lat="48.301770" lon="-3.998130">
						<ele>69</ele>
						<time>2026-09-01T23:08:20Z</time>
					</trkpt>
					<trkpt lat="48.301670" lon="-3.998540">
						<ele>68</ele>
						<time>2026-09-01T23:08:35Z</time>
					</trkpt>
					<trkpt lat="48.301520" lon="-3.998950">
						<ele>67</ele>
						<time>2026-09-01T23:08:50Z</time>
					</trkpt>
					<trkpt lat="48.301410" lon="-3.999130">
						<ele>66</ele>
						<time>2026-09-01T23:08:58Z</time>
					</trkpt>
					<trkpt lat="48.301200" lon="-3.999390">
						<ele>66</ele>
						<time>2026-09-01T23:09:12Z</time>
					</trkpt>
					<trkpt lat="48.301100" lon="-3.999780">
						<ele>65</ele>
						<time>2026-09-01T23:09:26Z</time>
					</trkpt>
					<trkpt lat="48.300870" lon="-4.000420">
						<ele>63</ele>
						<time>2026-09-01T23:09:50Z</time>
					</trkpt>
					<trkpt lat="48.300510" lon="-4.000250">
						<ele>63</ele>
						<time>2026-09-01T23:10:09Z</time>
					</trkpt>
					<trkpt lat="48.300260" lon="-4.000240">
						<ele>64</ele>
						<time>2026-09-01T23:10:22Z</time>
					</trkpt>
					<trkpt lat="48.300180" lon="-4.001380">
						<ele>62</ele>
						<time>2026-09-01T23:11:00Z</time>
					</trkpt>
					<trkpt lat="48.300210" lon="-4.001720">
						<ele>62</ele>
						<time>2026-09-01T23:11:11Z</time>
					</trkpt>
					<trkpt lat="48.300190" lon="-4.001970">
						<ele>63</ele>
						<time>2026-09-01T23:11:20Z</time>
					</trkpt>
					<trkpt lat="48.300220" lon="-4.002550">
						<ele>64</ele>
						<time>2026-09-01T23:11:39Z</time>
					</trkpt>
					<trkpt lat="48.300310" lon="-4.002550">
						<ele>64</ele>
						<time>2026-09-01T23:11:43Z</time>
					</trkpt>
					<trkpt lat="48.300440" lon="-4.002600">
						<ele>64</ele>
						<time>2026-09-01T23:11:50Z</time>
					</trkpt>
					<trkpt lat="48.300610" lon="-4.002720">
						<ele>65</ele>
						<time>2026-09-01T23:11:59Z</time>
					</trkpt>
					<trkpt lat="48.300880" lon="-4.003100">
						<ele>68</ele>
						<time>2026-09-01T23:12:18Z</time>
					</trkpt>
					<trkpt lat="48.301180" lon="-4.003590">
						<ele>69</ele>
						<time>2026-09-01T23:12:40Z</time>
					</trkpt>
					<trkpt lat="48.301350" lon="-4.003630">
						<ele>68</ele>
						<time>2026-09-01T23:12:49Z</time>
					</trkpt>
					<trkpt lat="48.301440" lon="-4.003610">
						<ele>67</ele>
						<time>2026-09-01T23:12:53Z</time>
					</trkpt>
					<trkpt lat="48.301560" lon="-4.003530">
						<ele>66</ele>
						<time>2026-09-01T23:13:00Z</time>
					</trkpt>
					<trkpt lat="48.301770" lon="-4.003440">
						<ele>64</ele>
						<time>2026-09-01T23:13:11Z</time>
					</trkpt>
					<trkpt lat="48.301930" lon="-4.003460">
						<ele>64</ele>
						<time>2026-09-01T23:13:19Z</time>
					</trkpt>
					<trkpt lat="48.302200" lon="-4.003550">
						<ele>64</ele>
						<time>2026-09-01T23:13:33Z</time>
					</trkpt>
					<trkpt lat="48.302740" lon="-4.003670">
						<ele>64</ele>
						<time>2026-09-01T23:14:00Z</time>
					</trkpt>
					<trkpt lat="48.303350" lon="-4.003610">
						<ele>63</ele>
						<time>2026-09-01T23:14:31Z</time>
					</trkpt>
					<trkpt lat="48.304000" lon="-4.003630">
						<ele>66</ele>
						<time>2026-09-01T23:15:03Z</time>
					</trkpt>
					<trkpt lat="48.304440" lon="-4.003530">
						<ele>69</ele>
						<time>2026-09-01T23:15:25Z</time>
					</trkpt>
					<trkpt lat="48.304770" lon="-4.003420">
						<ele>70</ele>
						<time>2026-09-01T23:15:42Z</time>
					</trkpt>
					<trkpt lat="48.305300" lon="-4.003190">
						<ele>71</ele>
						<time>2026-09-01T23:16:10Z</time>
					</trkpt>
					<trkpt lat="48.305770" lon="-4.003050">
						<ele>73</ele>
						<time>2026-09-01T23:16:34Z</time>
					</trkpt>
					<trkpt lat="48.306410" lon="-4.002820">
						<ele>73</ele>
						<time>2026-09-01T23:17:07Z</time>
					</trkpt>
					<trkpt lat="48.306800" lon="-4.002770">
						<ele>74</ele>
						<time>2026-09-01T23:17:26Z</time>
					</trkpt>
					<trkpt lat="48.307030" lon="-4.002780">
						<ele>74</ele>
						<time>2026-09-01T23:17:38Z</time>
					</trkpt>
					<trkpt lat="48.307240" lon="-4.002880">
						<ele>74</ele>
						<time>2026-09-01T23:17:49Z</time>
					</trkpt>
					<trkpt lat="48.307700" lon="-4.003180">
						<ele>76</ele>
						<time>2026-09-01T23:18:14Z</time>
					</trkpt>
					<trkpt lat="48.308000" lon="-4.003250">
						<ele>75</ele>
						<time>2026-09-01T23:18:29Z</time>
					</trkpt>
					<trkpt lat="48.308600" lon="-4.003690">
						<ele>79</ele>
						<time>2026-09-01T23:19:03Z</time>
					</trkpt>
					<trkpt lat="48.309260" lon="-4.004260">
						<ele>88</ele>
						<time>2026-09-01T23:19:41Z</time>
					</trkpt>
					<trkpt lat="48.309320" lon="-4.003820">
						<ele>86</ele>
						<time>2026-09-01T23:19:56Z</time>
					</trkpt>
					<trkpt lat="48.309370" lon="-4.003650">
						<ele>85</ele>
						<time>2026-09-01T23:20:02Z</time>
					</trkpt>
					<trkpt lat="48.309440" lon="-4.003550">
						<ele>84</ele>
						<time>2026-09-01T23:20:07Z</time>
					</trkpt>
					<trkpt lat="48.309960" lon="-4.003180">
						<ele>84</ele>
						<time>2026-09-01T23:20:35Z</time>
					</trkpt>
					<trkpt lat="48.310060" lon="-4.003040">
						<ele>82</ele>
						<time>2026-09-01T23:20:42Z</time>
					</trkpt>
					<trkpt lat="48.310090" lon="-4.002940">
						<ele>81</ele>
						<time>2026-09-01T23:20:46Z</time>
					</trkpt>
					<trkpt lat="48.310070" lon="-4.001610">
						<ele>72</ele>
						<time>2026-09-01T23:21:30Z</time>
					</trkpt>
					<trkpt lat="48.310160" lon="-4.000990">
						<ele>72</ele>
						<time>2026-09-01T23:21:51Z</time>
					</trkpt>
					<trkpt lat="48.311270" lon="-4.000140">
						<ele>78</ele>
						<time>2026-09-01T23:22:54Z</time>
					</trkpt>
					<trkpt lat="48.311610" lon="-4.000110">
						<ele>79</ele>
						<time>2026-09-01T23:23:11Z</time>
					</trkpt>
					<trkpt lat="48.311970" lon="-3.999850">
						<ele>82</ele>
						<time>2026-09-01T23:23:31Z</time>
					</trkpt>
					<trkpt lat="48.312210" lon="-3.999800">
						<ele>82</ele>
						<time>2026-09-01T23:23:43Z</time>
					</trkpt>
					<trkpt lat="48.312680" lon="-4.000410">
						<ele>81</ele>
						<time>2026-09-01T23:24:14Z</time>
					</trkpt>
					<trkpt lat="48.312950" lon="-4.000420">
						<ele>82</ele>
						<time>2026-09-01T23:24:27Z</time>
					</trkpt>
					<trkpt lat="48.313140" lon="-3.999880">
						<ele>83</ele>
						<time>2026-09-01T23:24:48Z</time>
					</trkpt>
					<trkpt lat="48.313720" lon="-3.999840">
						<ele>86</ele>
						<time>2026-09-01T23:25:17Z</time>
					</trkpt>
					<trkpt lat="48.313930" lon="-4.000030">
						<ele>85</ele>
						<time>2026-09-01T23:25:29Z</time>
					</trkpt>
					<trkpt lat="48.314350" lon="-4.000230">
						<ele>88</ele>
						<time>2026-09-01T23:25:51Z</time>
					</trkpt>
					<trkpt lat="48.314650" lon="-4.000500">
						<ele>88</ele>
						<time>2026-09-01T23:26:09Z</time>
					</trkpt>
					<trkpt lat="48.315000" lon="-4.001040">
						<ele>86</ele>
						<time>2026-09-01T23:26:34Z</time>
					</trkpt>
					<trkpt lat="48.315190" lon="-4.001390">
						<ele>87</ele>
						<time>2026-09-01T23:26:49Z</time>
					</trkpt>
					<trkpt lat="48.315320" lon="-4.001690">
						<ele>87</ele>
						<time>2026-09-01T23:27:01Z</time>
					</trkpt>
					<trkpt lat="48.315600" lon="-4.001890">
						<ele>86</ele>
						<time>2026-09-01T23:27:16Z</time>
					</trkpt>
					<trkpt lat="48.315790" lon="-4.002130">
						<ele>85</ele>
						<time>2026-09-01T23:27:29Z</time>
					</trkpt>
					<trkpt lat="48.316480" lon="-4.002710">
						<ele>87</ele>
						<time>2026-09-01T23:28:08Z</time>
					</trkpt>
					<trkpt lat="48.317250" lon="-4.003250">
						<ele>88</ele>
						<time>2026-09-01T23:28:51Z</time>
					</trkpt>
					<trkpt lat="48.317480" lon="-4.003550">
						<ele>89</ele>
						<time>2026-09-01T23:29:06Z</time>
					</trkpt>
					<trkpt lat="48.317470" lon="-4.003660">
						<ele>90</ele>
						<time>2026-09-01T23:29:10Z</time>
					</trkpt>
					<trkpt lat="48.317510" lon="-4.003750">
						<ele>90</ele>
						<time>2026-09-01T23:29:13Z</time>
					</trkpt>
					<trkpt lat="48.317790" lon="-4.003910">
						<ele>90</ele>
						<time>2026-09-01T23:29:28Z</time>
					</trkpt>
					<trkpt lat="48.317910" lon="-4.004080">
						<ele>91</ele>
						<time>2026-09-01T23:29:36Z</time>
					</trkpt>
					<trkpt lat="48.318010" lon="-4.004280">
						<ele>91</ele>
						<time>2026-09-01T23:29:45Z</time>
					</trkpt>
					<trkpt lat="48.318130" lon="-4.004310">
						<ele>91</ele>
						<time>2026-09-01T23:29:51Z</time>
					</trkpt>
					<trkpt lat="48.318280" lon="-4.004240">
						<ele>90</ele>
						<time>2026-09-01T23:29:59Z</time>
					</trkpt>
					<trkpt lat="48.318360" lon="-4.004330">
						<ele>91</ele>
						<time>2026-09-01T23:30:04Z</time>
					</trkpt>
					<trkpt lat="48.318430" lon="-4.004490">
						<ele>91</ele>
						<time>2026-09-01T23:30:10Z</time>
					</trkpt>
					<trkpt lat="48.318570" lon="-4.005700">
						<ele>95</ele>
						<time>2026-09-01T23:30:51Z</time>
					</trkpt>
					<trkpt lat="48.318650" lon="-4.006090">
						<ele>97</ele>
						<time>2026-09-01T23:31:05Z</time>
					</trkpt>
					<trkpt lat="48.318700" lon="-4.006510">
						<ele>99</ele>
						<time>2026-09-01T23:31:19Z</time>
					</trkpt>
					<trkpt lat="48.318710" lon="-4.006650">
						<ele>99</ele>
						<time>2026-09-01T23:31:23Z</time>
					</trkpt>
					<trkpt lat="48.318690" lon="-4.006760">
						<ele>100</ele>
						<time>2026-09-01T23:31:27Z</time>
					</trkpt>
					<trkpt lat="48.318610" lon="-4.006930">
						<ele>101</ele>
						<time>2026-09-01T23:31:34Z</time>
					</trkpt>
					<trkpt lat="48.318640" lon="-4.007220">
						<ele>102</ele>
						<time>2026-09-01T23:31:44Z</time>
					</trkpt>
					<trkpt lat="48.318770" lon="-4.007860">
						<ele>107</ele>
						<time>2026-09-01T23:32:06Z</time>
					</trkpt>
					<trkpt lat="48.319580" lon="-4.008410">
						<ele>110</ele>
						<time>2026-09-01T23:32:51Z</time>
					</trkpt>
					<trkpt lat="48.319710" lon="-4.008430">
						<ele>110</ele>
						<time>2026-09-01T23:32:57Z</time>
					</trkpt>
					<trkpt lat="48.319890" lon="-4.008390">
						<ele>108</ele>
						<time>2026-09-01T23:33:06Z</time>
					</trkpt>
					<trkpt lat="48.320120" lon="-4.008480">
						<ele>109</ele>
						<time>2026-09-01T23:33:18Z</time>
					</trkpt>
					<trkpt lat="48.320790" lon="-4.008840">
						<ele>115</ele>
						<time>2026-09-01T23:33:54Z</time>
					</trkpt>
					<trkpt lat="48.321260" lon="-4.008970">
						<ele>112</ele>
						<time>2026-09-01T23:34:18Z</time>
					</trkpt>
					<trkpt lat="48.321450" lon="-4.009070">
						<ele>110</ele>
						<time>2026-09-01T23:34:28Z</time>
					</trkpt>
					<trkpt lat="48.321520" lon="-4.009160">
						<ele>109</ele>
						<time>2026-09-01T23:34:32Z</time>
					</trkpt>
					<trkpt lat="48.321650" lon="-4.009470">
						<ele>113</ele>
						<time>2026-09-01T23:34:45Z</time>
					</trkpt>
					<trkpt lat="48.322270" lon="-4.010370">
						<ele>122</ele>
						<time>2026-09-01T23:35:28Z</time>
					</trkpt>
					<trkpt lat="48.322590" lon="-4.010900">
						<ele>124</ele>
						<time>2026-09-01T23:35:52Z</time>
					</trkpt>
					<trkpt lat="48.322800" lon="-4.011150">
						<ele>130</ele>
						<time>2026-09-01T23:36:05Z</time>
					</trkpt>
					<trkpt lat="48.322930" lon="-4.011260">
						<ele>131</ele>
						<time>2026-09-01T23:36:12Z</time>
					</trkpt>
					<trkpt lat="48.323310" lon="-4.011430">
						<ele>130</ele>
						<time>2026-09-01T23:36:32Z</time>
					</trkpt>
					<trkpt lat="48.323500" lon="-4.011450">
						<ele>130</ele>
						<time>2026-09-01T23:36:42Z</time>
					</trkpt>
					<trkpt lat="48.323730" lon="-4.011390">
						<ele>128</ele>
						<time>2026-09-01T23:36:54Z</time>
					</trkpt>
					<trkpt lat="48.324050" lon="-4.011200">
						<ele>124</ele>
						<time>2026-09-01T23:37:11Z</time>
					</trkpt>
					<trkpt lat="48.324150" lon="-4.011180">
						<ele>124</ele>
						<time>2026-09-01T23:37:16Z</time>
					</trkpt>
					<trkpt lat="48.324530" lon="-4.011020">
						<ele>123</ele>
						<time>2026-09-01T23:37:36Z</time>
					</trkpt>
					<trkpt lat="48.324770" lon="-4.010950">
						<ele>123</ele>
						<time>2026-09-01T23:37:48Z</time>
					</trkpt>
					<trkpt lat="48.324900" lon="-4.010960">
						<ele>124</ele>
						<time>2026-09-01T23:37:54Z</time>
					</trkpt>
					<trkpt lat="48.325550" lon="-4.011230">
						<ele>129</ele>
						<time>2026-09-01T23:38:28Z</time>
					</trkpt>
					<trkpt lat="48.325860" lon="-4.011630">
						<ele>131</ele>
						<time>2026-09-01T23:38:48Z</time>
					</trkpt>
					<trkpt lat="48.326670" lon="-4.011950">
						<ele>136</ele>
						<time>2026-09-01T23:39:30Z</time>
					</trkpt>
					<trkpt lat="48.326970" lon="-4.012250">
						<ele>138</ele>
						<time>2026-09-01T23:39:48Z</time>
					</trkpt>
					<trkpt lat="48.327170" lon="-4.012640">
						<ele>140</ele>
						<time>2026-09-01T23:40:05Z</time>
					</trkpt>
					<trkpt lat="48.327310" lon="-4.013360">
						<ele>143</ele>
						<time>2026-09-01T23:40:30Z</time>
					</trkpt>
					<trkpt lat="48.327280" lon="-4.013770">
						<ele>144</ele>
						<time>2026-09-01T23:40:43Z</time>
					</trkpt>
					<trkpt lat="48.327100" lon="-4.014400">
						<ele>151</ele>
						<time>2026-09-01T23:41:06Z</time>
					</trkpt>
					<trkpt lat="48.326960" lon="-4.014680">
						<ele>156</ele>
						<time>2026-09-01T23:41:18Z</time>
					</trkpt>
					<trkpt lat="48.326790" lon="-4.014860">
						<ele>162</ele>
						<time>2026-09-01T23:41:28Z</time>
					</trkpt>
					<trkpt lat="48.326640" lon="-4.015090">
						<ele>167</ele>
						<time>2026-09-01T23:41:39Z</time>
					</trkpt>
					<trkpt lat="48.326500" lon="-4.015440">
						<ele>170</ele>
						<time>2026-09-01T23:41:53Z</time>
					</trkpt>
					<trkpt lat="48.326080" lon="-4.016210">
						<ele>182</ele>
						<time>2026-09-01T23:42:26Z</time>
					</trkpt>
					<trkpt lat="48.325990" lon="-4.016470">
						<ele>184</ele>
						<time>2026-09-01T23:42:36Z</time>
					</trkpt>
					<trkpt lat="48.325450" lon="-4.017420">
						<ele>198</ele>
						<time>2026-09-01T23:43:17Z</time>
					</trkpt>
					<trkpt lat="48.325340" lon="-4.017520">
						<ele>201</ele>
						<time>2026-09-01T23:43:24Z</time>
					</trkpt>
					<trkpt lat="48.325190" lon="-4.017800">
						<ele>206</ele>
						<time>2026-09-01T23:43:36Z</time>
					</trkpt>
					<trkpt lat="48.324930" lon="-4.018470">
						<ele>214</ele>
						<time>2026-09-01T23:44:01Z</time>
					</trkpt>
					<trkpt lat="48.324710" lon="-4.019200">
						<ele>220</ele>
						<time>2026-09-01T23:44:28Z</time>
					</trkpt>
					<trkpt lat="48.324570" lon="-4.019430">
						<ele>221</ele>
						<time>2026-09-01T23:44:38Z</time>
					</trkpt>
					<trkpt lat="48.324370" lon="-4.019660">
						<ele>224</ele>
						<time>2026-09-01T23:44:51Z</time>
					</trkpt>
					<trkpt lat="48.323740" lon="-4.020160">
						<ele>231</ele>
						<time>2026-09-01T23:45:27Z</time>
					</trkpt>
					<trkpt lat="48.323780" lon="-4.020280">
						<ele>230</ele>
						<time>2026-09-01T23:45:31Z</time>
					</trkpt>
					<trkpt lat="48.323780" lon="-4.020420">
						<ele>229</ele>
						<time>2026-09-01T23:45:36Z</time>
					</trkpt>
					<trkpt lat="48.323750" lon="-4.020550">
						<ele>229</ele>
						<time>2026-09-01T23:45:40Z</time>
					</trkpt>
					<trkpt lat="48.322330" lon="-4.023010">
						<ele>231</ele>
						<time>2026-09-01T23:47:29Z</time>
					</trkpt>
					<trkpt lat="48.322170" lon="-4.023210">
						<ele>230</ele>
						<time>2026-09-01T23:47:39Z</time>
					</trkpt>
					<trkpt lat="48.321890" lon="-4.023470">
						<ele>230</ele>
						<time>2026-09-01T23:47:56Z</time>
					</trkpt>
					<trkpt lat="48.321640" lon="-4.023760">
						<ele>230</ele>
						<time>2026-09-01T23:48:11Z</time>
					</trkpt>
					<trkpt lat="48.321390" lon="-4.024180">
						<ele>230</ele>
						<time>2026-09-01T23:48:30Z</time>
					</trkpt>
					<trkpt lat="48.320920" lon="-4.024850">
						<ele>231</ele>
						<time>2026-09-01T23:49:03Z</time>
					</trkpt>
					<trkpt lat="48.320570" lon="-4.025230">
						<ele>230</ele>
						<time>2026-09-01T23:49:24Z</time>
					</trkpt>
					<trkpt lat="48.320190" lon="-4.025530">
						<ele>229</ele>
						<time>2026-09-01T23:49:46Z</time>
					</trkpt>
					<trkpt lat="48.320130" lon="-4.025610">
						<ele>229</ele>
						<time>2026-09-01T23:49:50Z</time>
					</trkpt>
					<trkpt lat="48.320090" lon="-4.025780">
						<ele>230</ele>
						<time>2026-09-01T23:49:56Z</time>
					</trkpt>
					<trkpt lat="48.320070" lon="-4.026380">
						<ele>234</ele>
						<time>2026-09-01T23:50:16Z</time>
					</trkpt>
					<trkpt lat="48.319960" lon="-4.027550">
						<ele>239</ele>
						<time>2026-09-01T23:50:55Z</time>
					</trkpt>
					<trkpt lat="48.319900" lon="-4.028130">
						<ele>241</ele>
						<time>2026-09-01T23:51:14Z</time>
					</trkpt>
					<trkpt lat="48.319840" lon="-4.028450">
						<ele>242</ele>
						<time>2026-09-01T23:51:26Z</time>
					</trkpt>
					<trkpt lat="48.319700" lon="-4.028850">
						<ele>242</ele>
						<time>2026-09-01T23:51:41Z</time>
					</trkpt>
					<trkpt lat="48.319580" lon="-4.029100">
						<ele>242</ele>
						<time>2026-09-01T23:51:51Z</time>
					</trkpt>
					<trkpt lat="48.319310" lon="-4.029520">
						<ele>240</ele>
						<time>2026-09-01T23:52:10Z</time>
					</trkpt>
					<trkpt lat="48.319030" lon="-4.029800">
						<ele>239</ele>
						<time>2026-09-01T23:52:27Z</time>
					</trkpt>
					<trkpt lat="48.319010" lon="-4.029970">
						<ele>239</ele>
						<time>2026-09-01T23:52:33Z</time>
					</trkpt>
					<trkpt lat="48.318900" lon="-4.030270">
						<ele>240</ele>
						<time>2026-09-01T23:52:44Z</time>
					</trkpt>
					<trkpt lat="48.318840" lon="-4.030370">
						<ele>240</ele>
						<time>2026-09-01T23:52:49Z</time>
					</trkpt>
					<trkpt lat="48.318780" lon="-4.030420">
						<ele>240</ele>
						<time>2026-09-01T23:52:52Z</time>
					</trkpt>
					<trkpt lat="48.318640" lon="-4.031560">
						<ele>243</ele>
						<time>2026-09-01T23:53:31Z</time>
					</trkpt>
					<trkpt lat="48.318640" lon="-4.032100">
						<ele>243</ele>
						<time>2026-09-01T23:53:49Z</time>
					</trkpt>
					<trkpt lat="48.318680" lon="-4.032420">
						<ele>244</ele>
						<time>2026-09-01T23:54:00Z</time>
					</trkpt>
					<trkpt lat="48.318820" lon="-4.033110">
						<ele>246</ele>
						<time>2026-09-01T23:54:24Z</time>
					</trkpt>
					<trkpt lat="48.319670" lon="-4.036300">
						<ele>247</ele>
						<time>2026-09-01T23:56:18Z</time>
					</trkpt>
					<trkpt lat="48.319820" lon="-4.037040">
						<ele>250</ele>
						<time>2026-09-01T23:56:44Z</time>
					</trkpt>
					<trkpt lat="48.320070" lon="-4.038830">
						<ele>256</ele>
						<time>2026-09-01T23:57:45Z</time>
					</trkpt>
					<trkpt lat="48.320330" lon="-4.040950">
						<ele>259</ele>
						<time>2026-09-01T23:58:56Z</time>
					</trkpt>
					<trkpt lat="48.320400" lon="-4.044230">
						<ele>263</ele>
						<time>2026-09-02T00:00:45Z</time>
					</trkpt>
					<trkpt lat="48.320460" lon="-4.044790">
						<ele>264</ele>
						<time>2026-09-02T00:01:04Z</time>
					</trkpt>
					<trkpt lat="48.320550" lon="-4.045220">
						<ele>265</ele>
						<time>2026-09-02T00:01:19Z</time>
					</trkpt>
					<trkpt lat="48.320700" lon="-4.045690">
						<ele>267</ele>
						<time>2026-09-02T00:01:37Z</time>
					</trkpt>
					<trkpt lat="48.320970" lon="-4.046250">
						<ele>268</ele>
						<time>2026-09-02T00:02:00Z</time>
					</trkpt>
					<trkpt lat="48.321230" lon="-4.046720">
						<ele>270</ele>
						<time>2026-09-02T00:02:20Z</time>
					</trkpt>
					<trkpt lat="48.321330" lon="-4.046840">
						<ele>271</ele>
						<time>2026-09-02T00:02:26Z</time>
					</trkpt>
					<trkpt lat="48.321410" lon="-4.046880">
						<ele>271</ele>
						<time>2026-09-02T00:02:31Z</time>
					</trkpt>
					<trkpt lat="48.321520" lon="-4.047220">
						<ele>274</ele>
						<time>2026-09-02T00:02:43Z</time>
					</trkpt>
					<trkpt lat="48.321630" lon="-4.047450">
						<ele>275</ele>
						<time>2026-09-02T00:02:53Z</time>
					</trkpt>
					<trkpt lat="48.323630" lon="-4.050960">
						<ele>284</ele>
						<time>2026-09-02T00:05:27Z</time>
					</trkpt>
					<trkpt lat="48.323800" lon="-4.051210">
						<ele>285</ele>
						<time>2026-09-02T00:05:38Z</time>
					</trkpt>
					<trkpt lat="48.324000" lon="-4.051380">
						<ele>286</ele>
						<time>2026-09-02T00:05:50Z</time>
					</trkpt>
					<trkpt lat="48.324210" lon="-4.051470">
						<ele>287</ele>
						<time>2026-09-02T00:06:01Z</time>
					</trkpt>
					<trkpt lat="48.324420" lon="-4.051480">
						<ele>288</ele>
						<time>2026-09-02T00:06:11Z</time>
					</trkpt>
					<trkpt lat="48.324740" lon="-4.051400">
						<ele>291</ele>
						<time>2026-09-02T00:06:28Z</time>
					</trkpt>
					<trkpt lat="48.326010" lon="-4.050970">
						<ele>296</ele>
						<time>2026-09-02T00:07:33Z</time>
					</trkpt>
					<trkpt lat="48.327170" lon="-4.050490">
						<ele>299</ele>
						<time>2026-09-02T00:08:33Z</time>
					</trkpt>
					<trkpt lat="48.327320" lon="-4.051170">
						<ele>300</ele>
						<time>2026-09-02T00:08:57Z</time>
					</trkpt>
					<trkpt lat="48.329050" lon="-4.049840">
						<ele>299</ele>
						<time>2026-09-02T00:10:34Z</time>
					</trkpt>
					<trkpt lat="48.330110" lon="-4.049380">
						<ele>298</ele>
						<time>2026-09-02T00:11:29Z</time>
					</trkpt>
					<trkpt lat="48.330750" lon="-4.049060">
						<ele>300</ele>
						<time>2026-09-02T00:12:03Z</time>
					</trkpt>
					<trkpt lat="48.331120" lon="-4.049150">
						<ele>299</ele>
						<time>2026-09-02T00:12:22Z</time>
					</trkpt>
					<trkpt lat="48.331400" lon="-4.049190">
						<ele>298</ele>
						<time>2026-09-02T00:12:36Z</time>
					</trkpt>
					<trkpt lat="48.331630" lon="-4.049080">
						<ele>299</ele>
						<time>2026-09-02T00:12:48Z</time>
					</trkpt>
					<trkpt lat="48.332320" lon="-4.049080">
						<ele>300</ele>
						<time>2026-09-02T00:13:22Z</time>
					</trkpt>
					<trkpt lat="48.333230" lon="-4.049340">
						<ele>299</ele>
						<time>2026-09-02T00:14:09Z</time>
					</trkpt>
					<trkpt lat="48.334700" lon="-4.049840">
						<ele>303</ele>
						<time>2026-09-02T00:15:24Z</time>
					</trkpt>
					<trkpt lat="48.335670" lon="-4.050010">
						<ele>305</ele>
						<time>2026-09-02T00:16:13Z</time>
					</trkpt>
					<trkpt lat="48.336380" lon="-4.049860">
						<ele>306</ele>
						<time>2026-09-02T00:16:49Z</time>
					</trkpt>
					<trkpt lat="48.337120" lon="-4.049880">
						<ele>307</ele>
						<time>2026-09-02T00:17:26Z</time>
					</trkpt>
					<trkpt lat="48.342070" lon="-4.048980">
						<ele>306</ele>
						<time>2026-09-02T00:21:35Z</time>
					</trkpt>
					<trkpt lat="48.343070" lon="-4.048630">
						<ele>311</ele>
						<time>2026-09-02T00:22:27Z</time>
					</trkpt>
					<trkpt lat="48.344360" lon="-4.048440">
						<ele>313</ele>
						<time>2026-09-02T00:23:32Z</time>
					</trkpt>
					<trkpt lat="48.345350" lon="-4.048050">
						<ele>316</ele>
						<time>2026-09-02T00:24:23Z</time>
					</trkpt>
					<trkpt lat="48.345880" lon="-4.047670">
						<ele>318</ele>
						<time>2026-09-02T00:24:52Z</time>
					</trkpt>
					<trkpt lat="48.346890" lon="-4.046850">
						<ele>309</ele>
						<time>2026-09-02T00:25:50Z</time>
					</trkpt>
					<trkpt lat="48.347820" lon="-4.046160">
						<ele>299</ele>
						<time>2026-09-02T00:26:42Z</time>
					</trkpt>
					<trkpt lat="48.348180" lon="-4.046000">
						<ele>295</ele>
						<time>2026-09-02T00:27:00Z</time>
					</trkpt>
					<trkpt lat="48.348860" lon="-4.045880">
						<ele>287</ele>
						<time>2026-09-02T00:27:35Z</time>
					</trkpt>
					<trkpt lat="48.349120" lon="-4.046020">
						<ele>285</ele>
						<time>2026-09-02T00:27:48Z</time>
					</trkpt>
					<trkpt lat="48.349520" lon="-4.046140">
						<ele>281</ele>
						<time>2026-09-02T00:28:09Z</time>
					</trkpt>
					<trkpt lat="48.350010" lon="-4.046470">
						<ele>274</ele>
						<time>2026-09-02T00:28:36Z</time>
					</trkpt>
					<trkpt lat="48.352550" lon="-4.047970">
						<ele>256</ele>
						<time>2026-09-02T00:30:52Z</time>
					</trkpt>
					<trkpt lat="48.354730" lon="-4.048900">
						<ele>252</ele>
						<time>2026-09-02T00:32:46Z</time>
					</trkpt>
					<trkpt lat="48.357240" lon="-4.050080">
						<ele>247</ele>
						<time>2026-09-02T00:34:57Z</time>
					</trkpt>
					<trkpt lat="48.357690" lon="-4.050130">
						<ele>242</ele>
						<time>2026-09-02T00:35:20Z</time>
					</trkpt>
					<trkpt lat="48.357800" lon="-4.048170">
						<ele>236</ele>
						<time>2026-09-02T00:36:25Z</time>
					</trkpt>
					<trkpt lat="48.357910" lon="-4.048050">
						<ele>236</ele>
						<time>2026-09-02T00:36:32Z</time>
					</trkpt>
					<trkpt lat="48.357960" lon="-4.047890">
						<ele>236</ele>
						<time>2026-09-02T00:36:38Z</time>
					</trkpt>
					<trkpt lat="48.358050" lon="-4.046660">
						<ele>235</ele>
						<time>2026-09-02T00:37:19Z</time>
					</trkpt>
					<trkpt lat="48.358140" lon="-4.045810">
						<ele>236</ele>
						<time>2026-09-02T00:37:48Z</time>
					</trkpt>
					<trkpt lat="48.358370" lon="-4.044800">
						<ele>238</ele>
						<time>2026-09-02T00:38:23Z</time>
					</trkpt>
					<trkpt lat="48.358780" lon="-4.043620">
						<ele>242</ele>
						<time>2026-09-02T00:39:08Z</time>
					</trkpt>
					<trkpt lat="48.358920" lon="-4.042880">
						<ele>244</ele>
						<time>2026-09-02T00:39:33Z</time>
					</trkpt>
					<trkpt lat="48.359090" lon="-4.042330">
						<ele>247</ele>
						<time>2026-09-02T00:39:53Z</time>
					</trkpt>
					<trkpt lat="48.359300" lon="-4.040340">
						<ele>249</ele>
						<time>2026-09-02T00:41:00Z</time>
					</trkpt>
					<trkpt lat="48.359360" lon="-4.039210">
						<ele>250</ele>
						<time>2026-09-02T00:41:38Z</time>
					</trkpt>
					<trkpt lat="48.359380" lon="-4.038340">
						<ele>249</ele>
						<time>2026-09-02T00:42:07Z</time>
					</trkpt>
					<trkpt lat="48.359320" lon="-4.036960">
						<ele>246</ele>
						<time>2026-09-02T00:42:53Z</time>
					</trkpt>
					<trkpt lat="48.359280" lon="-4.036600">
						<ele>245</ele>
						<time>2026-09-02T00:43:05Z</time>
					</trkpt>
					<trkpt lat="48.359290" lon="-4.036320">
						<ele>245</ele>
						<time>2026-09-02T00:43:14Z</time>
					</trkpt>
					<trkpt lat="48.359750" lon="-4.034570">
						<ele>241</ele>
						<time>2026-09-02T00:44:17Z</time>
					</trkpt>
					<trkpt lat="48.360070" lon="-4.033680">
						<ele>238</ele>
						<time>2026-09-02T00:44:51Z</time>
					</trkpt>
					<trkpt lat="48.360310" lon="-4.032830">
						<ele>237</ele>
						<time>2026-09-02T00:45:21Z</time>
					</trkpt>
					<trkpt lat="48.360370" lon="-4.032790">
						<ele>238</ele>
						<time>2026-09-02T00:45:25Z</time>
					</trkpt>
					<trkpt lat="48.360410" lon="-4.032720">
						<ele>238</ele>
						<time>2026-09-02T00:45:28Z</time>
					</trkpt>
					<trkpt lat="48.360620" lon="-4.031980">
						<ele>237</ele>
						<time>2026-09-02T00:45:54Z</time>
					</trkpt>
					<trkpt lat="48.360700" lon="-4.031860">
						<ele>237</ele>
						<time>2026-09-02T00:46:00Z</time>
					</trkpt>
					<trkpt lat="48.362410" lon="-4.030510">
						<ele>256</ele>
						<time>2026-09-02T00:47:37Z</time>
					</trkpt>
					<trkpt lat="48.365330" lon="-4.028070">
						<ele>276</ele>
						<time>2026-09-02T00:50:24Z</time>
					</trkpt>
					<trkpt lat="48.365770" lon="-4.027520">
						<ele>278</ele>
						<time>2026-09-02T00:50:52Z</time>
					</trkpt>
					<trkpt lat="48.366650" lon="-4.025550">
						<ele>262</ele>
						<time>2026-09-02T00:52:11Z</time>
					</trkpt>
					<trkpt lat="48.366880" lon="-4.025160">
						<ele>258</ele>
						<time>2026-09-02T00:52:29Z</time>
					</trkpt>
					<trkpt lat="48.367110" lon="-4.024920">
						<ele>254</ele>
						<time>2026-09-02T00:52:43Z</time>
					</trkpt>
					<trkpt lat="48.367410" lon="-4.024550">
						<ele>251</ele>
						<time>2026-09-02T00:53:02Z</time>
					</trkpt>
					<trkpt lat="48.367910" lon="-4.023760">
						<ele>245</ele>
						<time>2026-09-02T00:53:38Z</time>
					</trkpt>
					<trkpt lat="48.368670" lon="-4.022960">
						<ele>237</ele>
						<time>2026-09-02T00:54:25Z</time>
					</trkpt>
					<trkpt lat="48.368940" lon="-4.022740">
						<ele>233</ele>
						<time>2026-09-02T00:54:40Z</time>
					</trkpt>
					<trkpt lat="48.370430" lon="-4.021780">
						<ele>219</ele>
						<time>2026-09-02T00:56:01Z</time>
					</trkpt>
					<trkpt lat="48.370800" lon="-4.021500">
						<ele>216</ele>
						<time>2026-09-02T00:56:22Z</time>
					</trkpt>
					<trkpt lat="48.370940" lon="-4.021360">
						<ele>215</ele>
						<time>2026-09-02T00:56:30Z</time>
					</trkpt>
					<trkpt lat="48.371880" lon="-4.020090">
						<ele>211</ele>
						<time>2026-09-02T00:57:34Z</time>
					</trkpt>
					<trkpt lat="48.372440" lon="-4.019120">
						<ele>210</ele>
						<time>2026-09-02T00:58:16Z</time>
					</trkpt>
					<trkpt lat="48.372490" lon="-4.019190">
						<ele>209</ele>
						<time>2026-09-02T00:58:20Z</time>
					</trkpt>
					<trkpt lat="48.372650" lon="-4.019240">
						<ele>208</ele>
						<time>2026-09-02T00:58:28Z</time>
					</trkpt>
					<trkpt lat="48.372650" lon="-4.019060">
						<ele>209</ele>
						<time>2026-09-02T00:58:34Z</time>
					</trkpt>
					<trkpt lat="48.372680" lon="-4.018930">
						<ele>209</ele>
						<time>2026-09-02T00:58:38Z</time>
					</trkpt>
					<trkpt lat="48.372900" lon="-4.018330">
						<ele>211</ele>
						<time>2026-09-02T00:59:01Z</time>
					</trkpt>
					<trkpt lat="48.373660" lon="-4.018240">
						<ele>209</ele>
						<time>2026-09-02T00:59:39Z</time>
					</trkpt>
					<trkpt lat="48.373860" lon="-4.018180">
						<ele>209</ele>
						<time>2026-09-02T00:59:50Z</time>
					</trkpt>
					<trkpt lat="48.374100" lon="-4.018030">
						<ele>208</ele>
						<time>2026-09-02T01:00:03Z</time>
					</trkpt>
					<trkpt lat="48.374350" lon="-4.017730">
						<ele>208</ele>
						<time>2026-09-02T01:00:19Z</time>
					</trkpt>
					<trkpt lat="48.374430" lon="-4.017670">
						<ele>207</ele>
						<time>2026-09-02T01:00:23Z</time>
					</trkpt>
					<trkpt lat="48.375090" lon="-4.017320">
						<ele>205</ele>
						<time>2026-09-02T01:00:58Z</time>
					</trkpt>
					<trkpt lat="48.375230" lon="-4.017190">
						<ele>205</ele>
						<time>2026-09-02T01:01:06Z</time>
					</trkpt>
					<trkpt lat="48.375510" lon="-4.016800">
						<ele>203</ele>
						<time>2026-09-02T01:01:25Z</time>
					</trkpt>
					<trkpt lat="48.376020" lon="-4.015890">
						<ele>202</ele>
						<time>2026-09-02T01:02:05Z</time>
					</trkpt>
					<trkpt lat="48.376580" lon="-4.016560">
						<ele>203</ele>
						<time>2026-09-02T01:02:41Z</time>
					</trkpt>
					<trkpt lat="48.376850" lon="-4.016940">
						<ele>204</ele>
						<time>2026-09-02T01:02:59Z</time>
					</trkpt>
					<trkpt lat="48.378500" lon="-4.018870">
						<ele>214</ele>
						<time>2026-09-02T01:04:44Z</time>
					</trkpt>
					<trkpt lat="48.378830" lon="-4.019200">
						<ele>217</ele>
						<time>2026-09-02T01:05:04Z</time>
					</trkpt>
					<trkpt lat="48.378990" lon="-4.019310">
						<ele>218</ele>
						<time>2026-09-02T01:05:12Z</time>
					</trkpt>
					<trkpt lat="48.379110" lon="-4.019380">
						<ele>219</ele>
						<time>2026-09-02T01:05:19Z</time>
					</trkpt>
					<trkpt lat="48.379620" lon="-4.019490">
						<ele>222</ele>
						<time>2026-09-02T01:05:45Z</time>
					</trkpt>
					<trkpt lat="48.380750" lon="-4.019570">
						<ele>227</ele>
						<time>2026-09-02T01:06:41Z</time>
					</trkpt>
					<trkpt lat="48.381630" lon="-4.019700">
						<ele>229</ele>
						<time>2026-09-02T01:07:26Z</time>
					</trkpt>
					<trkpt lat="48.381680" lon="-4.019680">
						<ele>229</ele>
						<time>2026-09-02T01:07:28Z</time>
					</trkpt>
					<trkpt lat="48.381800" lon="-4.019510">
						<ele>229</ele>
						<time>2026-09-02T01:07:36Z</time>
					</trkpt>
					<trkpt lat="48.381730" lon="-4.019340">
						<ele>230</ele>
						<time>2026-09-02T01:07:43Z</time>
					</trkpt>
					<trkpt lat="48.381710" lon="-4.019170">
						<ele>231</ele>
						<time>2026-09-02T01:07:49Z</time>
					</trkpt>
					<trkpt lat="48.381770" lon="-4.018770">
						<ele>230</ele>
						<time>2026-09-02T01:08:02Z</time>
					</trkpt>
					<trkpt lat="48.381850" lon="-4.017890">
						<ele>227</ele>
						<time>2026-09-02T01:08:32Z</time>
					</trkpt>
					<trkpt lat="48.382150" lon="-4.015750">
						<ele>221</ele>
						<time>2026-09-02T01:09:45Z</time>
					</trkpt>
					<trkpt lat="48.382310" lon="-4.014800">
						<ele>215</ele>
						<time>2026-09-02T01:10:17Z</time>
					</trkpt>
					<trkpt lat="48.382410" lon="-4.014450">
						<ele>213</ele>
						<time>2026-09-02T01:10:30Z</time>
					</trkpt>
					<trkpt lat="48.382610" lon="-4.013830">
						<ele>209</ele>
						<time>2026-09-02T01:10:53Z</time>
					</trkpt>
					<trkpt lat="48.382950" lon="-4.012980">
						<ele>201</ele>
						<time>2026-09-02T01:11:26Z</time>
					</trkpt>
					<trkpt lat="48.383160" lon="-4.012160">
						<ele>195</ele>
						<time>2026-09-02T01:11:55Z</time>
					</trkpt>
					<trkpt lat="48.383250" lon="-4.011900">
						<ele>193</ele>
						<time>2026-09-02T01:12:05Z</time>
					</trkpt>
					<trkpt lat="48.383470" lon="-4.011460">
						<ele>191</ele>
						<time>2026-09-02T01:12:23Z</time>
					</trkpt>
					<trkpt lat="48.383580" lon="-4.011190">
						<ele>190</ele>
						<time>2026-09-02T01:12:34Z</time>
					</trkpt>
					<trkpt lat="48.383640" lon="-4.010960">
						<ele>190</ele>
						<time>2026-09-02T01:12:42Z</time>
					</trkpt>
					<trkpt lat="48.383790" lon="-4.010620">
						<ele>188</ele>
						<time>2026-09-02T01:12:55Z</time>
					</trkpt>
					<trkpt lat="48.384160" lon="-4.009950">
						<ele>184</ele>
						<time>2026-09-02T01:13:24Z</time>
					</trkpt>
					<trkpt lat="48.384510" lon="-4.009780">
						<ele>182</ele>
						<time>2026-09-02T01:13:43Z</time>
					</trkpt>
					<trkpt lat="48.384680" lon="-4.009870">
						<ele>183</ele>
						<time>2026-09-02T01:13:52Z</time>
					</trkpt>
					<trkpt lat="48.385020" lon="-4.009950">
						<ele>183</ele>
						<time>2026-09-02T01:14:09Z</time>
					</trkpt>
					<trkpt lat="48.385650" lon="-4.010460">
						<ele>187</ele>
						<time>2026-09-02T01:14:45Z</time>
					</trkpt>
					<trkpt lat="48.385800" lon="-4.010550">
						<ele>188</ele>
						<time>2026-09-02T01:14:53Z</time>
					</trkpt>
					<trkpt lat="48.386600" lon="-4.010920">
						<ele>190</ele>
						<time>2026-09-02T01:15:35Z</time>
					</trkpt>
					<trkpt lat="48.387010" lon="-4.011310">
						<ele>185</ele>
						<time>2026-09-02T01:15:59Z</time>
					</trkpt>
					<trkpt lat="48.387540" lon="-4.011960">
						<ele>179</ele>
						<time>2026-09-02T01:16:33Z</time>
					</trkpt>
					<trkpt lat="48.387630" lon="-4.012250">
						<ele>180</ele>
						<time>2026-09-02T01:16:44Z</time>
					</trkpt>
					<trkpt lat="48.387920" lon="-4.012110">
						<ele>177</ele>
						<time>2026-09-02T01:16:59Z</time>
					</trkpt>
					<trkpt lat="48.388550" lon="-4.012150">
						<ele>170</ele>
						<time>2026-09-02T01:17:31Z</time>
					</trkpt>
					<trkpt lat="48.388570" lon="-4.012330">
						<ele>170</ele>
						<time>2026-09-02T01:17:37Z</time>
					</trkpt>
					<trkpt lat="48.388460" lon="-4.013470">
						<ele>171</ele>
						<time>2026-09-02T01:18:15Z</time>
					</trkpt>
					<trkpt lat="48.388470" lon="-4.014730">
						<ele>173</ele>
						<time>2026-09-02T01:18:57Z</time>
					</trkpt>
					<trkpt lat="48.388360" lon="-4.015520">
						<ele>173</ele>
						<time>2026-09-02T01:19:24Z</time>
					</trkpt>
					<trkpt lat="48.388150" lon="-4.016290">
						<ele>176</ele>
						<time>2026-09-02T01:19:51Z</time>
					</trkpt>
					<trkpt lat="48.388340" lon="-4.016790">
						<ele>174</ele>
						<time>2026-09-02T01:20:10Z</time>
					</trkpt>
					<trkpt lat="48.388690" lon="-4.018110">
						<ele>167</ele>
						<time>2026-09-02T01:20:58Z</time>
					</trkpt>
					<trkpt lat="48.388660" lon="-4.019020">
						<ele>164</ele>
						<time>2026-09-02T01:21:28Z</time>
					</trkpt>
					<trkpt lat="48.388770" lon="-4.019430">
						<ele>162</ele>
						<time>2026-09-02T01:21:43Z</time>
					</trkpt>
					<trkpt lat="48.391030" lon="-4.019200">
						<ele>156</ele>
						<time>2026-09-02T01:23:36Z</time>
					</trkpt>
					<trkpt lat="48.391250" lon="-4.019730">
						<ele>155</ele>
						<time>2026-09-02T01:23:57Z</time>
					</trkpt>
					<trkpt lat="48.390600" lon="-4.022350">
						<ele>141</ele>
						<time>2026-09-02T01:25:30Z</time>
					</trkpt>
					<trkpt lat="48.390560" lon="-4.023530">
						<ele>138</ele>
						<time>2026-09-02T01:26:09Z</time>
					</trkpt>
					<trkpt lat="48.390610" lon="-4.024130">
						<ele>137</ele>
						<time>2026-09-02T01:26:29Z</time>
					</trkpt>
					<trkpt lat="48.390670" lon="-4.024490">
						<ele>136</ele>
						<time>2026-09-02T01:26:41Z</time>
					</trkpt>
					<trkpt lat="48.390890" lon="-4.024770">
						<ele>135</ele>
						<time>2026-09-02T01:26:56Z</time>
					</trkpt>
					<trkpt lat="48.391090" lon="-4.025210">
						<ele>134</ele>
						<time>2026-09-02T01:27:14Z</time>
					</trkpt>
					<trkpt lat="48.391350" lon="-4.025500">
						<ele>133</ele>
						<time>2026-09-02T01:27:30Z</time>
					</trkpt>
					<trkpt lat="48.391480" lon="-4.025540">
						<ele>133</ele>
						<time>2026-09-02T01:27:36Z</time>
					</trkpt>
					<trkpt lat="48.391660" lon="-4.025540">
						<ele>134</ele>
						<time>2026-09-02T01:27:45Z</time>
					</trkpt>
					<trkpt lat="48.392220" lon="-4.025630">
						<ele>136</ele>
						<time>2026-09-02T01:28:14Z</time>
					</trkpt>
					<trkpt lat="48.392850" lon="-4.025910">
						<ele>136</ele>
						<time>2026-09-02T01:28:46Z</time>
					</trkpt>
					<trkpt lat="48.393210" lon="-4.025950">
						<ele>137</ele>
						<time>2026-09-02T01:29:04Z</time>
					</trkpt>
					<trkpt lat="48.393570" lon="-4.025920">
						<ele>139</ele>
						<time>2026-09-02T01:29:23Z</time>
					</trkpt>
					<trkpt lat="48.393760" lon="-4.025940">
						<ele>141</ele>
						<time>2026-09-02T01:29:32Z</time>
					</trkpt>
					<trkpt lat="48.393950" lon="-4.026010">
						<ele>141</ele>
						<time>2026-09-02T01:29:42Z</time>
					</trkpt>
					<trkpt lat="48.394040" lon="-4.026120">
						<ele>141</ele>
						<time>2026-09-02T01:29:48Z</time>
					</trkpt>
					<trkpt lat="48.394060" lon="-4.027340">
						<ele>139</ele>
						<time>2026-09-02T01:30:28Z</time>
					</trkpt>
					<trkpt lat="48.394030" lon="-4.027860">
						<ele>140</ele>
						<time>2026-09-02T01:30:46Z</time>
					</trkpt>
					<trkpt lat="48.393890" lon="-4.029060">
						<ele>146</ele>
						<time>2026-09-02T01:31:26Z</time>
					</trkpt>
					<trkpt lat="48.393870" lon="-4.029940">
						<ele>150</ele>
						<time>2026-09-02T01:31:55Z</time>
					</trkpt>
					<trkpt lat="48.393900" lon="-4.030120">
						<ele>150</ele>
						<time>2026-09-02T01:32:01Z</time>
					</trkpt>
					<trkpt lat="48.393980" lon="-4.030220">
						<ele>150</ele>
						<time>2026-09-02T01:32:07Z</time>
					</trkpt>
					<trkpt lat="48.394840" lon="-4.030490">
						<ele>149</ele>
						<time>2026-09-02T01:32:51Z</time>
					</trkpt>
					<trkpt lat="48.395010" lon="-4.030580">
						<ele>149</ele>
						<time>2026-09-02T01:33:00Z</time>
					</trkpt>
					<trkpt lat="48.395160" lon="-4.030760">
						<ele>149</ele>
						<time>2026-09-02T01:33:09Z</time>
					</trkpt>
					<trkpt lat="48.395290" lon="-4.031080">
						<ele>148</ele>
						<time>2026-09-02T01:33:22Z</time>
					</trkpt>
					<trkpt lat="48.395450" lon="-4.032320">
						<ele>146</ele>
						<time>2026-09-02T01:34:04Z</time>
					</trkpt>
					<trkpt lat="48.395500" lon="-4.032500">
						<ele>145</ele>
						<time>2026-09-02T01:34:10Z</time>
					</trkpt>
					<trkpt lat="48.395360" lon="-4.032970">
						<ele>143</ele>
						<time>2026-09-02T01:34:27Z</time>
					</trkpt>
					<trkpt lat="48.395200" lon="-4.033310">
						<ele>140</ele>
						<time>2026-09-02T01:34:41Z</time>
					</trkpt>
					<trkpt lat="48.395130" lon="-4.033390">
						<ele>140</ele>
						<time>2026-09-02T01:34:46Z</time>
					</trkpt>
					<trkpt lat="48.394930" lon="-4.033570">
						<ele>139</ele>
						<time>2026-09-02T01:34:57Z</time>
					</trkpt>
					<trkpt lat="48.393540" lon="-4.033740">
						<ele>138</ele>
						<time>2026-09-02T01:36:07Z</time>
					</trkpt>
					<trkpt lat="48.393350" lon="-4.033820">
						<ele>138</ele>
						<time>2026-09-02T01:36:17Z</time>
					</trkpt>
					<trkpt lat="48.393140" lon="-4.033970">
						<ele>137</ele>
						<time>2026-09-02T01:36:28Z</time>
					</trkpt>
					<trkpt lat="48.392790" lon="-4.034170">
						<ele>137</ele>
						<time>2026-09-02T01:36:47Z</time>
					</trkpt>
					<trkpt lat="48.392640" lon="-4.034200">
						<ele>137</ele>
						<time>2026-09-02T01:36:55Z</time>
					</trkpt>
					<trkpt lat="48.392450" lon="-4.034200">
						<ele>137</ele>
						<time>2026-09-02T01:37:04Z</time>
					</trkpt>
					<trkpt lat="48.392430" lon="-4.034220">
						<ele>137</ele>
						<time>2026-09-02T01:37:05Z</time>
					</trkpt>
					<trkpt lat="48.392410" lon="-4.034350">
						<ele>136</ele>
						<time>2026-09-02T01:37:10Z</time>
					</trkpt>
					<trkpt lat="48.392440" lon="-4.034780">
						<ele>134</ele>
						<time>2026-09-02T01:37:24Z</time>
					</trkpt>
					<trkpt lat="48.392510" lon="-4.035120">
						<ele>132</ele>
						<time>2026-09-02T01:37:36Z</time>
					</trkpt>
					<trkpt lat="48.392670" lon="-4.035630">
						<ele>130</ele>
						<time>2026-09-02T01:37:55Z</time>
					</trkpt>
					<trkpt lat="48.392570" lon="-4.035840">
						<ele>128</ele>
						<time>2026-09-02T01:38:03Z</time>
					</trkpt>
					<trkpt lat="48.392520" lon="-4.036020">
						<ele>128</ele>
						<time>2026-09-02T01:38:10Z</time>
					</trkpt>
					<trkpt lat="48.392690" lon="-4.036800">
						<ele>128</ele>
						<time>2026-09-02T01:38:37Z</time>
					</trkpt>
					<trkpt lat="48.392720" lon="-4.037220">
						<ele>127</ele>
						<time>2026-09-02T01:38:51Z</time>
					</trkpt>
					<trkpt lat="48.392680" lon="-4.037810">
						<ele>127</ele>
						<time>2026-09-02T01:39:11Z</time>
					</trkpt>
					<trkpt lat="48.392580" lon="-4.038390">
						<ele>127</ele>
						<time>2026-09-02T01:39:31Z</time>
					</trkpt>
					<trkpt lat="48.392470" lon="-4.038600">
						<ele>128</ele>
						<time>2026-09-02T01:39:40Z</time>
					</trkpt>
					<trkpt lat="48.392170" lon="-4.038950">
						<ele>131</ele>
						<time>2026-09-02T01:39:59Z</time>
					</trkpt>
					<trkpt lat="48.391840" lon="-4.039060">
						<ele>133</ele>
						<time>2026-09-02T01:40:16Z</time>
					</trkpt>
					<trkpt lat="48.391760" lon="-4.039130">
						<ele>134</ele>
						<time>2026-09-02T01:40:20Z</time>
					</trkpt>
					<trkpt lat="48.391680" lon="-4.039810">
						<ele>138</ele>
						<time>2026-09-02T01:40:43Z</time>
					</trkpt>
					<trkpt lat="48.391400" lon="-4.039970">
						<ele>137</ele>
						<time>2026-09-02T01:40:58Z</time>
					</trkpt>
					<trkpt lat="48.391150" lon="-4.040030">
						<ele>135</ele>
						<time>2026-09-02T01:41:11Z</time>
					</trkpt>
					<trkpt lat="48.391010" lon="-4.040200">
						<ele>132</ele>
						<time>2026-09-02T01:41:20Z</time>
					</trkpt>
					<trkpt lat="48.390990" lon="-4.040420">
						<ele>131</ele>
						<time>2026-09-02T01:41:27Z</time>
					</trkpt>
					<trkpt lat="48.391010" lon="-4.040640">
						<ele>130</ele>
						<time>2026-09-02T01:41:35Z</time>
					</trkpt>
					<trkpt lat="48.391200" lon="-4.041220">
						<ele>129</ele>
						<time>2026-09-02T01:41:56Z</time>
					</trkpt>
					<trkpt lat="48.391320" lon="-4.041450">
						<ele>129</ele>
						<time>2026-09-02T01:42:06Z</time>
					</trkpt>
					<trkpt lat="48.391340" lon="-4.041630">
						<ele>128</ele>
						<time>2026-09-02T01:42:12Z</time>
					</trkpt>
					<trkpt lat="48.391340" lon="-4.041900">
						<ele>127</ele>
						<time>2026-09-02T01:42:21Z</time>
					</trkpt>
					<trkpt lat="48.391270" lon="-4.042450">
						<ele>123</ele>
						<time>2026-09-02T01:42:39Z</time>
					</trkpt>
					<trkpt lat="48.391230" lon="-4.043090">
						<ele>120</ele>
						<time>2026-09-02T01:43:01Z</time>
					</trkpt>
					<trkpt lat="48.391180" lon="-4.043340">
						<ele>119</ele>
						<time>2026-09-02T01:43:10Z</time>
					</trkpt>
					<trkpt lat="48.391190" lon="-4.043400">
						<ele>119</ele>
						<time>2026-09-02T01:43:12Z</time>
					</trkpt>
					<trkpt lat="48.391210" lon="-4.043460">
						<ele>119</ele>
						<time>2026-09-02T01:43:14Z</time>
					</trkpt>
					<trkpt lat="48.391620" lon="-4.044070">
						<ele>118</ele>
						<time>2026-09-02T01:43:43Z</time>
					</trkpt>
					<trkpt lat="48.391730" lon="-4.044200">
						<ele>118</ele>
						<time>2026-09-02T01:43:50Z</time>
					</trkpt>
					<trkpt lat="48.392060" lon="-4.044440">
						<ele>120</ele>
						<time>2026-09-02T01:44:08Z</time>
					</trkpt>
					<trkpt lat="48.392180" lon="-4.044640">
						<ele>121</ele>
						<time>2026-09-02T01:44:17Z</time>
					</trkpt>
					<trkpt lat="48.392230" lon="-4.044870">
						<ele>121</ele>
						<time>2026-09-02T01:44:25Z</time>
					</trkpt>
					<trkpt lat="48.392230" lon="-4.045050">
						<ele>122</ele>
						<time>2026-09-02T01:44:31Z</time>
					</trkpt>
					<trkpt lat="48.392180" lon="-4.045440">
						<ele>124</ele>
						<time>2026-09-02T01:44:44Z</time>
					</trkpt>
					<trkpt lat="48.391990" lon="-4.046260">
						<ele>129</ele>
						<time>2026-09-02T01:45:13Z</time>
					</trkpt>
					<trkpt lat="48.391900" lon="-4.047320">
						<ele>132</ele>
						<time>2026-09-02T01:45:49Z</time>
					</trkpt>
					<trkpt lat="48.391930" lon="-4.048100">
						<ele>134</ele>
						<time>2026-09-02T01:46:15Z</time>
					</trkpt>
					<trkpt lat="48.391850" lon="-4.048720">
						<ele>134</ele>
						<time>2026-09-02T01:46:35Z</time>
					</trkpt>
					<trkpt lat="48.391850" lon="-4.049320">
						<ele>136</ele>
						<time>2026-09-02T01:46:55Z</time>
					</trkpt>
					<trkpt lat="48.391920" lon="-4.050060">
						<ele>137</ele>
						<time>2026-09-02T01:47:20Z</time>
					</trkpt>
					<trkpt lat="48.391990" lon="-4.050200">
						<ele>137</ele>
						<time>2026-09-02T01:47:26Z</time>
					</trkpt>
					<trkpt lat="48.392230" lon="-4.050410">
						<ele>138</ele>
						<time>2026-09-02T01:47:40Z</time>
					</trkpt>
					<trkpt lat="48.392490" lon="-4.050540">
						<ele>138</ele>
						<time>2026-09-02T01:47:54Z</time>
					</trkpt>
					<trkpt lat="48.393560" lon="-4.051000">
						<ele>134</ele>
						<time>2026-09-02T01:48:49Z</time>
					</trkpt>
					<trkpt lat="48.393880" lon="-4.051100">
						<ele>133</ele>
						<time>2026-09-02T01:49:06Z</time>
					</trkpt>
					<trkpt lat="48.394430" lon="-4.051210">
						<ele>132</ele>
						<time>2026-09-02T01:49:34Z</time>
					</trkpt>
					<trkpt lat="48.394740" lon="-4.051300">
						<ele>132</ele>
						<time>2026-09-02T01:49:49Z</time>
					</trkpt>
					<trkpt lat="48.395070" lon="-4.051470">
						<ele>131</ele>
						<time>2026-09-02T01:50:07Z</time>
					</trkpt>
					<trkpt lat="48.395130" lon="-4.051530">
						<ele>131</ele>
						<time>2026-09-02T01:50:10Z</time>
					</trkpt>
					<trkpt lat="48.395190" lon="-4.051650">
						<ele>130</ele>
						<time>2026-09-02T01:50:15Z</time>
					</trkpt>
					<trkpt lat="48.395320" lon="-4.051620">
						<ele>130</ele>
						<time>2026-09-02T01:50:22Z</time>
					</trkpt>
					<trkpt lat="48.396350" lon="-4.051770">
						<ele>130</ele>
						<time>2026-09-02T01:51:14Z</time>
					</trkpt>
					<trkpt lat="48.396870" lon="-4.051920">
						<ele>131</ele>
						<time>2026-09-02T01:51:40Z</time>
					</trkpt>
					<trkpt lat="48.397370" lon="-4.052010">
						<ele>132</ele>
						<time>2026-09-02T01:52:05Z</time>
					</trkpt>
					<trkpt lat="48.397410" lon="-4.052120">
						<ele>133</ele>
						<time>2026-09-02T01:52:10Z</time>
					</trkpt>
					<trkpt lat="48.397420" lon="-4.052320">
						<ele>134</ele>
						<time>2026-09-02T01:52:16Z</time>
					</trkpt>
					<trkpt lat="48.397390" lon="-4.053210">
						<ele>137</ele>
						<time>2026-09-02T01:52:46Z</time>
					</trkpt>
					<trkpt lat="48.397440" lon="-4.053350">
						<ele>138</ele>
						<time>2026-09-02T01:52:51Z</time>
					</trkpt>
					<trkpt lat="48.397540" lon="-4.053390">
						<ele>139</ele>
						<time>2026-09-02T01:52:56Z</time>
					</trkpt>
					<trkpt lat="48.398090" lon="-4.053350">
						<ele>142</ele>
						<time>2026-09-02T01:53:24Z</time>
					</trkpt>
					<trkpt lat="48.398160" lon="-4.053420">
						<ele>143</ele>
						<time>2026-09-02T01:53:28Z</time>
					</trkpt>
					<trkpt lat="48.398210" lon="-4.053660">
						<ele>145</ele>
						<time>2026-09-02T01:53:36Z</time>
					</trkpt>
					<trkpt lat="48.398250" lon="-4.053730">
						<ele>146</ele>
						<time>2026-09-02T01:53:39Z</time>
					</trkpt>
					<trkpt lat="48.398350" lon="-4.053800">
						<ele>147</ele>
						<time>2026-09-02T01:53:45Z</time>
					</trkpt>
					<trkpt lat="48.398570" lon="-4.053820">
						<ele>146</ele>
						<time>2026-09-02T01:53:56Z</time>
					</trkpt>
					<trkpt lat="48.398790" lon="-4.053790">
						<ele>145</ele>
						<time>2026-09-02T01:54:07Z</time>
					</trkpt>
					<trkpt lat="48.399510" lon="-4.053920">
						<ele>143</ele>
						<time>2026-09-02T01:54:43Z</time>
					</trkpt>
					<trkpt lat="48.399840" lon="-4.054020">
						<ele>143</ele>
						<time>2026-09-02T01:55:00Z</time>
					</trkpt>
					<trkpt lat="48.400370" lon="-4.054230">
						<ele>142</ele>
						<time>2026-09-02T01:55:28Z</time>
					</trkpt>
					<trkpt lat="48.400410" lon="-4.054130">
						<ele>143</ele>
						<time>2026-09-02T01:55:32Z</time>
					</trkpt>
					<trkpt lat="48.400850" lon="-4.054760">
						<ele>141</ele>
						<time>2026-09-02T01:56:02Z</time>
					</trkpt>
					<trkpt lat="48.401070" lon="-4.055010">
						<ele>139</ele>
						<time>2026-09-02T01:56:16Z</time>
					</trkpt>
					<trkpt lat="48.401280" lon="-4.055160">
						<ele>138</ele>
						<time>2026-09-02T01:56:27Z</time>
					</trkpt>
					<trkpt lat="48.401550" lon="-4.055310">
						<ele>137</ele>
						<time>2026-09-02T01:56:42Z</time>
					</trkpt>
					<trkpt lat="48.402090" lon="-4.055730">
						<ele>133</ele>
						<time>2026-09-02T01:57:12Z</time>
					</trkpt>
					<trkpt lat="48.402480" lon="-4.055910">
						<ele>130</ele>
						<time>2026-09-02T01:57:33Z</time>
					</trkpt>
					<trkpt lat="48.402860" lon="-4.056010">
						<ele>127</ele>
						<time>2026-09-02T01:57:52Z</time>
					</trkpt>
					<trkpt lat="48.403210" lon="-4.056040">
						<ele>125</ele>
						<time>2026-09-02T01:58:09Z</time>
					</trkpt>
					<trkpt lat="48.403570" lon="-4.056010">
						<ele>123</ele>
						<time>2026-09-02T01:58:27Z</time>
					</trkpt>
					<trkpt lat="48.404060" lon="-4.055920">
						<ele>120</ele>
						<time>2026-09-02T01:58:52Z</time>
					</trkpt>
					<trkpt lat="48.404100" lon="-4.056260">
						<ele>119</ele>
						<time>2026-09-02T01:59:04Z</time>
					</trkpt>
					<trkpt lat="48.404250" lon="-4.056740">
						<ele>117</ele>
						<time>2026-09-02T01:59:21Z</time>
					</trkpt>
					<trkpt lat="48.404420" lon="-4.057060">
						<ele>116</ele>
						<time>2026-09-02T01:59:35Z</time>
					</trkpt>
					<trkpt lat="48.403260" lon="-4.058350">
						<ele>122</ele>
						<time>2026-09-02T02:00:47Z</time>
					</trkpt>
					<trkpt lat="48.403360" lon="-4.059410">
						<ele>123</ele>
						<time>2026-09-02T02:01:23Z</time>
					</trkpt>
					<trkpt lat="48.403220" lon="-4.060740">
						<ele>122</ele>
						<time>2026-09-02T02:02:07Z</time>
					</trkpt>
					<trkpt lat="48.404630" lon="-4.061120">
						<ele>114</ele>
						<time>2026-09-02T02:03:19Z</time>
					</trkpt>
					<trkpt lat="48.404550" lon="-4.061520">
						<ele>114</ele>
						<time>2026-09-02T02:03:33Z</time>
					</trkpt>
					<trkpt lat="48.404760" lon="-4.061870">
						<ele>111</ele>
						<time>2026-09-02T02:03:49Z</time>
					</trkpt>
					<trkpt lat="48.405000" lon="-4.062470">
						<ele>109</ele>
						<time>2026-09-02T02:04:12Z</time>
					</trkpt>
					<trkpt lat="48.405240" lon="-4.063110">
						<ele>107</ele>
						<time>2026-09-02T02:04:36Z</time>
					</trkpt>
					<trkpt lat="48.405400" lon="-4.063720">
						<ele>107</ele>
						<time>2026-09-02T02:04:58Z</time>
					</trkpt>
					<trkpt lat="48.405590" lon="-4.064770">
						<ele>109</ele>
						<time>2026-09-02T02:05:34Z</time>
					</trkpt>
					<trkpt lat="48.405680" lon="-4.065750">
						<ele>111</ele>
						<time>2026-09-02T02:06:07Z</time>
					</trkpt>
					<trkpt lat="48.405980" lon="-4.067030">
						<ele>114</ele>
						<time>2026-09-02T02:06:52Z</time>
					</trkpt>
					<trkpt lat="48.406130" lon="-4.068000">
						<ele>115</ele>
						<time>2026-09-02T02:07:25Z</time>
					</trkpt>
					<trkpt lat="48.405990" lon="-4.069870">
						<ele>112</ele>
						<time>2026-09-02T02:08:28Z</time>
					</trkpt>
					<trkpt lat="48.405770" lon="-4.071500">
						<ele>109</ele>
						<time>2026-09-02T02:09:23Z</time>
					</trkpt>
					<trkpt lat="48.405620" lon="-4.072120">
						<ele>106</ele>
						<time>2026-09-02T02:09:45Z</time>
					</trkpt>
					<trkpt lat="48.405270" lon="-4.073240">
						<ele>102</ele>
						<time>2026-09-02T02:10:26Z</time>
					</trkpt>
					<trkpt lat="48.405230" lon="-4.073430">
						<ele>102</ele>
						<time>2026-09-02T02:10:33Z</time>
					</trkpt>
					<trkpt lat="48.405540" lon="-4.074230">
						<ele>101</ele>
						<time>2026-09-02T02:11:03Z</time>
					</trkpt>
					<trkpt lat="48.405720" lon="-4.075050">
						<ele>103</ele>
						<time>2026-09-02T02:11:32Z</time>
					</trkpt>
					<trkpt lat="48.405780" lon="-4.075520">
						<ele>104</ele>
						<time>2026-09-02T02:11:48Z</time>
					</trkpt>
					<trkpt lat="48.405850" lon="-4.076430">
						<ele>107</ele>
						<time>2026-09-02T02:12:18Z</time>
					</trkpt>
					<trkpt lat="48.405800" lon="-4.076950">
						<ele>109</ele>
						<time>2026-09-02T02:12:36Z</time>
					</trkpt>
					<trkpt lat="48.406150" lon="-4.077040">
						<ele>108</ele>
						<time>2026-09-02T02:12:54Z</time>
					</trkpt>
					<trkpt lat="48.406360" lon="-4.077250">
						<ele>108</ele>
						<time>2026-09-02T02:13:06Z</time>
					</trkpt>
					<trkpt lat="48.406400" lon="-4.077240">
						<ele>108</ele>
						<time>2026-09-02T02:13:08Z</time>
					</trkpt>
					<trkpt lat="48.406430" lon="-4.077270">
						<ele>108</ele>
						<time>2026-09-02T02:13:10Z</time>
					</trkpt>
					<trkpt lat="48.406720" lon="-4.077120">
						<ele>107</ele>
						<time>2026-09-02T02:13:25Z</time>
					</trkpt>
					<trkpt lat="48.406820" lon="-4.076600">
						<ele>105</ele>
						<time>2026-09-02T02:13:43Z</time>
					</trkpt>
					<trkpt lat="48.406840" lon="-4.076280">
						<ele>104</ele>
						<time>2026-09-02T02:13:54Z</time>
					</trkpt>
					<trkpt lat="48.407210" lon="-4.075220">
						<ele>100</ele>
						<time>2026-09-02T02:14:34Z</time>
					</trkpt>
					<trkpt lat="48.407400" lon="-4.074540">
						<ele>98</ele>
						<time>2026-09-02T02:14:58Z</time>
					</trkpt>
					<trkpt lat="48.407750" lon="-4.073560">
						<ele>97</ele>
						<time>2026-09-02T02:15:35Z</time>
					</trkpt>
					<trkpt lat="48.407870" lon="-4.073280">
						<ele>97</ele>
						<time>2026-09-02T02:15:46Z</time>
					</trkpt>
					<trkpt lat="48.408310" lon="-4.072530">
						<ele>96</ele>
						<time>2026-09-02T02:16:20Z</time>
					</trkpt>
					<trkpt lat="48.408590" lon="-4.071940">
						<ele>96</ele>
						<time>2026-09-02T02:16:44Z</time>
					</trkpt>
					<trkpt lat="48.409010" lon="-4.070790">
						<ele>97</ele>
						<time>2026-09-02T02:17:27Z</time>
					</trkpt>
					<trkpt lat="48.409090" lon="-4.070610">
						<ele>96</ele>
						<time>2026-09-02T02:17:35Z</time>
					</trkpt>
					<trkpt lat="48.409340" lon="-4.070180">
						<ele>97</ele>
						<time>2026-09-02T02:17:54Z</time>
					</trkpt>
					<trkpt lat="48.409510" lon="-4.069750">
						<ele>99</ele>
						<time>2026-09-02T02:18:10Z</time>
					</trkpt>
					<trkpt lat="48.409680" lon="-4.069660">
						<ele>100</ele>
						<time>2026-09-02T02:18:19Z</time>
					</trkpt>
					<trkpt lat="48.410500" lon="-4.068810">
						<ele>110</ele>
						<time>2026-09-02T02:19:09Z</time>
					</trkpt>
					<trkpt lat="48.411460" lon="-4.067570">
						<ele>122</ele>
						<time>2026-09-02T02:20:12Z</time>
					</trkpt>
					<trkpt lat="48.412610" lon="-4.066260">
						<ele>135</ele>
						<time>2026-09-02T02:21:24Z</time>
					</trkpt>
					<trkpt lat="48.413740" lon="-4.065340">
						<ele>146</ele>
						<time>2026-09-02T02:22:29Z</time>
					</trkpt>
					<trkpt lat="48.414480" lon="-4.064640">
						<ele>152</ele>
						<time>2026-09-02T02:23:13Z</time>
					</trkpt>
					<trkpt lat="48.415120" lon="-4.064130">
						<ele>156</ele>
						<time>2026-09-02T02:23:49Z</time>
					</trkpt>
					<trkpt lat="48.416840" lon="-4.062410">
						<ele>152</ele>
						<time>2026-09-02T02:25:32Z</time>
					</trkpt>
					<trkpt lat="48.417720" lon="-4.061400">
						<ele>148</ele>
						<time>2026-09-02T02:26:27Z</time>
					</trkpt>
					<trkpt lat="48.418510" lon="-4.060590">
						<ele>145</ele>
						<time>2026-09-02T02:27:15Z</time>
					</trkpt>
					<trkpt lat="48.419880" lon="-4.059560">
						<ele>146</ele>
						<time>2026-09-02T02:28:32Z</time>
					</trkpt>
					<trkpt lat="48.420560" lon="-4.058640">
						<ele>139</ele>
						<time>2026-09-02T02:29:18Z</time>
					</trkpt>
					<trkpt lat="48.421160" lon="-4.057920">
						<ele>139</ele>
						<time>2026-09-02T02:29:56Z</time>
					</trkpt>
					<trkpt lat="48.421680" lon="-4.057350">
						<ele>140</ele>
						<time>2026-09-02T02:30:28Z</time>
					</trkpt>
					<trkpt lat="48.422690" lon="-4.056090">
						<ele>142</ele>
						<time>2026-09-02T02:31:34Z</time>
					</trkpt>
					<trkpt lat="48.422860" lon="-4.055790">
						<ele>143</ele>
						<time>2026-09-02T02:31:47Z</time>
					</trkpt>
					<trkpt lat="48.422940" lon="-4.055350">
						<ele>143</ele>
						<time>2026-09-02T02:32:02Z</time>
					</trkpt>
					<trkpt lat="48.423100" lon="-4.055150">
						<ele>143</ele>
						<time>2026-09-02T02:32:12Z</time>
					</trkpt>
					<trkpt lat="48.423270" lon="-4.054830">
						<ele>142</ele>
						<time>2026-09-02T02:32:26Z</time>
					</trkpt>
					<trkpt lat="48.423490" lon="-4.054300">
						<ele>142</ele>
						<time>2026-09-02T02:32:47Z</time>
					</trkpt>
					<trkpt lat="48.425370" lon="-4.054530">
						<ele>145</ele>
						<time>2026-09-02T02:34:21Z</time>
					</trkpt>
					<trkpt lat="48.425660" lon="-4.054630">
						<ele>145</ele>
						<time>2026-09-02T02:34:36Z</time>
					</trkpt>
					<trkpt lat="48.425960" lon="-4.054810">
						<ele>144</ele>
						<time>2026-09-02T02:34:52Z</time>
					</trkpt>
					<trkpt lat="48.426070" lon="-4.054890">
						<ele>144</ele>
						<time>2026-09-02T02:34:58Z</time>
					</trkpt>
					<trkpt lat="48.426320" lon="-4.055150">
						<ele>143</ele>
						<time>2026-09-02T02:35:14Z</time>
					</trkpt>
					<trkpt lat="48.426680" lon="-4.055340">
						<ele>142</ele>
						<time>2026-09-02T02:35:33Z</time>
					</trkpt>
					<trkpt lat="48.426880" lon="-4.055420">
						<ele>141</ele>
						<time>2026-09-02T02:35:43Z</time>
					</trkpt>
					<trkpt lat="48.427110" lon="-4.055430">
						<ele>140</ele>
						<time>2026-09-02T02:35:54Z</time>
					</trkpt>
					<trkpt lat="48.427810" lon="-4.055270">
						<ele>136</ele>
						<time>2026-09-02T02:36:30Z</time>
					</trkpt>
					<trkpt lat="48.427780" lon="-4.055090">
						<ele>136</ele>
						<time>2026-09-02T02:36:36Z</time>
					</trkpt>
					<trkpt lat="48.428120" lon="-4.055040">
						<ele>134</ele>
						<time>2026-09-02T02:36:53Z</time>
					</trkpt>
					<trkpt lat="48.428810" lon="-4.054990">
						<ele>131</ele>
						<time>2026-09-02T02:37:28Z</time>
					</trkpt>
					<trkpt lat="48.429390" lon="-4.054820">
						<ele>129</ele>
						<time>2026-09-02T02:37:57Z</time>
					</trkpt>
					<trkpt lat="48.429810" lon="-4.054650">
						<ele>129</ele>
						<time>2026-09-02T02:38:19Z</time>
					</trkpt>
					<trkpt lat="48.432060" lon="-4.053600">
						<ele>140</ele>
						<time>2026-09-02T02:40:17Z</time>
					</trkpt>
					<trkpt lat="48.432660" lon="-4.053380">
						<ele>144</ele>
						<time>2026-09-02T02:40:48Z</time>
					</trkpt>
					<trkpt lat="48.432920" lon="-4.053300">
						<ele>145</ele>
						<time>2026-09-02T02:41:01Z</time>
					</trkpt>
					<trkpt lat="48.433450" lon="-4.053260">
						<ele>147</ele>
						<time>2026-09-02T02:41:28Z</time>
					</trkpt>
					<trkpt lat="48.434040" lon="-4.053150">
						<ele>150</ele>
						<time>2026-09-02T02:41:57Z</time>
					</trkpt>
					<trkpt lat="48.434830" lon="-4.052830">
						<ele>154</ele>
						<time>2026-09-02T02:42:38Z</time>
					</trkpt>
					<trkpt lat="48.434950" lon="-4.052800">
						<ele>155</ele>
						<time>2026-09-02T02:42:44Z</time>
					</trkpt>
					<trkpt lat="48.435950" lon="-4.052690">
						<ele>161</ele>
						<time>2026-09-02T02:43:35Z</time>
					</trkpt>
					<trkpt lat="48.436140" lon="-4.052630">
						<ele>162</ele>
						<time>2026-09-02T02:43:44Z</time>
					</trkpt>
					<trkpt lat="48.436500" lon="-4.052450">
						<ele>163</ele>
						<time>2026-09-02T02:44:03Z</time>
					</trkpt>
					<trkpt lat="48.436880" lon="-4.052570">
						<ele>166</ele>
						<time>2026-09-02T02:44:23Z</time>
					</trkpt>
					<trkpt lat="48.437710" lon="-4.053010">
						<ele>171</ele>
						<time>2026-09-02T02:45:07Z</time>
					</trkpt>
					<trkpt lat="48.437720" lon="-4.052840">
						<ele>171</ele>
						<time>2026-09-02T02:45:12Z</time>
					</trkpt>
					<trkpt lat="48.437990" lon="-4.051580">
						<ele>173</ele>
						<time>2026-09-02T02:45:56Z</time>
					</trkpt>
					<trkpt lat="48.438080" lon="-4.051320">
						<ele>174</ele>
						<time>2026-09-02T02:46:06Z</time>
					</trkpt>
					<trkpt lat="48.440070" lon="-4.050080">
						<ele>182</ele>
						<time>2026-09-02T02:47:54Z</time>
					</trkpt>
					<trkpt lat="48.441290" lon="-4.049370">
						<ele>183</ele>
						<time>2026-09-02T02:48:59Z</time>
					</trkpt>
					<trkpt lat="48.441960" lon="-4.049030">
						<ele>182</ele>
						<time>2026-09-02T02:49:35Z</time>
					</trkpt>
					<trkpt lat="48.442100" lon="-4.048920">
						<ele>182</ele>
						<time>2026-09-02T02:49:43Z</time>
					</trkpt>
					<trkpt lat="48.442290" lon="-4.048560">
						<ele>181</ele>
						<time>2026-09-02T02:49:58Z</time>
					</trkpt>
					<trkpt lat="48.442380" lon="-4.048440">
						<ele>181</ele>
						<time>2026-09-02T02:50:04Z</time>
					</trkpt>
					<trkpt lat="48.442730" lon="-4.047610">
						<ele>180</ele>
						<time>2026-09-02T02:50:37Z</time>
					</trkpt>
					<trkpt lat="48.443220" lon="-4.046690">
						<ele>179</ele>
						<time>2026-09-02T02:51:16Z</time>
					</trkpt>
					<trkpt lat="48.443650" lon="-4.045950">
						<ele>178</ele>
						<time>2026-09-02T02:51:48Z</time>
					</trkpt>
					<trkpt lat="48.443810" lon="-4.045520">
						<ele>178</ele>
						<time>2026-09-02T02:52:05Z</time>
					</trkpt>
					<trkpt lat="48.443840" lon="-4.045310">
						<ele>178</ele>
						<time>2026-09-02T02:52:12Z</time>
					</trkpt>
					<trkpt lat="48.443710" lon="-4.044590">
						<ele>178</ele>
						<time>2026-09-02T02:52:37Z</time>
					</trkpt>
					<trkpt lat="48.443610" lon="-4.043440">
						<ele>179</ele>
						<time>2026-09-02T02:53:15Z</time>
					</trkpt>
					<trkpt lat="48.443480" lon="-4.042820">
						<ele>180</ele>
						<time>2026-09-02T02:53:37Z</time>
					</trkpt>
					<trkpt lat="48.443250" lon="-4.042080">
						<ele>182</ele>
						<time>2026-09-02T02:54:04Z</time>
					</trkpt>
					<trkpt lat="48.443140" lon="-4.041820">
						<ele>183</ele>
						<time>2026-09-02T02:54:14Z</time>
					</trkpt>
					<trkpt lat="48.442980" lon="-4.041620">
						<ele>183</ele>
						<time>2026-09-02T02:54:24Z</time>
					</trkpt>
					<trkpt lat="48.442460" lon="-4.041220">
						<ele>183</ele>
						<time>2026-09-02T02:54:54Z</time>
					</trkpt>
					<trkpt lat="48.442390" lon="-4.041090">
						<ele>183</ele>
						<time>2026-09-02T02:54:59Z</time>
					</trkpt>
					<trkpt lat="48.442380" lon="-4.040930">
						<ele>184</ele>
						<time>2026-09-02T02:55:05Z</time>
					</trkpt>
					<trkpt lat="48.442630" lon="-4.039750">
						<ele>185</ele>
						<time>2026-09-02T02:55:46Z</time>
					</trkpt>
					<trkpt lat="48.442730" lon="-4.038770">
						<ele>186</ele>
						<time>2026-09-02T02:56:19Z</time>
					</trkpt>
					<trkpt lat="48.442770" lon="-4.038020">
						<ele>185</ele>
						<time>2026-09-02T02:56:44Z</time>
					</trkpt>
					<trkpt lat="48.442740" lon="-4.036960">
						<ele>181</ele>
						<time>2026-09-02T02:57:19Z</time>
					</trkpt>
					<trkpt lat="48.442190" lon="-4.036810">
						<ele>181</ele>
						<time>2026-09-02T02:57:47Z</time>
					</trkpt>
					<trkpt lat="48.441990" lon="-4.036700">
						<ele>181</ele>
						<time>2026-09-02T02:57:57Z</time>
					</trkpt>
					<trkpt lat="48.441780" lon="-4.036540">
						<ele>180</ele>
						<time>2026-09-02T02:58:09Z</time>
					</trkpt>
					<trkpt lat="48.441390" lon="-4.036020">
						<ele>176</ele>
						<time>2026-09-02T02:58:35Z</time>
					</trkpt>
					<trkpt lat="48.441380" lon="-4.035810">
						<ele>174</ele>
						<time>2026-09-02T02:58:42Z</time>
					</trkpt>
					<trkpt lat="48.441500" lon="-4.035650">
						<ele>174</ele>
						<time>2026-09-02T02:58:50Z</time>
					</trkpt>
					<trkpt lat="48.441510" lon="-4.035390">
						<ele>173</ele>
						<time>2026-09-02T02:58:59Z</time>
					</trkpt>
					<trkpt lat="48.441600" lon="-4.035210">
						<ele>173</ele>
						<time>2026-09-02T02:59:06Z</time>
					</trkpt>
					<trkpt lat="48.441500" lon="-4.034970">
						<ele>172</ele>
						<time>2026-09-02T02:59:16Z</time>
					</trkpt>
					<trkpt lat="48.441630" lon="-4.034650">
						<ele>172</ele>
						<time>2026-09-02T02:59:28Z</time>
					</trkpt>
					<trkpt lat="48.441820" lon="-4.033980">
						<ele>172</ele>
						<time>2026-09-02T02:59:52Z</time>
					</trkpt>
					<trkpt lat="48.441890" lon="-4.033550">
						<ele>172</ele>
						<time>2026-09-02T03:00:07Z</time>
					</trkpt>
					<trkpt lat="48.441960" lon="-4.033290">
						<ele>172</ele>
						<time>2026-09-02T03:00:16Z</time>
					</trkpt>
					<trkpt lat="48.442020" lon="-4.033200">
						<ele>172</ele>
						<time>2026-09-02T03:00:21Z</time>
					</trkpt>
					<trkpt lat="48.442140" lon="-4.033130">
						<ele>172</ele>
						<time>2026-09-02T03:00:27Z</time>
					</trkpt>
					<trkpt lat="48.442920" lon="-4.033130">
						<ele>172</ele>
						<time>2026-09-02T03:01:06Z</time>
					</trkpt>
					<trkpt lat="48.443060" lon="-4.033100">
						<ele>171</ele>
						<time>2026-09-02T03:01:13Z</time>
					</trkpt>
					<trkpt lat="48.443330" lon="-4.032950">
						<ele>171</ele>
						<time>2026-09-02T03:01:28Z</time>
					</trkpt>
					<trkpt lat="48.443530" lon="-4.032920">
						<ele>171</ele>
						<time>2026-09-02T03:01:38Z</time>
					</trkpt>
					<trkpt lat="48.443870" lon="-4.032960">
						<ele>171</ele>
						<time>2026-09-02T03:01:55Z</time>
					</trkpt>
					<trkpt lat="48.444210" lon="-4.033050">
						<ele>171</ele>
						<time>2026-09-02T03:02:12Z</time>
					</trkpt>
					<trkpt lat="48.444450" lon="-4.033070">
						<ele>171</ele>
						<time>2026-09-02T03:02:24Z</time>
					</trkpt>
					<trkpt lat="48.444730" lon="-4.033130">
						<ele>171</ele>
						<time>2026-09-02T03:02:38Z</time>
					</trkpt>
					<trkpt lat="48.445010" lon="-4.033230">
						<ele>171</ele>
						<time>2026-09-02T03:02:53Z</time>
					</trkpt>
					<trkpt lat="48.445240" lon="-4.033450">
						<ele>171</ele>
						<time>2026-09-02T03:03:06Z</time>
					</trkpt>
					<trkpt lat="48.445350" lon="-4.033520">
						<ele>170</ele>
						<time>2026-09-02T03:03:12Z</time>
					</trkpt>
					<trkpt lat="48.446080" lon="-4.033530">
						<ele>170</ele>
						<time>2026-09-02T03:03:49Z</time>
					</trkpt>
					<trkpt lat="48.446040" lon="-4.033530">
						<ele>170</ele>
						<time>2026-09-02T03:03:51Z</time>
					</trkpt>
					<trkpt lat="48.446070" lon="-4.032370">
						<ele>171</ele>
						<time>2026-09-02T03:04:29Z</time>
					</trkpt>
					<trkpt lat="48.446110" lon="-4.032240">
						<ele>171</ele>
						<time>2026-09-02T03:04:34Z</time>
					</trkpt>
					<trkpt lat="48.446190" lon="-4.032080">
						<ele>171</ele>
						<time>2026-09-02T03:04:41Z</time>
					</trkpt>
					<trkpt lat="48.446500" lon="-4.031640">
						<ele>169</ele>
						<time>2026-09-02T03:05:02Z</time>
					</trkpt>
					<trkpt lat="48.446670" lon="-4.031450">
						<ele>167</ele>
						<time>2026-09-02T03:05:13Z</time>
					</trkpt>
					<trkpt lat="48.447470" lon="-4.029810">
						<ele>142</ele>
						<time>2026-09-02T03:06:20Z</time>
					</trkpt>
					<trkpt lat="48.447520" lon="-4.029520">
						<ele>138</ele>
						<time>2026-09-02T03:06:30Z</time>
					</trkpt>
					<trkpt lat="48.447590" lon="-4.029570">
						<ele>138</ele>
						<time>2026-09-02T03:06:34Z</time>
					</trkpt>
					<trkpt lat="48.447690" lon="-4.029580">
						<ele>138</ele>
						<time>2026-09-02T03:06:39Z</time>
					</trkpt>
					<trkpt lat="48.447850" lon="-4.029550">
						<ele>137</ele>
						<time>2026-09-02T03:06:47Z</time>
					</trkpt>
					<trkpt lat="48.448010" lon="-4.029480">
						<ele>135</ele>
						<time>2026-09-02T03:06:55Z</time>
					</trkpt>
					<trkpt lat="48.448180" lon="-4.029460">
						<ele>134</ele>
						<time>2026-09-02T03:07:04Z</time>
					</trkpt>
					<trkpt lat="48.448370" lon="-4.029470">
						<ele>134</ele>
						<time>2026-09-02T03:07:14Z</time>
					</trkpt>
					<trkpt lat="48.448700" lon="-4.029510">
						<ele>134</ele>
						<time>2026-09-02T03:07:30Z</time>
					</trkpt>
					<trkpt lat="48.449560" lon="-4.029680">
						<ele>135</ele>
						<time>2026-09-02T03:08:13Z</time>
					</trkpt>
					<trkpt lat="48.450230" lon="-4.029770">
						<ele>136</ele>
						<time>2026-09-02T03:08:47Z</time>
					</trkpt>
					<trkpt lat="48.450650" lon="-4.029750">
						<ele>135</ele>
						<time>2026-09-02T03:09:08Z</time>
					</trkpt>
					<trkpt lat="48.450920" lon="-4.029770">
						<ele>135</ele>
						<time>2026-09-02T03:09:22Z</time>
					</trkpt>
					<trkpt lat="48.451070" lon="-4.029660">
						<ele>133</ele>
						<time>2026-09-02T03:09:30Z</time>
					</trkpt>
					<trkpt lat="48.451300" lon="-4.029630">
						<ele>132</ele>
						<time>2026-09-02T03:09:42Z</time>
					</trkpt>
					<trkpt lat="48.451380" lon="-4.029500">
						<ele>130</ele>
						<time>2026-09-02T03:09:47Z</time>
					</trkpt>
					<trkpt lat="48.451400" lon="-4.029230">
						<ele>126</ele>
						<time>2026-09-02T03:09:56Z</time>
					</trkpt>
					<trkpt lat="48.451450" lon="-4.029040">
						<ele>125</ele>
						<time>2026-09-02T03:10:03Z</time>
					</trkpt>
					<trkpt lat="48.451570" lon="-4.028970">
						<ele>125</ele>
						<time>2026-09-02T03:10:10Z</time>
					</trkpt>
					<trkpt lat="48.451720" lon="-4.029000">
						<ele>124</ele>
						<time>2026-09-02T03:10:17Z</time>
					</trkpt>
					<trkpt lat="48.451790" lon="-4.029160">
						<ele>125</ele>
						<time>2026-09-02T03:10:24Z</time>
					</trkpt>
					<trkpt lat="48.451760" lon="-4.029470">
						<ele>129</ele>
						<time>2026-09-02T03:10:34Z</time>
					</trkpt>
					<trkpt lat="48.451820" lon="-4.029560">
						<ele>131</ele>
						<time>2026-09-02T03:10:38Z</time>
					</trkpt>
					<trkpt lat="48.452330" lon="-4.029530">
						<ele>130</ele>
						<time>2026-09-02T03:11:04Z</time>
					</trkpt>
					<trkpt lat="48.452420" lon="-4.029440">
						<ele>128</ele>
						<time>2026-09-02T03:11:09Z</time>
					</trkpt>
					<trkpt lat="48.452460" lon="-4.029280">
						<ele>125</ele>
						<time>2026-09-02T03:11:15Z</time>
					</trkpt>
					<trkpt lat="48.452520" lon="-4.029220">
						<ele>124</ele>
						<time>2026-09-02T03:11:19Z</time>
					</trkpt>
					<trkpt lat="48.452720" lon="-4.029110">
						<ele>123</ele>
						<time>2026-09-02T03:11:29Z</time>
					</trkpt>
					<trkpt lat="48.453010" lon="-4.029080">
						<ele>123</ele>
						<time>2026-09-02T03:11:44Z</time>
					</trkpt>
					<trkpt lat="48.453260" lon="-4.029150">
						<ele>124</ele>
						<time>2026-09-02T03:11:56Z</time>
					</trkpt>
					<trkpt lat="48.453340" lon="-4.029130">
						<ele>124</ele>
						<time>2026-09-02T03:12:00Z</time>
					</trkpt>
					<trkpt lat="48.453420" lon="-4.029070">
						<ele>123</ele>
						<time>2026-09-02T03:12:05Z</time>
					</trkpt>
					<trkpt lat="48.453670" lon="-4.029050">
						<ele>124</ele>
						<time>2026-09-02T03:12:17Z</time>
					</trkpt>
					<trkpt lat="48.454180" lon="-4.029110">
						<ele>125</ele>
						<time>2026-09-02T03:12:43Z</time>
					</trkpt>
					<trkpt lat="48.454260" lon="-4.029140">
						<ele>125</ele>
						<time>2026-09-02T03:12:47Z</time>
					</trkpt>
					<trkpt lat="48.454620" lon="-4.029090">
						<ele>122</ele>
						<time>2026-09-02T03:13:05Z</time>
					</trkpt>
					<trkpt lat="48.454820" lon="-4.029220">
						<ele>122</ele>
						<time>2026-09-02T03:13:16Z</time>
					</trkpt>
					<trkpt lat="48.454920" lon="-4.029240">
						<ele>121</ele>
						<time>2026-09-02T03:13:21Z</time>
					</trkpt>
					<trkpt lat="48.455100" lon="-4.029220">
						<ele>121</ele>
						<time>2026-09-02T03:13:30Z</time>
					</trkpt>
					<trkpt lat="48.455540" lon="-4.029010">
						<ele>121</ele>
						<time>2026-09-02T03:13:53Z</time>
					</trkpt>
					<trkpt lat="48.455880" lon="-4.028380">
						<ele>122</ele>
						<time>2026-09-02T03:14:20Z</time>
					</trkpt>
					<trkpt lat="48.456110" lon="-4.028110">
						<ele>125</ele>
						<time>2026-09-02T03:14:35Z</time>
					</trkpt>
					<trkpt lat="48.456210" lon="-4.028030">
						<ele>127</ele>
						<time>2026-09-02T03:14:41Z</time>
					</trkpt>
					<trkpt lat="48.456320" lon="-4.027980">
						<ele>128</ele>
						<time>2026-09-02T03:14:46Z</time>
					</trkpt>
					<trkpt lat="48.457780" lon="-4.027940">
						<ele>139</ele>
						<time>2026-09-02T03:15:59Z</time>
					</trkpt>
					<trkpt lat="48.457740" lon="-4.028440">
						<ele>137</ele>
						<time>2026-09-02T03:16:16Z</time>
					</trkpt>
					<trkpt lat="48.457760" lon="-4.028650">
						<ele>137</ele>
						<time>2026-09-02T03:16:23Z</time>
					</trkpt>
					<trkpt lat="48.457790" lon="-4.028760">
						<ele>137</ele>
						<time>2026-09-02T03:16:27Z</time>
					</trkpt>
					<trkpt lat="48.457850" lon="-4.028860">
						<ele>137</ele>
						<time>2026-09-02T03:16:32Z</time>
					</trkpt>
					<trkpt lat="48.457930" lon="-4.028940">
						<ele>137</ele>
						<time>2026-09-02T03:16:36Z</time>
					</trkpt>
					<trkpt lat="48.458360" lon="-4.029180">
						<ele>140</ele>
						<time>2026-09-02T03:16:59Z</time>
					</trkpt>
					<trkpt lat="48.458610" lon="-4.029510">
						<ele>140</ele>
						<time>2026-09-02T03:17:16Z</time>
					</trkpt>
					<trkpt lat="48.459140" lon="-4.030350">
						<ele>140</ele>
						<time>2026-09-02T03:17:54Z</time>
					</trkpt>
					<trkpt lat="48.459220" lon="-4.030420">
						<ele>140</ele>
						<time>2026-09-02T03:17:59Z</time>
					</trkpt>
					<trkpt lat="48.459330" lon="-4.030470">
						<ele>140</ele>
						<time>2026-09-02T03:18:05Z</time>
					</trkpt>
					<trkpt lat="48.459440" lon="-4.030490">
						<ele>139</ele>
						<time>2026-09-02T03:18:10Z</time>
					</trkpt>
					<trkpt lat="48.459860" lon="-4.030480">
						<ele>138</ele>
						<time>2026-09-02T03:18:31Z</time>
					</trkpt>
					<trkpt lat="48.460160" lon="-4.030420">
						<ele>138</ele>
						<time>2026-09-02T03:18:47Z</time>
					</trkpt>
					<trkpt lat="48.460610" lon="-4.030250">
						<ele>137</ele>
						<time>2026-09-02T03:19:10Z</time>
					</trkpt>
					<trkpt lat="48.460780" lon="-4.030230">
						<ele>137</ele>
						<time>2026-09-02T03:19:18Z</time>
					</trkpt>
					<trkpt lat="48.461010" lon="-4.030250">
						<ele>136</ele>
						<time>2026-09-02T03:19:30Z</time>
					</trkpt>
					<trkpt lat="48.461180" lon="-4.030300">
						<ele>135</ele>
						<time>2026-09-02T03:19:38Z</time>
					</trkpt>
					<trkpt lat="48.461850" lon="-4.030570">
						<ele>132</ele>
						<time>2026-09-02T03:20:13Z</time>
					</trkpt>
					<trkpt lat="48.462030" lon="-4.030680">
						<ele>131</ele>
						<time>2026-09-02T03:20:23Z</time>
					</trkpt>
					<trkpt lat="48.462570" lon="-4.031060">
						<ele>127</ele>
						<time>2026-09-02T03:20:53Z</time>
					</trkpt>
					<trkpt lat="48.463060" lon="-4.031530">
						<ele>123</ele>
						<time>2026-09-02T03:21:22Z</time>
					</trkpt>
					<trkpt lat="48.463250" lon="-4.031640">
						<ele>122</ele>
						<time>2026-09-02T03:21:32Z</time>
					</trkpt>
					<trkpt lat="48.463400" lon="-4.031690">
						<ele>122</ele>
						<time>2026-09-02T03:21:40Z</time>
					</trkpt>
					<trkpt lat="48.464790" lon="-4.031730">
						<ele>119</ele>
						<time>2026-09-02T03:22:49Z</time>
					</trkpt>
					<trkpt lat="48.465080" lon="-4.031710">
						<ele>119</ele>
						<time>2026-09-02T03:23:04Z</time>
					</trkpt>
					<trkpt lat="48.465320" lon="-4.031660">
						<ele>120</ele>
						<time>2026-09-02T03:23:16Z</time>
					</trkpt>
					<trkpt lat="48.465910" lon="-4.031630">
						<ele>121</ele>
						<time>2026-09-02T03:23:45Z</time>
					</trkpt>
					<trkpt lat="48.467630" lon="-4.031670">
						<ele>119</ele>
						<time>2026-09-02T03:25:11Z</time>
					</trkpt>
					<trkpt lat="48.467770" lon="-4.031660">
						<ele>118</ele>
						<time>2026-09-02T03:25:19Z</time>
					</trkpt>
					<trkpt lat="48.468330" lon="-4.031520">
						<ele>115</ele>
						<time>2026-09-02T03:25:47Z</time>
					</trkpt>
					<trkpt lat="48.468300" lon="-4.031540">
						<ele>116</ele>
						<time>2026-09-02T03:25:49Z</time>
					</trkpt>
					<trkpt lat="48.468980" lon="-4.033730">
						<ele>115</ele>
						<time>2026-09-02T03:27:09Z</time>
					</trkpt>
					<trkpt lat="48.469160" lon="-4.034480">
						<ele>114</ele>
						<time>2026-09-02T03:27:35Z</time>
					</trkpt>
					<trkpt lat="48.469610" lon="-4.035930">
						<ele>116</ele>
						<time>2026-09-02T03:28:28Z</time>
					</trkpt>
					<trkpt lat="48.469660" lon="-4.036000">
						<ele>116</ele>
						<time>2026-09-02T03:28:32Z</time>
					</trkpt>
					<trkpt lat="48.469790" lon="-4.036080">
						<ele>116</ele>
						<time>2026-09-02T03:28:39Z</time>
					</trkpt>
					<trkpt lat="48.470290" lon="-4.036090">
						<ele>114</ele>
						<time>2026-09-02T03:29:04Z</time>
					</trkpt>
					<trkpt lat="48.470360" lon="-4.036120">
						<ele>114</ele>
						<time>2026-09-02T03:29:07Z</time>
					</trkpt>
					<trkpt lat="48.470420" lon="-4.036180">
						<ele>114</ele>
						<time>2026-09-02T03:29:11Z</time>
					</trkpt>
					<trkpt lat="48.470510" lon="-4.036360">
						<ele>114</ele>
						<time>2026-09-02T03:29:19Z</time>
					</trkpt>
					<trkpt lat="48.470670" lon="-4.036850">
						<ele>114</ele>
						<time>2026-09-02T03:29:37Z</time>
					</trkpt>
					<trkpt lat="48.471250" lon="-4.038940">
						<ele>111</ele>
						<time>2026-09-02T03:30:52Z</time>
					</trkpt>
					<trkpt lat="48.471370" lon="-4.039200">
						<ele>111</ele>
						<time>2026-09-02T03:31:02Z</time>
					</trkpt>
					<trkpt lat="48.472150" lon="-4.038590">
						<ele>109</ele>
						<time>2026-09-02T03:31:46Z</time>
					</trkpt>
					<trkpt lat="48.472850" lon="-4.037690">
						<ele>103</ele>
						<time>2026-09-02T03:32:32Z</time>
					</trkpt>
					<trkpt lat="48.473250" lon="-4.036400">
						<ele>100</ele>
						<time>2026-09-02T03:33:20Z</time>
					</trkpt>
					<trkpt lat="48.473580" lon="-4.035140">
						<ele>106</ele>
						<time>2026-09-02T03:34:05Z</time>
					</trkpt>
					<trkpt lat="48.474330" lon="-4.034730">
						<ele>112</ele>
						<time>2026-09-02T03:34:44Z</time>
					</trkpt>
					<trkpt lat="48.475030" lon="-4.033720">
						<ele>113</ele>
						<time>2026-09-02T03:35:33Z</time>
					</trkpt>
					<trkpt lat="48.475420" lon="-4.033680">
						<ele>114</ele>
						<time>2026-09-02T03:35:53Z</time>
					</trkpt>
					<trkpt lat="48.476150" lon="-4.034130">
						<ele>116</ele>
						<time>2026-09-02T03:36:32Z</time>
					</trkpt>
					<trkpt lat="48.477940" lon="-4.034710">
						<ele>124</ele>
						<time>2026-09-02T03:38:04Z</time>
					</trkpt>
					<trkpt lat="48.478910" lon="-4.035460">
						<ele>129</ele>
						<time>2026-09-02T03:38:58Z</time>
					</trkpt>
					<trkpt lat="48.478880" lon="-4.033960">
						<ele>129</ele>
						<time>2026-09-02T03:39:48Z</time>
					</trkpt>
					<trkpt lat="48.478970" lon="-4.032920">
						<ele>130</ele>
						<time>2026-09-02T03:40:23Z</time>
					</trkpt>
					<trkpt lat="48.478960" lon="-4.031210">
						<ele>130</ele>
						<time>2026-09-02T03:41:19Z</time>
					</trkpt>
					<trkpt lat="48.479010" lon="-4.030760">
						<ele>131</ele>
						<time>2026-09-02T03:41:35Z</time>
					</trkpt>
					<trkpt lat="48.479740" lon="-4.030900">
						<ele>137</ele>
						<time>2026-09-02T03:42:11Z</time>
					</trkpt>
					<trkpt lat="48.479930" lon="-4.030900">
						<ele>138</ele>
						<time>2026-09-02T03:42:21Z</time>
					</trkpt>
					<trkpt lat="48.480240" lon="-4.030840">
						<ele>142</ele>
						<time>2026-09-02T03:42:37Z</time>
					</trkpt>
					<trkpt lat="48.480350" lon="-4.030850">
						<ele>143</ele>
						<time>2026-09-02T03:42:42Z</time>
					</trkpt>
					<trkpt lat="48.480580" lon="-4.030810">
						<ele>145</ele>
						<time>2026-09-02T03:42:54Z</time>
					</trkpt>
					<trkpt lat="48.480720" lon="-4.031030">
						<ele>147</ele>
						<time>2026-09-02T03:43:04Z</time>
					</trkpt>
					<trkpt lat="48.480840" lon="-4.031150">
						<ele>149</ele>
						<time>2026-09-02T03:43:11Z</time>
					</trkpt>
					<trkpt lat="48.481000" lon="-4.031240">
						<ele>149</ele>
						<time>2026-09-02T03:43:20Z</time>
					</trkpt>
					<trkpt lat="48.481090" lon="-4.031320">
						<ele>150</ele>
						<time>2026-09-02T03:43:25Z</time>
					</trkpt>
					<trkpt lat="48.481210" lon="-4.031710">
						<ele>151</ele>
						<time>2026-09-02T03:43:39Z</time>
					</trkpt>
					<trkpt lat="48.481070" lon="-4.031920">
						<ele>150</ele>
						<time>2026-09-02T03:43:49Z</time>
					</trkpt>
					<trkpt lat="48.481010" lon="-4.032070">
						<ele>149</ele>
						<time>2026-09-02T03:43:55Z</time>
					</trkpt>
					<trkpt lat="48.480940" lon="-4.032410">
						<ele>148</ele>
						<time>2026-09-02T03:44:07Z</time>
					</trkpt>
					<trkpt lat="48.480770" lon="-4.035560">
						<ele>140</ele>
						<time>2026-09-02T03:45:51Z</time>
					</trkpt>
					<trkpt lat="48.481980" lon="-4.035680">
						<ele>141</ele>
						<time>2026-09-02T03:46:52Z</time>
					</trkpt>
					<trkpt lat="48.482290" lon="-4.035770">
						<ele>140</ele>
						<time>2026-09-02T03:47:08Z</time>
					</trkpt>
					<trkpt lat="48.482960" lon="-4.036080">
						<ele>138</ele>
						<time>2026-09-02T03:47:43Z</time>
					</trkpt>
					<trkpt lat="48.482680" lon="-4.039080">
						<ele>130</ele>
						<time>2026-09-02T03:49:23Z</time>
					</trkpt>
					<trkpt lat="48.482150" lon="-4.041980">
						<ele>124</ele>
						<time>2026-09-02T03:51:03Z</time>
					</trkpt>
					<trkpt lat="48.483420" lon="-4.042560">
						<ele>118</ele>
						<time>2026-09-02T03:52:10Z</time>
					</trkpt>
					<trkpt lat="48.484260" lon="-4.043030">
						<ele>115</ele>
						<time>2026-09-02T03:52:54Z</time>
					</trkpt>
					<trkpt lat="48.485010" lon="-4.042840">
						<ele>113</ele>
						<time>2026-09-02T03:53:32Z</time>
					</trkpt>
					<trkpt lat="48.485890" lon="-4.042300">
						<ele>110</ele>
						<time>2026-09-02T03:54:20Z</time>
					</trkpt>
					<trkpt lat="48.486730" lon="-4.041570">
						<ele>110</ele>
						<time>2026-09-02T03:55:09Z</time>
					</trkpt>
					<trkpt lat="48.487600" lon="-4.041040">
						<ele>114</ele>
						<time>2026-09-02T03:55:55Z</time>
					</trkpt>
					<trkpt lat="48.487830" lon="-4.040410">
						<ele>116</ele>
						<time>2026-09-02T03:56:19Z</time>
					</trkpt>
					<trkpt lat="48.488350" lon="-4.040320">
						<ele>116</ele>
						<time>2026-09-02T03:56:46Z</time>
					</trkpt>
					<trkpt lat="48.488890" lon="-4.040360">
						<ele>113</ele>
						<time>2026-09-02T03:57:13Z</time>
					</trkpt>
					<trkpt lat="48.489470" lon="-4.040490">
						<ele>111</ele>
						<time>2026-09-02T03:57:42Z</time>
					</trkpt>
					<trkpt lat="48.489950" lon="-4.040560">
						<ele>110</ele>
						<time>2026-09-02T03:58:06Z</time>
					</trkpt>
					<trkpt lat="48.490360" lon="-4.040680">
						<ele>109</ele>
						<time>2026-09-02T03:58:27Z</time>
					</trkpt>
					<trkpt lat="48.490720" lon="-4.040750">
						<ele>107</ele>
						<time>2026-09-02T03:58:45Z</time>
					</trkpt>
					<trkpt lat="48.491760" lon="-4.040860">
						<ele>107</ele>
						<time>2026-09-02T03:59:37Z</time>
					</trkpt>
					<trkpt lat="48.492070" lon="-4.039940">
						<ele>106</ele>
						<time>2026-09-02T04:00:12Z</time>
					</trkpt>
					<trkpt lat="48.492310" lon="-4.040010">
						<ele>105</ele>
						<time>2026-09-02T04:00:24Z</time>
					</trkpt>
					<trkpt lat="48.492480" lon="-4.040010">
						<ele>105</ele>
						<time>2026-09-02T04:00:32Z</time>
					</trkpt>
					<trkpt lat="48.492890" lon="-4.040130">
						<ele>104</ele>
						<time>2026-09-02T04:00:53Z</time>
					</trkpt>
					<trkpt lat="48.492980" lon="-4.039770">
						<ele>103</ele>
						<time>2026-09-02T04:01:06Z</time>
					</trkpt>
					<trkpt lat="48.493230" lon="-4.039890">
						<ele>102</ele>
						<time>2026-09-02T04:01:19Z</time>
					</trkpt>
					<trkpt lat="48.493420" lon="-4.039800">
						<ele>101</ele>
						<time>2026-09-02T04:01:29Z</time>
					</trkpt>
					<trkpt lat="48.493620" lon="-4.039570">
						<ele>99</ele>
						<time>2026-09-02T04:01:42Z</time>
					</trkpt>
					<trkpt lat="48.493640" lon="-4.039250">
						<ele>99</ele>
						<time>2026-09-02T04:01:52Z</time>
					</trkpt>
					<trkpt lat="48.494040" lon="-4.039360">
						<ele>96</ele>
						<time>2026-09-02T04:02:13Z</time>
					</trkpt>
					<trkpt lat="48.494600" lon="-4.039000">
						<ele>96</ele>
						<time>2026-09-02T04:02:43Z</time>
					</trkpt>
					<trkpt lat="48.494650" lon="-4.039000">
						<ele>96</ele>
						<time>2026-09-02T04:02:46Z</time>
					</trkpt>
					<trkpt lat="48.494890" lon="-4.039260">
						<ele>95</ele>
						<time>2026-09-02T04:03:00Z</time>
					</trkpt>
					<trkpt lat="48.495140" lon="-4.039240">
						<ele>94</ele>
						<time>2026-09-02T04:03:13Z</time>
					</trkpt>
					<trkpt lat="48.495500" lon="-4.039090">
						<ele>96</ele>
						<time>2026-09-02T04:03:32Z</time>
					</trkpt>
					<trkpt lat="48.495700" lon="-4.039140">
						<ele>95</ele>
						<time>2026-09-02T04:03:42Z</time>
					</trkpt>
					<trkpt lat="48.495890" lon="-4.039470">
						<ele>93</ele>
						<time>2026-09-02T04:03:56Z</time>
					</trkpt>
					<trkpt lat="48.496080" lon="-4.040290">
						<ele>87</ele>
						<time>2026-09-02T04:04:25Z</time>
					</trkpt>
					<trkpt lat="48.496240" lon="-4.040700">
						<ele>86</ele>
						<time>2026-09-02T04:04:41Z</time>
					</trkpt>
					<trkpt lat="48.496390" lon="-4.040740">
						<ele>86</ele>
						<time>2026-09-02T04:04:48Z</time>
					</trkpt>
					<trkpt lat="48.496760" lon="-4.041410">
						<ele>85</ele>
						<time>2026-09-02T04:05:17Z</time>
					</trkpt>
					<trkpt lat="48.496990" lon="-4.042290">
						<ele>86</ele>
						<time>2026-09-02T04:05:49Z</time>
					</trkpt>
					<trkpt lat="48.497220" lon="-4.043630">
						<ele>89</ele>
						<time>2026-09-02T04:06:35Z</time>
					</trkpt>
					<trkpt lat="48.497580" lon="-4.043660">
						<ele>91</ele>
						<time>2026-09-02T04:06:53Z</time>
					</trkpt>
					<trkpt lat="48.497920" lon="-4.042530">
						<ele>92</ele>
						<time>2026-09-02T04:07:34Z</time>
					</trkpt>
					<trkpt lat="48.497970" lon="-4.042510">
						<ele>92</ele>
						<time>2026-09-02T04:07:36Z</time>
					</trkpt>
					<trkpt lat="48.498240" lon="-4.042530">
						<ele>93</ele>
						<time>2026-09-02T04:07:50Z</time>
					</trkpt>
					<trkpt lat="48.498570" lon="-4.042450">
						<ele>93</ele>
						<time>2026-09-02T04:08:07Z</time>
					</trkpt>
					<trkpt lat="48.498900" lon="-4.042420">
						<ele>92</ele>
						<time>2026-09-02T04:08:23Z</time>
					</trkpt>
					<trkpt lat="48.499350" lon="-4.042210">
						<ele>93</ele>
						<time>2026-09-02T04:08:47Z</time>
					</trkpt>
					<trkpt lat="48.499530" lon="-4.042170">
						<ele>93</ele>
						<time>2026-09-02T04:08:56Z</time>
					</trkpt>
					<trkpt lat="48.499740" lon="-4.042170">
						<ele>93</ele>
						<time>2026-09-02T04:09:06Z</time>
					</trkpt>
					<trkpt lat="48.500120" lon="-4.042300">
						<ele>91</ele>
						<time>2026-09-02T04:09:26Z</time>
					</trkpt>
					<trkpt lat="48.500270" lon="-4.041960">
						<ele>91</ele>
						<time>2026-09-02T04:09:39Z</time>
					</trkpt>
					<trkpt lat="48.501000" lon="-4.039670">
						<ele>93</ele>
						<time>2026-09-02T04:11:04Z</time>
					</trkpt>
					<trkpt lat="48.501500" lon="-4.040170">
						<ele>88</ele>
						<time>2026-09-02T04:11:34Z</time>
					</trkpt>
					<trkpt lat="48.502220" lon="-4.041110">
						<ele>82</ele>
						<time>2026-09-02T04:12:21Z</time>
					</trkpt>
					<trkpt lat="48.502420" lon="-4.041330">
						<ele>81</ele>
						<time>2026-09-02T04:12:34Z</time>
					</trkpt>
					<trkpt lat="48.502540" lon="-4.041720">
						<ele>79</ele>
						<time>2026-09-02T04:12:48Z</time>
					</trkpt>
					<trkpt lat="48.502720" lon="-4.041860">
						<ele>77</ele>
						<time>2026-09-02T04:12:58Z</time>
					</trkpt>
					<trkpt lat="48.503560" lon="-4.042150">
						<ele>66</ele>
						<time>2026-09-02T04:13:41Z</time>
					</trkpt>
					<trkpt lat="48.504610" lon="-4.039060">
						<ele>68</ele>
						<time>2026-09-02T04:15:36Z</time>
					</trkpt>
					<trkpt lat="48.503580" lon="-4.038000">
						<ele>81</ele>
						<time>2026-09-02T04:16:39Z</time>
					</trkpt>
					<trkpt lat="48.503700" lon="-4.035880">
						<ele>83</ele>
						<time>2026-09-02T04:17:49Z</time>
					</trkpt>
					<trkpt lat="48.503950" lon="-4.035020">
						<ele>81</ele>
						<time>2026-09-02T04:18:20Z</time>
					</trkpt>
					<trkpt lat="48.504340" lon="-4.033830">
						<ele>78</ele>
						<time>2026-09-02T04:19:04Z</time>
					</trkpt>
					<trkpt lat="48.503990" lon="-4.033330">
						<ele>81</ele>
						<time>2026-09-02T04:19:29Z</time>
					</trkpt>
					<trkpt lat="48.503850" lon="-4.033010">
						<ele>83</ele>
						<time>2026-09-02T04:19:41Z</time>
					</trkpt>
					<trkpt lat="48.503620" lon="-4.032310">
						<ele>88</ele>
						<time>2026-09-02T04:20:07Z</time>
					</trkpt>
					<trkpt lat="48.503450" lon="-4.031130">
						<ele>88</ele>
						<time>2026-09-02T04:20:47Z</time>
					</trkpt>
					<trkpt lat="48.503320" lon="-4.029760">
						<ele>90</ele>
						<time>2026-09-02T04:21:33Z</time>
					</trkpt>
					<trkpt lat="48.503240" lon="-4.029300">
						<ele>91</ele>
						<time>2026-09-02T04:21:49Z</time>
					</trkpt>
					<trkpt lat="48.503250" lon="-4.028760">
						<ele>92</ele>
						<time>2026-09-02T04:22:07Z</time>
					</trkpt>
					<trkpt lat="48.503970" lon="-4.027800">
						<ele>87</ele>
						<time>2026-09-02T04:22:55Z</time>
					</trkpt>
					<trkpt lat="48.503950" lon="-4.027510">
						<ele>86</ele>
						<time>2026-09-02T04:23:05Z</time>
					</trkpt>
					<trkpt lat="48.503840" lon="-4.026980">
						<ele>83</ele>
						<time>2026-09-02T04:23:23Z</time>
					</trkpt>
					<trkpt lat="48.503520" lon="-4.026190">
						<ele>80</ele>
						<time>2026-09-02T04:23:54Z</time>
					</trkpt>
					<trkpt lat="48.502770" lon="-4.024760">
						<ele>78</ele>
						<time>2026-09-02T04:24:54Z</time>
					</trkpt>
					<trkpt lat="48.502710" lon="-4.024600">
						<ele>78</ele>
						<time>2026-09-02T04:25:00Z</time>
					</trkpt>
					<trkpt lat="48.502600" lon="-4.024030">
						<ele>79</ele>
						<time>2026-09-02T04:25:20Z</time>
					</trkpt>
					<trkpt lat="48.502540" lon="-4.023860">
						<ele>79</ele>
						<time>2026-09-02T04:25:26Z</time>
					</trkpt>
					<trkpt lat="48.502240" lon="-4.023410">
						<ele>82</ele>
						<time>2026-09-02T04:25:47Z</time>
					</trkpt>
					<trkpt lat="48.502120" lon="-4.023170">
						<ele>83</ele>
						<time>2026-09-02T04:25:57Z</time>
					</trkpt>
					<trkpt lat="48.502010" lon="-4.022490">
						<ele>83</ele>
						<time>2026-09-02T04:26:21Z</time>
					</trkpt>
					<trkpt lat="48.502000" lon="-4.022090">
						<ele>83</ele>
						<time>2026-09-02T04:26:34Z</time>
					</trkpt>
					<trkpt lat="48.500890" lon="-4.019340">
						<ele>96</ele>
						<time>2026-09-02T04:28:21Z</time>
					</trkpt>
					<trkpt lat="48.500570" lon="-4.018690">
						<ele>99</ele>
						<time>2026-09-02T04:28:48Z</time>
					</trkpt>
					<trkpt lat="48.500320" lon="-4.017830">
						<ele>96</ele>
						<time>2026-09-02T04:29:19Z</time>
					</trkpt>
					<trkpt lat="48.499850" lon="-4.016930">
						<ele>90</ele>
						<time>2026-09-02T04:29:57Z</time>
					</trkpt>
					<trkpt lat="48.499620" lon="-4.016600">
						<ele>86</ele>
						<time>2026-09-02T04:30:13Z</time>
					</trkpt>
					<trkpt lat="48.499340" lon="-4.016650">
						<ele>87</ele>
						<time>2026-09-02T04:30:27Z</time>
					</trkpt>
					<trkpt lat="48.499070" lon="-4.016800">
						<ele>90</ele>
						<time>2026-09-02T04:30:41Z</time>
					</trkpt>
					<trkpt lat="48.498840" lon="-4.016790">
						<ele>91</ele>
						<time>2026-09-02T04:30:53Z</time>
					</trkpt>
					<trkpt lat="48.498660" lon="-4.016450">
						<ele>89</ele>
						<time>2026-09-02T04:31:07Z</time>
					</trkpt>
					<trkpt lat="48.498450" lon="-4.016290">
						<ele>89</ele>
						<time>2026-09-02T04:31:19Z</time>
					</trkpt>
					<trkpt lat="48.498210" lon="-4.016220">
						<ele>89</ele>
						<time>2026-09-02T04:31:31Z</time>
					</trkpt>
					<trkpt lat="48.497940" lon="-4.016220">
						<ele>91</ele>
						<time>2026-09-02T04:31:45Z</time>
					</trkpt>
					<trkpt lat="48.497640" lon="-4.016360">
						<ele>94</ele>
						<time>2026-09-02T04:32:00Z</time>
					</trkpt>
					<trkpt lat="48.497170" lon="-4.016210">
						<ele>93</ele>
						<time>2026-09-02T04:32:24Z</time>
					</trkpt>
					<trkpt lat="48.496460" lon="-4.016030">
						<ele>92</ele>
						<time>2026-09-02T04:33:00Z</time>
					</trkpt>
					<trkpt lat="48.496140" lon="-4.016000">
						<ele>91</ele>
						<time>2026-09-02T04:33:16Z</time>
					</trkpt>
					<trkpt lat="48.495790" lon="-4.016030">
						<ele>91</ele>
						<time>2026-09-02T04:33:34Z</time>
					</trkpt>
					<trkpt lat="48.495620" lon="-4.015950">
						<ele>91</ele>
						<time>2026-09-02T04:33:43Z</time>
					</trkpt>
					<trkpt lat="48.495310" lon="-4.015740">
						<ele>90</ele>
						<time>2026-09-02T04:34:00Z</time>
					</trkpt>
					<trkpt lat="48.495080" lon="-4.015640">
						<ele>90</ele>
						<time>2026-09-02T04:34:12Z</time>
					</trkpt>
					<trkpt lat="48.494440" lon="-4.015530">
						<ele>90</ele>
						<time>2026-09-02T04:34:44Z</time>
					</trkpt>
					<trkpt lat="48.493930" lon="-4.015220">
						<ele>92</ele>
						<time>2026-09-02T04:35:12Z</time>
					</trkpt>
					<trkpt lat="48.493430" lon="-4.014760">
						<ele>94</ele>
						<time>2026-09-02T04:35:41Z</time>
					</trkpt>
					<trkpt lat="48.492760" lon="-4.013860">
						<ele>96</ele>
						<time>2026-09-02T04:36:26Z</time>
					</trkpt>
					<trkpt lat="48.492650" lon="-4.013690">
						<ele>95</ele>
						<time>2026-09-02T04:36:34Z</time>
					</trkpt>
					<trkpt lat="48.492560" lon="-4.013440">
						<ele>94</ele>
						<time>2026-09-02T04:36:43Z</time>
					</trkpt>
					<trkpt lat="48.492490" lon="-4.013360">
						<ele>94</ele>
						<time>2026-09-02T04:36:47Z</time>
					</trkpt>
					<trkpt lat="48.492260" lon="-4.012940">
						<ele>95</ele>
						<time>2026-09-02T04:37:06Z</time>
					</trkpt>
					<trkpt lat="48.491870" lon="-4.012410">
						<ele>97</ele>
						<time>2026-09-02T04:37:32Z</time>
					</trkpt>
					<trkpt lat="48.491530" lon="-4.011890">
						<ele>99</ele>
						<time>2026-09-02T04:37:56Z</time>
					</trkpt>
					<trkpt lat="48.489300" lon="-4.008400">
						<ele>100</ele>
						<time>2026-09-02T04:40:37Z</time>
					</trkpt>
					<trkpt lat="48.489160" lon="-4.008260">
						<ele>101</ele>
						<time>2026-09-02T04:40:45Z</time>
					</trkpt>
					<trkpt lat="48.488620" lon="-4.007350">
						<ele>101</ele>
						<time>2026-09-02T04:41:26Z</time>
					</trkpt>
					<trkpt lat="48.488360" lon="-4.006850">
						<ele>99</ele>
						<time>2026-09-02T04:41:47Z</time>
					</trkpt>
					<trkpt lat="48.488320" lon="-4.006700">
						<ele>99</ele>
						<time>2026-09-02T04:41:52Z</time>
					</trkpt>
					<trkpt lat="48.488040" lon="-4.006160">
						<ele>97</ele>
						<time>2026-09-02T04:42:15Z</time>
					</trkpt>
					<trkpt lat="48.487080" lon="-4.004720">
						<ele>99</ele>
						<time>2026-09-02T04:43:23Z</time>
					</trkpt>
					<trkpt lat="48.487040" lon="-4.004620">
						<ele>99</ele>
						<time>2026-09-02T04:43:27Z</time>
					</trkpt>
					<trkpt lat="48.487030" lon="-4.004470">
						<ele>100</ele>
						<time>2026-09-02T04:43:32Z</time>
					</trkpt>
					<trkpt lat="48.486990" lon="-4.004350">
						<ele>100</ele>
						<time>2026-09-02T04:43:36Z</time>
					</trkpt>
					<trkpt lat="48.487100" lon="-4.004170">
						<ele>100</ele>
						<time>2026-09-02T04:43:44Z</time>
					</trkpt>
					<trkpt lat="48.487150" lon="-4.004000">
						<ele>101</ele>
						<time>2026-09-02T04:43:50Z</time>
					</trkpt>
					<trkpt lat="48.487650" lon="-4.000050">
						<ele>113</ele>
						<time>2026-09-02T04:46:04Z</time>
					</trkpt>
					<trkpt lat="48.487910" lon="-3.998470">
						<ele>119</ele>
						<time>2026-09-02T04:46:58Z</time>
					</trkpt>
					<trkpt lat="48.488070" lon="-3.998080">
						<ele>120</ele>
						<time>2026-09-02T04:47:13Z</time>
					</trkpt>
					<trkpt lat="48.487970" lon="-3.998020">
						<ele>120</ele>
						<time>2026-09-02T04:47:18Z</time>
					</trkpt>
					<trkpt lat="48.488070" lon="-3.998080">
						<ele>120</ele>
						<time>2026-09-02T04:47:24Z</time>
					</trkpt>
					<trkpt lat="48.488150" lon="-3.997930">
						<ele>121</ele>
						<time>2026-09-02T04:47:30Z</time>
					</trkpt>
					<trkpt lat="48.488160" lon="-3.997830">
						<ele>121</ele>
						<time>2026-09-02T04:47:33Z</time>
					</trkpt>
					<trkpt lat="48.488410" lon="-3.997940">
						<ele>121</ele>
						<time>2026-09-02T04:47:46Z</time>
					</trkpt>
					<trkpt lat="48.488650" lon="-3.998080">
						<ele>121</ele>
						<time>2026-09-02T04:47:59Z</time>
					</trkpt>
					<trkpt lat="48.489190" lon="-3.998620">
						<ele>120</ele>
						<time>2026-09-02T04:48:32Z</time>
					</trkpt>
					<trkpt lat="48.489590" lon="-3.999220">
						<ele>119</ele>
						<time>2026-09-02T04:49:00Z</time>
					</trkpt>
					<trkpt lat="48.489670" lon="-3.999390">
						<ele>119</ele>
						<time>2026-09-02T04:49:07Z</time>
					</trkpt>
					<trkpt lat="48.489710" lon="-3.999570">
						<ele>119</ele>
						<time>2026-09-02T04:49:13Z</time>
					</trkpt>
					<trkpt lat="48.490080" lon="-3.999590">
						<ele>120</ele>
						<time>2026-09-02T04:49:32Z</time>
					</trkpt>
					<trkpt lat="48.490520" lon="-3.999570">
						<ele>121</ele>
						<time>2026-09-02T04:49:54Z</time>
					</trkpt>
					<trkpt lat="48.490820" lon="-3.999430">
						<ele>122</ele>
						<time>2026-09-02T04:50:09Z</time>
					</trkpt>
					<trkpt lat="48.491000" lon="-3.999310">
						<ele>122</ele>
						<time>2026-09-02T04:50:19Z</time>
					</trkpt>
					<trkpt lat="48.491280" lon="-3.999050">
						<ele>123</ele>
						<time>2026-09-02T04:50:36Z</time>
					</trkpt>
					<trkpt lat="48.491840" lon="-3.998450">
						<ele>125</ele>
						<time>2026-09-02T04:51:10Z</time>
					</trkpt>
					<trkpt lat="48.491930" lon="-3.998320">
						<ele>125</ele>
						<time>2026-09-02T04:51:16Z</time>
					</trkpt>
					<trkpt lat="48.492080" lon="-3.997700">
						<ele>126</ele>
						<time>2026-09-02T04:51:38Z</time>
					</trkpt>
					<trkpt lat="48.492130" lon="-3.997570">
						<ele>126</ele>
						<time>2026-09-02T04:51:43Z</time>
					</trkpt>
					<trkpt lat="48.492170" lon="-3.997530">
						<ele>126</ele>
						<time>2026-09-02T04:51:46Z</time>
					</trkpt>
					<trkpt lat="48.492680" lon="-3.997500">
						<ele>126</ele>
						<time>2026-09-02T04:52:11Z</time>
					</trkpt>
					<trkpt lat="48.493460" lon="-3.997300">
						<ele>126</ele>
						<time>2026-09-02T04:52:51Z</time>
					</trkpt>
					<trkpt lat="48.493860" lon="-3.997230">
						<ele>126</ele>
						<time>2026-09-02T04:53:11Z</time>
					</trkpt>
					<trkpt lat="48.494970" lon="-3.997230">
						<ele>126</ele>
						<time>2026-09-02T04:54:06Z</time>
					</trkpt>
					<trkpt lat="48.495790" lon="-3.997270">
						<ele>126</ele>
						<time>2026-09-02T04:54:47Z</time>
					</trkpt>
					<trkpt lat="48.496070" lon="-3.997240">
						<ele>126</ele>
						<time>2026-09-02T04:55:02Z</time>
					</trkpt>
					<trkpt lat="48.496280" lon="-3.997160">
						<ele>126</ele>
						<time>2026-09-02T04:55:12Z</time>
					</trkpt>
					<trkpt lat="48.496720" lon="-3.996870">
						<ele>127</ele>
						<time>2026-09-02T04:55:36Z</time>
					</trkpt>
					<trkpt lat="48.497000" lon="-3.996940">
						<ele>127</ele>
						<time>2026-09-02T04:55:51Z</time>
					</trkpt>
					<trkpt lat="48.497270" lon="-3.997070">
						<ele>127</ele>
						<time>2026-09-02T04:56:05Z</time>
					</trkpt>
					<trkpt lat="48.497700" lon="-3.997030">
						<ele>127</ele>
						<time>2026-09-02T04:56:26Z</time>
					</trkpt>
					<trkpt lat="48.497580" lon="-3.995510">
						<ele>127</ele>
						<time>2026-09-02T04:57:17Z</time>
					</trkpt>
					<trkpt lat="48.497560" lon="-3.993380">
						<ele>126</ele>
						<time>2026-09-02T04:58:28Z</time>
					</trkpt>
					<trkpt lat="48.497830" lon="-3.993420">
						<ele>126</ele>
						<time>2026-09-02T04:58:41Z</time>
					</trkpt>
					<trkpt lat="48.497860" lon="-3.993240">
						<ele>126</ele>
						<time>2026-09-02T04:58:47Z</time>
					</trkpt>
					<trkpt lat="48.497930" lon="-3.993050">
						<ele>126</ele>
						<time>2026-09-02T04:58:55Z</time>
					</trkpt>
					<trkpt lat="48.498050" lon="-3.992750">
						<ele>126</ele>
						<time>2026-09-02T04:59:06Z</time>
					</trkpt>
					<trkpt lat="48.498200" lon="-3.992480">
						<ele>126</ele>
						<time>2026-09-02T04:59:18Z</time>
					</trkpt>
					<trkpt lat="48.498400" lon="-3.992260">
						<ele>126</ele>
						<time>2026-09-02T04:59:30Z</time>
					</trkpt>
					<trkpt lat="48.499180" lon="-3.991590">
						<ele>127</ele>
						<time>2026-09-02T05:00:15Z</time>
					</trkpt>
					<trkpt lat="48.499330" lon="-3.991400">
						<ele>127</ele>
						<time>2026-09-02T05:00:25Z</time>
					</trkpt>
					<trkpt lat="48.499280" lon="-3.991460">
						<ele>127</ele>
						<time>2026-09-02T05:00:28Z</time>
					</trkpt>
					<trkpt lat="48.499260" lon="-3.991140">
						<ele>127</ele>
						<time>2026-09-02T05:00:39Z</time>
					</trkpt>
					<trkpt lat="48.499290" lon="-3.990440">
						<ele>126</ele>
						<time>2026-09-02T05:01:02Z</time>
					</trkpt>
					<trkpt lat="48.499410" lon="-3.989340">
						<ele>124</ele>
						<time>2026-09-02T05:01:39Z</time>
					</trkpt>
					<trkpt lat="48.499090" lon="-3.989300">
						<ele>124</ele>
						<time>2026-09-02T05:01:55Z</time>
					</trkpt>
					<trkpt lat="48.498810" lon="-3.989230">
						<ele>124</ele>
						<time>2026-09-02T05:02:09Z</time>
					</trkpt>
					<trkpt lat="48.498530" lon="-3.989120">
						<ele>123</ele>
						<time>2026-09-02T05:02:24Z</time>
					</trkpt>
					<trkpt lat="48.498350" lon="-3.988990">
						<ele>123</ele>
						<time>2026-09-02T05:02:34Z</time>
					</trkpt>
					<trkpt lat="48.498900" lon="-3.987870">
						<ele>120</ele>
						<time>2026-09-02T05:03:20Z</time>
					</trkpt>
					<trkpt lat="48.499470" lon="-3.986920">
						<ele>118</ele>
						<time>2026-09-02T05:04:03Z</time>
					</trkpt>
					<trkpt lat="48.499720" lon="-3.986450">
						<ele>117</ele>
						<time>2026-09-02T05:04:23Z</time>
					</trkpt>
					<trkpt lat="48.500620" lon="-3.984480">
						<ele>113</ele>
						<time>2026-09-02T05:05:42Z</time>
					</trkpt>
					<trkpt lat="48.500780" lon="-3.984210">
						<ele>113</ele>
						<time>2026-09-02T05:05:54Z</time>
					</trkpt>
					<trkpt lat="48.501260" lon="-3.983600">
						<ele>114</ele>
						<time>2026-09-02T05:06:25Z</time>
					</trkpt>
					<trkpt lat="48.501430" lon="-3.983350">
						<ele>114</ele>
						<time>2026-09-02T05:06:37Z</time>
					</trkpt>
					<trkpt lat="48.501580" lon="-3.983110">
						<ele>115</ele>
						<time>2026-09-02T05:06:48Z</time>
					</trkpt>
					<trkpt lat="48.501850" lon="-3.982590">
						<ele>114</ele>
						<time>2026-09-02T05:07:10Z</time>
					</trkpt>
					<trkpt lat="48.502030" lon="-3.982320">
						<ele>114</ele>
						<time>2026-09-02T05:07:23Z</time>
					</trkpt>
					<trkpt lat="48.502240" lon="-3.982080">
						<ele>114</ele>
						<time>2026-09-02T05:07:36Z</time>
					</trkpt>
					<trkpt lat="48.502490" lon="-3.981860">
						<ele>114</ele>
						<time>2026-09-02T05:07:50Z</time>
					</trkpt>
					<trkpt lat="48.503250" lon="-3.981400">
						<ele>115</ele>
						<time>2026-09-02T05:08:31Z</time>
					</trkpt>
					<trkpt lat="48.503490" lon="-3.981320">
						<ele>115</ele>
						<time>2026-09-02T05:08:44Z</time>
					</trkpt>
					<trkpt lat="48.503630" lon="-3.981310">
						<ele>115</ele>
						<time>2026-09-02T05:08:51Z</time>
					</trkpt>
					<trkpt lat="48.503800" lon="-3.981340">
						<ele>116</ele>
						<time>2026-09-02T05:08:59Z</time>
					</trkpt>
					<trkpt lat="48.504500" lon="-3.981600">
						<ele>118</ele>
						<time>2026-09-02T05:09:35Z</time>
					</trkpt>
					<trkpt lat="48.504600" lon="-3.981590">
						<ele>118</ele>
						<time>2026-09-02T05:09:40Z</time>
					</trkpt>
					<trkpt lat="48.504730" lon="-3.981440">
						<ele>117</ele>
						<time>2026-09-02T05:09:49Z</time>
					</trkpt>
					<trkpt lat="48.505090" lon="-3.980750">
						<ele>116</ele>
						<time>2026-09-02T05:10:18Z</time>
					</trkpt>
					<trkpt lat="48.505200" lon="-3.980700">
						<ele>115</ele>
						<time>2026-09-02T05:10:23Z</time>
					</trkpt>
					<trkpt lat="48.505160" lon="-3.980710">
						<ele>115</ele>
						<time>2026-09-02T05:10:25Z</time>
					</trkpt>
					<trkpt lat="48.505150" lon="-3.980330">
						<ele>115</ele>
						<time>2026-09-02T05:10:38Z</time>
					</trkpt>
					<trkpt lat="48.505160" lon="-3.979860">
						<ele>114</ele>
						<time>2026-09-02T05:10:54Z</time>
					</trkpt>
					<trkpt lat="48.505200" lon="-3.979410">
						<ele>111</ele>
						<time>2026-09-02T05:11:09Z</time>
					</trkpt>
					<trkpt lat="48.505430" lon="-3.978850">
						<ele>107</ele>
						<time>2026-09-02T05:11:31Z</time>
					</trkpt>
					<trkpt lat="48.505600" lon="-3.978550">
						<ele>106</ele>
						<time>2026-09-02T05:11:44Z</time>
					</trkpt>
					<trkpt lat="48.505670" lon="-3.978360">
						<ele>105</ele>
						<time>2026-09-02T05:11:51Z</time>
					</trkpt>
					<trkpt lat="48.506060" lon="-3.977670">
						<ele>102</ele>
						<time>2026-09-02T05:12:21Z</time>
					</trkpt>
					<trkpt lat="48.506200" lon="-3.977180">
						<ele>99</ele>
						<time>2026-09-02T05:12:39Z</time>
					</trkpt>
					<trkpt lat="48.506250" lon="-3.976860">
						<ele>97</ele>
						<time>2026-09-02T05:12:50Z</time>
					</trkpt>
					<trkpt lat="48.506510" lon="-3.976790">
						<ele>95</ele>
						<time>2026-09-02T05:13:03Z</time>
					</trkpt>
					<trkpt lat="48.506620" lon="-3.976670">
						<ele>94</ele>
						<time>2026-09-02T05:13:10Z</time>
					</trkpt>
					<trkpt lat="48.506750" lon="-3.976170">
						<ele>90</ele>
						<time>2026-09-02T05:13:27Z</time>
					</trkpt>
					<trkpt lat="48.506790" lon="-3.975870">
						<ele>87</ele>
						<time>2026-09-02T05:13:37Z</time>
					</trkpt>
					<trkpt lat="48.506790" lon="-3.975690">
						<ele>87</ele>
						<time>2026-09-02T05:13:43Z</time>
					</trkpt>
					<trkpt lat="48.506720" lon="-3.975120">
						<ele>86</ele>
						<time>2026-09-02T05:14:03Z</time>
					</trkpt>
					<trkpt lat="48.506840" lon="-3.974490">
						<ele>84</ele>
						<time>2026-09-02T05:14:24Z</time>
					</trkpt>
					<trkpt lat="48.506910" lon="-3.974320">
						<ele>83</ele>
						<time>2026-09-02T05:14:31Z</time>
					</trkpt>
					<trkpt lat="48.507180" lon="-3.974130">
						<ele>79</ele>
						<time>2026-09-02T05:14:46Z</time>
					</trkpt>
					<trkpt lat="48.507220" lon="-3.974080">
						<ele>78</ele>
						<time>2026-09-02T05:14:49Z</time>
					</trkpt>
					<trkpt lat="48.507410" lon="-3.973720">
						<ele>73</ele>
						<time>2026-09-02T05:15:04Z</time>
					</trkpt>
					<trkpt lat="48.507420" lon="-3.973640">
						<ele>72</ele>
						<time>2026-09-02T05:15:07Z</time>
					</trkpt>
					<trkpt lat="48.507440" lon="-3.973680">
						<ele>72</ele>
						<time>2026-09-02T05:15:08Z</time>
					</trkpt>
					<trkpt lat="48.507330" lon="-3.973460">
						<ele>72</ele>
						<time>2026-09-02T05:15:17Z</time>
					</trkpt>
					<trkpt lat="48.507140" lon="-3.973200">
						<ele>72</ele>
						<time>2026-09-02T05:15:30Z</time>
					</trkpt>
					<trkpt lat="48.506660" lon="-3.972820">
						<ele>71</ele>
						<time>2026-09-02T05:15:57Z</time>
					</trkpt>
					<trkpt lat="48.506390" lon="-3.972540">
						<ele>68</ele>
						<time>2026-09-02T05:16:14Z</time>
					</trkpt>
					<trkpt lat="48.506330" lon="-3.972530">
						<ele>68</ele>
						<time>2026-09-02T05:16:17Z</time>
					</trkpt>
					<trkpt lat="48.506280" lon="-3.972570">
						<ele>69</ele>
						<time>2026-09-02T05:16:20Z</time>
					</trkpt>
					<trkpt lat="48.506020" lon="-3.972650">
						<ele>73</ele>
						<time>2026-09-02T05:16:33Z</time>
					</trkpt>
					<trkpt lat="48.506050" lon="-3.972370">
						<ele>68</ele>
						<time>2026-09-02T05:16:42Z</time>
					</trkpt>
					<trkpt lat="48.505690" lon="-3.972250">
						<ele>69</ele>
						<time>2026-09-02T05:17:01Z</time>
					</trkpt>
					<trkpt lat="48.505240" lon="-3.972280">
						<ele>69</ele>
						<time>2026-09-02T05:17:23Z</time>
					</trkpt>
					<trkpt lat="48.505190" lon="-3.972150">
						<ele>69</ele>
						<time>2026-09-02T05:17:28Z</time>
					</trkpt>
					<trkpt lat="48.505040" lon="-3.972050">
						<ele>70</ele>
						<time>2026-09-02T05:17:36Z</time>
					</trkpt>
					<trkpt lat="48.504970" lon="-3.972190">
						<ele>70</ele>
						<time>2026-09-02T05:17:42Z</time>
					</trkpt>
					<trkpt lat="48.504900" lon="-3.972230">
						<ele>69</ele>
						<time>2026-09-02T05:17:46Z</time>
					</trkpt>
					<trkpt lat="48.504710" lon="-3.972590">
						<ele>68</ele>
						<time>2026-09-02T05:18:01Z</time>
					</trkpt>
					<trkpt lat="48.504460" lon="-3.972760">
						<ele>68</ele>
						<time>2026-09-02T05:18:15Z</time>
					</trkpt>
					<trkpt lat="48.504340" lon="-3.972590">
						<ele>64</ele>
						<time>2026-09-02T05:18:23Z</time>
					</trkpt>
					<trkpt lat="48.504330" lon="-3.972370">
						<ele>65</ele>
						<time>2026-09-02T05:18:30Z</time>
					</trkpt>
					<trkpt lat="48.504270" lon="-3.972320">
						<ele>65</ele>
						<time>2026-09-02T05:18:34Z</time>
					</trkpt>
					<trkpt lat="48.504140" lon="-3.971610">
						<ele>72</ele>
						<time>2026-09-02T05:18:58Z</time>
					</trkpt>
					<trkpt lat="48.504290" lon="-3.970530">
						<ele>87</ele>
						<time>2026-09-02T05:19:35Z</time>
					</trkpt>
					<trkpt lat="48.504270" lon="-3.970150">
						<ele>91</ele>
						<time>2026-09-02T05:19:48Z</time>
					</trkpt>
					<trkpt lat="48.504310" lon="-3.969450">
						<ele>97</ele>
						<time>2026-09-02T05:20:11Z</time>
					</trkpt>
					<trkpt lat="48.504670" lon="-3.968350">
						<ele>106</ele>
						<time>2026-09-02T05:20:52Z</time>
					</trkpt>
					<trkpt lat="48.504660" lon="-3.967890">
						<ele>108</ele>
						<time>2026-09-02T05:21:07Z</time>
					</trkpt>
					<trkpt lat="48.505270" lon="-3.967760">
						<ele>111</ele>
						<time>2026-09-02T05:21:38Z</time>
					</trkpt>
					<trkpt lat="48.505420" lon="-3.966830">
						<ele>114</ele>
						<time>2026-09-02T05:22:09Z</time>
					</trkpt>
					<trkpt lat="48.505470" lon="-3.966710">
						<ele>114</ele>
						<time>2026-09-02T05:22:14Z</time>
					</trkpt>
					<trkpt lat="48.506110" lon="-3.967340">
						<ele>115</ele>
						<time>2026-09-02T05:22:52Z</time>
					</trkpt>
					<trkpt lat="48.506420" lon="-3.967540">
						<ele>114</ele>
						<time>2026-09-02T05:23:09Z</time>
					</trkpt>
					<trkpt lat="48.506730" lon="-3.967690">
						<ele>114</ele>
						<time>2026-09-02T05:23:25Z</time>
					</trkpt>
					<trkpt lat="48.507120" lon="-3.967720">
						<ele>113</ele>
						<time>2026-09-02T05:23:45Z</time>
					</trkpt>
					<trkpt lat="48.507260" lon="-3.967690">
						<ele>113</ele>
						<time>2026-09-02T05:23:52Z</time>
					</trkpt>
					<trkpt lat="48.507330" lon="-3.967640">
						<ele>113</ele>
						<time>2026-09-02T05:23:56Z</time>
					</trkpt>
					<trkpt lat="48.507450" lon="-3.967500">
						<ele>114</ele>
						<time>2026-09-02T05:24:04Z</time>
					</trkpt>
					<trkpt lat="48.507710" lon="-3.967070">
						<ele>114</ele>
						<time>2026-09-02T05:24:23Z</time>
					</trkpt>
					<trkpt lat="48.508720" lon="-3.965320">
						<ele>114</ele>
						<time>2026-09-02T05:25:40Z</time>
					</trkpt>
					<trkpt lat="48.509540" lon="-3.964110">
						<ele>109</ele>
						<time>2026-09-02T05:26:37Z</time>
					</trkpt>
					<trkpt lat="48.509660" lon="-3.963970">
						<ele>108</ele>
						<time>2026-09-02T05:26:45Z</time>
					</trkpt>
					<trkpt lat="48.510010" lon="-3.963720">
						<ele>105</ele>
						<time>2026-09-02T05:27:04Z</time>
					</trkpt>
					<trkpt lat="48.510180" lon="-3.963660">
						<ele>104</ele>
						<time>2026-09-02T05:27:13Z</time>
					</trkpt>
					<trkpt lat="48.510290" lon="-3.963600">
						<ele>103</ele>
						<time>2026-09-02T05:27:19Z</time>
					</trkpt>
					<trkpt lat="48.510490" lon="-3.963430">
						<ele>101</ele>
						<time>2026-09-02T05:27:30Z</time>
					</trkpt>
					<trkpt lat="48.510840" lon="-3.963270">
						<ele>99</ele>
						<time>2026-09-02T05:27:49Z</time>
					</trkpt>
					<trkpt lat="48.510720" lon="-3.962230">
						<ele>94</ele>
						<time>2026-09-02T05:28:23Z</time>
					</trkpt>
					<trkpt lat="48.510540" lon="-3.961270">
						<ele>87</ele>
						<time>2026-09-02T05:28:57Z</time>
					</trkpt>
					<trkpt lat="48.510500" lon="-3.960820">
						<ele>85</ele>
						<time>2026-09-02T05:29:12Z</time>
					</trkpt>
					<trkpt lat="48.510480" lon="-3.960110">
						<ele>85</ele>
						<time>2026-09-02T05:29:35Z</time>
					</trkpt>
					<trkpt lat="48.510600" lon="-3.959870">
						<ele>86</ele>
						<time>2026-09-02T05:29:45Z</time>
					</trkpt>
					<trkpt lat="48.510650" lon="-3.959640">
						<ele>89</ele>
						<time>2026-09-02T05:29:53Z</time>
					</trkpt>
					<trkpt lat="48.510670" lon="-3.959380">
						<ele>92</ele>
						<time>2026-09-02T05:30:02Z</time>
					</trkpt>
					<trkpt lat="48.510640" lon="-3.959010">
						<ele>95</ele>
						<time>2026-09-02T05:30:14Z</time>
					</trkpt>
					<trkpt lat="48.510660" lon="-3.958930">
						<ele>95</ele>
						<time>2026-09-02T05:30:17Z</time>
					</trkpt>
					<trkpt lat="48.510700" lon="-3.958860">
						<ele>96</ele>
						<time>2026-09-02T05:30:20Z</time>
					</trkpt>
					<trkpt lat="48.511180" lon="-3.958830">
						<ele>94</ele>
						<time>2026-09-02T05:30:44Z</time>
					</trkpt>
					<trkpt lat="48.511360" lon="-3.958730">
						<ele>94</ele>
						<time>2026-09-02T05:30:54Z</time>
					</trkpt>
					<trkpt lat="48.511400" lon="-3.958590">
						<ele>95</ele>
						<time>2026-09-02T05:30:59Z</time>
					</trkpt>
					<trkpt lat="48.511430" lon="-3.958040">
						<ele>97</ele>
						<time>2026-09-02T05:31:17Z</time>
					</trkpt>
					<trkpt lat="48.511520" lon="-3.957850">
						<ele>97</ele>
						<time>2026-09-02T05:31:25Z</time>
					</trkpt>
					<trkpt lat="48.511560" lon="-3.957810">
						<ele>97</ele>
						<time>2026-09-02T05:31:27Z</time>
					</trkpt>
					<trkpt lat="48.512030" lon="-3.957650">
						<ele>94</ele>
						<time>2026-09-02T05:31:51Z</time>
					</trkpt>
					<trkpt lat="48.512300" lon="-3.957510">
						<ele>92</ele>
						<time>2026-09-02T05:32:06Z</time>
					</trkpt>
					<trkpt lat="48.512420" lon="-3.957380">
						<ele>92</ele>
						<time>2026-09-02T05:32:13Z</time>
					</trkpt>
					<trkpt lat="48.512580" lon="-3.956780">
						<ele>92</ele>
						<time>2026-09-02T05:32:34Z</time>
					</trkpt>
					<trkpt lat="48.512740" lon="-3.956700">
						<ele>92</ele>
						<time>2026-09-02T05:32:43Z</time>
					</trkpt>
					<trkpt lat="48.512930" lon="-3.956690">
						<ele>91</ele>
						<time>2026-09-02T05:32:52Z</time>
					</trkpt>
					<trkpt lat="48.513640" lon="-3.956750">
						<ele>88</ele>
						<time>2026-09-02T05:33:28Z</time>
					</trkpt>
					<trkpt lat="48.513740" lon="-3.956730">
						<ele>87</ele>
						<time>2026-09-02T05:33:33Z</time>
					</trkpt>
					<trkpt lat="48.513790" lon="-3.956670">
						<ele>87</ele>
						<time>2026-09-02T05:33:36Z</time>
					</trkpt>
					<trkpt lat="48.513820" lon="-3.956520">
						<ele>88</ele>
						<time>2026-09-02T05:33:41Z</time>
					</trkpt>
					<trkpt lat="48.513790" lon="-3.955070">
						<ele>94</ele>
						<time>2026-09-02T05:34:30Z</time>
					</trkpt>
					<trkpt lat="48.513810" lon="-3.954610">
						<ele>95</ele>
						<time>2026-09-02T05:34:45Z</time>
					</trkpt>
					<trkpt lat="48.513860" lon="-3.954190">
						<ele>97</ele>
						<time>2026-09-02T05:34:59Z</time>
					</trkpt>
					<trkpt lat="48.513920" lon="-3.954000">
						<ele>97</ele>
						<time>2026-09-02T05:35:06Z</time>
					</trkpt>
					<trkpt lat="48.513980" lon="-3.953940">
						<ele>97</ele>
						<time>2026-09-02T05:35:10Z</time>
					</trkpt>
					<trkpt lat="48.514060" lon="-3.953900">
						<ele>97</ele>
						<time>2026-09-02T05:35:14Z</time>
					</trkpt>
					<trkpt lat="48.514190" lon="-3.953900">
						<ele>96</ele>
						<time>2026-09-02T05:35:20Z</time>
					</trkpt>
					<trkpt lat="48.515220" lon="-3.954350">
						<ele>92</ele>
						<time>2026-09-02T05:36:14Z</time>
					</trkpt>
					<trkpt lat="48.516550" lon="-3.954650">
						<ele>85</ele>
						<time>2026-09-02T05:37:21Z</time>
					</trkpt>
					<trkpt lat="48.517750" lon="-3.955000">
						<ele>81</ele>
						<time>2026-09-02T05:38:22Z</time>
					</trkpt>
					<trkpt lat="48.517960" lon="-3.955110">
						<ele>79</ele>
						<time>2026-09-02T05:38:34Z</time>
					</trkpt>
					<trkpt lat="48.518680" lon="-3.955740">
						<ele>73</ele>
						<time>2026-09-02T05:39:15Z</time>
					</trkpt>
					<trkpt lat="48.518890" lon="-3.955870">
						<ele>71</ele>
						<time>2026-09-02T05:39:27Z</time>
					</trkpt>
					<trkpt lat="48.519650" lon="-3.956210">
						<ele>68</ele>
						<time>2026-09-02T05:40:06Z</time>
					</trkpt>
					<trkpt lat="48.519850" lon="-3.956220">
						<ele>68</ele>
						<time>2026-09-02T05:40:16Z</time>
					</trkpt>
					<trkpt lat="48.519940" lon="-3.956060">
						<ele>68</ele>
						<time>2026-09-02T05:40:23Z</time>
					</trkpt>
					<trkpt lat="48.520240" lon="-3.955240">
						<ele>67</ele>
						<time>2026-09-02T05:40:54Z</time>
					</trkpt>
					<trkpt lat="48.520420" lon="-3.954430">
						<ele>66</ele>
						<time>2026-09-02T05:41:23Z</time>
					</trkpt>
					<trkpt lat="48.520430" lon="-3.954180">
						<ele>66</ele>
						<time>2026-09-02T05:41:31Z</time>
					</trkpt>
					<trkpt lat="48.520420" lon="-3.953880">
						<ele>65</ele>
						<time>2026-09-02T05:41:41Z</time>
					</trkpt>
					<trkpt lat="48.520320" lon="-3.953400">
						<ele>65</ele>
						<time>2026-09-02T05:41:57Z</time>
					</trkpt>
					<trkpt lat="48.520210" lon="-3.953030">
						<ele>66</ele>
						<time>2026-09-02T05:42:11Z</time>
					</trkpt>
					<trkpt lat="48.520000" lon="-3.952540">
						<ele>66</ele>
						<time>2026-09-02T05:42:30Z</time>
					</trkpt>
					<trkpt lat="48.519870" lon="-3.952170">
						<ele>68</ele>
						<time>2026-09-02T05:42:44Z</time>
					</trkpt>
					<trkpt lat="48.519810" lon="-3.951840">
						<ele>70</ele>
						<time>2026-09-02T05:42:55Z</time>
					</trkpt>
					<trkpt lat="48.519850" lon="-3.950450">
						<ele>79</ele>
						<time>2026-09-02T05:43:42Z</time>
					</trkpt>
					<trkpt lat="48.519770" lon="-3.949460">
						<ele>84</ele>
						<time>2026-09-02T05:44:15Z</time>
					</trkpt>
					<trkpt lat="48.519670" lon="-3.948580">
						<ele>88</ele>
						<time>2026-09-02T05:44:44Z</time>
					</trkpt>
					<trkpt lat="48.519650" lon="-3.947940">
						<ele>90</ele>
						<time>2026-09-02T05:45:05Z</time>
					</trkpt>
					<trkpt lat="48.519840" lon="-3.947210">
						<ele>90</ele>
						<time>2026-09-02T05:45:31Z</time>
					</trkpt>
					<trkpt lat="48.520040" lon="-3.946200">
						<ele>90</ele>
						<time>2026-09-02T05:46:06Z</time>
					</trkpt>
					<trkpt lat="48.519960" lon="-3.946180">
						<ele>90</ele>
						<time>2026-09-02T05:46:10Z</time>
					</trkpt>
					<trkpt lat="48.519760" lon="-3.945980">
						<ele>92</ele>
						<time>2026-09-02T05:46:22Z</time>
					</trkpt>
					<trkpt lat="48.519340" lon="-3.945300">
						<ele>95</ele>
						<time>2026-09-02T05:46:53Z</time>
					</trkpt>
					<trkpt lat="48.519130" lon="-3.944860">
						<ele>98</ele>
						<time>2026-09-02T05:47:11Z</time>
					</trkpt>
					<trkpt lat="48.518990" lon="-3.944640">
						<ele>99</ele>
						<time>2026-09-02T05:47:21Z</time>
					</trkpt>
					<trkpt lat="48.518890" lon="-3.944540">
						<ele>100</ele>
						<time>2026-09-02T05:47:27Z</time>
					</trkpt>
					<trkpt lat="48.518750" lon="-3.944480">
						<ele>101</ele>
						<time>2026-09-02T05:47:35Z</time>
					</trkpt>
					<trkpt lat="48.518420" lon="-3.944410">
						<ele>103</ele>
						<time>2026-09-02T05:47:51Z</time>
					</trkpt>
					<trkpt lat="48.517650" lon="-3.944340">
						<ele>108</ele>
						<time>2026-09-02T05:48:30Z</time>
					</trkpt>
					<trkpt lat="48.517060" lon="-3.944160">
						<ele>112</ele>
						<time>2026-09-02T05:49:00Z</time>
					</trkpt>
					<trkpt lat="48.517030" lon="-3.944250">
						<ele>112</ele>
						<time>2026-09-02T05:49:03Z</time>
					</trkpt>
					<trkpt lat="48.516970" lon="-3.944240">
						<ele>113</ele>
						<time>2026-09-02T05:49:06Z</time>
					</trkpt>
					<trkpt lat="48.516950" lon="-3.944210">
						<ele>113</ele>
						<time>2026-09-02T05:49:08Z</time>
					</trkpt>
					<trkpt lat="48.516830" lon="-3.944290">
						<ele>114</ele>
						<time>2026-09-02T05:49:14Z</time>
					</trkpt>
					<trkpt lat="48.516600" lon="-3.944250">
						<ele>115</ele>
						<time>2026-09-02T05:49:26Z</time>
					</trkpt>
					<trkpt lat="48.516040" lon="-3.944300">
						<ele>118</ele>
						<time>2026-09-02T05:49:54Z</time>
					</trkpt>
					<trkpt lat="48.515690" lon="-3.944370">
						<ele>118</ele>
						<time>2026-09-02T05:50:12Z</time>
					</trkpt>
					<trkpt lat="48.515480" lon="-3.944450">
						<ele>119</ele>
						<time>2026-09-02T05:50:23Z</time>
					</trkpt>
					<trkpt lat="48.514600" lon="-3.944510">
						<ele>120</ele>
						<time>2026-09-02T05:51:07Z</time>
					</trkpt>
					<trkpt lat="48.514520" lon="-3.944560">
						<ele>120</ele>
						<time>2026-09-02T05:51:11Z</time>
					</trkpt>
					<trkpt lat="48.514500" lon="-3.944610">
						<ele>120</ele>
						<time>2026-09-02T05:51:13Z</time>
					</trkpt>
					<trkpt lat="48.514460" lon="-3.945270">
						<ele>119</ele>
						<time>2026-09-02T05:51:35Z</time>
					</trkpt>
					<trkpt lat="48.514380" lon="-3.945670">
						<ele>118</ele>
						<time>2026-09-02T05:51:49Z</time>
					</trkpt>
					<trkpt lat="48.514310" lon="-3.945840">
						<ele>118</ele>
						<time>2026-09-02T05:51:55Z</time>
					</trkpt>
					<trkpt lat="48.514220" lon="-3.945880">
						<ele>118</ele>
						<time>2026-09-02T05:52:00Z</time>
					</trkpt>
					<trkpt lat="48.514080" lon="-3.945850">
						<ele>118</ele>
						<time>2026-09-02T05:52:07Z</time>
					</trkpt>
					<trkpt lat="48.513220" lon="-3.945560">
						<ele>118</ele>
						<time>2026-09-02T05:52:51Z</time>
					</trkpt>
					<trkpt lat="48.513080" lon="-3.945600">
						<ele>118</ele>
						<time>2026-09-02T05:52:58Z</time>
					</trkpt>
					<trkpt lat="48.513040" lon="-3.945680">
						<ele>118</ele>
						<time>2026-09-02T05:53:02Z</time>
					</trkpt>
					<trkpt lat="48.513010" lon="-3.946050">
						<ele>117</ele>
						<time>2026-09-02T05:53:14Z</time>
					</trkpt>
					<trkpt lat="48.512860" lon="-3.946290">
						<ele>116</ele>
						<time>2026-09-02T05:53:25Z</time>
					</trkpt>
					<trkpt lat="48.512790" lon="-3.946870">
						<ele>115</ele>
						<time>2026-09-02T05:53:45Z</time>
					</trkpt>
					<trkpt lat="48.512630" lon="-3.947850">
						<ele>111</ele>
						<time>2026-09-02T05:54:18Z</time>
					</trkpt>
					<trkpt lat="48.512540" lon="-3.948370">
						<ele>108</ele>
						<time>2026-09-02T05:54:36Z</time>
					</trkpt>
					<trkpt lat="48.512450" lon="-3.948690">
						<ele>108</ele>
						<time>2026-09-02T05:54:47Z</time>
					</trkpt>
					<trkpt lat="48.512440" lon="-3.948940">
						<ele>108</ele>
						<time>2026-09-02T05:54:56Z</time>
					</trkpt>
					<trkpt lat="48.512550" lon="-3.949230">
						<ele>107</ele>
						<time>2026-09-02T05:55:07Z</time>
					</trkpt>
					<trkpt lat="48.512700" lon="-3.949770">
						<ele>106</ele>
						<time>2026-09-02T05:55:26Z</time>
					</trkpt>
					<trkpt lat="48.512550" lon="-3.950030">
						<ele>106</ele>
						<time>2026-09-02T05:55:38Z</time>
					</trkpt>
					<trkpt lat="48.512360" lon="-3.950130">
						<ele>108</ele>
						<time>2026-09-02T05:55:48Z</time>
					</trkpt>
					<trkpt lat="48.511780" lon="-3.950290">
						<ele>116</ele>
						<time>2026-09-02T05:56:17Z</time>
					</trkpt>
					<trkpt lat="48.511680" lon="-3.950010">
						<ele>117</ele>
						<time>2026-09-02T05:56:28Z</time>
					</trkpt>
					<trkpt lat="48.511510" lon="-3.949910">
						<ele>118</ele>
						<time>2026-09-02T05:56:37Z</time>
					</trkpt>
					<trkpt lat="48.511370" lon="-3.950210">
						<ele>118</ele>
						<time>2026-09-02T05:56:49Z</time>
					</trkpt>
					<trkpt lat="48.510970" lon="-3.950360">
						<ele>120</ele>
						<time>2026-09-02T05:57:10Z</time>
					</trkpt>
					<trkpt lat="48.510680" lon="-3.950230">
						<ele>121</ele>
						<time>2026-09-02T05:57:25Z</time>
					</trkpt>
					<trkpt lat="48.510680" lon="-3.950270">
						<ele>121</ele>
						<time>2026-09-02T05:57:26Z</time>
					</trkpt>
					<trkpt lat="48.510650" lon="-3.950170">
						<ele>121</ele>
						<time>2026-09-02T05:57:30Z</time>
					</trkpt>
					<trkpt lat="48.510540" lon="-3.950040">
						<ele>122</ele>
						<time>2026-09-02T05:57:37Z</time>
					</trkpt>
					<trkpt lat="48.510360" lon="-3.949930">
						<ele>122</ele>
						<time>2026-09-02T05:57:46Z</time>
					</trkpt>
					<trkpt lat="48.510140" lon="-3.949870">
						<ele>122</ele>
						<time>2026-09-02T05:57:58Z</time>
					</trkpt>
					<trkpt lat="48.509470" lon="-3.949780">
						<ele>124</ele>
						<time>2026-09-02T05:58:31Z</time>
					</trkpt>
					<trkpt lat="48.508820" lon="-3.949620">
						<ele>123</ele>
						<time>2026-09-02T05:59:04Z</time>
					</trkpt>
					<trkpt lat="48.508340" lon="-3.949450">
						<ele>122</ele>
						<time>2026-09-02T05:59:29Z</time>
					</trkpt>
					<trkpt lat="48.507370" lon="-3.948480">
						<ele>123</ele>
						<time>2026-09-02T06:00:27Z</time>
					</trkpt>
					<trkpt lat="48.507140" lon="-3.948160">
						<ele>123</ele>
						<time>2026-09-02T06:00:43Z</time>
					</trkpt>
					<trkpt lat="48.506800" lon="-3.947550">
						<ele>124</ele>
						<time>2026-09-02T06:01:09Z</time>
					</trkpt>
					<trkpt lat="48.506500" lon="-3.947140">
						<ele>124</ele>
						<time>2026-09-02T06:01:29Z</time>
					</trkpt>
					<trkpt lat="48.506210" lon="-3.946780">
						<ele>125</ele>
						<time>2026-09-02T06:01:48Z</time>
					</trkpt>
					<trkpt lat="48.506100" lon="-3.946690">
						<ele>125</ele>
						<time>2026-09-02T06:01:55Z</time>
					</trkpt>
					<trkpt lat="48.506010" lon="-3.946660">
						<ele>126</ele>
						<time>2026-09-02T06:01:59Z</time>
					</trkpt>
					<trkpt lat="48.505880" lon="-3.946660">
						<ele>126</ele>
						<time>2026-09-02T06:02:06Z</time>
					</trkpt>
					<trkpt lat="48.505430" lon="-3.946800">
						<ele>126</ele>
						<time>2026-09-02T06:02:29Z</time>
					</trkpt>
					<trkpt lat="48.504190" lon="-3.947420">
						<ele>125</ele>
						<time>2026-09-02T06:03:34Z</time>
					</trkpt>
					<trkpt lat="48.503530" lon="-3.948190">
						<ele>123</ele>
						<time>2026-09-02T06:04:16Z</time>
					</trkpt>
					<trkpt lat="48.501670" lon="-3.948830">
						<ele>119</ele>
						<time>2026-09-02T06:05:51Z</time>
					</trkpt>
					<trkpt lat="48.501220" lon="-3.947920">
						<ele>120</ele>
						<time>2026-09-02T06:06:29Z</time>
					</trkpt>
					<trkpt lat="48.500240" lon="-3.947610">
						<ele>122</ele>
						<time>2026-09-02T06:07:19Z</time>
					</trkpt>
					<trkpt lat="48.500720" lon="-3.946790">
						<ele>121</ele>
						<time>2026-09-02T06:07:55Z</time>
					</trkpt>
					<trkpt lat="48.501040" lon="-3.945610">
						<ele>125</ele>
						<time>2026-09-02T06:08:38Z</time>
					</trkpt>
					<trkpt lat="48.498300" lon="-3.944370">
						<ele>126</ele>
						<time>2026-09-02T06:11:01Z</time>
					</trkpt>
					<trkpt lat="48.497830" lon="-3.944230">
						<ele>127</ele>
						<time>2026-09-02T06:11:25Z</time>
					</trkpt>
					<trkpt lat="48.496860" lon="-3.944680">
						<ele>129</ele>
						<time>2026-09-02T06:12:15Z</time>
					</trkpt>
					<trkpt lat="48.496330" lon="-3.944700">
						<ele>131</ele>
						<time>2026-09-02T06:12:42Z</time>
					</trkpt>
					<trkpt lat="48.496770" lon="-3.943060">
						<ele>128</ele>
						<time>2026-09-02T06:13:41Z</time>
					</trkpt>
					<trkpt lat="48.497300" lon="-3.942210">
						<ele>125</ele>
						<time>2026-09-02T06:14:19Z</time>
					</trkpt>
					<trkpt lat="48.498300" lon="-3.941310">
						<ele>126</ele>
						<time>2026-09-02T06:15:18Z</time>
					</trkpt>
					<trkpt lat="48.498320" lon="-3.941250">
						<ele>126</ele>
						<time>2026-09-02T06:15:20Z</time>
					</trkpt>
					<trkpt lat="48.498400" lon="-3.940120">
						<ele>126</ele>
						<time>2026-09-02T06:15:58Z</time>
					</trkpt>
					<trkpt lat="48.498490" lon="-3.939500">
						<ele>127</ele>
						<time>2026-09-02T06:16:19Z</time>
					</trkpt>
					<trkpt lat="48.498720" lon="-3.938330">
						<ele>126</ele>
						<time>2026-09-02T06:16:59Z</time>
					</trkpt>
					<trkpt lat="48.498880" lon="-3.937850">
						<ele>125</ele>
						<time>2026-09-02T06:17:17Z</time>
					</trkpt>
					<trkpt lat="48.499010" lon="-3.936660">
						<ele>123</ele>
						<time>2026-09-02T06:17:57Z</time>
					</trkpt>
					<trkpt lat="48.499050" lon="-3.936510">
						<ele>122</ele>
						<time>2026-09-02T06:18:02Z</time>
					</trkpt>
					<trkpt lat="48.498840" lon="-3.936310">
						<ele>122</ele>
						<time>2026-09-02T06:18:15Z</time>
					</trkpt>
					<trkpt lat="48.498730" lon="-3.936270">
						<ele>122</ele>
						<time>2026-09-02T06:18:20Z</time>
					</trkpt>
					<trkpt lat="48.498630" lon="-3.936280">
						<ele>122</ele>
						<time>2026-09-02T06:18:25Z</time>
					</trkpt>
					<trkpt lat="48.498430" lon="-3.936350">
						<ele>122</ele>
						<time>2026-09-02T06:18:36Z</time>
					</trkpt>
					<trkpt lat="48.498140" lon="-3.936500">
						<ele>121</ele>
						<time>2026-09-02T06:18:51Z</time>
					</trkpt>
					<trkpt lat="48.497920" lon="-3.936490">
						<ele>121</ele>
						<time>2026-09-02T06:19:02Z</time>
					</trkpt>
					<trkpt lat="48.497860" lon="-3.936430">
						<ele>120</ele>
						<time>2026-09-02T06:19:06Z</time>
					</trkpt>
					<trkpt lat="48.497670" lon="-3.936030">
						<ele>121</ele>
						<time>2026-09-02T06:19:22Z</time>
					</trkpt>
					<trkpt lat="48.497580" lon="-3.935910">
						<ele>121</ele>
						<time>2026-09-02T06:19:28Z</time>
					</trkpt>
					<trkpt lat="48.497620" lon="-3.935640">
						<ele>121</ele>
						<time>2026-09-02T06:19:37Z</time>
					</trkpt>
					<trkpt lat="48.497630" lon="-3.934720">
						<ele>121</ele>
						<time>2026-09-02T06:20:08Z</time>
					</trkpt>
					<trkpt lat="48.497580" lon="-3.933830">
						<ele>118</ele>
						<time>2026-09-02T06:20:37Z</time>
					</trkpt>
					<trkpt lat="48.497540" lon="-3.933630">
						<ele>118</ele>
						<time>2026-09-02T06:20:44Z</time>
					</trkpt>
					<trkpt lat="48.497570" lon="-3.933330">
						<ele>117</ele>
						<time>2026-09-02T06:20:54Z</time>
					</trkpt>
					<trkpt lat="48.497690" lon="-3.933300">
						<ele>117</ele>
						<time>2026-09-02T06:21:00Z</time>
					</trkpt>
					<trkpt lat="48.497860" lon="-3.933400">
						<ele>118</ele>
						<time>2026-09-02T06:21:09Z</time>
					</trkpt>
					<trkpt lat="48.497910" lon="-3.933600">
						<ele>119</ele>
						<time>2026-09-02T06:21:16Z</time>
					</trkpt>
					<trkpt lat="48.497980" lon="-3.933730">
						<ele>119</ele>
						<time>2026-09-02T06:21:22Z</time>
					</trkpt>
					<trkpt lat="48.498060" lon="-3.933760">
						<ele>120</ele>
						<time>2026-09-02T06:21:26Z</time>
					</trkpt>
					<trkpt lat="48.498250" lon="-3.933750">
						<ele>120</ele>
						<time>2026-09-02T06:21:36Z</time>
					</trkpt>
					<trkpt lat="48.498330" lon="-3.933710">
						<ele>120</ele>
						<time>2026-09-02T06:21:40Z</time>
					</trkpt>
					<trkpt lat="48.498740" lon="-3.933410">
						<ele>120</ele>
						<time>2026-09-02T06:22:03Z</time>
					</trkpt>
					<trkpt lat="48.499900" lon="-3.932140">
						<ele>117</ele>
						<time>2026-09-02T06:23:14Z</time>
					</trkpt>
					<trkpt lat="48.500240" lon="-3.931960">
						<ele>112</ele>
						<time>2026-09-02T06:23:32Z</time>
					</trkpt>
					<trkpt lat="48.500490" lon="-3.932060">
						<ele>110</ele>
						<time>2026-09-02T06:23:45Z</time>
					</trkpt>
					<trkpt lat="48.500610" lon="-3.931930">
						<ele>107</ele>
						<time>2026-09-02T06:23:53Z</time>
					</trkpt>
					<trkpt lat="48.500510" lon="-3.931620">
						<ele>105</ele>
						<time>2026-09-02T06:24:04Z</time>
					</trkpt>
					<trkpt lat="48.500680" lon="-3.931600">
						<ele>102</ele>
						<time>2026-09-02T06:24:13Z</time>
					</trkpt>
					<trkpt lat="48.500910" lon="-3.932140">
						<ele>105</ele>
						<time>2026-09-02T06:24:34Z</time>
					</trkpt>
					<trkpt lat="48.500960" lon="-3.932500">
						<ele>107</ele>
						<time>2026-09-02T06:24:46Z</time>
					</trkpt>
					<trkpt lat="48.501120" lon="-3.932520">
						<ele>106</ele>
						<time>2026-09-02T06:24:54Z</time>
					</trkpt>
					<trkpt lat="48.500990" lon="-3.931690">
						<ele>100</ele>
						<time>2026-09-02T06:25:23Z</time>
					</trkpt>
					<trkpt lat="48.501000" lon="-3.930970">
						<ele>92</ele>
						<time>2026-09-02T06:25:46Z</time>
					</trkpt>
					<trkpt lat="48.500860" lon="-3.930950">
						<ele>92</ele>
						<time>2026-09-02T06:25:53Z</time>
					</trkpt>
					<trkpt lat="48.500740" lon="-3.930850">
						<ele>91</ele>
						<time>2026-09-02T06:26:00Z</time>
					</trkpt>
					<trkpt lat="48.500480" lon="-3.930780">
						<ele>92</ele>
						<time>2026-09-02T06:26:14Z</time>
					</trkpt>
					<trkpt lat="48.499880" lon="-3.930950">
						<ele>96</ele>
						<time>2026-09-02T06:26:44Z</time>
					</trkpt>
					<trkpt lat="48.499680" lon="-3.931060">
						<ele>97</ele>
						<time>2026-09-02T06:26:55Z</time>
					</trkpt>
					<trkpt lat="48.499470" lon="-3.931230">
						<ele>99</ele>
						<time>2026-09-02T06:27:07Z</time>
					</trkpt>
					<trkpt lat="48.498870" lon="-3.932070">
						<ele>105</ele>
						<time>2026-09-02T06:27:48Z</time>
					</trkpt>
					<trkpt lat="48.498720" lon="-3.932340">
						<ele>108</ele>
						<time>2026-09-02T06:27:59Z</time>
					</trkpt>
					<trkpt lat="48.498490" lon="-3.932610">
						<ele>108</ele>
						<time>2026-09-02T06:28:14Z</time>
					</trkpt>
					<trkpt lat="48.498100" lon="-3.932630">
						<ele>109</ele>
						<time>2026-09-02T06:28:33Z</time>
					</trkpt>
					<trkpt lat="48.498050" lon="-3.932440">
						<ele>107</ele>
						<time>2026-09-02T06:28:40Z</time>
					</trkpt>
					<trkpt lat="48.498260" lon="-3.932340">
						<ele>105</ele>
						<time>2026-09-02T06:28:51Z</time>
					</trkpt>
					<trkpt lat="48.498380" lon="-3.931860">
						<ele>102</ele>
						<time>2026-09-02T06:29:08Z</time>
					</trkpt>
					<trkpt lat="48.498310" lon="-3.931860">
						<ele>102</ele>
						<time>2026-09-02T06:29:12Z</time>
					</trkpt>
					<trkpt lat="48.498290" lon="-3.931690">
						<ele>102</ele>
						<time>2026-09-02T06:29:17Z</time>
					</trkpt>
					<trkpt lat="48.498410" lon="-3.931050">
						<ele>105</ele>
						<time>2026-09-02T06:29:39Z</time>
					</trkpt>
					<trkpt lat="48.498360" lon="-3.930840">
						<ele>107</ele>
						<time>2026-09-02T06:29:47Z</time>
					</trkpt>
					<trkpt lat="48.498180" lon="-3.930950">
						<ele>109</ele>
						<time>2026-09-02T06:29:57Z</time>
					</trkpt>
					<trkpt lat="48.497910" lon="-3.931300">
						<ele>110</ele>
						<time>2026-09-02T06:30:14Z</time>
					</trkpt>
					<trkpt lat="48.497770" lon="-3.931310">
						<ele>112</ele>
						<time>2026-09-02T06:30:21Z</time>
					</trkpt>
					<trkpt lat="48.497590" lon="-3.930770">
						<ele>116</ele>
						<time>2026-09-02T06:30:41Z</time>
					</trkpt>
					<trkpt lat="48.497510" lon="-3.930190">
						<ele>118</ele>
						<time>2026-09-02T06:31:01Z</time>
					</trkpt>
					<trkpt lat="48.497460" lon="-3.928570">
						<ele>115</ele>
						<time>2026-09-02T06:31:55Z</time>
					</trkpt>
					<trkpt lat="48.496970" lon="-3.928690">
						<ele>113</ele>
						<time>2026-09-02T06:32:20Z</time>
					</trkpt>
					<trkpt lat="48.496530" lon="-3.928550">
						<ele>112</ele>
						<time>2026-09-02T06:32:42Z</time>
					</trkpt>
					<trkpt lat="48.496450" lon="-3.928190">
						<ele>112</ele>
						<time>2026-09-02T06:32:55Z</time>
					</trkpt>
					<trkpt lat="48.496440" lon="-3.927980">
						<ele>112</ele>
						<time>2026-09-02T06:33:02Z</time>
					</trkpt>
					<trkpt lat="48.496740" lon="-3.926980">
						<ele>114</ele>
						<time>2026-09-02T06:33:38Z</time>
					</trkpt>
					<trkpt lat="48.496760" lon="-3.926770">
						<ele>114</ele>
						<time>2026-09-02T06:33:45Z</time>
					</trkpt>
					<trkpt lat="48.496700" lon="-3.926530">
						<ele>115</ele>
						<time>2026-09-02T06:33:54Z</time>
					</trkpt>
					<trkpt lat="48.495430" lon="-3.924180">
						<ele>124</ele>
						<time>2026-09-02T06:35:34Z</time>
					</trkpt>
					<trkpt lat="48.495200" lon="-3.923850">
						<ele>126</ele>
						<time>2026-09-02T06:35:50Z</time>
					</trkpt>
					<trkpt lat="48.494520" lon="-3.923140">
						<ele>130</ele>
						<time>2026-09-02T06:36:32Z</time>
					</trkpt>
					<trkpt lat="48.494140" lon="-3.923430">
						<ele>130</ele>
						<time>2026-09-02T06:36:53Z</time>
					</trkpt>
					<trkpt lat="48.493930" lon="-3.923560">
						<ele>130</ele>
						<time>2026-09-02T06:37:04Z</time>
					</trkpt>
					<trkpt lat="48.493690" lon="-3.923660">
						<ele>130</ele>
						<time>2026-09-02T06:37:17Z</time>
					</trkpt>
					<trkpt lat="48.490960" lon="-3.924520">
						<ele>135</ele>
						<time>2026-09-02T06:39:36Z</time>
					</trkpt>
					<trkpt lat="48.490560" lon="-3.924690">
						<ele>134</ele>
						<time>2026-09-02T06:39:57Z</time>
					</trkpt>
					<trkpt lat="48.490190" lon="-3.925020">
						<ele>133</ele>
						<time>2026-09-02T06:40:19Z</time>
					</trkpt>
					<trkpt lat="48.490060" lon="-3.925070">
						<ele>133</ele>
						<time>2026-09-02T06:40:25Z</time>
					</trkpt>
					<trkpt lat="48.489510" lon="-3.925170">
						<ele>130</ele>
						<time>2026-09-02T06:40:53Z</time>
					</trkpt>
					<trkpt lat="48.489260" lon="-3.925270">
						<ele>128</ele>
						<time>2026-09-02T06:41:06Z</time>
					</trkpt>
					<trkpt lat="48.488830" lon="-3.926570">
						<ele>114</ele>
						<time>2026-09-02T06:41:54Z</time>
					</trkpt>
					<trkpt lat="48.488340" lon="-3.927350">
						<ele>106</ele>
						<time>2026-09-02T06:42:30Z</time>
					</trkpt>
					<trkpt lat="48.487930" lon="-3.928300">
						<ele>101</ele>
						<time>2026-09-02T06:43:07Z</time>
					</trkpt>
					<trkpt lat="48.487840" lon="-3.928690">
						<ele>102</ele>
						<time>2026-09-02T06:43:21Z</time>
					</trkpt>
					<trkpt lat="48.487830" lon="-3.928810">
						<ele>102</ele>
						<time>2026-09-02T06:43:25Z</time>
					</trkpt>
					<trkpt lat="48.487860" lon="-3.929000">
						<ele>102</ele>
						<time>2026-09-02T06:43:32Z</time>
					</trkpt>
					<trkpt lat="48.487840" lon="-3.928910">
						<ele>102</ele>
						<time>2026-09-02T06:43:35Z</time>
					</trkpt>
					<trkpt lat="48.487760" lon="-3.928880">
						<ele>103</ele>
						<time>2026-09-02T06:43:39Z</time>
					</trkpt>
					<trkpt lat="48.487650" lon="-3.928780">
						<ele>103</ele>
						<time>2026-09-02T06:43:45Z</time>
					</trkpt>
					<trkpt lat="48.487140" lon="-3.928130">
						<ele>108</ele>
						<time>2026-09-02T06:44:19Z</time>
					</trkpt>
					<trkpt lat="48.486950" lon="-3.927980">
						<ele>111</ele>
						<time>2026-09-02T06:44:29Z</time>
					</trkpt>
					<trkpt lat="48.486840" lon="-3.927930">
						<ele>112</ele>
						<time>2026-09-02T06:44:35Z</time>
					</trkpt>
					<trkpt lat="48.486660" lon="-3.927900">
						<ele>115</ele>
						<time>2026-09-02T06:44:44Z</time>
					</trkpt>
					<trkpt lat="48.486420" lon="-3.927940">
						<ele>118</ele>
						<time>2026-09-02T06:44:56Z</time>
					</trkpt>
					<trkpt lat="48.486120" lon="-3.928070">
						<ele>121</ele>
						<time>2026-09-02T06:45:12Z</time>
					</trkpt>
					<trkpt lat="48.486070" lon="-3.928130">
						<ele>121</ele>
						<time>2026-09-02T06:45:15Z</time>
					</trkpt>
					<trkpt lat="48.485780" lon="-3.929010">
						<ele>122</ele>
						<time>2026-09-02T06:45:48Z</time>
					</trkpt>
					<trkpt lat="48.485660" lon="-3.929140">
						<ele>122</ele>
						<time>2026-09-02T06:45:55Z</time>
					</trkpt>
					<trkpt lat="48.485500" lon="-3.929620">
						<ele>120</ele>
						<time>2026-09-02T06:46:13Z</time>
					</trkpt>
					<trkpt lat="48.485450" lon="-3.930130">
						<ele>117</ele>
						<time>2026-09-02T06:46:30Z</time>
					</trkpt>
					<trkpt lat="48.485100" lon="-3.930280">
						<ele>118</ele>
						<time>2026-09-02T06:46:48Z</time>
					</trkpt>
					<trkpt lat="48.484790" lon="-3.930160">
						<ele>120</ele>
						<time>2026-09-02T06:47:04Z</time>
					</trkpt>
					<trkpt lat="48.484680" lon="-3.930180">
						<ele>120</ele>
						<time>2026-09-02T06:47:10Z</time>
					</trkpt>
					<trkpt lat="48.484560" lon="-3.930110">
						<ele>121</ele>
						<time>2026-09-02T06:47:16Z</time>
					</trkpt>
					<trkpt lat="48.484510" lon="-3.930390">
						<ele>119</ele>
						<time>2026-09-02T06:47:26Z</time>
					</trkpt>
					<trkpt lat="48.484180" lon="-3.930550">
						<ele>120</ele>
						<time>2026-09-02T06:47:43Z</time>
					</trkpt>
					<trkpt lat="48.483790" lon="-3.930630">
						<ele>119</ele>
						<time>2026-09-02T06:48:03Z</time>
					</trkpt>
					<trkpt lat="48.483490" lon="-3.930580">
						<ele>119</ele>
						<time>2026-09-02T06:48:18Z</time>
					</trkpt>
					<trkpt lat="48.483280" lon="-3.930680">
						<ele>119</ele>
						<time>2026-09-02T06:48:29Z</time>
					</trkpt>
					<trkpt lat="48.483190" lon="-3.930990">
						<ele>122</ele>
						<time>2026-09-02T06:48:40Z</time>
					</trkpt>
					<trkpt lat="48.483990" lon="-3.931250">
						<ele>122</ele>
						<time>2026-09-02T06:49:21Z</time>
					</trkpt>
					<trkpt lat="48.484740" lon="-3.931590">
						<ele>118</ele>
						<time>2026-09-02T06:50:00Z</time>
					</trkpt>
					<trkpt lat="48.484970" lon="-3.932020">
						<ele>119</ele>
						<time>2026-09-02T06:50:19Z</time>
					</trkpt>
					<trkpt lat="48.485140" lon="-3.933680">
						<ele>121</ele>
						<time>2026-09-02T06:51:14Z</time>
					</trkpt>
					<trkpt lat="48.484870" lon="-3.932750">
						<ele>125</ele>
						<time>2026-09-02T06:51:48Z</time>
					</trkpt>
					<trkpt lat="48.484400" lon="-3.932260">
						<ele>127</ele>
						<time>2026-09-02T06:52:17Z</time>
					</trkpt>
					<trkpt lat="48.483590" lon="-3.932080">
						<ele>132</ele>
						<time>2026-09-02T06:52:58Z</time>
					</trkpt>
					<trkpt lat="48.483030" lon="-3.931900">
						<ele>137</ele>
						<time>2026-09-02T06:53:26Z</time>
					</trkpt>
					<trkpt lat="48.482800" lon="-3.931870">
						<ele>139</ele>
						<time>2026-09-02T06:53:38Z</time>
					</trkpt>
					<trkpt lat="48.482630" lon="-3.931800">
						<ele>141</ele>
						<time>2026-09-02T06:53:47Z</time>
					</trkpt>
					<trkpt lat="48.482470" lon="-3.931680">
						<ele>143</ele>
						<time>2026-09-02T06:53:56Z</time>
					</trkpt>
					<trkpt lat="48.482340" lon="-3.931650">
						<ele>143</ele>
						<time>2026-09-02T06:54:02Z</time>
					</trkpt>
					<trkpt lat="48.482310" lon="-3.931990">
						<ele>144</ele>
						<time>2026-09-02T06:54:14Z</time>
					</trkpt>
					<trkpt lat="48.482340" lon="-3.932230">
						<ele>144</ele>
						<time>2026-09-02T06:54:22Z</time>
					</trkpt>
					<trkpt lat="48.482320" lon="-3.932450">
						<ele>144</ele>
						<time>2026-09-02T06:54:29Z</time>
					</trkpt>
					<trkpt lat="48.482330" lon="-3.932950">
						<ele>145</ele>
						<time>2026-09-02T06:54:46Z</time>
					</trkpt>
					<trkpt lat="48.482130" lon="-3.933470">
						<ele>146</ele>
						<time>2026-09-02T06:55:06Z</time>
					</trkpt>
					<trkpt lat="48.482040" lon="-3.933790">
						<ele>145</ele>
						<time>2026-09-02T06:55:17Z</time>
					</trkpt>
					<trkpt lat="48.481990" lon="-3.934090">
						<ele>144</ele>
						<time>2026-09-02T06:55:27Z</time>
					</trkpt>
					<trkpt lat="48.482040" lon="-3.934990">
						<ele>139</ele>
						<time>2026-09-02T06:55:57Z</time>
					</trkpt>
					<trkpt lat="48.482130" lon="-3.935580">
						<ele>136</ele>
						<time>2026-09-02T06:56:17Z</time>
					</trkpt>
					<trkpt lat="48.481540" lon="-3.935610">
						<ele>138</ele>
						<time>2026-09-02T06:56:47Z</time>
					</trkpt>
					<trkpt lat="48.481250" lon="-3.935820">
						<ele>139</ele>
						<time>2026-09-02T06:57:03Z</time>
					</trkpt>
					<trkpt lat="48.481050" lon="-3.935730">
						<ele>140</ele>
						<time>2026-09-02T06:57:14Z</time>
					</trkpt>
					<trkpt lat="48.480620" lon="-3.935610">
						<ele>142</ele>
						<time>2026-09-02T06:57:35Z</time>
					</trkpt>
					<trkpt lat="48.480020" lon="-3.935580">
						<ele>145</ele>
						<time>2026-09-02T06:58:05Z</time>
					</trkpt>
					<trkpt lat="48.479260" lon="-3.935580">
						<ele>145</ele>
						<time>2026-09-02T06:58:43Z</time>
					</trkpt>
					<trkpt lat="48.478440" lon="-3.935440">
						<ele>147</ele>
						<time>2026-09-02T06:59:25Z</time>
					</trkpt>
					<trkpt lat="48.477440" lon="-3.935210">
						<ele>148</ele>
						<time>2026-09-02T07:00:15Z</time>
					</trkpt>
					<trkpt lat="48.477330" lon="-3.935150">
						<ele>149</ele>
						<time>2026-09-02T07:00:21Z</time>
					</trkpt>
					<trkpt lat="48.477250" lon="-3.935170">
						<ele>149</ele>
						<time>2026-09-02T07:00:25Z</time>
					</trkpt>
					<trkpt lat="48.476970" lon="-3.935150">
						<ele>150</ele>
						<time>2026-09-02T07:00:39Z</time>
					</trkpt>
					<trkpt lat="48.476040" lon="-3.934970">
						<ele>154</ele>
						<time>2026-09-02T07:01:26Z</time>
					</trkpt>
					<trkpt lat="48.476000" lon="-3.934940">
						<ele>154</ele>
						<time>2026-09-02T07:01:28Z</time>
					</trkpt>
					<trkpt lat="48.475960" lon="-3.934870">
						<ele>155</ele>
						<time>2026-09-02T07:01:32Z</time>
					</trkpt>
					<trkpt lat="48.475920" lon="-3.934680">
						<ele>155</ele>
						<time>2026-09-02T07:01:38Z</time>
					</trkpt>
					<trkpt lat="48.475690" lon="-3.933450">
						<ele>154</ele>
						<time>2026-09-02T07:02:21Z</time>
					</trkpt>
					<trkpt lat="48.475640" lon="-3.933410">
						<ele>154</ele>
						<time>2026-09-02T07:02:23Z</time>
					</trkpt>
					<trkpt lat="48.475450" lon="-3.933400">
						<ele>154</ele>
						<time>2026-09-02T07:02:33Z</time>
					</trkpt>
					<trkpt lat="48.475200" lon="-3.933440">
						<ele>154</ele>
						<time>2026-09-02T07:02:45Z</time>
					</trkpt>
					<trkpt lat="48.475230" lon="-3.932570">
						<ele>149</ele>
						<time>2026-09-02T07:03:14Z</time>
					</trkpt>
					<trkpt lat="48.475350" lon="-3.931680">
						<ele>141</ele>
						<time>2026-09-02T07:03:45Z</time>
					</trkpt>
					<trkpt lat="48.475390" lon="-3.931540">
						<ele>141</ele>
						<time>2026-09-02T07:03:50Z</time>
					</trkpt>
					<trkpt lat="48.475380" lon="-3.931300">
						<ele>140</ele>
						<time>2026-09-02T07:03:58Z</time>
					</trkpt>
					<trkpt lat="48.475450" lon="-3.930800">
						<ele>138</ele>
						<time>2026-09-02T07:04:15Z</time>
					</trkpt>
					<trkpt lat="48.475580" lon="-3.930290">
						<ele>137</ele>
						<time>2026-09-02T07:04:33Z</time>
					</trkpt>
					<trkpt lat="48.475640" lon="-3.930170">
						<ele>136</ele>
						<time>2026-09-02T07:04:38Z</time>
					</trkpt>
					<trkpt lat="48.475700" lon="-3.930110">
						<ele>136</ele>
						<time>2026-09-02T07:04:41Z</time>
					</trkpt>
					<trkpt lat="48.475800" lon="-3.929630">
						<ele>136</ele>
						<time>2026-09-02T07:04:58Z</time>
					</trkpt>
					<trkpt lat="48.475930" lon="-3.929180">
						<ele>136</ele>
						<time>2026-09-02T07:05:14Z</time>
					</trkpt>
					<trkpt lat="48.476000" lon="-3.928810">
						<ele>134</ele>
						<time>2026-09-02T07:05:27Z</time>
					</trkpt>
					<trkpt lat="48.476010" lon="-3.928610">
						<ele>133</ele>
						<time>2026-09-02T07:05:34Z</time>
					</trkpt>
					<trkpt lat="48.476080" lon="-3.928380">
						<ele>131</ele>
						<time>2026-09-02T07:05:42Z</time>
					</trkpt>
					<trkpt lat="48.476300" lon="-3.927910">
						<ele>127</ele>
						<time>2026-09-02T07:06:01Z</time>
					</trkpt>
					<trkpt lat="48.476600" lon="-3.927900">
						<ele>126</ele>
						<time>2026-09-02T07:06:16Z</time>
					</trkpt>
					<trkpt lat="48.476690" lon="-3.927850">
						<ele>125</ele>
						<time>2026-09-02T07:06:21Z</time>
					</trkpt>
					<trkpt lat="48.476800" lon="-3.927740">
						<ele>125</ele>
						<time>2026-09-02T07:06:28Z</time>
					</trkpt>
					<trkpt lat="48.476850" lon="-3.927600">
						<ele>125</ele>
						<time>2026-09-02T07:06:33Z</time>
					</trkpt>
					<trkpt lat="48.477140" lon="-3.927250">
						<ele>123</ele>
						<time>2026-09-02T07:06:51Z</time>
					</trkpt>
					<trkpt lat="48.477390" lon="-3.927100">
						<ele>122</ele>
						<time>2026-09-02T07:07:05Z</time>
					</trkpt>
					<trkpt lat="48.477250" lon="-3.926950">
						<ele>121</ele>
						<time>2026-09-02T07:07:13Z</time>
					</trkpt>
					<trkpt lat="48.477150" lon="-3.926730">
						<ele>119</ele>
						<time>2026-09-02T07:07:22Z</time>
					</trkpt>
					<trkpt lat="48.477140" lon="-3.926660">
						<ele>118</ele>
						<time>2026-09-02T07:07:25Z</time>
					</trkpt>
					<trkpt lat="48.477050" lon="-3.926580">
						<ele>118</ele>
						<time>2026-09-02T07:07:30Z</time>
					</trkpt>
					<trkpt lat="48.477010" lon="-3.926470">
						<ele>119</ele>
						<time>2026-09-02T07:07:34Z</time>
					</trkpt>
					<trkpt lat="48.476970" lon="-3.926330">
						<ele>120</ele>
						<time>2026-09-02T07:07:39Z</time>
					</trkpt>
					<trkpt lat="48.476890" lon="-3.925760">
						<ele>123</ele>
						<time>2026-09-02T07:07:58Z</time>
					</trkpt>
					<trkpt lat="48.476800" lon="-3.925390">
						<ele>124</ele>
						<time>2026-09-02T07:08:12Z</time>
					</trkpt>
					<trkpt lat="48.477190" lon="-3.924980">
						<ele>126</ele>
						<time>2026-09-02T07:08:35Z</time>
					</trkpt>
					<trkpt lat="48.477460" lon="-3.924620">
						<ele>126</ele>
						<time>2026-09-02T07:08:53Z</time>
					</trkpt>
					<trkpt lat="48.477530" lon="-3.924490">
						<ele>125</ele>
						<time>2026-09-02T07:08:59Z</time>
					</trkpt>
					<trkpt lat="48.477610" lon="-3.924320">
						<ele>125</ele>
						<time>2026-09-02T07:09:06Z</time>
					</trkpt>
					<trkpt lat="48.478380" lon="-3.922000">
						<ele>118</ele>
						<time>2026-09-02T07:10:32Z</time>
					</trkpt>
					<trkpt lat="48.478680" lon="-3.921470">
						<ele>120</ele>
						<time>2026-09-02T07:10:55Z</time>
					</trkpt>
					<trkpt lat="48.479120" lon="-3.920910">
						<ele>124</ele>
						<time>2026-09-02T07:11:24Z</time>
					</trkpt>
					<trkpt lat="48.478420" lon="-3.919810">
						<ele>132</ele>
						<time>2026-09-02T07:12:14Z</time>
					</trkpt>
					<trkpt lat="48.477660" lon="-3.919000">
						<ele>141</ele>
						<time>2026-09-02T07:13:01Z</time>
					</trkpt>
					<trkpt lat="48.477630" lon="-3.918790">
						<ele>143</ele>
						<time>2026-09-02T07:13:08Z</time>
					</trkpt>
					<trkpt lat="48.477530" lon="-3.918460">
						<ele>147</ele>
						<time>2026-09-02T07:13:20Z</time>
					</trkpt>
					<trkpt lat="48.477420" lon="-3.918220">
						<ele>149</ele>
						<time>2026-09-02T07:13:30Z</time>
					</trkpt>
					<trkpt lat="48.477260" lon="-3.917950">
						<ele>150</ele>
						<time>2026-09-02T07:13:42Z</time>
					</trkpt>
					<trkpt lat="48.477310" lon="-3.917580">
						<ele>153</ele>
						<time>2026-09-02T07:13:54Z</time>
					</trkpt>
					<trkpt lat="48.477420" lon="-3.917100">
						<ele>156</ele>
						<time>2026-09-02T07:14:11Z</time>
					</trkpt>
					<trkpt lat="48.477390" lon="-3.916100">
						<ele>160</ele>
						<time>2026-09-02T07:14:44Z</time>
					</trkpt>
					<trkpt lat="48.475540" lon="-3.915790">
						<ele>162</ele>
						<time>2026-09-02T07:16:18Z</time>
					</trkpt>
					<trkpt lat="48.474720" lon="-3.915620">
						<ele>165</ele>
						<time>2026-09-02T07:16:59Z</time>
					</trkpt>
					<trkpt lat="48.474290" lon="-3.915450">
						<ele>167</ele>
						<time>2026-09-02T07:17:21Z</time>
					</trkpt>
					<trkpt lat="48.473180" lon="-3.914870">
						<ele>171</ele>
						<time>2026-09-02T07:18:20Z</time>
					</trkpt>
					<trkpt lat="48.472980" lon="-3.914750">
						<ele>171</ele>
						<time>2026-09-02T07:18:31Z</time>
					</trkpt>
					<trkpt lat="48.472850" lon="-3.914640">
						<ele>172</ele>
						<time>2026-09-02T07:18:38Z</time>
					</trkpt>
					<trkpt lat="48.472340" lon="-3.914950">
						<ele>172</ele>
						<time>2026-09-02T07:19:06Z</time>
					</trkpt>
					<trkpt lat="48.472250" lon="-3.914980">
						<ele>172</ele>
						<time>2026-09-02T07:19:10Z</time>
					</trkpt>
					<trkpt lat="48.472070" lon="-3.915020">
						<ele>172</ele>
						<time>2026-09-02T07:19:19Z</time>
					</trkpt>
					<trkpt lat="48.471780" lon="-3.914990">
						<ele>174</ele>
						<time>2026-09-02T07:19:34Z</time>
					</trkpt>
					<trkpt lat="48.471590" lon="-3.914890">
						<ele>174</ele>
						<time>2026-09-02T07:19:44Z</time>
					</trkpt>
					<trkpt lat="48.471400" lon="-3.914740">
						<ele>175</ele>
						<time>2026-09-02T07:19:55Z</time>
					</trkpt>
					<trkpt lat="48.471190" lon="-3.914520">
						<ele>175</ele>
						<time>2026-09-02T07:20:08Z</time>
					</trkpt>
					<trkpt lat="48.471090" lon="-3.914360">
						<ele>176</ele>
						<time>2026-09-02T07:20:15Z</time>
					</trkpt>
					<trkpt lat="48.470770" lon="-3.913520">
						<ele>176</ele>
						<time>2026-09-02T07:20:47Z</time>
					</trkpt>
					<trkpt lat="48.470550" lon="-3.913180">
						<ele>174</ele>
						<time>2026-09-02T07:21:03Z</time>
					</trkpt>
					<trkpt lat="48.470380" lon="-3.913020">
						<ele>173</ele>
						<time>2026-09-02T07:21:13Z</time>
					</trkpt>
					<trkpt lat="48.470250" lon="-3.912920">
						<ele>172</ele>
						<time>2026-09-02T07:21:20Z</time>
					</trkpt>
					<trkpt lat="48.469790" lon="-3.912690">
						<ele>169</ele>
						<time>2026-09-02T07:21:44Z</time>
					</trkpt>
					<trkpt lat="48.469370" lon="-3.912590">
						<ele>166</ele>
						<time>2026-09-02T07:22:06Z</time>
					</trkpt>
					<trkpt lat="48.469030" lon="-3.912540">
						<ele>163</ele>
						<time>2026-09-02T07:22:23Z</time>
					</trkpt>
					<trkpt lat="48.468970" lon="-3.912490">
						<ele>163</ele>
						<time>2026-09-02T07:22:26Z</time>
					</trkpt>
					<trkpt lat="48.469060" lon="-3.912290">
						<ele>162</ele>
						<time>2026-09-02T07:22:34Z</time>
					</trkpt>
					<trkpt lat="48.469680" lon="-3.911690">
						<ele>161</ele>
						<time>2026-09-02T07:23:11Z</time>
					</trkpt>
					<trkpt lat="48.469910" lon="-3.911410">
						<ele>161</ele>
						<time>2026-09-02T07:23:26Z</time>
					</trkpt>
					<trkpt lat="48.469930" lon="-3.911340">
						<ele>161</ele>
						<time>2026-09-02T07:23:28Z</time>
					</trkpt>
					<trkpt lat="48.469920" lon="-3.911210">
						<ele>161</ele>
						<time>2026-09-02T07:23:33Z</time>
					</trkpt>
					<trkpt lat="48.469890" lon="-3.911120">
						<ele>160</ele>
						<time>2026-09-02T07:23:36Z</time>
					</trkpt>
					<trkpt lat="48.469560" lon="-3.910780">
						<ele>158</ele>
						<time>2026-09-02T07:23:56Z</time>
					</trkpt>
					<trkpt lat="48.469230" lon="-3.910390">
						<ele>154</ele>
						<time>2026-09-02T07:24:17Z</time>
					</trkpt>
					<trkpt lat="48.468890" lon="-3.909700">
						<ele>152</ele>
						<time>2026-09-02T07:24:46Z</time>
					</trkpt>
					<trkpt lat="48.468590" lon="-3.909220">
						<ele>151</ele>
						<time>2026-09-02T07:25:07Z</time>
					</trkpt>
					<trkpt lat="48.468090" lon="-3.908510">
						<ele>156</ele>
						<time>2026-09-02T07:25:42Z</time>
					</trkpt>
					<trkpt lat="48.468220" lon="-3.908240">
						<ele>156</ele>
						<time>2026-09-02T07:25:53Z</time>
					</trkpt>
					<trkpt lat="48.468830" lon="-3.906410">
						<ele>159</ele>
						<time>2026-09-02T07:27:01Z</time>
					</trkpt>
					<trkpt lat="48.469270" lon="-3.905360">
						<ele>158</ele>
						<time>2026-09-02T07:27:42Z</time>
					</trkpt>
					<trkpt lat="48.469340" lon="-3.905040">
						<ele>159</ele>
						<time>2026-09-02T07:27:53Z</time>
					</trkpt>
					<trkpt lat="48.469370" lon="-3.904250">
						<ele>161</ele>
						<time>2026-09-02T07:28:20Z</time>
					</trkpt>
					<trkpt lat="48.469420" lon="-3.903910">
						<ele>161</ele>
						<time>2026-09-02T07:28:31Z</time>
					</trkpt>
					<trkpt lat="48.469560" lon="-3.903350">
						<ele>161</ele>
						<time>2026-09-02T07:28:51Z</time>
					</trkpt>
					<trkpt lat="48.469750" lon="-3.903020">
						<ele>160</ele>
						<time>2026-09-02T07:29:05Z</time>
					</trkpt>
					<trkpt lat="48.470370" lon="-3.902190">
						<ele>159</ele>
						<time>2026-09-02T07:29:47Z</time>
					</trkpt>
					<trkpt lat="48.471110" lon="-3.901380">
						<ele>161</ele>
						<time>2026-09-02T07:30:33Z</time>
					</trkpt>
					<trkpt lat="48.471050" lon="-3.901150">
						<ele>162</ele>
						<time>2026-09-02T07:30:41Z</time>
					</trkpt>
					<trkpt lat="48.471100" lon="-3.901010">
						<ele>163</ele>
						<time>2026-09-02T07:30:46Z</time>
					</trkpt>
					<trkpt lat="48.471140" lon="-3.900760">
						<ele>164</ele>
						<time>2026-09-02T07:30:55Z</time>
					</trkpt>
					<trkpt lat="48.471110" lon="-3.900560">
						<ele>166</ele>
						<time>2026-09-02T07:31:01Z</time>
					</trkpt>
					<trkpt lat="48.471390" lon="-3.899120">
						<ele>173</ele>
						<time>2026-09-02T07:31:51Z</time>
					</trkpt>
					<trkpt lat="48.471370" lon="-3.898710">
						<ele>176</ele>
						<time>2026-09-02T07:32:05Z</time>
					</trkpt>
					<trkpt lat="48.471390" lon="-3.898500">
						<ele>177</ele>
						<time>2026-09-02T07:32:12Z</time>
					</trkpt>
					<trkpt lat="48.471360" lon="-3.898230">
						<ele>179</ele>
						<time>2026-09-02T07:32:21Z</time>
					</trkpt>
					<trkpt lat="48.471400" lon="-3.898010">
						<ele>180</ele>
						<time>2026-09-02T07:32:29Z</time>
					</trkpt>
					<trkpt lat="48.471400" lon="-3.897870">
						<ele>181</ele>
						<time>2026-09-02T07:32:33Z</time>
					</trkpt>
					<trkpt lat="48.471260" lon="-3.897460">
						<ele>185</ele>
						<time>2026-09-02T07:32:49Z</time>
					</trkpt>
					<trkpt lat="48.471230" lon="-3.897250">
						<ele>187</ele>
						<time>2026-09-02T07:32:56Z</time>
					</trkpt>
					<trkpt lat="48.471430" lon="-3.896220">
						<ele>191</ele>
						<time>2026-09-02T07:33:31Z</time>
					</trkpt>
					<trkpt lat="48.471400" lon="-3.896060">
						<ele>192</ele>
						<time>2026-09-02T07:33:37Z</time>
					</trkpt>
					<trkpt lat="48.471050" lon="-3.895620">
						<ele>197</ele>
						<time>2026-09-02T07:34:00Z</time>
					</trkpt>
					<trkpt lat="48.470880" lon="-3.895530">
						<ele>199</ele>
						<time>2026-09-02T07:34:09Z</time>
					</trkpt>
					<trkpt lat="48.470570" lon="-3.895430">
						<ele>201</ele>
						<time>2026-09-02T07:34:24Z</time>
					</trkpt>
					<trkpt lat="48.470360" lon="-3.895270">
						<ele>203</ele>
						<time>2026-09-02T07:34:36Z</time>
					</trkpt>
					<trkpt lat="48.470150" lon="-3.894850">
						<ele>204</ele>
						<time>2026-09-02T07:34:54Z</time>
					</trkpt>
					<trkpt lat="48.470080" lon="-3.894440">
						<ele>204</ele>
						<time>2026-09-02T07:35:08Z</time>
					</trkpt>
					<trkpt lat="48.469990" lon="-3.894430">
						<ele>204</ele>
						<time>2026-09-02T07:35:12Z</time>
					</trkpt>
					<trkpt lat="48.469710" lon="-3.894140">
						<ele>202</ele>
						<time>2026-09-02T07:35:29Z</time>
					</trkpt>
					<trkpt lat="48.469630" lon="-3.894100">
						<ele>202</ele>
						<time>2026-09-02T07:35:33Z</time>
					</trkpt>
					<trkpt lat="48.469480" lon="-3.894080">
						<ele>201</ele>
						<time>2026-09-02T07:35:41Z</time>
					</trkpt>
					<trkpt lat="48.469040" lon="-3.893940">
						<ele>199</ele>
						<time>2026-09-02T07:36:04Z</time>
					</trkpt>
					<trkpt lat="48.468740" lon="-3.893800">
						<ele>197</ele>
						<time>2026-09-02T07:36:19Z</time>
					</trkpt>
					<trkpt lat="48.468200" lon="-3.893700">
						<ele>194</ele>
						<time>2026-09-02T07:36:46Z</time>
					</trkpt>
					<trkpt lat="48.467510" lon="-3.893660">
						<ele>189</ele>
						<time>2026-09-02T07:37:21Z</time>
					</trkpt>
					<trkpt lat="48.466920" lon="-3.893720">
						<ele>185</ele>
						<time>2026-09-02T07:37:51Z</time>
					</trkpt>
					<trkpt lat="48.466790" lon="-3.893780">
						<ele>184</ele>
						<time>2026-09-02T07:37:57Z</time>
					</trkpt>
					<trkpt lat="48.466450" lon="-3.893970">
						<ele>183</ele>
						<time>2026-09-02T07:38:16Z</time>
					</trkpt>
					<trkpt lat="48.466210" lon="-3.894160">
						<ele>182</ele>
						<time>2026-09-02T07:38:29Z</time>
					</trkpt>
					<trkpt lat="48.465850" lon="-3.894580">
						<ele>180</ele>
						<time>2026-09-02T07:38:52Z</time>
					</trkpt>
					<trkpt lat="48.465300" lon="-3.895300">
						<ele>178</ele>
						<time>2026-09-02T07:39:28Z</time>
					</trkpt>
					<trkpt lat="48.464790" lon="-3.895710">
						<ele>178</ele>
						<time>2026-09-02T07:39:57Z</time>
					</trkpt>
					<trkpt lat="48.464530" lon="-3.895830">
						<ele>177</ele>
						<time>2026-09-02T07:40:11Z</time>
					</trkpt>
					<trkpt lat="48.464340" lon="-3.895870">
						<ele>177</ele>
						<time>2026-09-02T07:40:20Z</time>
					</trkpt>
					<trkpt lat="48.464200" lon="-3.895870">
						<ele>177</ele>
						<time>2026-09-02T07:40:27Z</time>
					</trkpt>
					<trkpt lat="48.464080" lon="-3.895830">
						<ele>177</ele>
						<time>2026-09-02T07:40:34Z</time>
					</trkpt>
					<trkpt lat="48.463890" lon="-3.896120">
						<ele>178</ele>
						<time>2026-09-02T07:40:47Z</time>
					</trkpt>
					<trkpt lat="48.463570" lon="-3.896480">
						<ele>179</ele>
						<time>2026-09-02T07:41:07Z</time>
					</trkpt>
					<trkpt lat="48.463360" lon="-3.896660">
						<ele>179</ele>
						<time>2026-09-02T07:41:19Z</time>
					</trkpt>
					<trkpt lat="48.462840" lon="-3.897020">
						<ele>179</ele>
						<time>2026-09-02T07:41:48Z</time>
					</trkpt>
					<trkpt lat="48.460410" lon="-3.898640">
						<ele>169</ele>
						<time>2026-09-02T07:44:01Z</time>
					</trkpt>
					<trkpt lat="48.459990" lon="-3.898790">
						<ele>168</ele>
						<time>2026-09-02T07:44:22Z</time>
					</trkpt>
					<trkpt lat="48.459550" lon="-3.898870">
						<ele>169</ele>
						<time>2026-09-02T07:44:45Z</time>
					</trkpt>
					<trkpt lat="48.459610" lon="-3.899120">
						<ele>169</ele>
						<time>2026-09-02T07:44:53Z</time>
					</trkpt>
					<trkpt lat="48.459790" lon="-3.899550">
						<ele>168</ele>
						<time>2026-09-02T07:45:10Z</time>
					</trkpt>
					<trkpt lat="48.459800" lon="-3.899720">
						<ele>168</ele>
						<time>2026-09-02T07:45:16Z</time>
					</trkpt>
					<trkpt lat="48.459780" lon="-3.899800">
						<ele>168</ele>
						<time>2026-09-02T07:45:19Z</time>
					</trkpt>
					<trkpt lat="48.459490" lon="-3.900210">
						<ele>168</ele>
						<time>2026-09-02T07:45:39Z</time>
					</trkpt>
					<trkpt lat="48.459070" lon="-3.900700">
						<ele>168</ele>
						<time>2026-09-02T07:46:05Z</time>
					</trkpt>
					<trkpt lat="48.458550" lon="-3.900980">
						<ele>168</ele>
						<time>2026-09-02T07:46:33Z</time>
					</trkpt>
					<trkpt lat="48.458390" lon="-3.901040">
						<ele>168</ele>
						<time>2026-09-02T07:46:41Z</time>
					</trkpt>
					<trkpt lat="48.458310" lon="-3.901110">
						<ele>168</ele>
						<time>2026-09-02T07:46:46Z</time>
					</trkpt>
					<trkpt lat="48.458270" lon="-3.901180">
						<ele>168</ele>
						<time>2026-09-02T07:46:49Z</time>
					</trkpt>
					<trkpt lat="48.458230" lon="-3.901360">
						<ele>168</ele>
						<time>2026-09-02T07:46:55Z</time>
					</trkpt>
					<trkpt lat="48.458190" lon="-3.901420">
						<ele>168</ele>
						<time>2026-09-02T07:46:58Z</time>
					</trkpt>
					<trkpt lat="48.457800" lon="-3.901720">
						<ele>167</ele>
						<time>2026-09-02T07:47:20Z</time>
					</trkpt>
					<trkpt lat="48.457640" lon="-3.901910">
						<ele>167</ele>
						<time>2026-09-02T07:47:30Z</time>
					</trkpt>
					<trkpt lat="48.457280" lon="-3.902100">
						<ele>166</ele>
						<time>2026-09-02T07:47:49Z</time>
					</trkpt>
					<trkpt lat="48.456770" lon="-3.902470">
						<ele>165</ele>
						<time>2026-09-02T07:48:17Z</time>
					</trkpt>
					<trkpt lat="48.456640" lon="-3.902600">
						<ele>165</ele>
						<time>2026-09-02T07:48:25Z</time>
					</trkpt>
					<trkpt lat="48.456550" lon="-3.902650">
						<ele>165</ele>
						<time>2026-09-02T07:48:30Z</time>
					</trkpt>
					<trkpt lat="48.456440" lon="-3.902670">
						<ele>165</ele>
						<time>2026-09-02T07:48:36Z</time>
					</trkpt>
					<trkpt lat="48.456180" lon="-3.902670">
						<ele>165</ele>
						<time>2026-09-02T07:48:49Z</time>
					</trkpt>
					<trkpt lat="48.455880" lon="-3.902610">
						<ele>165</ele>
						<time>2026-09-02T07:49:04Z</time>
					</trkpt>
					<trkpt lat="48.455810" lon="-3.902620">
						<ele>165</ele>
						<time>2026-09-02T07:49:07Z</time>
					</trkpt>
					<trkpt lat="48.455740" lon="-3.902700">
						<ele>165</ele>
						<time>2026-09-02T07:49:12Z</time>
					</trkpt>
					<trkpt lat="48.455430" lon="-3.903200">
						<ele>163</ele>
						<time>2026-09-02T07:49:34Z</time>
					</trkpt>
					<trkpt lat="48.455090" lon="-3.903840">
						<ele>164</ele>
						<time>2026-09-02T07:50:02Z</time>
					</trkpt>
					<trkpt lat="48.454740" lon="-3.904340">
						<ele>167</ele>
						<time>2026-09-02T07:50:26Z</time>
					</trkpt>
					<trkpt lat="48.454420" lon="-3.904980">
						<ele>171</ele>
						<time>2026-09-02T07:50:52Z</time>
					</trkpt>
					<trkpt lat="48.454090" lon="-3.905390">
						<ele>174</ele>
						<time>2026-09-02T07:51:14Z</time>
					</trkpt>
					<trkpt lat="48.453930" lon="-3.905520">
						<ele>176</ele>
						<time>2026-09-02T07:51:23Z</time>
					</trkpt>
					<trkpt lat="48.453570" lon="-3.905930">
						<ele>178</ele>
						<time>2026-09-02T07:51:45Z</time>
					</trkpt>
					<trkpt lat="48.453270" lon="-3.906330">
						<ele>179</ele>
						<time>2026-09-02T07:52:05Z</time>
					</trkpt>
					<trkpt lat="48.453090" lon="-3.906450">
						<ele>181</ele>
						<time>2026-09-02T07:52:15Z</time>
					</trkpt>
					<trkpt lat="48.452910" lon="-3.906730">
						<ele>181</ele>
						<time>2026-09-02T07:52:28Z</time>
					</trkpt>
					<trkpt lat="48.452360" lon="-3.907890">
						<ele>176</ele>
						<time>2026-09-02T07:53:16Z</time>
					</trkpt>
					<trkpt lat="48.452090" lon="-3.908390">
						<ele>172</ele>
						<time>2026-09-02T07:53:37Z</time>
					</trkpt>
					<trkpt lat="48.451900" lon="-3.908700">
						<ele>172</ele>
						<time>2026-09-02T07:53:51Z</time>
					</trkpt>
					<trkpt lat="48.451390" lon="-3.909290">
						<ele>174</ele>
						<time>2026-09-02T07:54:23Z</time>
					</trkpt>
					<trkpt lat="48.451120" lon="-3.909750">
						<ele>176</ele>
						<time>2026-09-02T07:54:44Z</time>
					</trkpt>
					<trkpt lat="48.450680" lon="-3.910390">
						<ele>183</ele>
						<time>2026-09-02T07:55:14Z</time>
					</trkpt>
					<trkpt lat="48.450760" lon="-3.910460">
						<ele>183</ele>
						<time>2026-09-02T07:55:19Z</time>
					</trkpt>
					<trkpt lat="48.450540" lon="-3.910260">
						<ele>183</ele>
						<time>2026-09-02T07:55:32Z</time>
					</trkpt>
					<trkpt lat="48.449610" lon="-3.909690">
						<ele>188</ele>
						<time>2026-09-02T07:56:22Z</time>
					</trkpt>
					<trkpt lat="48.448890" lon="-3.909070">
						<ele>193</ele>
						<time>2026-09-02T07:57:03Z</time>
					</trkpt>
					<trkpt lat="48.448570" lon="-3.908820">
						<ele>197</ele>
						<time>2026-09-02T07:57:21Z</time>
					</trkpt>
					<trkpt lat="48.448310" lon="-3.908680">
						<ele>199</ele>
						<time>2026-09-02T07:57:35Z</time>
					</trkpt>
					<trkpt lat="48.448050" lon="-3.908500">
						<ele>202</ele>
						<time>2026-09-02T07:57:50Z</time>
					</trkpt>
					<trkpt lat="48.447690" lon="-3.908190">
						<ele>209</ele>
						<time>2026-09-02T07:58:10Z</time>
					</trkpt>
					<trkpt lat="48.447530" lon="-3.907990">
						<ele>212</ele>
						<time>2026-09-02T07:58:21Z</time>
					</trkpt>
					<trkpt lat="48.447390" lon="-3.907680">
						<ele>214</ele>
						<time>2026-09-02T07:58:33Z</time>
					</trkpt>
					<trkpt lat="48.447250" lon="-3.907240">
						<ele>216</ele>
						<time>2026-09-02T07:58:49Z</time>
					</trkpt>
					<trkpt lat="48.447120" lon="-3.906960">
						<ele>218</ele>
						<time>2026-09-02T07:59:01Z</time>
					</trkpt>
					<trkpt lat="48.446580" lon="-3.906220">
						<ele>224</ele>
						<time>2026-09-02T07:59:37Z</time>
					</trkpt>
					<trkpt lat="48.446070" lon="-3.905620">
						<ele>226</ele>
						<time>2026-09-02T08:00:10Z</time>
					</trkpt>
					<trkpt lat="48.445950" lon="-3.905540">
						<ele>226</ele>
						<time>2026-09-02T08:00:16Z</time>
					</trkpt>
					<trkpt lat="48.445770" lon="-3.905490">
						<ele>227</ele>
						<time>2026-09-02T08:00:25Z</time>
					</trkpt>
					<trkpt lat="48.445480" lon="-3.905470">
						<ele>227</ele>
						<time>2026-09-02T08:00:40Z</time>
					</trkpt>
					<trkpt lat="48.444720" lon="-3.905530">
						<ele>227</ele>
						<time>2026-09-02T08:01:18Z</time>
					</trkpt>
					<trkpt lat="48.444600" lon="-3.905510">
						<ele>227</ele>
						<time>2026-09-02T08:01:24Z</time>
					</trkpt>
					<trkpt lat="48.444420" lon="-3.905400">
						<ele>227</ele>
						<time>2026-09-02T08:01:34Z</time>
					</trkpt>
					<trkpt lat="48.444140" lon="-3.905100">
						<ele>227</ele>
						<time>2026-09-02T08:01:51Z</time>
					</trkpt>
					<trkpt lat="48.443500" lon="-3.904190">
						<ele>225</ele>
						<time>2026-09-02T08:02:35Z</time>
					</trkpt>
					<trkpt lat="48.442250" lon="-3.902200">
						<ele>228</ele>
						<time>2026-09-02T08:04:06Z</time>
					</trkpt>
					<trkpt lat="48.442070" lon="-3.901740">
						<ele>230</ele>
						<time>2026-09-02T08:04:24Z</time>
					</trkpt>
					<trkpt lat="48.441800" lon="-3.900640">
						<ele>232</ele>
						<time>2026-09-02T08:05:03Z</time>
					</trkpt>
					<trkpt lat="48.441620" lon="-3.900050">
						<ele>231</ele>
						<time>2026-09-02T08:05:24Z</time>
					</trkpt>
					<trkpt lat="48.441130" lon="-3.898680">
						<ele>233</ele>
						<time>2026-09-02T08:06:16Z</time>
					</trkpt>
					<trkpt lat="48.440710" lon="-3.897720">
						<ele>233</ele>
						<time>2026-09-02T08:06:54Z</time>
					</trkpt>
					<trkpt lat="48.440570" lon="-3.897520">
						<ele>233</ele>
						<time>2026-09-02T08:07:04Z</time>
					</trkpt>
					<trkpt lat="48.440340" lon="-3.897340">
						<ele>233</ele>
						<time>2026-09-02T08:07:17Z</time>
					</trkpt>
					<trkpt lat="48.440260" lon="-3.897240">
						<ele>233</ele>
						<time>2026-09-02T08:07:22Z</time>
					</trkpt>
					<trkpt lat="48.440110" lon="-3.896900">
						<ele>233</ele>
						<time>2026-09-02T08:07:35Z</time>
					</trkpt>
					<trkpt lat="48.439720" lon="-3.895820">
						<ele>235</ele>
						<time>2026-09-02T08:08:16Z</time>
					</trkpt>
					<trkpt lat="48.439650" lon="-3.895510">
						<ele>236</ele>
						<time>2026-09-02T08:08:27Z</time>
					</trkpt>
					<trkpt lat="48.439510" lon="-3.894530">
						<ele>239</ele>
						<time>2026-09-02T08:09:00Z</time>
					</trkpt>
					<trkpt lat="48.439450" lon="-3.894230">
						<ele>240</ele>
						<time>2026-09-02T08:09:11Z</time>
					</trkpt>
					<trkpt lat="48.439320" lon="-3.893820">
						<ele>242</ele>
						<time>2026-09-02T08:09:26Z</time>
					</trkpt>
					<trkpt lat="48.439280" lon="-3.893550">
						<ele>243</ele>
						<time>2026-09-02T08:09:35Z</time>
					</trkpt>
					<trkpt lat="48.439270" lon="-3.893220">
						<ele>244</ele>
						<time>2026-09-02T08:09:46Z</time>
					</trkpt>
					<trkpt lat="48.439360" lon="-3.892830">
						<ele>245</ele>
						<time>2026-09-02T08:10:00Z</time>
					</trkpt>
					<trkpt lat="48.439420" lon="-3.892410">
						<ele>246</ele>
						<time>2026-09-02T08:10:14Z</time>
					</trkpt>
					<trkpt lat="48.439310" lon="-3.892160">
						<ele>247</ele>
						<time>2026-09-02T08:10:24Z</time>
					</trkpt>
					<trkpt lat="48.439310" lon="-3.892100">
						<ele>247</ele>
						<time>2026-09-02T08:10:26Z</time>
					</trkpt>
					<trkpt lat="48.439400" lon="-3.891900">
						<ele>247</ele>
						<time>2026-09-02T08:10:34Z</time>
					</trkpt>
					<trkpt lat="48.439310" lon="-3.891840">
						<ele>247</ele>
						<time>2026-09-02T08:10:39Z</time>
					</trkpt>
					<trkpt lat="48.439240" lon="-3.891710">
						<ele>248</ele>
						<time>2026-09-02T08:10:44Z</time>
					</trkpt>
					<trkpt lat="48.438930" lon="-3.891290">
						<ele>249</ele>
						<time>2026-09-02T08:11:05Z</time>
					</trkpt>
					<trkpt lat="48.438820" lon="-3.891200">
						<ele>249</ele>
						<time>2026-09-02T08:11:11Z</time>
					</trkpt>
					<trkpt lat="48.438810" lon="-3.891230">
						<ele>249</ele>
						<time>2026-09-02T08:11:13Z</time>
					</trkpt>
					<trkpt lat="48.439280" lon="-3.889800">
						<ele>252</ele>
						<time>2026-09-02T08:12:06Z</time>
					</trkpt>
					<trkpt lat="48.439310" lon="-3.889590">
						<ele>252</ele>
						<time>2026-09-02T08:12:13Z</time>
					</trkpt>
					<trkpt lat="48.439280" lon="-3.889490">
						<ele>252</ele>
						<time>2026-09-02T08:12:16Z</time>
					</trkpt>
					<trkpt lat="48.439300" lon="-3.889440">
						<ele>252</ele>
						<time>2026-09-02T08:12:18Z</time>
					</trkpt>
					<trkpt lat="48.439340" lon="-3.889420">
						<ele>252</ele>
						<time>2026-09-02T08:12:20Z</time>
					</trkpt>
					<trkpt lat="48.439360" lon="-3.889210">
						<ele>252</ele>
						<time>2026-09-02T08:12:27Z</time>
					</trkpt>
					<trkpt lat="48.439530" lon="-3.888650">
						<ele>252</ele>
						<time>2026-09-02T08:12:48Z</time>
					</trkpt>
					<trkpt lat="48.440160" lon="-3.887310">
						<ele>252</ele>
						<time>2026-09-02T08:13:42Z</time>
					</trkpt>
					<trkpt lat="48.440810" lon="-3.885770">
						<ele>255</ele>
						<time>2026-09-02T08:14:43Z</time>
					</trkpt>
					<trkpt lat="48.440930" lon="-3.885430">
						<ele>256</ele>
						<time>2026-09-02T08:14:56Z</time>
					</trkpt>
					<trkpt lat="48.441020" lon="-3.885370">
						<ele>257</ele>
						<time>2026-09-02T08:15:01Z</time>
					</trkpt>
					<trkpt lat="48.441170" lon="-3.884490">
						<ele>258</ele>
						<time>2026-09-02T08:15:31Z</time>
					</trkpt>
					<trkpt lat="48.440630" lon="-3.884220">
						<ele>259</ele>
						<time>2026-09-02T08:15:59Z</time>
					</trkpt>
					<trkpt lat="48.440110" lon="-3.883840">
						<ele>259</ele>
						<time>2026-09-02T08:16:28Z</time>
					</trkpt>
					<trkpt lat="48.439340" lon="-3.883580">
						<ele>256</ele>
						<time>2026-09-02T08:17:08Z</time>
					</trkpt>
					<trkpt lat="48.438790" lon="-3.883450">
						<ele>253</ele>
						<time>2026-09-02T08:17:36Z</time>
					</trkpt>
					<trkpt lat="48.438480" lon="-3.882720">
						<ele>252</ele>
						<time>2026-09-02T08:18:04Z</time>
					</trkpt>
					<trkpt lat="48.438410" lon="-3.881440">
						<ele>254</ele>
						<time>2026-09-02T08:18:47Z</time>
					</trkpt>
					<trkpt lat="48.438470" lon="-3.880680">
						<ele>254</ele>
						<time>2026-09-02T08:19:12Z</time>
					</trkpt>
					<trkpt lat="48.438700" lon="-3.880260">
						<ele>254</ele>
						<time>2026-09-02T08:19:30Z</time>
					</trkpt>
					<trkpt lat="48.438520" lon="-3.880080">
						<ele>253</ele>
						<time>2026-09-02T08:19:41Z</time>
					</trkpt>
					<trkpt lat="48.438490" lon="-3.879560">
						<ele>253</ele>
						<time>2026-09-02T08:19:59Z</time>
					</trkpt>
					<trkpt lat="48.438450" lon="-3.879440">
						<ele>253</ele>
						<time>2026-09-02T08:20:03Z</time>
					</trkpt>
					<trkpt lat="48.438340" lon="-3.879300">
						<ele>253</ele>
						<time>2026-09-02T08:20:10Z</time>
					</trkpt>
					<trkpt lat="48.437950" lon="-3.879330">
						<ele>255</ele>
						<time>2026-09-02T08:20:30Z</time>
					</trkpt>
					<trkpt lat="48.437360" lon="-3.879720">
						<ele>253</ele>
						<time>2026-09-02T08:21:02Z</time>
					</trkpt>
					<trkpt lat="48.437120" lon="-3.879770">
						<ele>254</ele>
						<time>2026-09-02T08:21:14Z</time>
					</trkpt>
					<trkpt lat="48.436840" lon="-3.879790">
						<ele>255</ele>
						<time>2026-09-02T08:21:28Z</time>
					</trkpt>
					<trkpt lat="48.436230" lon="-3.879710">
						<ele>255</ele>
						<time>2026-09-02T08:21:59Z</time>
					</trkpt>
					<trkpt lat="48.435330" lon="-3.879500">
						<ele>253</ele>
						<time>2026-09-02T08:22:44Z</time>
					</trkpt>
					<trkpt lat="48.434920" lon="-3.879350">
						<ele>253</ele>
						<time>2026-09-02T08:23:06Z</time>
					</trkpt>
					<trkpt lat="48.434460" lon="-3.879110">
						<ele>252</ele>
						<time>2026-09-02T08:23:30Z</time>
					</trkpt>
					<trkpt lat="48.434160" lon="-3.878880">
						<ele>252</ele>
						<time>2026-09-02T08:23:47Z</time>
					</trkpt>
					<trkpt lat="48.433350" lon="-3.878180">
						<ele>254</ele>
						<time>2026-09-02T08:24:33Z</time>
					</trkpt>
					<trkpt lat="48.432930" lon="-3.877700">
						<ele>258</ele>
						<time>2026-09-02T08:25:00Z</time>
					</trkpt>
					<trkpt lat="48.432630" lon="-3.877310">
						<ele>258</ele>
						<time>2026-09-02T08:25:20Z</time>
					</trkpt>
					<trkpt lat="48.431770" lon="-3.876070">
						<ele>260</ele>
						<time>2026-09-02T08:26:19Z</time>
					</trkpt>
					<trkpt lat="48.431640" lon="-3.875670">
						<ele>261</ele>
						<time>2026-09-02T08:26:34Z</time>
					</trkpt>
					<trkpt lat="48.431580" lon="-3.875280">
						<ele>260</ele>
						<time>2026-09-02T08:26:47Z</time>
					</trkpt>
					<trkpt lat="48.431560" lon="-3.874850">
						<ele>260</ele>
						<time>2026-09-02T08:27:02Z</time>
					</trkpt>
					<trkpt lat="48.431600" lon="-3.874150">
						<ele>261</ele>
						<time>2026-09-02T08:27:25Z</time>
					</trkpt>
					<trkpt lat="48.431570" lon="-3.873640">
						<ele>261</ele>
						<time>2026-09-02T08:27:42Z</time>
					</trkpt>
					<trkpt lat="48.431320" lon="-3.873080">
						<ele>262</ele>
						<time>2026-09-02T08:28:04Z</time>
					</trkpt>
					<trkpt lat="48.431200" lon="-3.872470">
						<ele>265</ele>
						<time>2026-09-02T08:28:26Z</time>
					</trkpt>
					<trkpt lat="48.431090" lon="-3.871660">
						<ele>267</ele>
						<time>2026-09-02T08:28:53Z</time>
					</trkpt>
					<trkpt lat="48.430830" lon="-3.870690">
						<ele>271</ele>
						<time>2026-09-02T08:29:28Z</time>
					</trkpt>
					<trkpt lat="48.430770" lon="-3.870550">
						<ele>271</ele>
						<time>2026-09-02T08:29:33Z</time>
					</trkpt>
					<trkpt lat="48.430670" lon="-3.870440">
						<ele>272</ele>
						<time>2026-09-02T08:29:39Z</time>
					</trkpt>
					<trkpt lat="48.430520" lon="-3.870100">
						<ele>274</ele>
						<time>2026-09-02T08:29:53Z</time>
					</trkpt>
					<trkpt lat="48.430190" lon="-3.868950">
						<ele>280</ele>
						<time>2026-09-02T08:30:35Z</time>
					</trkpt>
					<trkpt lat="48.429990" lon="-3.868460">
						<ele>281</ele>
						<time>2026-09-02T08:30:54Z</time>
					</trkpt>
					<trkpt lat="48.429920" lon="-3.868350">
						<ele>281</ele>
						<time>2026-09-02T08:30:59Z</time>
					</trkpt>
					<trkpt lat="48.429800" lon="-3.868010">
						<ele>281</ele>
						<time>2026-09-02T08:31:12Z</time>
					</trkpt>
					<trkpt lat="48.429580" lon="-3.867240">
						<ele>281</ele>
						<time>2026-09-02T08:31:39Z</time>
					</trkpt>
					<trkpt lat="48.429380" lon="-3.866140">
						<ele>283</ele>
						<time>2026-09-02T08:32:17Z</time>
					</trkpt>
					<trkpt lat="48.429300" lon="-3.865960">
						<ele>283</ele>
						<time>2026-09-02T08:32:24Z</time>
					</trkpt>
					<trkpt lat="48.429210" lon="-3.865920">
						<ele>283</ele>
						<time>2026-09-02T08:32:29Z</time>
					</trkpt>
					<trkpt lat="48.429240" lon="-3.865680">
						<ele>284</ele>
						<time>2026-09-02T08:32:37Z</time>
					</trkpt>
					<trkpt lat="48.429520" lon="-3.864830">
						<ele>287</ele>
						<time>2026-09-02T08:33:09Z</time>
					</trkpt>
					<trkpt lat="48.429890" lon="-3.863910">
						<ele>289</ele>
						<time>2026-09-02T08:33:44Z</time>
					</trkpt>
					<trkpt lat="48.429930" lon="-3.864030">
						<ele>288</ele>
						<time>2026-09-02T08:33:49Z</time>
					</trkpt>
					<trkpt lat="48.429890" lon="-3.863910">
						<ele>289</ele>
						<time>2026-09-02T08:33:53Z</time>
					</trkpt>
					<trkpt lat="48.430200" lon="-3.863310">
						<ele>290</ele>
						<time>2026-09-02T08:34:19Z</time>
					</trkpt>
					<trkpt lat="48.430430" lon="-3.862730">
						<ele>290</ele>
						<time>2026-09-02T08:34:41Z</time>
					</trkpt>
					<trkpt lat="48.430650" lon="-3.862280">
						<ele>290</ele>
						<time>2026-09-02T08:35:00Z</time>
					</trkpt>
					<trkpt lat="48.430260" lon="-3.861760">
						<ele>293</ele>
						<time>2026-09-02T08:35:26Z</time>
					</trkpt>
					<trkpt lat="48.429640" lon="-3.861190">
						<ele>297</ele>
						<time>2026-09-02T08:36:02Z</time>
					</trkpt>
					<trkpt lat="48.429580" lon="-3.861110">
						<ele>298</ele>
						<time>2026-09-02T08:36:06Z</time>
					</trkpt>
					<trkpt lat="48.429320" lon="-3.861000">
						<ele>298</ele>
						<time>2026-09-02T08:36:20Z</time>
					</trkpt>
					<trkpt lat="48.429070" lon="-3.860840">
						<ele>299</ele>
						<time>2026-09-02T08:36:33Z</time>
					</trkpt>
					<trkpt lat="48.428800" lon="-3.860750">
						<ele>301</ele>
						<time>2026-09-02T08:36:47Z</time>
					</trkpt>
					<trkpt lat="48.428560" lon="-3.860590">
						<ele>302</ele>
						<time>2026-09-02T08:37:00Z</time>
					</trkpt>
					<trkpt lat="48.428480" lon="-3.860510">
						<ele>303</ele>
						<time>2026-09-02T08:37:05Z</time>
					</trkpt>
					<trkpt lat="48.428260" lon="-3.860200">
						<ele>305</ele>
						<time>2026-09-02T08:37:20Z</time>
					</trkpt>
					<trkpt lat="48.427720" lon="-3.859290">
						<ele>310</ele>
						<time>2026-09-02T08:38:01Z</time>
					</trkpt>
					<trkpt lat="48.427500" lon="-3.858760">
						<ele>312</ele>
						<time>2026-09-02T08:38:21Z</time>
					</trkpt>
					<trkpt lat="48.427290" lon="-3.858350">
						<ele>313</ele>
						<time>2026-09-02T08:38:39Z</time>
					</trkpt>
					<trkpt lat="48.427280" lon="-3.858150">
						<ele>314</ele>
						<time>2026-09-02T08:38:45Z</time>
					</trkpt>
					<trkpt lat="48.427250" lon="-3.858070">
						<ele>314</ele>
						<time>2026-09-02T08:38:48Z</time>
					</trkpt>
					<trkpt lat="48.426870" lon="-3.857760">
						<ele>315</ele>
						<time>2026-09-02T08:39:10Z</time>
					</trkpt>
					<trkpt lat="48.426360" lon="-3.857150">
						<ele>316</ele>
						<time>2026-09-02T08:39:42Z</time>
					</trkpt>
					<trkpt lat="48.426320" lon="-3.857060">
						<ele>316</ele>
						<time>2026-09-02T08:39:46Z</time>
					</trkpt>
					<trkpt lat="48.426400" lon="-3.856960">
						<ele>315</ele>
						<time>2026-09-02T08:39:51Z</time>
					</trkpt>
					<trkpt lat="48.426600" lon="-3.856850">
						<ele>314</ele>
						<time>2026-09-02T08:40:02Z</time>
					</trkpt>
					<trkpt lat="48.428110" lon="-3.856130">
						<ele>311</ele>
						<time>2026-09-02T08:41:21Z</time>
					</trkpt>
					<trkpt lat="48.428340" lon="-3.855990">
						<ele>310</ele>
						<time>2026-09-02T08:41:34Z</time>
					</trkpt>
					<trkpt lat="48.428780" lon="-3.855790">
						<ele>309</ele>
						<time>2026-09-02T08:41:57Z</time>
					</trkpt>
					<trkpt lat="48.429150" lon="-3.855660">
						<ele>308</ele>
						<time>2026-09-02T08:42:16Z</time>
					</trkpt>
					<trkpt lat="48.429640" lon="-3.855580">
						<ele>306</ele>
						<time>2026-09-02T08:42:40Z</time>
					</trkpt>
					<trkpt lat="48.429860" lon="-3.855430">
						<ele>304</ele>
						<time>2026-09-02T08:42:52Z</time>
					</trkpt>
					<trkpt lat="48.430210" lon="-3.855480">
						<ele>301</ele>
						<time>2026-09-02T08:43:10Z</time>
					</trkpt>
					<trkpt lat="48.430610" lon="-3.855580">
						<ele>298</ele>
						<time>2026-09-02T08:43:30Z</time>
					</trkpt>
					<trkpt lat="48.431210" lon="-3.855580">
						<ele>293</ele>
						<time>2026-09-02T08:44:00Z</time>
					</trkpt>
					<trkpt lat="48.431500" lon="-3.855620">
						<ele>292</ele>
						<time>2026-09-02T08:44:15Z</time>
					</trkpt>
					<trkpt lat="48.432410" lon="-3.855570">
						<ele>285</ele>
						<time>2026-09-02T08:45:00Z</time>
					</trkpt>
					<trkpt lat="48.432710" lon="-3.855450">
						<ele>283</ele>
						<time>2026-09-02T08:45:16Z</time>
					</trkpt>
					<trkpt lat="48.432750" lon="-3.855450">
						<ele>283</ele>
						<time>2026-09-02T08:45:18Z</time>
					</trkpt>
					<trkpt lat="48.432860" lon="-3.855520">
						<ele>283</ele>
						<time>2026-09-02T08:45:24Z</time>
					</trkpt>
					<trkpt lat="48.432910" lon="-3.855520">
						<ele>282</ele>
						<time>2026-09-02T08:45:26Z</time>
					</trkpt>
					<trkpt lat="48.433100" lon="-3.855340">
						<ele>281</ele>
						<time>2026-09-02T08:45:38Z</time>
					</trkpt>
					<trkpt lat="48.433710" lon="-3.855010">
						<ele>277</ele>
						<time>2026-09-02T08:46:10Z</time>
					</trkpt>
					<trkpt lat="48.434000" lon="-3.854770">
						<ele>275</ele>
						<time>2026-09-02T08:46:27Z</time>
					</trkpt>
					<trkpt lat="48.434390" lon="-3.854350">
						<ele>272</ele>
						<time>2026-09-02T08:46:51Z</time>
					</trkpt>
					<trkpt lat="48.434770" lon="-3.853840">
						<ele>269</ele>
						<time>2026-09-02T08:47:16Z</time>
					</trkpt>
					<trkpt lat="48.434950" lon="-3.853560">
						<ele>268</ele>
						<time>2026-09-02T08:47:29Z</time>
					</trkpt>
					<trkpt lat="48.435000" lon="-3.853530">
						<ele>268</ele>
						<time>2026-09-02T08:47:32Z</time>
					</trkpt>
					<trkpt lat="48.435230" lon="-3.853550">
						<ele>267</ele>
						<time>2026-09-02T08:47:43Z</time>
					</trkpt>
					<trkpt lat="48.435550" lon="-3.853660">
						<ele>266</ele>
						<time>2026-09-02T08:48:00Z</time>
					</trkpt>
					<trkpt lat="48.435770" lon="-3.853680">
						<ele>265</ele>
						<time>2026-09-02T08:48:11Z</time>
					</trkpt>
					<trkpt lat="48.436850" lon="-3.853890">
						<ele>258</ele>
						<time>2026-09-02T08:49:05Z</time>
					</trkpt>
					<trkpt lat="48.437400" lon="-3.854070">
						<ele>254</ele>
						<time>2026-09-02T08:49:33Z</time>
					</trkpt>
					<trkpt lat="48.438340" lon="-3.854490">
						<ele>247</ele>
						<time>2026-09-02T08:50:22Z</time>
					</trkpt>
					<trkpt lat="48.438740" lon="-3.854540">
						<ele>244</ele>
						<time>2026-09-02T08:50:42Z</time>
					</trkpt>
					<trkpt lat="48.439040" lon="-3.854640">
						<ele>242</ele>
						<time>2026-09-02T08:50:58Z</time>
					</trkpt>
					<trkpt lat="48.439440" lon="-3.854720">
						<ele>238</ele>
						<time>2026-09-02T08:51:18Z</time>
					</trkpt>
					<trkpt lat="48.439520" lon="-3.854730">
						<ele>237</ele>
						<time>2026-09-02T08:51:22Z</time>
					</trkpt>
					<trkpt lat="48.440050" lon="-3.854630">
						<ele>233</ele>
						<time>2026-09-02T08:51:49Z</time>
					</trkpt>
					<trkpt lat="48.440200" lon="-3.854570">
						<ele>232</ele>
						<time>2026-09-02T08:51:57Z</time>
					</trkpt>
					<trkpt lat="48.440570" lon="-3.854340">
						<ele>231</ele>
						<time>2026-09-02T08:52:17Z</time>
					</trkpt>
					<trkpt lat="48.440870" lon="-3.854300">
						<ele>230</ele>
						<time>2026-09-02T08:52:32Z</time>
					</trkpt>
					<trkpt lat="48.440990" lon="-3.854310">
						<ele>229</ele>
						<time>2026-09-02T08:52:38Z</time>
					</trkpt>
					<trkpt lat="48.441370" lon="-3.854450">
						<ele>227</ele>
						<time>2026-09-02T08:52:57Z</time>
					</trkpt>
					<trkpt lat="48.441490" lon="-3.854450">
						<ele>227</ele>
						<time>2026-09-02T08:53:03Z</time>
					</trkpt>
					<trkpt lat="48.441630" lon="-3.854400">
						<ele>226</ele>
						<time>2026-09-02T08:53:10Z</time>
					</trkpt>
					<trkpt lat="48.441710" lon="-3.854560">
						<ele>226</ele>
						<time>2026-09-02T08:53:17Z</time>
					</trkpt>
					<trkpt lat="48.441800" lon="-3.854620">
						<ele>226</ele>
						<time>2026-09-02T08:53:22Z</time>
					</trkpt>
					<trkpt lat="48.442170" lon="-3.854780">
						<ele>227</ele>
						<time>2026-09-02T08:53:41Z</time>
					</trkpt>
					<trkpt lat="48.442400" lon="-3.854970">
						<ele>229</ele>
						<time>2026-09-02T08:53:54Z</time>
					</trkpt>
					<trkpt lat="48.442520" lon="-3.854900">
						<ele>229</ele>
						<time>2026-09-02T08:54:01Z</time>
					</trkpt>
					<trkpt lat="48.442780" lon="-3.854670">
						<ele>229</ele>
						<time>2026-09-02T08:54:16Z</time>
					</trkpt>
					<trkpt lat="48.443040" lon="-3.854490">
						<ele>229</ele>
						<time>2026-09-02T08:54:30Z</time>
					</trkpt>
					<trkpt lat="48.443160" lon="-3.854250">
						<ele>227</ele>
						<time>2026-09-02T08:54:40Z</time>
					</trkpt>
					<trkpt lat="48.443560" lon="-3.853220">
						<ele>228</ele>
						<time>2026-09-02T08:55:20Z</time>
					</trkpt>
					<trkpt lat="48.443810" lon="-3.852740">
						<ele>230</ele>
						<time>2026-09-02T08:55:40Z</time>
					</trkpt>
					<trkpt lat="48.444790" lon="-3.851360">
						<ele>236</ele>
						<time>2026-09-02T08:56:47Z</time>
					</trkpt>
					<trkpt lat="48.444940" lon="-3.851170">
						<ele>237</ele>
						<time>2026-09-02T08:56:57Z</time>
					</trkpt>
					<trkpt lat="48.445020" lon="-3.851170">
						<ele>238</ele>
						<time>2026-09-02T08:57:01Z</time>
					</trkpt>
					<trkpt lat="48.445460" lon="-3.850990">
						<ele>242</ele>
						<time>2026-09-02T08:57:24Z</time>
					</trkpt>
					<trkpt lat="48.445720" lon="-3.850830">
						<ele>245</ele>
						<time>2026-09-02T08:57:38Z</time>
					</trkpt>
					<trkpt lat="48.445920" lon="-3.850640">
						<ele>247</ele>
						<time>2026-09-02T08:57:50Z</time>
					</trkpt>
					<trkpt lat="48.446180" lon="-3.850310">
						<ele>248</ele>
						<time>2026-09-02T08:58:07Z</time>
					</trkpt>
					<trkpt lat="48.446070" lon="-3.850110">
						<ele>248</ele>
						<time>2026-09-02T08:58:15Z</time>
					</trkpt>
					<trkpt lat="48.446150" lon="-3.850080">
						<ele>248</ele>
						<time>2026-09-02T08:58:19Z</time>
					</trkpt>
					<trkpt lat="48.446530" lon="-3.850030">
						<ele>249</ele>
						<time>2026-09-02T08:58:39Z</time>
					</trkpt>
					<trkpt lat="48.446670" lon="-3.849970">
						<ele>249</ele>
						<time>2026-09-02T08:58:46Z</time>
					</trkpt>
					<trkpt lat="48.446920" lon="-3.849910">
						<ele>248</ele>
						<time>2026-09-02T08:58:59Z</time>
					</trkpt>
					<trkpt lat="48.447320" lon="-3.849940">
						<ele>248</ele>
						<time>2026-09-02T08:59:19Z</time>
					</trkpt>
					<trkpt lat="48.448030" lon="-3.849790">
						<ele>250</ele>
						<time>2026-09-02T08:59:54Z</time>
					</trkpt>
					<trkpt lat="48.448310" lon="-3.849780">
						<ele>252</ele>
						<time>2026-09-02T09:00:08Z</time>
					</trkpt>
					<trkpt lat="48.448690" lon="-3.849820">
						<ele>253</ele>
						<time>2026-09-02T09:00:28Z</time>
					</trkpt>
					<trkpt lat="48.448860" lon="-3.849810">
						<ele>253</ele>
						<time>2026-09-02T09:00:36Z</time>
					</trkpt>
					<trkpt lat="48.449760" lon="-3.849550">
						<ele>248</ele>
						<time>2026-09-02T09:01:22Z</time>
					</trkpt>
					<trkpt lat="48.450070" lon="-3.849430">
						<ele>245</ele>
						<time>2026-09-02T09:01:38Z</time>
					</trkpt>
					<trkpt lat="48.450400" lon="-3.849370">
						<ele>246</ele>
						<time>2026-09-02T09:01:55Z</time>
					</trkpt>
					<trkpt lat="48.450420" lon="-3.849120">
						<ele>245</ele>
						<time>2026-09-02T09:02:03Z</time>
					</trkpt>
					<trkpt lat="48.450510" lon="-3.848750">
						<ele>246</ele>
						<time>2026-09-02T09:02:16Z</time>
					</trkpt>
					<trkpt lat="48.450660" lon="-3.848490">
						<ele>247</ele>
						<time>2026-09-02T09:02:27Z</time>
					</trkpt>
					<trkpt lat="48.450740" lon="-3.848400">
						<ele>247</ele>
						<time>2026-09-02T09:02:32Z</time>
					</trkpt>
					<trkpt lat="48.451100" lon="-3.847580">
						<ele>250</ele>
						<time>2026-09-02T09:03:05Z</time>
					</trkpt>
					<trkpt lat="48.451190" lon="-3.847310">
						<ele>251</ele>
						<time>2026-09-02T09:03:15Z</time>
					</trkpt>
					<trkpt lat="48.450820" lon="-3.847240">
						<ele>252</ele>
						<time>2026-09-02T09:03:34Z</time>
					</trkpt>
					<trkpt lat="48.450560" lon="-3.847150">
						<ele>252</ele>
						<time>2026-09-02T09:03:47Z</time>
					</trkpt>
					<trkpt lat="48.450230" lon="-3.846950">
						<ele>252</ele>
						<time>2026-09-02T09:04:05Z</time>
					</trkpt>
					<trkpt lat="48.450070" lon="-3.846880">
						<ele>252</ele>
						<time>2026-09-02T09:04:13Z</time>
					</trkpt>
					<trkpt lat="48.449630" lon="-3.846400">
						<ele>248</ele>
						<time>2026-09-02T09:04:40Z</time>
					</trkpt>
					<trkpt lat="48.449310" lon="-3.846000">
						<ele>243</ele>
						<time>2026-09-02T09:05:01Z</time>
					</trkpt>
					<trkpt lat="48.449170" lon="-3.845750">
						<ele>241</ele>
						<time>2026-09-02T09:05:12Z</time>
					</trkpt>
					<trkpt lat="48.448350" lon="-3.844630">
						<ele>229</ele>
						<time>2026-09-02T09:06:07Z</time>
					</trkpt>
					<trkpt lat="48.448170" lon="-3.844300">
						<ele>226</ele>
						<time>2026-09-02T09:06:22Z</time>
					</trkpt>
					<trkpt lat="48.447990" lon="-3.843890">
						<ele>222</ele>
						<time>2026-09-02T09:06:38Z</time>
					</trkpt>
					<trkpt lat="48.447830" lon="-3.843620">
						<ele>220</ele>
						<time>2026-09-02T09:06:50Z</time>
					</trkpt>
					<trkpt lat="48.447640" lon="-3.843460">
						<ele>218</ele>
						<time>2026-09-02T09:07:01Z</time>
					</trkpt>
					<trkpt lat="48.447200" lon="-3.843230">
						<ele>215</ele>
						<time>2026-09-02T09:07:24Z</time>
					</trkpt>
					<trkpt lat="48.447040" lon="-3.843080">
						<ele>215</ele>
						<time>2026-09-02T09:07:34Z</time>
					</trkpt>
					<trkpt lat="48.446800" lon="-3.842730">
						<ele>214</ele>
						<time>2026-09-02T09:07:50Z</time>
					</trkpt>
					<trkpt lat="48.446590" lon="-3.842240">
						<ele>213</ele>
						<time>2026-09-02T09:08:10Z</time>
					</trkpt>
					<trkpt lat="48.446190" lon="-3.841150">
						<ele>205</ele>
						<time>2026-09-02T09:08:51Z</time>
					</trkpt>
					<trkpt lat="48.445970" lon="-3.840710">
						<ele>200</ele>
						<time>2026-09-02T09:09:09Z</time>
					</trkpt>
					<trkpt lat="48.445770" lon="-3.840400">
						<ele>197</ele>
						<time>2026-09-02T09:09:24Z</time>
					</trkpt>
					<trkpt lat="48.446000" lon="-3.840090">
						<ele>198</ele>
						<time>2026-09-02T09:09:39Z</time>
					</trkpt>
					<trkpt lat="48.446090" lon="-3.840010">
						<ele>199</ele>
						<time>2026-09-02T09:09:44Z</time>
					</trkpt>
					<trkpt lat="48.446760" lon="-3.838980">
						<ele>202</ele>
						<time>2026-09-02T09:10:32Z</time>
					</trkpt>
					<trkpt lat="48.447440" lon="-3.838090">
						<ele>202</ele>
						<time>2026-09-02T09:11:17Z</time>
					</trkpt>
					<trkpt lat="48.447600" lon="-3.837660">
						<ele>201</ele>
						<time>2026-09-02T09:11:34Z</time>
					</trkpt>
					<trkpt lat="48.447630" lon="-3.837510">
						<ele>200</ele>
						<time>2026-09-02T09:11:39Z</time>
					</trkpt>
					<trkpt lat="48.447440" lon="-3.837420">
						<ele>198</ele>
						<time>2026-09-02T09:11:49Z</time>
					</trkpt>
					<trkpt lat="48.447190" lon="-3.837080">
						<ele>195</ele>
						<time>2026-09-02T09:12:06Z</time>
					</trkpt>
					<trkpt lat="48.446690" lon="-3.836310">
						<ele>190</ele>
						<time>2026-09-02T09:12:41Z</time>
					</trkpt>
					<trkpt lat="48.446440" lon="-3.836010">
						<ele>190</ele>
						<time>2026-09-02T09:12:57Z</time>
					</trkpt>
					<trkpt lat="48.446000" lon="-3.835360">
						<ele>193</ele>
						<time>2026-09-02T09:13:28Z</time>
					</trkpt>
					<trkpt lat="48.445890" lon="-3.835190">
						<ele>194</ele>
						<time>2026-09-02T09:13:36Z</time>
					</trkpt>
					<trkpt lat="48.445860" lon="-3.835050">
						<ele>195</ele>
						<time>2026-09-02T09:13:41Z</time>
					</trkpt>
					<trkpt lat="48.445820" lon="-3.834990">
						<ele>195</ele>
						<time>2026-09-02T09:13:44Z</time>
					</trkpt>
					<trkpt lat="48.445700" lon="-3.834930">
						<ele>195</ele>
						<time>2026-09-02T09:13:50Z</time>
					</trkpt>
					<trkpt lat="48.445660" lon="-3.835040">
						<ele>196</ele>
						<time>2026-09-02T09:13:54Z</time>
					</trkpt>
					<trkpt lat="48.445260" lon="-3.834770">
						<ele>197</ele>
						<time>2026-09-02T09:14:16Z</time>
					</trkpt>
					<trkpt lat="48.444270" lon="-3.834200">
						<ele>201</ele>
						<time>2026-09-02T09:15:09Z</time>
					</trkpt>
					<trkpt lat="48.444430" lon="-3.833750">
						<ele>200</ele>
						<time>2026-09-02T09:15:26Z</time>
					</trkpt>
					<trkpt lat="48.444750" lon="-3.833000">
						<ele>198</ele>
						<time>2026-09-02T09:15:56Z</time>
					</trkpt>
					<trkpt lat="48.444920" lon="-3.832450">
						<ele>196</ele>
						<time>2026-09-02T09:16:16Z</time>
					</trkpt>
					<trkpt lat="48.445070" lon="-3.832240">
						<ele>196</ele>
						<time>2026-09-02T09:16:26Z</time>
					</trkpt>
					<trkpt lat="48.445230" lon="-3.831920">
						<ele>196</ele>
						<time>2026-09-02T09:16:40Z</time>
					</trkpt>
					<trkpt lat="48.445520" lon="-3.831570">
						<ele>198</ele>
						<time>2026-09-02T09:16:58Z</time>
					</trkpt>
					<trkpt lat="48.445750" lon="-3.831520">
						<ele>198</ele>
						<time>2026-09-02T09:17:10Z</time>
					</trkpt>
					<trkpt lat="48.446000" lon="-3.831370">
						<ele>200</ele>
						<time>2026-09-02T09:17:23Z</time>
					</trkpt>
					<trkpt lat="48.446230" lon="-3.830970">
						<ele>203</ele>
						<time>2026-09-02T09:17:41Z</time>
					</trkpt>
					<trkpt lat="48.446210" lon="-3.830890">
						<ele>204</ele>
						<time>2026-09-02T09:17:44Z</time>
					</trkpt>
					<trkpt lat="48.446230" lon="-3.829630">
						<ele>209</ele>
						<time>2026-09-02T09:18:25Z</time>
					</trkpt>
					<trkpt lat="48.446210" lon="-3.829370">
						<ele>210</ele>
						<time>2026-09-02T09:18:34Z</time>
					</trkpt>
					<trkpt lat="48.446160" lon="-3.829240">
						<ele>211</ele>
						<time>2026-09-02T09:18:39Z</time>
					</trkpt>
					<trkpt lat="48.445860" lon="-3.828790">
						<ele>214</ele>
						<time>2026-09-02T09:19:00Z</time>
					</trkpt>
					<trkpt lat="48.445520" lon="-3.828160">
						<ele>217</ele>
						<time>2026-09-02T09:19:27Z</time>
					</trkpt>
					<trkpt lat="48.445250" lon="-3.828470">
						<ele>217</ele>
						<time>2026-09-02T09:19:44Z</time>
					</trkpt>
					<trkpt lat="48.445210" lon="-3.828500">
						<ele>217</ele>
						<time>2026-09-02T09:19:46Z</time>
					</trkpt>
					<trkpt lat="48.445120" lon="-3.828490">
						<ele>217</ele>
						<time>2026-09-02T09:19:51Z</time>
					</trkpt>
					<trkpt lat="48.444210" lon="-3.827840">
						<ele>219</ele>
						<time>2026-09-02T09:20:41Z</time>
					</trkpt>
					<trkpt lat="48.443920" lon="-3.827580">
						<ele>219</ele>
						<time>2026-09-02T09:20:58Z</time>
					</trkpt>
					<trkpt lat="48.443570" lon="-3.827220">
						<ele>219</ele>
						<time>2026-09-02T09:21:19Z</time>
					</trkpt>
					<trkpt lat="48.443130" lon="-3.826840">
						<ele>220</ele>
						<time>2026-09-02T09:21:45Z</time>
					</trkpt>
					<trkpt lat="48.442890" lon="-3.826530">
						<ele>221</ele>
						<time>2026-09-02T09:22:01Z</time>
					</trkpt>
					<trkpt lat="48.442520" lon="-3.825880">
						<ele>223</ele>
						<time>2026-09-02T09:22:29Z</time>
					</trkpt>
					<trkpt lat="48.442390" lon="-3.825740">
						<ele>223</ele>
						<time>2026-09-02T09:22:37Z</time>
					</trkpt>
					<trkpt lat="48.442310" lon="-3.825610">
						<ele>224</ele>
						<time>2026-09-02T09:22:43Z</time>
					</trkpt>
					<trkpt lat="48.441930" lon="-3.824290">
						<ele>230</ele>
						<time>2026-09-02T09:23:31Z</time>
					</trkpt>
					<trkpt lat="48.441900" lon="-3.823940">
						<ele>231</ele>
						<time>2026-09-02T09:23:42Z</time>
					</trkpt>
					<trkpt lat="48.441820" lon="-3.823550">
						<ele>233</ele>
						<time>2026-09-02T09:23:56Z</time>
					</trkpt>
					<trkpt lat="48.441410" lon="-3.822400">
						<ele>237</ele>
						<time>2026-09-02T09:24:39Z</time>
					</trkpt>
					<trkpt lat="48.441280" lon="-3.822110">
						<ele>239</ele>
						<time>2026-09-02T09:24:51Z</time>
					</trkpt>
					<trkpt lat="48.441120" lon="-3.821840">
						<ele>240</ele>
						<time>2026-09-02T09:25:03Z</time>
					</trkpt>
					<trkpt lat="48.440930" lon="-3.821590">
						<ele>242</ele>
						<time>2026-09-02T09:25:16Z</time>
					</trkpt>
					<trkpt lat="48.440430" lon="-3.821020">
						<ele>247</ele>
						<time>2026-09-02T09:25:47Z</time>
					</trkpt>
					<trkpt lat="48.440350" lon="-3.820960">
						<ele>247</ele>
						<time>2026-09-02T09:25:51Z</time>
					</trkpt>
					<trkpt lat="48.440150" lon="-3.820880">
						<ele>249</ele>
						<time>2026-09-02T09:26:02Z</time>
					</trkpt>
					<trkpt lat="48.439850" lon="-3.820540">
						<ele>253</ele>
						<time>2026-09-02T09:26:21Z</time>
					</trkpt>
					<trkpt lat="48.439500" lon="-3.820240">
						<ele>257</ele>
						<time>2026-09-02T09:26:41Z</time>
					</trkpt>
					<trkpt lat="48.439130" lon="-3.819860">
						<ele>263</ele>
						<time>2026-09-02T09:27:03Z</time>
					</trkpt>
					<trkpt lat="48.438780" lon="-3.819550">
						<ele>265</ele>
						<time>2026-09-02T09:27:23Z</time>
					</trkpt>
					<trkpt lat="48.438470" lon="-3.819360">
						<ele>267</ele>
						<time>2026-09-02T09:27:40Z</time>
					</trkpt>
					<trkpt lat="48.437490" lon="-3.818660">
						<ele>269</ele>
						<time>2026-09-02T09:28:34Z</time>
					</trkpt>
					<trkpt lat="48.437290" lon="-3.818540">
						<ele>268</ele>
						<time>2026-09-02T09:28:45Z</time>
					</trkpt>
					<trkpt lat="48.436360" lon="-3.818140">
						<ele>266</ele>
						<time>2026-09-02T09:29:34Z</time>
					</trkpt>
					<trkpt lat="48.435670" lon="-3.817730">
						<ele>266</ele>
						<time>2026-09-02T09:30:11Z</time>
					</trkpt>
					<trkpt lat="48.434130" lon="-3.816420">
						<ele>274</ele>
						<time>2026-09-02T09:31:39Z</time>
					</trkpt>
					<trkpt lat="48.433840" lon="-3.816110">
						<ele>275</ele>
						<time>2026-09-02T09:31:57Z</time>
					</trkpt>
					<trkpt lat="48.433760" lon="-3.816070">
						<ele>275</ele>
						<time>2026-09-02T09:32:01Z</time>
					</trkpt>
					<trkpt lat="48.433480" lon="-3.816020">
						<ele>276</ele>
						<time>2026-09-02T09:32:15Z</time>
					</trkpt>
					<trkpt lat="48.433380" lon="-3.815900">
						<ele>276</ele>
						<time>2026-09-02T09:32:22Z</time>
					</trkpt>
					<trkpt lat="48.433520" lon="-3.815760">
						<ele>276</ele>
						<time>2026-09-02T09:32:30Z</time>
					</trkpt>
					<trkpt lat="48.433730" lon="-3.815610">
						<ele>275</ele>
						<time>2026-09-02T09:32:42Z</time>
					</trkpt>
					<trkpt lat="48.434110" lon="-3.815390">
						<ele>274</ele>
						<time>2026-09-02T09:33:02Z</time>
					</trkpt>
					<trkpt lat="48.434210" lon="-3.815370">
						<ele>274</ele>
						<time>2026-09-02T09:33:07Z</time>
					</trkpt>
					<trkpt lat="48.434490" lon="-3.815420">
						<ele>273</ele>
						<time>2026-09-02T09:33:21Z</time>
					</trkpt>
					<trkpt lat="48.434560" lon="-3.815400">
						<ele>273</ele>
						<time>2026-09-02T09:33:25Z</time>
					</trkpt>
					<trkpt lat="48.435620" lon="-3.814440">
						<ele>272</ele>
						<time>2026-09-02T09:34:27Z</time>
					</trkpt>
					<trkpt lat="48.436050" lon="-3.813960">
						<ele>272</ele>
						<time>2026-09-02T09:34:54Z</time>
					</trkpt>
					<trkpt lat="48.437210" lon="-3.812790">
						<ele>273</ele>
						<time>2026-09-02T09:36:03Z</time>
					</trkpt>
					<trkpt lat="48.437580" lon="-3.812370">
						<ele>274</ele>
						<time>2026-09-02T09:36:27Z</time>
					</trkpt>
					<trkpt lat="48.437990" lon="-3.811980">
						<ele>275</ele>
						<time>2026-09-02T09:36:51Z</time>
					</trkpt>
					<trkpt lat="48.438230" lon="-3.811800">
						<ele>275</ele>
						<time>2026-09-02T09:37:04Z</time>
					</trkpt>
					<trkpt lat="48.438760" lon="-3.811330">
						<ele>275</ele>
						<time>2026-09-02T09:37:35Z</time>
					</trkpt>
					<trkpt lat="48.438890" lon="-3.811170">
						<ele>275</ele>
						<time>2026-09-02T09:37:43Z</time>
					</trkpt>
					<trkpt lat="48.439070" lon="-3.811020">
						<ele>274</ele>
						<time>2026-09-02T09:37:54Z</time>
					</trkpt>
					<trkpt lat="48.439510" lon="-3.810740">
						<ele>272</ele>
						<time>2026-09-02T09:38:18Z</time>
					</trkpt>
					<trkpt lat="48.439780" lon="-3.810600">
						<ele>270</ele>
						<time>2026-09-02T09:38:32Z</time>
					</trkpt>
					<trkpt lat="48.440370" lon="-3.810200">
						<ele>268</ele>
						<time>2026-09-02T09:39:04Z</time>
					</trkpt>
					<trkpt lat="48.440990" lon="-3.809740">
						<ele>264</ele>
						<time>2026-09-02T09:39:39Z</time>
					</trkpt>
					<trkpt lat="48.441210" lon="-3.809650">
						<ele>262</ele>
						<time>2026-09-02T09:39:50Z</time>
					</trkpt>
					<trkpt lat="48.441360" lon="-3.809540">
						<ele>261</ele>
						<time>2026-09-02T09:39:59Z</time>
					</trkpt>
					<trkpt lat="48.441550" lon="-3.809460">
						<ele>259</ele>
						<time>2026-09-02T09:40:08Z</time>
					</trkpt>
					<trkpt lat="48.442070" lon="-3.809310">
						<ele>255</ele>
						<time>2026-09-02T09:40:35Z</time>
					</trkpt>
					<trkpt lat="48.442850" lon="-3.809010">
						<ele>251</ele>
						<time>2026-09-02T09:41:15Z</time>
					</trkpt>
					<trkpt lat="48.443230" lon="-3.808910">
						<ele>249</ele>
						<time>2026-09-02T09:41:35Z</time>
					</trkpt>
					<trkpt lat="48.443580" lon="-3.808850">
						<ele>247</ele>
						<time>2026-09-02T09:41:52Z</time>
					</trkpt>
					<trkpt lat="48.444030" lon="-3.808850">
						<ele>246</ele>
						<time>2026-09-02T09:42:15Z</time>
					</trkpt>
					<trkpt lat="48.444940" lon="-3.808660">
						<ele>243</ele>
						<time>2026-09-02T09:43:01Z</time>
					</trkpt>
					<trkpt lat="48.445120" lon="-3.808600">
						<ele>243</ele>
						<time>2026-09-02T09:43:10Z</time>
					</trkpt>
					<trkpt lat="48.445900" lon="-3.808500">
						<ele>241</ele>
						<time>2026-09-02T09:43:49Z</time>
					</trkpt>
					<trkpt lat="48.446460" lon="-3.808400">
						<ele>240</ele>
						<time>2026-09-02T09:44:17Z</time>
					</trkpt>
					<trkpt lat="48.447050" lon="-3.808480">
						<ele>237</ele>
						<time>2026-09-02T09:44:47Z</time>
					</trkpt>
					<trkpt lat="48.448000" lon="-3.808460">
						<ele>233</ele>
						<time>2026-09-02T09:45:35Z</time>
					</trkpt>
					<trkpt lat="48.448620" lon="-3.808540">
						<ele>230</ele>
						<time>2026-09-02T09:46:06Z</time>
					</trkpt>
					<trkpt lat="48.449080" lon="-3.808700">
						<ele>228</ele>
						<time>2026-09-02T09:46:29Z</time>
					</trkpt>
					<trkpt lat="48.449620" lon="-3.808780">
						<ele>224</ele>
						<time>2026-09-02T09:46:56Z</time>
					</trkpt>
					<trkpt lat="48.450570" lon="-3.808990">
						<ele>216</ele>
						<time>2026-09-02T09:47:44Z</time>
					</trkpt>
					<trkpt lat="48.451450" lon="-3.809150">
						<ele>207</ele>
						<time>2026-09-02T09:48:29Z</time>
					</trkpt>
					<trkpt lat="48.452140" lon="-3.809240">
						<ele>202</ele>
						<time>2026-09-02T09:49:03Z</time>
					</trkpt>
					<trkpt lat="48.452510" lon="-3.809100">
						<ele>199</ele>
						<time>2026-09-02T09:49:23Z</time>
					</trkpt>
					<trkpt lat="48.452930" lon="-3.808870">
						<ele>195</ele>
						<time>2026-09-02T09:49:45Z</time>
					</trkpt>
					<trkpt lat="48.453100" lon="-3.808850">
						<ele>194</ele>
						<time>2026-09-02T09:49:53Z</time>
					</trkpt>
					<trkpt lat="48.453790" lon="-3.809100">
						<ele>189</ele>
						<time>2026-09-02T09:50:29Z</time>
					</trkpt>
					<trkpt lat="48.454360" lon="-3.809250">
						<ele>185</ele>
						<time>2026-09-02T09:50:58Z</time>
					</trkpt>
					<trkpt lat="48.454320" lon="-3.809370">
						<ele>185</ele>
						<time>2026-09-02T09:51:02Z</time>
					</trkpt>
					<trkpt lat="48.454400" lon="-3.809660">
						<ele>185</ele>
						<time>2026-09-02T09:51:13Z</time>
					</trkpt>
					<trkpt lat="48.454480" lon="-3.809890">
						<ele>185</ele>
						<time>2026-09-02T09:51:21Z</time>
					</trkpt>
					<trkpt lat="48.454780" lon="-3.810510">
						<ele>185</ele>
						<time>2026-09-02T09:51:47Z</time>
					</trkpt>
					<trkpt lat="48.454830" lon="-3.810670">
						<ele>185</ele>
						<time>2026-09-02T09:51:53Z</time>
					</trkpt>
					<trkpt lat="48.455170" lon="-3.812160">
						<ele>190</ele>
						<time>2026-09-02T09:52:45Z</time>
					</trkpt>
					<trkpt lat="48.455350" lon="-3.812620">
						<ele>192</ele>
						<time>2026-09-02T09:53:03Z</time>
					</trkpt>
					<trkpt lat="48.455480" lon="-3.812860">
						<ele>193</ele>
						<time>2026-09-02T09:53:13Z</time>
					</trkpt>
					<trkpt lat="48.455680" lon="-3.813120">
						<ele>193</ele>
						<time>2026-09-02T09:53:26Z</time>
					</trkpt>
					<trkpt lat="48.455970" lon="-3.813280">
						<ele>192</ele>
						<time>2026-09-02T09:53:42Z</time>
					</trkpt>
					<trkpt lat="48.456060" lon="-3.813280">
						<ele>191</ele>
						<time>2026-09-02T09:53:46Z</time>
					</trkpt>
					<trkpt lat="48.456230" lon="-3.813200">
						<ele>189</ele>
						<time>2026-09-02T09:53:55Z</time>
					</trkpt>
					<trkpt lat="48.456320" lon="-3.813190">
						<ele>189</ele>
						<time>2026-09-02T09:54:00Z</time>
					</trkpt>
					<trkpt lat="48.456410" lon="-3.813220">
						<ele>188</ele>
						<time>2026-09-02T09:54:04Z</time>
					</trkpt>
					<trkpt lat="48.456530" lon="-3.813300">
						<ele>188</ele>
						<time>2026-09-02T09:54:11Z</time>
					</trkpt>
					<trkpt lat="48.457000" lon="-3.813900">
						<ele>187</ele>
						<time>2026-09-02T09:54:42Z</time>
					</trkpt>
					<trkpt lat="48.457330" lon="-3.814590">
						<ele>186</ele>
						<time>2026-09-02T09:55:10Z</time>
					</trkpt>
					<trkpt lat="48.457520" lon="-3.814930">
						<ele>184</ele>
						<time>2026-09-02T09:55:25Z</time>
					</trkpt>
					<trkpt lat="48.457720" lon="-3.815210">
						<ele>185</ele>
						<time>2026-09-02T09:55:38Z</time>
					</trkpt>
					<trkpt lat="48.457830" lon="-3.815300">
						<ele>184</ele>
						<time>2026-09-02T09:55:45Z</time>
					</trkpt>
					<trkpt lat="48.458320" lon="-3.814740">
						<ele>173</ele>
						<time>2026-09-02T09:56:15Z</time>
					</trkpt>
					<trkpt lat="48.458380" lon="-3.814770">
						<ele>172</ele>
						<time>2026-09-02T09:56:19Z</time>
					</trkpt>
					<trkpt lat="48.458610" lon="-3.815210">
						<ele>174</ele>
						<time>2026-09-02T09:56:37Z</time>
					</trkpt>
					<trkpt lat="48.458850" lon="-3.815530">
						<ele>175</ele>
						<time>2026-09-02T09:56:53Z</time>
					</trkpt>
					<trkpt lat="48.459500" lon="-3.816140">
						<ele>177</ele>
						<time>2026-09-02T09:57:31Z</time>
					</trkpt>
					<trkpt lat="48.459900" lon="-3.816580">
						<ele>180</ele>
						<time>2026-09-02T09:57:56Z</time>
					</trkpt>
					<trkpt lat="48.459970" lon="-3.816710">
						<ele>180</ele>
						<time>2026-09-02T09:58:02Z</time>
					</trkpt>
					<trkpt lat="48.460050" lon="-3.816890">
						<ele>179</ele>
						<time>2026-09-02T09:58:09Z</time>
					</trkpt>
					<trkpt lat="48.460120" lon="-3.817240">
						<ele>178</ele>
						<time>2026-09-02T09:58:21Z</time>
					</trkpt>
					<trkpt lat="48.460130" lon="-3.818110">
						<ele>176</ele>
						<time>2026-09-02T09:58:50Z</time>
					</trkpt>
					<trkpt lat="48.460100" lon="-3.818510">
						<ele>175</ele>
						<time>2026-09-02T09:59:03Z</time>
					</trkpt>
					<trkpt lat="48.460180" lon="-3.819660">
						<ele>172</ele>
						<time>2026-09-02T09:59:42Z</time>
					</trkpt>
					<trkpt lat="48.460180" lon="-3.820080">
						<ele>172</ele>
						<time>2026-09-02T09:59:56Z</time>
					</trkpt>
					<trkpt lat="48.460110" lon="-3.820590">
						<ele>173</ele>
						<time>2026-09-02T10:00:13Z</time>
					</trkpt>
					<trkpt lat="48.460040" lon="-3.820840">
						<ele>173</ele>
						<time>2026-09-02T10:00:22Z</time>
					</trkpt>
					<trkpt lat="48.459910" lon="-3.821160">
						<ele>174</ele>
						<time>2026-09-02T10:00:34Z</time>
					</trkpt>
					<trkpt lat="48.459800" lon="-3.821740">
						<ele>175</ele>
						<time>2026-09-02T10:00:54Z</time>
					</trkpt>
					<trkpt lat="48.460000" lon="-3.821520">
						<ele>171</ele>
						<time>2026-09-02T10:01:07Z</time>
					</trkpt>
					<trkpt lat="48.460430" lon="-3.821320">
						<ele>176</ele>
						<time>2026-09-02T10:01:29Z</time>
					</trkpt>
					<trkpt lat="48.460500" lon="-3.821230">
						<ele>176</ele>
						<time>2026-09-02T10:01:34Z</time>
					</trkpt>
					<trkpt lat="48.460640" lon="-3.821030">
						<ele>177</ele>
						<time>2026-09-02T10:01:44Z</time>
					</trkpt>
					<trkpt lat="48.460680" lon="-3.820930">
						<ele>177</ele>
						<time>2026-09-02T10:01:47Z</time>
					</trkpt>
					<trkpt lat="48.460860" lon="-3.820390">
						<ele>175</ele>
						<time>2026-09-02T10:02:08Z</time>
					</trkpt>
					<trkpt lat="48.460880" lon="-3.820240">
						<ele>174</ele>
						<time>2026-09-02T10:02:13Z</time>
					</trkpt>
					<trkpt lat="48.460990" lon="-3.820040">
						<ele>174</ele>
						<time>2026-09-02T10:02:21Z</time>
					</trkpt>
					<trkpt lat="48.461120" lon="-3.819680">
						<ele>173</ele>
						<time>2026-09-02T10:02:35Z</time>
					</trkpt>
					<trkpt lat="48.461400" lon="-3.819490">
						<ele>174</ele>
						<time>2026-09-02T10:02:50Z</time>
					</trkpt>
					<trkpt lat="48.461970" lon="-3.818730">
						<ele>168</ele>
						<time>2026-09-02T10:03:28Z</time>
					</trkpt>
					<trkpt lat="48.462230" lon="-3.818330">
						<ele>165</ele>
						<time>2026-09-02T10:03:47Z</time>
					</trkpt>
					<trkpt lat="48.462450" lon="-3.818050">
						<ele>164</ele>
						<time>2026-09-02T10:04:01Z</time>
					</trkpt>
					<trkpt lat="48.462630" lon="-3.817870">
						<ele>165</ele>
						<time>2026-09-02T10:04:12Z</time>
					</trkpt>
					<trkpt lat="48.462810" lon="-3.817530">
						<ele>168</ele>
						<time>2026-09-02T10:04:26Z</time>
					</trkpt>
					<trkpt lat="48.462850" lon="-3.817370">
						<ele>168</ele>
						<time>2026-09-02T10:04:32Z</time>
					</trkpt>
					<trkpt lat="48.462890" lon="-3.816760">
						<ele>169</ele>
						<time>2026-09-02T10:04:53Z</time>
					</trkpt>
					<trkpt lat="48.462930" lon="-3.816570">
						<ele>169</ele>
						<time>2026-09-02T10:04:59Z</time>
					</trkpt>
					<trkpt lat="48.463110" lon="-3.816070">
						<ele>170</ele>
						<time>2026-09-02T10:05:18Z</time>
					</trkpt>
					<trkpt lat="48.463270" lon="-3.815800">
						<ele>170</ele>
						<time>2026-09-02T10:05:30Z</time>
					</trkpt>
					<trkpt lat="48.463360" lon="-3.815590">
						<ele>171</ele>
						<time>2026-09-02T10:05:38Z</time>
					</trkpt>
					<trkpt lat="48.463400" lon="-3.815400">
						<ele>172</ele>
						<time>2026-09-02T10:05:45Z</time>
					</trkpt>
					<trkpt lat="48.463570" lon="-3.815350">
						<ele>173</ele>
						<time>2026-09-02T10:05:54Z</time>
					</trkpt>
					<trkpt lat="48.464060" lon="-3.814670">
						<ele>176</ele>
						<time>2026-09-02T10:06:27Z</time>
					</trkpt>
					<trkpt lat="48.463860" lon="-3.813620">
						<ele>183</ele>
						<time>2026-09-02T10:07:03Z</time>
					</trkpt>
					<trkpt lat="48.463460" lon="-3.812100">
						<ele>189</ele>
						<time>2026-09-02T10:07:57Z</time>
					</trkpt>
					<trkpt lat="48.463570" lon="-3.812200">
						<ele>189</ele>
						<time>2026-09-02T10:08:04Z</time>
					</trkpt>
					<trkpt lat="48.463640" lon="-3.812230">
						<ele>189</ele>
						<time>2026-09-02T10:08:08Z</time>
					</trkpt>
					<trkpt lat="48.464020" lon="-3.812210">
						<ele>191</ele>
						<time>2026-09-02T10:08:27Z</time>
					</trkpt>
					<trkpt lat="48.464180" lon="-3.812260">
						<ele>191</ele>
						<time>2026-09-02T10:08:35Z</time>
					</trkpt>
					<trkpt lat="48.464390" lon="-3.812260">
						<ele>194</ele>
						<time>2026-09-02T10:08:45Z</time>
					</trkpt>
					<trkpt lat="48.464520" lon="-3.812190">
						<ele>196</ele>
						<time>2026-09-02T10:08:52Z</time>
					</trkpt>
					<trkpt lat="48.464720" lon="-3.811990">
						<ele>199</ele>
						<time>2026-09-02T10:09:04Z</time>
					</trkpt>
					<trkpt lat="48.464620" lon="-3.812640">
						<ele>196</ele>
						<time>2026-09-02T10:09:26Z</time>
					</trkpt>
					<trkpt lat="48.464630" lon="-3.813530">
						<ele>190</ele>
						<time>2026-09-02T10:09:56Z</time>
					</trkpt>
					<trkpt lat="48.464670" lon="-3.813870">
						<ele>189</ele>
						<time>2026-09-02T10:10:07Z</time>
					</trkpt>
					<trkpt lat="48.464720" lon="-3.814020">
						<ele>189</ele>
						<time>2026-09-02T10:10:13Z</time>
					</trkpt>
					<trkpt lat="48.464890" lon="-3.814270">
						<ele>190</ele>
						<time>2026-09-02T10:10:25Z</time>
					</trkpt>
					<trkpt lat="48.465040" lon="-3.814820">
						<ele>188</ele>
						<time>2026-09-02T10:10:44Z</time>
					</trkpt>
					<trkpt lat="48.465200" lon="-3.815220">
						<ele>187</ele>
						<time>2026-09-02T10:11:00Z</time>
					</trkpt>
					<trkpt lat="48.465580" lon="-3.815440">
						<ele>188</ele>
						<time>2026-09-02T10:11:20Z</time>
					</trkpt>
					<trkpt lat="48.465660" lon="-3.815520">
						<ele>188</ele>
						<time>2026-09-02T10:11:25Z</time>
					</trkpt>
					<trkpt lat="48.465770" lon="-3.815760">
						<ele>186</ele>
						<time>2026-09-02T10:11:35Z</time>
					</trkpt>
					<trkpt lat="48.465920" lon="-3.816200">
						<ele>184</ele>
						<time>2026-09-02T10:11:51Z</time>
					</trkpt>
					<trkpt lat="48.466040" lon="-3.816170">
						<ele>185</ele>
						<time>2026-09-02T10:11:57Z</time>
					</trkpt>
					<trkpt lat="48.466450" lon="-3.816160">
						<ele>186</ele>
						<time>2026-09-02T10:12:18Z</time>
					</trkpt>
					<trkpt lat="48.466650" lon="-3.816180">
						<ele>187</ele>
						<time>2026-09-02T10:12:28Z</time>
					</trkpt>
					<trkpt lat="48.466790" lon="-3.816220">
						<ele>187</ele>
						<time>2026-09-02T10:12:35Z</time>
					</trkpt>
					<trkpt lat="48.467660" lon="-3.816680">
						<ele>189</ele>
						<time>2026-09-02T10:13:21Z</time>
					</trkpt>
					<trkpt lat="48.467880" lon="-3.816770">
						<ele>191</ele>
						<time>2026-09-02T10:13:33Z</time>
					</trkpt>
					<trkpt lat="48.468080" lon="-3.816910">
						<ele>193</ele>
						<time>2026-09-02T10:13:44Z</time>
					</trkpt>
					<trkpt lat="48.468160" lon="-3.817000">
						<ele>194</ele>
						<time>2026-09-02T10:13:49Z</time>
					</trkpt>
					<trkpt lat="48.469320" lon="-3.815320">
						<ele>213</ele>
						<time>2026-09-02T10:15:09Z</time>
					</trkpt>
					<trkpt lat="48.469380" lon="-3.815310">
						<ele>213</ele>
						<time>2026-09-02T10:15:12Z</time>
					</trkpt>
					<trkpt lat="48.469430" lon="-3.815340">
						<ele>213</ele>
						<time>2026-09-02T10:15:15Z</time>
					</trkpt>
					<trkpt lat="48.469720" lon="-3.815670">
						<ele>213</ele>
						<time>2026-09-02T10:15:33Z</time>
					</trkpt>
					<trkpt lat="48.471030" lon="-3.816150">
						<ele>205</ele>
						<time>2026-09-02T10:16:40Z</time>
					</trkpt>
					<trkpt lat="48.471300" lon="-3.816060">
						<ele>203</ele>
						<time>2026-09-02T10:16:54Z</time>
					</trkpt>
					<trkpt lat="48.471670" lon="-3.815880">
						<ele>201</ele>
						<time>2026-09-02T10:17:14Z</time>
					</trkpt>
					<trkpt lat="48.471870" lon="-3.815820">
						<ele>201</ele>
						<time>2026-09-02T10:17:24Z</time>
					</trkpt>
					<trkpt lat="48.472030" lon="-3.815800">
						<ele>201</ele>
						<time>2026-09-02T10:17:32Z</time>
					</trkpt>
					<trkpt lat="48.472070" lon="-3.815770">
						<ele>201</ele>
						<time>2026-09-02T10:17:34Z</time>
					</trkpt>
					<trkpt lat="48.472170" lon="-3.815320">
						<ele>201</ele>
						<time>2026-09-02T10:17:50Z</time>
					</trkpt>
					<trkpt lat="48.472250" lon="-3.815110">
						<ele>201</ele>
						<time>2026-09-02T10:17:58Z</time>
					</trkpt>
					<trkpt lat="48.472340" lon="-3.815000">
						<ele>200</ele>
						<time>2026-09-02T10:18:04Z</time>
					</trkpt>
					<trkpt lat="48.472500" lon="-3.814890">
						<ele>200</ele>
						<time>2026-09-02T10:18:13Z</time>
					</trkpt>
					<trkpt lat="48.472670" lon="-3.814860">
						<ele>201</ele>
						<time>2026-09-02T10:18:21Z</time>
					</trkpt>
					<trkpt lat="48.472840" lon="-3.814750">
						<ele>201</ele>
						<time>2026-09-02T10:18:30Z</time>
					</trkpt>
					<trkpt lat="48.473100" lon="-3.814210">
						<ele>203</ele>
						<time>2026-09-02T10:18:53Z</time>
					</trkpt>
					<trkpt lat="48.473340" lon="-3.813580">
						<ele>205</ele>
						<time>2026-09-02T10:19:17Z</time>
					</trkpt>
					<trkpt lat="48.473430" lon="-3.813240">
						<ele>207</ele>
						<time>2026-09-02T10:19:29Z</time>
					</trkpt>
					<trkpt lat="48.473490" lon="-3.812940">
						<ele>208</ele>
						<time>2026-09-02T10:19:39Z</time>
					</trkpt>
					<trkpt lat="48.473560" lon="-3.812240">
						<ele>210</ele>
						<time>2026-09-02T10:20:03Z</time>
					</trkpt>
					<trkpt lat="48.473670" lon="-3.811840">
						<ele>211</ele>
						<time>2026-09-02T10:20:17Z</time>
					</trkpt>
					<trkpt lat="48.473770" lon="-3.811600">
						<ele>211</ele>
						<time>2026-09-02T10:20:26Z</time>
					</trkpt>
					<trkpt lat="48.473430" lon="-3.811270">
						<ele>214</ele>
						<time>2026-09-02T10:20:47Z</time>
					</trkpt>
					<trkpt lat="48.473170" lon="-3.811080">
						<ele>217</ele>
						<time>2026-09-02T10:21:01Z</time>
					</trkpt>
					<trkpt lat="48.472930" lon="-3.810860">
						<ele>219</ele>
						<time>2026-09-02T10:21:15Z</time>
					</trkpt>
					<trkpt lat="48.472590" lon="-3.810630">
						<ele>221</ele>
						<time>2026-09-02T10:21:34Z</time>
					</trkpt>
					<trkpt lat="48.472290" lon="-3.810310">
						<ele>223</ele>
						<time>2026-09-02T10:21:52Z</time>
					</trkpt>
					<trkpt lat="48.472240" lon="-3.810170">
						<ele>223</ele>
						<time>2026-09-02T10:21:57Z</time>
					</trkpt>
					<trkpt lat="48.472260" lon="-3.809110">
						<ele>222</ele>
						<time>2026-09-02T10:22:33Z</time>
					</trkpt>
					<trkpt lat="48.472240" lon="-3.808630">
						<ele>221</ele>
						<time>2026-09-02T10:22:49Z</time>
					</trkpt>
					<trkpt lat="48.472170" lon="-3.808590">
						<ele>221</ele>
						<time>2026-09-02T10:22:52Z</time>
					</trkpt>
					<trkpt lat="48.472060" lon="-3.808180">
						<ele>220</ele>
						<time>2026-09-02T10:23:07Z</time>
					</trkpt>
					<trkpt lat="48.471850" lon="-3.807720">
						<ele>218</ele>
						<time>2026-09-02T10:23:26Z</time>
					</trkpt>
					<trkpt lat="48.471360" lon="-3.806940">
						<ele>215</ele>
						<time>2026-09-02T10:24:01Z</time>
					</trkpt>
					<trkpt lat="48.471320" lon="-3.806830">
						<ele>214</ele>
						<time>2026-09-02T10:24:05Z</time>
					</trkpt>
					<trkpt lat="48.471310" lon="-3.806710">
						<ele>213</ele>
						<time>2026-09-02T10:24:09Z</time>
					</trkpt>
					<trkpt lat="48.471620" lon="-3.805060">
						<ele>207</ele>
						<time>2026-09-02T10:25:06Z</time>
					</trkpt>
					<trkpt lat="48.471660" lon="-3.804670">
						<ele>205</ele>
						<time>2026-09-02T10:25:19Z</time>
					</trkpt>
					<trkpt lat="48.471610" lon="-3.804380">
						<ele>204</ele>
						<time>2026-09-02T10:25:29Z</time>
					</trkpt>
					<trkpt lat="48.471440" lon="-3.803940">
						<ele>204</ele>
						<time>2026-09-02T10:25:46Z</time>
					</trkpt>
					<trkpt lat="48.471220" lon="-3.803500">
						<ele>204</ele>
						<time>2026-09-02T10:26:04Z</time>
					</trkpt>
					<trkpt lat="48.471140" lon="-3.803160">
						<ele>204</ele>
						<time>2026-09-02T10:26:16Z</time>
					</trkpt>
					<trkpt lat="48.471210" lon="-3.803140">
						<ele>203</ele>
						<time>2026-09-02T10:26:20Z</time>
					</trkpt>
					<trkpt lat="48.471200" lon="-3.802950">
						<ele>204</ele>
						<time>2026-09-02T10:26:26Z</time>
					</trkpt>
					<trkpt lat="48.471230" lon="-3.802810">
						<ele>204</ele>
						<time>2026-09-02T10:26:31Z</time>
					</trkpt>
					<trkpt lat="48.471420" lon="-3.802290">
						<ele>206</ele>
						<time>2026-09-02T10:26:51Z</time>
					</trkpt>
					<trkpt lat="48.471420" lon="-3.802120">
						<ele>207</ele>
						<time>2026-09-02T10:26:57Z</time>
					</trkpt>
					<trkpt lat="48.471350" lon="-3.801980">
						<ele>209</ele>
						<time>2026-09-02T10:27:02Z</time>
					</trkpt>
					<trkpt lat="48.470750" lon="-3.801530">
						<ele>211</ele>
						<time>2026-09-02T10:27:36Z</time>
					</trkpt>
					<trkpt lat="48.470570" lon="-3.801280">
						<ele>211</ele>
						<time>2026-09-02T10:27:48Z</time>
					</trkpt>
					<trkpt lat="48.470380" lon="-3.800870">
						<ele>213</ele>
						<time>2026-09-02T10:28:05Z</time>
					</trkpt>
					<trkpt lat="48.470140" lon="-3.800530">
						<ele>213</ele>
						<time>2026-09-02T10:28:21Z</time>
					</trkpt>
					<trkpt lat="48.469840" lon="-3.800010">
						<ele>212</ele>
						<time>2026-09-02T10:28:44Z</time>
					</trkpt>
					<trkpt lat="48.469750" lon="-3.799440">
						<ele>212</ele>
						<time>2026-09-02T10:29:04Z</time>
					</trkpt>
					<trkpt lat="48.469770" lon="-3.798940">
						<ele>213</ele>
						<time>2026-09-02T10:29:20Z</time>
					</trkpt>
					<trkpt lat="48.470020" lon="-3.798160">
						<ele>217</ele>
						<time>2026-09-02T10:29:49Z</time>
					</trkpt>
					<trkpt lat="48.470120" lon="-3.797740">
						<ele>218</ele>
						<time>2026-09-02T10:30:04Z</time>
					</trkpt>
					<trkpt lat="48.470670" lon="-3.796180">
						<ele>223</ele>
						<time>2026-09-02T10:31:02Z</time>
					</trkpt>
					<trkpt lat="48.470880" lon="-3.795480">
						<ele>224</ele>
						<time>2026-09-02T10:31:28Z</time>
					</trkpt>
					<trkpt lat="48.470950" lon="-3.795180">
						<ele>225</ele>
						<time>2026-09-02T10:31:38Z</time>
					</trkpt>
					<trkpt lat="48.471100" lon="-3.794230">
						<ele>230</ele>
						<time>2026-09-02T10:32:11Z</time>
					</trkpt>
					<trkpt lat="48.471520" lon="-3.793390">
						<ele>236</ele>
						<time>2026-09-02T10:32:46Z</time>
					</trkpt>
					<trkpt lat="48.471540" lon="-3.793720">
						<ele>236</ele>
						<time>2026-09-02T10:32:57Z</time>
					</trkpt>
					<trkpt lat="48.471520" lon="-3.793840">
						<ele>235</ele>
						<time>2026-09-02T10:33:01Z</time>
					</trkpt>
					<trkpt lat="48.471540" lon="-3.793720">
						<ele>236</ele>
						<time>2026-09-02T10:33:05Z</time>
					</trkpt>
					<trkpt lat="48.472130" lon="-3.794320">
						<ele>241</ele>
						<time>2026-09-02T10:33:41Z</time>
					</trkpt>
					<trkpt lat="48.472210" lon="-3.794370">
						<ele>241</ele>
						<time>2026-09-02T10:33:45Z</time>
					</trkpt>
					<trkpt lat="48.472320" lon="-3.794380">
						<ele>242</ele>
						<time>2026-09-02T10:33:50Z</time>
					</trkpt>
					<trkpt lat="48.472430" lon="-3.794430">
						<ele>243</ele>
						<time>2026-09-02T10:33:56Z</time>
					</trkpt>
					<trkpt lat="48.472570" lon="-3.794540">
						<ele>244</ele>
						<time>2026-09-02T10:34:04Z</time>
					</trkpt>
					<trkpt lat="48.472760" lon="-3.794820">
						<ele>245</ele>
						<time>2026-09-02T10:34:17Z</time>
					</trkpt>
					<trkpt lat="48.472990" lon="-3.794690">
						<ele>246</ele>
						<time>2026-09-02T10:34:30Z</time>
					</trkpt>
					<trkpt lat="48.473120" lon="-3.794440">
						<ele>247</ele>
						<time>2026-09-02T10:34:40Z</time>
					</trkpt>
					<trkpt lat="48.473290" lon="-3.794220">
						<ele>249</ele>
						<time>2026-09-02T10:34:51Z</time>
					</trkpt>
					<trkpt lat="48.473410" lon="-3.794170">
						<ele>249</ele>
						<time>2026-09-02T10:34:58Z</time>
					</trkpt>
					<trkpt lat="48.473450" lon="-3.794130">
						<ele>249</ele>
						<time>2026-09-02T10:35:00Z</time>
					</trkpt>
					<trkpt lat="48.473530" lon="-3.793900">
						<ele>249</ele>
						<time>2026-09-02T10:35:09Z</time>
					</trkpt>
					<trkpt lat="48.473690" lon="-3.793850">
						<ele>249</ele>
						<time>2026-09-02T10:35:17Z</time>
					</trkpt>
					<trkpt lat="48.473930" lon="-3.793590">
						<ele>250</ele>
						<time>2026-09-02T10:35:32Z</time>
					</trkpt>
					<trkpt lat="48.473980" lon="-3.793420">
						<ele>250</ele>
						<time>2026-09-02T10:35:38Z</time>
					</trkpt>
					<trkpt lat="48.474000" lon="-3.793100">
						<ele>250</ele>
						<time>2026-09-02T10:35:48Z</time>
					</trkpt>
					<trkpt lat="48.474100" lon="-3.792770">
						<ele>250</ele>
						<time>2026-09-02T10:36:00Z</time>
					</trkpt>
					<trkpt lat="48.474700" lon="-3.792960">
						<ele>251</ele>
						<time>2026-09-02T10:36:31Z</time>
					</trkpt>
					<trkpt lat="48.475270" lon="-3.792980">
						<ele>251</ele>
						<time>2026-09-02T10:37:00Z</time>
					</trkpt>
					<trkpt lat="48.475600" lon="-3.793080">
						<ele>250</ele>
						<time>2026-09-02T10:37:16Z</time>
					</trkpt>
					<trkpt lat="48.475960" lon="-3.792610">
						<ele>246</ele>
						<time>2026-09-02T10:37:40Z</time>
					</trkpt>
					<trkpt lat="48.476320" lon="-3.792890">
						<ele>244</ele>
						<time>2026-09-02T10:38:01Z</time>
					</trkpt>
					<trkpt lat="48.476590" lon="-3.793020">
						<ele>242</ele>
						<time>2026-09-02T10:38:15Z</time>
					</trkpt>
					<trkpt lat="48.477040" lon="-3.793160">
						<ele>238</ele>
						<time>2026-09-02T10:38:38Z</time>
					</trkpt>
					<trkpt lat="48.477580" lon="-3.793400">
						<ele>232</ele>
						<time>2026-09-02T10:39:06Z</time>
					</trkpt>
					<trkpt lat="48.478040" lon="-3.793570">
						<ele>228</ele>
						<time>2026-09-02T10:39:30Z</time>
					</trkpt>
					<trkpt lat="48.478390" lon="-3.793660">
						<ele>225</ele>
						<time>2026-09-02T10:39:47Z</time>
					</trkpt>
					<trkpt lat="48.478810" lon="-3.793710">
						<ele>222</ele>
						<time>2026-09-02T10:40:08Z</time>
					</trkpt>
					<trkpt lat="48.479000" lon="-3.793710">
						<ele>221</ele>
						<time>2026-09-02T10:40:18Z</time>
					</trkpt>
					<trkpt lat="48.479250" lon="-3.793780">
						<ele>220</ele>
						<time>2026-09-02T10:40:31Z</time>
					</trkpt>
					<trkpt lat="48.479600" lon="-3.794050">
						<ele>219</ele>
						<time>2026-09-02T10:40:50Z</time>
					</trkpt>
					<trkpt lat="48.479640" lon="-3.794320">
						<ele>219</ele>
						<time>2026-09-02T10:41:00Z</time>
					</trkpt>
					<trkpt lat="48.479580" lon="-3.794960">
						<ele>219</ele>
						<time>2026-09-02T10:41:21Z</time>
					</trkpt>
					<trkpt lat="48.479930" lon="-3.794760">
						<ele>218</ele>
						<time>2026-09-02T10:41:40Z</time>
					</trkpt>
					<trkpt lat="48.480020" lon="-3.794760">
						<ele>218</ele>
						<time>2026-09-02T10:41:44Z</time>
					</trkpt>
					<trkpt lat="48.480460" lon="-3.794850">
						<ele>216</ele>
						<time>2026-09-02T10:42:06Z</time>
					</trkpt>
					<trkpt lat="48.481180" lon="-3.795710">
						<ele>213</ele>
						<time>2026-09-02T10:42:52Z</time>
					</trkpt>
					<trkpt lat="48.481180" lon="-3.795790">
						<ele>213</ele>
						<time>2026-09-02T10:42:55Z</time>
					</trkpt>
					<trkpt lat="48.481100" lon="-3.795900">
						<ele>214</ele>
						<time>2026-09-02T10:43:00Z</time>
					</trkpt>
					<trkpt lat="48.481030" lon="-3.795940">
						<ele>214</ele>
						<time>2026-09-02T10:43:04Z</time>
					</trkpt>
					<trkpt lat="48.481270" lon="-3.797170">
						<ele>212</ele>
						<time>2026-09-02T10:43:47Z</time>
					</trkpt>
					<trkpt lat="48.481680" lon="-3.798020">
						<ele>209</ele>
						<time>2026-09-02T10:44:22Z</time>
					</trkpt>
					<trkpt lat="48.482280" lon="-3.799560">
						<ele>205</ele>
						<time>2026-09-02T10:45:21Z</time>
					</trkpt>
					<trkpt lat="48.482440" lon="-3.799800">
						<ele>204</ele>
						<time>2026-09-02T10:45:32Z</time>
					</trkpt>
					<trkpt lat="48.482970" lon="-3.800480">
						<ele>202</ele>
						<time>2026-09-02T10:46:07Z</time>
					</trkpt>
					<trkpt lat="48.483200" lon="-3.800930">
						<ele>201</ele>
						<time>2026-09-02T10:46:26Z</time>
					</trkpt>
					<trkpt lat="48.483540" lon="-3.801480">
						<ele>199</ele>
						<time>2026-09-02T10:46:51Z</time>
					</trkpt>
					<trkpt lat="48.483470" lon="-3.801550">
						<ele>199</ele>
						<time>2026-09-02T10:46:55Z</time>
					</trkpt>
					<trkpt lat="48.483920" lon="-3.801190">
						<ele>197</ele>
						<time>2026-09-02T10:47:20Z</time>
					</trkpt>
					<trkpt lat="48.484090" lon="-3.801110">
						<ele>196</ele>
						<time>2026-09-02T10:47:29Z</time>
					</trkpt>
					<trkpt lat="48.484510" lon="-3.801090">
						<ele>194</ele>
						<time>2026-09-02T10:47:50Z</time>
					</trkpt>
					<trkpt lat="48.485010" lon="-3.801220">
						<ele>190</ele>
						<time>2026-09-02T10:48:16Z</time>
					</trkpt>
					<trkpt lat="48.485310" lon="-3.801230">
						<ele>188</ele>
						<time>2026-09-02T10:48:31Z</time>
					</trkpt>
					<trkpt lat="48.485390" lon="-3.801180">
						<ele>188</ele>
						<time>2026-09-02T10:48:35Z</time>
					</trkpt>
					<trkpt lat="48.485600" lon="-3.800960">
						<ele>187</ele>
						<time>2026-09-02T10:48:48Z</time>
					</trkpt>
					<trkpt lat="48.486020" lon="-3.800340">
						<ele>182</ele>
						<time>2026-09-02T10:49:17Z</time>
					</trkpt>
					<trkpt lat="48.486740" lon="-3.799000">
						<ele>171</ele>
						<time>2026-09-02T10:50:15Z</time>
					</trkpt>
					<trkpt lat="48.486800" lon="-3.798860">
						<ele>171</ele>
						<time>2026-09-02T10:50:20Z</time>
					</trkpt>
					<trkpt lat="48.486880" lon="-3.797820">
						<ele>170</ele>
						<time>2026-09-02T10:50:55Z</time>
					</trkpt>
					<trkpt lat="48.486930" lon="-3.797540">
						<ele>170</ele>
						<time>2026-09-02T10:51:04Z</time>
					</trkpt>
					<trkpt lat="48.487130" lon="-3.797180">
						<ele>168</ele>
						<time>2026-09-02T10:51:20Z</time>
					</trkpt>
					<trkpt lat="48.487320" lon="-3.797070">
						<ele>167</ele>
						<time>2026-09-02T10:51:30Z</time>
					</trkpt>
					<trkpt lat="48.487620" lon="-3.796980">
						<ele>166</ele>
						<time>2026-09-02T10:51:46Z</time>
					</trkpt>
					<trkpt lat="48.487830" lon="-3.796970">
						<ele>164</ele>
						<time>2026-09-02T10:51:56Z</time>
					</trkpt>
					<trkpt lat="48.488010" lon="-3.797030">
						<ele>163</ele>
						<time>2026-09-02T10:52:05Z</time>
					</trkpt>
					<trkpt lat="48.488720" lon="-3.797350">
						<ele>160</ele>
						<time>2026-09-02T10:52:42Z</time>
					</trkpt>
					<trkpt lat="48.488830" lon="-3.797350">
						<ele>160</ele>
						<time>2026-09-02T10:52:48Z</time>
					</trkpt>
					<trkpt lat="48.489020" lon="-3.797070">
						<ele>160</ele>
						<time>2026-09-02T10:53:01Z</time>
					</trkpt>
					<trkpt lat="48.489060" lon="-3.797030">
						<ele>160</ele>
						<time>2026-09-02T10:53:04Z</time>
					</trkpt>
					<trkpt lat="48.489130" lon="-3.797040">
						<ele>160</ele>
						<time>2026-09-02T10:53:07Z</time>
					</trkpt>
					<trkpt lat="48.489530" lon="-3.797570">
						<ele>160</ele>
						<time>2026-09-02T10:53:34Z</time>
					</trkpt>
					<trkpt lat="48.489670" lon="-3.797710">
						<ele>160</ele>
						<time>2026-09-02T10:53:42Z</time>
					</trkpt>
					<trkpt lat="48.489880" lon="-3.797870">
						<ele>160</ele>
						<time>2026-09-02T10:53:54Z</time>
					</trkpt>
					<trkpt lat="48.490090" lon="-3.798120">
						<ele>160</ele>
						<time>2026-09-02T10:54:07Z</time>
					</trkpt>
					<trkpt lat="48.490240" lon="-3.798260">
						<ele>160</ele>
						<time>2026-09-02T10:54:16Z</time>
					</trkpt>
					<trkpt lat="48.490300" lon="-3.798270">
						<ele>160</ele>
						<time>2026-09-02T10:54:19Z</time>
					</trkpt>
					<trkpt lat="48.490730" lon="-3.798590">
						<ele>161</ele>
						<time>2026-09-02T10:54:43Z</time>
					</trkpt>
					<trkpt lat="48.490940" lon="-3.798700">
						<ele>160</ele>
						<time>2026-09-02T10:54:54Z</time>
					</trkpt>
					<trkpt lat="48.491490" lon="-3.798820">
						<ele>157</ele>
						<time>2026-09-02T10:55:22Z</time>
					</trkpt>
					<trkpt lat="48.491660" lon="-3.798760">
						<ele>157</ele>
						<time>2026-09-02T10:55:31Z</time>
					</trkpt>
					<trkpt lat="48.491800" lon="-3.798660">
						<ele>155</ele>
						<time>2026-09-02T10:55:39Z</time>
					</trkpt>
					<trkpt lat="48.491990" lon="-3.798450">
						<ele>154</ele>
						<time>2026-09-02T10:55:50Z</time>
					</trkpt>
					<trkpt lat="48.492840" lon="-3.797170">
						<ele>150</ele>
						<time>2026-09-02T10:56:50Z</time>
					</trkpt>
					<trkpt lat="48.493050" lon="-3.796930">
						<ele>149</ele>
						<time>2026-09-02T10:57:04Z</time>
					</trkpt>
					<trkpt lat="48.493310" lon="-3.796720">
						<ele>148</ele>
						<time>2026-09-02T10:57:18Z</time>
					</trkpt>
					<trkpt lat="48.493540" lon="-3.796600">
						<ele>150</ele>
						<time>2026-09-02T10:57:31Z</time>
					</trkpt>
					<trkpt lat="48.493810" lon="-3.796530">
						<ele>152</ele>
						<time>2026-09-02T10:57:44Z</time>
					</trkpt>
					<trkpt lat="48.494200" lon="-3.796510">
						<ele>155</ele>
						<time>2026-09-02T10:58:04Z</time>
					</trkpt>
					<trkpt lat="48.495130" lon="-3.796550">
						<ele>164</ele>
						<time>2026-09-02T10:58:50Z</time>
					</trkpt>
					<trkpt lat="48.496060" lon="-3.796780">
						<ele>168</ele>
						<time>2026-09-02T10:59:37Z</time>
					</trkpt>
					<trkpt lat="48.495830" lon="-3.796010">
						<ele>170</ele>
						<time>2026-09-02T11:00:05Z</time>
					</trkpt>
					<trkpt lat="48.495510" lon="-3.794400">
						<ele>173</ele>
						<time>2026-09-02T11:01:01Z</time>
					</trkpt>
					<trkpt lat="48.495340" lon="-3.792750">
						<ele>175</ele>
						<time>2026-09-02T11:01:57Z</time>
					</trkpt>
					<trkpt lat="48.495480" lon="-3.791380">
						<ele>173</ele>
						<time>2026-09-02T11:02:43Z</time>
					</trkpt>
					<trkpt lat="48.495620" lon="-3.790350">
						<ele>173</ele>
						<time>2026-09-02T11:03:17Z</time>
					</trkpt>
					<trkpt lat="48.495600" lon="-3.789550">
						<ele>174</ele>
						<time>2026-09-02T11:03:44Z</time>
					</trkpt>
					<trkpt lat="48.495620" lon="-3.789020">
						<ele>175</ele>
						<time>2026-09-02T11:04:02Z</time>
					</trkpt>
					<trkpt lat="48.495800" lon="-3.788550">
						<ele>174</ele>
						<time>2026-09-02T11:04:20Z</time>
					</trkpt>
					<trkpt lat="48.497000" lon="-3.789040">
						<ele>172</ele>
						<time>2026-09-02T11:05:22Z</time>
					</trkpt>
					<trkpt lat="48.499100" lon="-3.789530">
						<ele>162</ele>
						<time>2026-09-02T11:07:08Z</time>
					</trkpt>
					<trkpt lat="48.499530" lon="-3.789760">
						<ele>161</ele>
						<time>2026-09-02T11:07:31Z</time>
					</trkpt>
					<trkpt lat="48.499850" lon="-3.789680">
						<ele>159</ele>
						<time>2026-09-02T11:07:47Z</time>
					</trkpt>
					<trkpt lat="48.500460" lon="-3.789790">
						<ele>158</ele>
						<time>2026-09-02T11:08:18Z</time>
					</trkpt>
					<trkpt lat="48.500660" lon="-3.789740">
						<ele>158</ele>
						<time>2026-09-02T11:08:28Z</time>
					</trkpt>
					<trkpt lat="48.500770" lon="-3.789660">
						<ele>158</ele>
						<time>2026-09-02T11:08:34Z</time>
					</trkpt>
					<trkpt lat="48.500930" lon="-3.789510">
						<ele>158</ele>
						<time>2026-09-02T11:08:44Z</time>
					</trkpt>
					<trkpt lat="48.501120" lon="-3.789280">
						<ele>159</ele>
						<time>2026-09-02T11:08:56Z</time>
					</trkpt>
					<trkpt lat="48.501780" lon="-3.788130">
						<ele>161</ele>
						<time>2026-09-02T11:09:46Z</time>
					</trkpt>
					<trkpt lat="48.502400" lon="-3.788410">
						<ele>165</ele>
						<time>2026-09-02T11:10:19Z</time>
					</trkpt>
					<trkpt lat="48.503380" lon="-3.788800">
						<ele>173</ele>
						<time>2026-09-02T11:11:09Z</time>
					</trkpt>
					<trkpt lat="48.503480" lon="-3.788890">
						<ele>173</ele>
						<time>2026-09-02T11:11:15Z</time>
					</trkpt>
					<trkpt lat="48.504630" lon="-3.789500">
						<ele>174</ele>
						<time>2026-09-02T11:12:16Z</time>
					</trkpt>
					<trkpt lat="48.504830" lon="-3.789700">
						<ele>174</ele>
						<time>2026-09-02T11:12:28Z</time>
					</trkpt>
					<trkpt lat="48.504850" lon="-3.789810">
						<ele>174</ele>
						<time>2026-09-02T11:12:32Z</time>
					</trkpt>
					<trkpt lat="48.504820" lon="-3.789990">
						<ele>174</ele>
						<time>2026-09-02T11:12:38Z</time>
					</trkpt>
					<trkpt lat="48.504410" lon="-3.791570">
						<ele>176</ele>
						<time>2026-09-02T11:13:34Z</time>
					</trkpt>
					<trkpt lat="48.504610" lon="-3.791780">
						<ele>177</ele>
						<time>2026-09-02T11:13:47Z</time>
					</trkpt>
					<trkpt lat="48.504650" lon="-3.791890">
						<ele>177</ele>
						<time>2026-09-02T11:13:51Z</time>
					</trkpt>
					<trkpt lat="48.504290" lon="-3.793220">
						<ele>179</ele>
						<time>2026-09-02T11:14:38Z</time>
					</trkpt>
					<trkpt lat="48.504180" lon="-3.793710">
						<ele>179</ele>
						<time>2026-09-02T11:14:56Z</time>
					</trkpt>
					<trkpt lat="48.504090" lon="-3.793970">
						<ele>178</ele>
						<time>2026-09-02T11:15:05Z</time>
					</trkpt>
					<trkpt lat="48.504090" lon="-3.794140">
						<ele>178</ele>
						<time>2026-09-02T11:15:11Z</time>
					</trkpt>
					<trkpt lat="48.505250" lon="-3.794840">
						<ele>175</ele>
						<time>2026-09-02T11:16:13Z</time>
					</trkpt>
					<trkpt lat="48.505490" lon="-3.795070">
						<ele>175</ele>
						<time>2026-09-02T11:16:28Z</time>
					</trkpt>
					<trkpt lat="48.505650" lon="-3.795270">
						<ele>175</ele>
						<time>2026-09-02T11:16:38Z</time>
					</trkpt>
					<trkpt lat="48.506090" lon="-3.795970">
						<ele>175</ele>
						<time>2026-09-02T11:17:10Z</time>
					</trkpt>
					<trkpt lat="48.506300" lon="-3.796380">
						<ele>173</ele>
						<time>2026-09-02T11:17:27Z</time>
					</trkpt>
					<trkpt lat="48.506050" lon="-3.796540">
						<ele>174</ele>
						<time>2026-09-02T11:17:41Z</time>
					</trkpt>
					<trkpt lat="48.506070" lon="-3.796830">
						<ele>173</ele>
						<time>2026-09-02T11:17:50Z</time>
					</trkpt>
					<trkpt lat="48.505940" lon="-3.797270">
						<ele>172</ele>
						<time>2026-09-02T11:18:06Z</time>
					</trkpt>
					<trkpt lat="48.506100" lon="-3.797490">
						<ele>171</ele>
						<time>2026-09-02T11:18:17Z</time>
					</trkpt>
					<trkpt lat="48.506730" lon="-3.798120">
						<ele>167</ele>
						<time>2026-09-02T11:18:55Z</time>
					</trkpt>
					<trkpt lat="48.506990" lon="-3.799050">
						<ele>165</ele>
						<time>2026-09-02T11:19:29Z</time>
					</trkpt>
					<trkpt lat="48.507310" lon="-3.799940">
						<ele>163</ele>
						<time>2026-09-02T11:20:02Z</time>
					</trkpt>
					<trkpt lat="48.507500" lon="-3.800280">
						<ele>163</ele>
						<time>2026-09-02T11:20:17Z</time>
					</trkpt>
					<trkpt lat="48.508150" lon="-3.800390">
						<ele>162</ele>
						<time>2026-09-02T11:20:50Z</time>
					</trkpt>
					<trkpt lat="48.509040" lon="-3.800650">
						<ele>155</ele>
						<time>2026-09-02T11:21:35Z</time>
					</trkpt>
					<trkpt lat="48.509360" lon="-3.800800">
						<ele>152</ele>
						<time>2026-09-02T11:21:52Z</time>
					</trkpt>
					<trkpt lat="48.509500" lon="-3.800830">
						<ele>150</ele>
						<time>2026-09-02T11:21:59Z</time>
					</trkpt>
					<trkpt lat="48.509780" lon="-3.800990">
						<ele>148</ele>
						<time>2026-09-02T11:22:14Z</time>
					</trkpt>
					<trkpt lat="48.509880" lon="-3.801150">
						<ele>147</ele>
						<time>2026-09-02T11:22:21Z</time>
					</trkpt>
					<trkpt lat="48.510080" lon="-3.801340">
						<ele>145</ele>
						<time>2026-09-02T11:22:33Z</time>
					</trkpt>
					<trkpt lat="48.510180" lon="-3.801400">
						<ele>144</ele>
						<time>2026-09-02T11:22:38Z</time>
					</trkpt>
					<trkpt lat="48.511530" lon="-3.802030">
						<ele>130</ele>
						<time>2026-09-02T11:23:49Z</time>
					</trkpt>
					<trkpt lat="48.512330" lon="-3.802510">
						<ele>127</ele>
						<time>2026-09-02T11:24:32Z</time>
					</trkpt>
					<trkpt lat="48.512910" lon="-3.802790">
						<ele>124</ele>
						<time>2026-09-02T11:25:03Z</time>
					</trkpt>
					<trkpt lat="48.513090" lon="-3.802840">
						<ele>123</ele>
						<time>2026-09-02T11:25:12Z</time>
					</trkpt>
					<trkpt lat="48.513980" lon="-3.802890">
						<ele>119</ele>
						<time>2026-09-02T11:25:56Z</time>
					</trkpt>
					<trkpt lat="48.514330" lon="-3.802950">
						<ele>118</ele>
						<time>2026-09-02T11:26:14Z</time>
					</trkpt>
					<trkpt lat="48.514370" lon="-3.802890">
						<ele>119</ele>
						<time>2026-09-02T11:26:17Z</time>
					</trkpt>
					<trkpt lat="48.514500" lon="-3.802820">
						<ele>120</ele>
						<time>2026-09-02T11:26:24Z</time>
					</trkpt>
					<trkpt lat="48.515070" lon="-3.802670">
						<ele>122</ele>
						<time>2026-09-02T11:26:53Z</time>
					</trkpt>
					<trkpt lat="48.515960" lon="-3.802480">
						<ele>126</ele>
						<time>2026-09-02T11:27:38Z</time>
					</trkpt>
					<trkpt lat="48.516140" lon="-3.802450">
						<ele>127</ele>
						<time>2026-09-02T11:27:47Z</time>
					</trkpt>
					<trkpt lat="48.516250" lon="-3.802460">
						<ele>127</ele>
						<time>2026-09-02T11:27:52Z</time>
					</trkpt>
					<trkpt lat="48.516350" lon="-3.802430">
						<ele>127</ele>
						<time>2026-09-02T11:27:57Z</time>
					</trkpt>
					<trkpt lat="48.516540" lon="-3.802460">
						<ele>128</ele>
						<time>2026-09-02T11:28:07Z</time>
					</trkpt>
					<trkpt lat="48.516970" lon="-3.802440">
						<ele>128</ele>
						<time>2026-09-02T11:28:28Z</time>
					</trkpt>
					<trkpt lat="48.517200" lon="-3.802400">
						<ele>128</ele>
						<time>2026-09-02T11:28:40Z</time>
					</trkpt>
					<trkpt lat="48.517550" lon="-3.802200">
						<ele>128</ele>
						<time>2026-09-02T11:28:59Z</time>
					</trkpt>
					<trkpt lat="48.517730" lon="-3.802060">
						<ele>127</ele>
						<time>2026-09-02T11:29:09Z</time>
					</trkpt>
					<trkpt lat="48.517980" lon="-3.801800">
						<ele>127</ele>
						<time>2026-09-02T11:29:24Z</time>
					</trkpt>
					<trkpt lat="48.518320" lon="-3.801360">
						<ele>127</ele>
						<time>2026-09-02T11:29:46Z</time>
					</trkpt>
					<trkpt lat="48.518830" lon="-3.800530">
						<ele>128</ele>
						<time>2026-09-02T11:30:24Z</time>
					</trkpt>
					<trkpt lat="48.518960" lon="-3.800240">
						<ele>128</ele>
						<time>2026-09-02T11:30:36Z</time>
					</trkpt>
					<trkpt lat="48.519290" lon="-3.799690">
						<ele>128</ele>
						<time>2026-09-02T11:31:00Z</time>
					</trkpt>
					<trkpt lat="48.519770" lon="-3.800960">
						<ele>122</ele>
						<time>2026-09-02T11:31:49Z</time>
					</trkpt>
					<trkpt lat="48.519840" lon="-3.801230">
						<ele>122</ele>
						<time>2026-09-02T11:31:58Z</time>
					</trkpt>
					<trkpt lat="48.519880" lon="-3.801440">
						<ele>122</ele>
						<time>2026-09-02T11:32:05Z</time>
					</trkpt>
					<trkpt lat="48.519980" lon="-3.802700">
						<ele>119</ele>
						<time>2026-09-02T11:32:48Z</time>
					</trkpt>
					<trkpt lat="48.520100" lon="-3.802740">
						<ele>118</ele>
						<time>2026-09-02T11:32:54Z</time>
					</trkpt>
					<trkpt lat="48.520400" lon="-3.802900">
						<ele>116</ele>
						<time>2026-09-02T11:33:10Z</time>
					</trkpt>
					<trkpt lat="48.521490" lon="-3.803540">
						<ele>112</ele>
						<time>2026-09-02T11:34:08Z</time>
					</trkpt>
					<trkpt lat="48.522570" lon="-3.803850">
						<ele>112</ele>
						<time>2026-09-02T11:35:03Z</time>
					</trkpt>
					<trkpt lat="48.523090" lon="-3.804080">
						<ele>111</ele>
						<time>2026-09-02T11:35:30Z</time>
					</trkpt>
					<trkpt lat="48.523410" lon="-3.804180">
						<ele>110</ele>
						<time>2026-09-02T11:35:47Z</time>
					</trkpt>
					<trkpt lat="48.523860" lon="-3.804290">
						<ele>108</ele>
						<time>2026-09-02T11:36:09Z</time>
					</trkpt>
					<trkpt lat="48.524030" lon="-3.804290">
						<ele>107</ele>
						<time>2026-09-02T11:36:18Z</time>
					</trkpt>
					<trkpt lat="48.524040" lon="-3.804380">
						<ele>107</ele>
						<time>2026-09-02T11:36:21Z</time>
					</trkpt>
					<trkpt lat="48.524110" lon="-3.804470">
						<ele>107</ele>
						<time>2026-09-02T11:36:26Z</time>
					</trkpt>
					<trkpt lat="48.524330" lon="-3.804680">
						<ele>107</ele>
						<time>2026-09-02T11:36:39Z</time>
					</trkpt>
					<trkpt lat="48.524440" lon="-3.804730">
						<ele>106</ele>
						<time>2026-09-02T11:36:44Z</time>
					</trkpt>
					<trkpt lat="48.524550" lon="-3.804820">
						<ele>105</ele>
						<time>2026-09-02T11:36:51Z</time>
					</trkpt>
					<trkpt lat="48.525010" lon="-3.805270">
						<ele>104</ele>
						<time>2026-09-02T11:37:18Z</time>
					</trkpt>
					<trkpt lat="48.525630" lon="-3.806070">
						<ele>99</ele>
						<time>2026-09-02T11:37:59Z</time>
					</trkpt>
					<trkpt lat="48.525880" lon="-3.806310">
						<ele>96</ele>
						<time>2026-09-02T11:38:14Z</time>
					</trkpt>
					<trkpt lat="48.525930" lon="-3.806550">
						<ele>96</ele>
						<time>2026-09-02T11:38:22Z</time>
					</trkpt>
					<trkpt lat="48.526010" lon="-3.806730">
						<ele>95</ele>
						<time>2026-09-02T11:38:29Z</time>
					</trkpt>
					<trkpt lat="48.526090" lon="-3.806830">
						<ele>95</ele>
						<time>2026-09-02T11:38:34Z</time>
					</trkpt>
					<trkpt lat="48.526360" lon="-3.807070">
						<ele>93</ele>
						<time>2026-09-02T11:38:50Z</time>
					</trkpt>
					<trkpt lat="48.526640" lon="-3.807440">
						<ele>92</ele>
						<time>2026-09-02T11:39:09Z</time>
					</trkpt>
					<trkpt lat="48.526880" lon="-3.807820">
						<ele>90</ele>
						<time>2026-09-02T11:39:26Z</time>
					</trkpt>
					<trkpt lat="48.528530" lon="-3.808780">
						<ele>81</ele>
						<time>2026-09-02T11:40:55Z</time>
					</trkpt>
					<trkpt lat="48.528560" lon="-3.808420">
						<ele>83</ele>
						<time>2026-09-02T11:41:07Z</time>
					</trkpt>
					<trkpt lat="48.528590" lon="-3.808380">
						<ele>83</ele>
						<time>2026-09-02T11:41:09Z</time>
					</trkpt>
					<trkpt lat="48.528800" lon="-3.808400">
						<ele>81</ele>
						<time>2026-09-02T11:41:19Z</time>
					</trkpt>
					<trkpt lat="48.528840" lon="-3.808360">
						<ele>81</ele>
						<time>2026-09-02T11:41:22Z</time>
					</trkpt>
					<trkpt lat="48.528870" lon="-3.808230">
						<ele>80</ele>
						<time>2026-09-02T11:41:26Z</time>
					</trkpt>
					<trkpt lat="48.528820" lon="-3.808000">
						<ele>80</ele>
						<time>2026-09-02T11:41:34Z</time>
					</trkpt>
					<trkpt lat="48.528620" lon="-3.807600">
						<ele>80</ele>
						<time>2026-09-02T11:41:51Z</time>
					</trkpt>
					<trkpt lat="48.528470" lon="-3.807180">
						<ele>79</ele>
						<time>2026-09-02T11:42:07Z</time>
					</trkpt>
					<trkpt lat="48.528280" lon="-3.806860">
						<ele>77</ele>
						<time>2026-09-02T11:42:21Z</time>
					</trkpt>
					<trkpt lat="48.527990" lon="-3.806470">
						<ele>77</ele>
						<time>2026-09-02T11:42:40Z</time>
					</trkpt>
					<trkpt lat="48.527920" lon="-3.806140">
						<ele>77</ele>
						<time>2026-09-02T11:42:52Z</time>
					</trkpt>
					<trkpt lat="48.527770" lon="-3.805930">
						<ele>76</ele>
						<time>2026-09-02T11:43:02Z</time>
					</trkpt>
					<trkpt lat="48.527780" lon="-3.805540">
						<ele>77</ele>
						<time>2026-09-02T11:43:15Z</time>
					</trkpt>
					<trkpt lat="48.527820" lon="-3.805350">
						<ele>77</ele>
						<time>2026-09-02T11:43:21Z</time>
					</trkpt>
					<trkpt lat="48.528140" lon="-3.805020">
						<ele>81</ele>
						<time>2026-09-02T11:43:41Z</time>
					</trkpt>
					<trkpt lat="48.528250" lon="-3.804680">
						<ele>83</ele>
						<time>2026-09-02T11:43:53Z</time>
					</trkpt>
					<trkpt lat="48.528460" lon="-3.803580">
						<ele>87</ele>
						<time>2026-09-02T11:44:31Z</time>
					</trkpt>
					<trkpt lat="48.528500" lon="-3.803180">
						<ele>88</ele>
						<time>2026-09-02T11:44:45Z</time>
					</trkpt>
					<trkpt lat="48.528780" lon="-3.802410">
						<ele>94</ele>
						<time>2026-09-02T11:45:14Z</time>
					</trkpt>
					<trkpt lat="48.529090" lon="-3.800700">
						<ele>103</ele>
						<time>2026-09-02T11:46:13Z</time>
					</trkpt>
					<trkpt lat="48.529290" lon="-3.799440">
						<ele>109</ele>
						<time>2026-09-02T11:46:56Z</time>
					</trkpt>
					<trkpt lat="48.529430" lon="-3.798960">
						<ele>111</ele>
						<time>2026-09-02T11:47:13Z</time>
					</trkpt>
					<trkpt lat="48.529790" lon="-3.798210">
						<ele>116</ele>
						<time>2026-09-02T11:47:44Z</time>
					</trkpt>
					<trkpt lat="48.530040" lon="-3.797760">
						<ele>117</ele>
						<time>2026-09-02T11:48:03Z</time>
					</trkpt>
					<trkpt lat="48.530430" lon="-3.796540">
						<ele>120</ele>
						<time>2026-09-02T11:48:48Z</time>
					</trkpt>
					<trkpt lat="48.531170" lon="-3.794410">
						<ele>123</ele>
						<time>2026-09-02T11:50:08Z</time>
					</trkpt>
					<trkpt lat="48.531230" lon="-3.794410">
						<ele>124</ele>
						<time>2026-09-02T11:50:11Z</time>
					</trkpt>
					<trkpt lat="48.531250" lon="-3.794350">
						<ele>124</ele>
						<time>2026-09-02T11:50:13Z</time>
					</trkpt>
					<trkpt lat="48.531240" lon="-3.794240">
						<ele>123</ele>
						<time>2026-09-02T11:50:17Z</time>
					</trkpt>
					<trkpt lat="48.531380" lon="-3.793950">
						<ele>123</ele>
						<time>2026-09-02T11:50:28Z</time>
					</trkpt>
					<trkpt lat="48.531810" lon="-3.793190">
						<ele>124</ele>
						<time>2026-09-02T11:51:02Z</time>
					</trkpt>
					<trkpt lat="48.532200" lon="-3.792160">
						<ele>124</ele>
						<time>2026-09-02T11:51:41Z</time>
					</trkpt>
					<trkpt lat="48.532480" lon="-3.791310">
						<ele>126</ele>
						<time>2026-09-02T11:52:12Z</time>
					</trkpt>
					<trkpt lat="48.532530" lon="-3.791080">
						<ele>126</ele>
						<time>2026-09-02T11:52:20Z</time>
					</trkpt>
					<trkpt lat="48.532580" lon="-3.791000">
						<ele>127</ele>
						<time>2026-09-02T11:52:24Z</time>
					</trkpt>
					<trkpt lat="48.532690" lon="-3.790960">
						<ele>127</ele>
						<time>2026-09-02T11:52:30Z</time>
					</trkpt>
					<trkpt lat="48.532730" lon="-3.791000">
						<ele>127</ele>
						<time>2026-09-02T11:52:32Z</time>
					</trkpt>
					<trkpt lat="48.532930" lon="-3.791060">
						<ele>126</ele>
						<time>2026-09-02T11:52:42Z</time>
					</trkpt>
					<trkpt lat="48.533160" lon="-3.791080">
						<ele>126</ele>
						<time>2026-09-02T11:52:54Z</time>
					</trkpt>
					<trkpt lat="48.534200" lon="-3.790970">
						<ele>126</ele>
						<time>2026-09-02T11:53:46Z</time>
					</trkpt>
					<trkpt lat="48.534260" lon="-3.790900">
						<ele>126</ele>
						<time>2026-09-02T11:53:50Z</time>
					</trkpt>
					<trkpt lat="48.534280" lon="-3.790800">
						<ele>126</ele>
						<time>2026-09-02T11:53:53Z</time>
					</trkpt>
					<trkpt lat="48.534280" lon="-3.790110">
						<ele>127</ele>
						<time>2026-09-02T11:54:16Z</time>
					</trkpt>
					<trkpt lat="48.534400" lon="-3.790090">
						<ele>127</ele>
						<time>2026-09-02T11:54:22Z</time>
					</trkpt>
					<trkpt lat="48.534440" lon="-3.790000">
						<ele>127</ele>
						<time>2026-09-02T11:54:26Z</time>
					</trkpt>
					<trkpt lat="48.534540" lon="-3.790070">
						<ele>127</ele>
						<time>2026-09-02T11:54:31Z</time>
					</trkpt>
					<trkpt lat="48.535010" lon="-3.790300">
						<ele>126</ele>
						<time>2026-09-02T11:54:56Z</time>
					</trkpt>
					<trkpt lat="48.535280" lon="-3.790300">
						<ele>126</ele>
						<time>2026-09-02T11:55:10Z</time>
					</trkpt>
					<trkpt lat="48.535860" lon="-3.790180">
						<ele>126</ele>
						<time>2026-09-02T11:55:39Z</time>
					</trkpt>
					<trkpt lat="48.536710" lon="-3.790140">
						<ele>126</ele>
						<time>2026-09-02T11:56:21Z</time>
					</trkpt>
					<trkpt lat="48.537070" lon="-3.790240">
						<ele>125</ele>
						<time>2026-09-02T11:56:40Z</time>
					</trkpt>
					<trkpt lat="48.537690" lon="-3.790540">
						<ele>123</ele>
						<time>2026-09-02T11:57:12Z</time>
					</trkpt>
					<trkpt lat="48.538070" lon="-3.790620">
						<ele>123</ele>
						<time>2026-09-02T11:57:31Z</time>
					</trkpt>
					<trkpt lat="48.538540" lon="-3.790790">
						<ele>123</ele>
						<time>2026-09-02T11:57:56Z</time>
					</trkpt>
					<trkpt lat="48.538930" lon="-3.790980">
						<ele>123</ele>
						<time>2026-09-02T11:58:16Z</time>
					</trkpt>
					<trkpt lat="48.538940" lon="-3.791100">
						<ele>122</ele>
						<time>2026-09-02T11:58:20Z</time>
					</trkpt>
					<trkpt lat="48.539000" lon="-3.791160">
						<ele>122</ele>
						<time>2026-09-02T11:58:24Z</time>
					</trkpt>
					<trkpt lat="48.539060" lon="-3.791140">
						<ele>122</ele>
						<time>2026-09-02T11:58:27Z</time>
					</trkpt>
					<trkpt lat="48.539090" lon="-3.791080">
						<ele>122</ele>
						<time>2026-09-02T11:58:29Z</time>
					</trkpt>
					<trkpt lat="48.539260" lon="-3.791200">
						<ele>122</ele>
						<time>2026-09-02T11:58:39Z</time>
					</trkpt>
					<trkpt lat="48.540160" lon="-3.791640">
						<ele>122</ele>
						<time>2026-09-02T11:59:26Z</time>
					</trkpt>
					<trkpt lat="48.540410" lon="-3.791710">
						<ele>122</ele>
						<time>2026-09-02T11:59:39Z</time>
					</trkpt>
					<trkpt lat="48.540470" lon="-3.791700">
						<ele>122</ele>
						<time>2026-09-02T11:59:42Z</time>
					</trkpt>
					<trkpt lat="48.540490" lon="-3.791780">
						<ele>122</ele>
						<time>2026-09-02T11:59:45Z</time>
					</trkpt>
					<trkpt lat="48.540570" lon="-3.791810">
						<ele>122</ele>
						<time>2026-09-02T11:59:49Z</time>
					</trkpt>
					<trkpt lat="48.540610" lon="-3.791800">
						<ele>122</ele>
						<time>2026-09-02T11:59:51Z</time>
					</trkpt>
					<trkpt lat="48.540760" lon="-3.792150">
						<ele>123</ele>
						<time>2026-09-02T12:00:05Z</time>
					</trkpt>
					<trkpt lat="48.540990" lon="-3.792240">
						<ele>123</ele>
						<time>2026-09-02T12:00:17Z</time>
					</trkpt>
					<trkpt lat="48.541230" lon="-3.792300">
						<ele>123</ele>
						<time>2026-09-02T12:00:29Z</time>
					</trkpt>
					<trkpt lat="48.542640" lon="-3.792530">
						<ele>119</ele>
						<time>2026-09-02T12:01:40Z</time>
					</trkpt>
					<trkpt lat="48.542940" lon="-3.792640">
						<ele>118</ele>
						<time>2026-09-02T12:01:55Z</time>
					</trkpt>
					<trkpt lat="48.543500" lon="-3.792990">
						<ele>117</ele>
						<time>2026-09-02T12:02:25Z</time>
					</trkpt>
					<trkpt lat="48.543690" lon="-3.793080">
						<ele>116</ele>
						<time>2026-09-02T12:02:35Z</time>
					</trkpt>
					<trkpt lat="48.543820" lon="-3.793110">
						<ele>116</ele>
						<time>2026-09-02T12:02:42Z</time>
					</trkpt>
					<trkpt lat="48.545290" lon="-3.793030">
						<ele>114</ele>
						<time>2026-09-02T12:03:56Z</time>
					</trkpt>
					<trkpt lat="48.545260" lon="-3.793140">
						<ele>115</ele>
						<time>2026-09-02T12:04:00Z</time>
					</trkpt>
					<trkpt lat="48.545000" lon="-3.793700">
						<ele>116</ele>
						<time>2026-09-02T12:04:22Z</time>
					</trkpt>
					<trkpt lat="48.544970" lon="-3.794620">
						<ele>116</ele>
						<time>2026-09-02T12:04:53Z</time>
					</trkpt>
					<trkpt lat="48.545010" lon="-3.795120">
						<ele>115</ele>
						<time>2026-09-02T12:05:09Z</time>
					</trkpt>
					<trkpt lat="48.545000" lon="-3.795690">
						<ele>114</ele>
						<time>2026-09-02T12:05:28Z</time>
					</trkpt>
					<trkpt lat="48.544900" lon="-3.795940">
						<ele>113</ele>
						<time>2026-09-02T12:05:38Z</time>
					</trkpt>
					<trkpt lat="48.544630" lon="-3.796380">
						<ele>111</ele>
						<time>2026-09-02T12:05:58Z</time>
					</trkpt>
					<trkpt lat="48.544430" lon="-3.796760">
						<ele>109</ele>
						<time>2026-09-02T12:06:14Z</time>
					</trkpt>
					<trkpt lat="48.544280" lon="-3.797140">
						<ele>108</ele>
						<time>2026-09-02T12:06:29Z</time>
					</trkpt>
					<trkpt lat="48.544170" lon="-3.797260">
						<ele>108</ele>
						<time>2026-09-02T12:06:35Z</time>
					</trkpt>
					<trkpt lat="48.544150" lon="-3.797360">
						<ele>108</ele>
						<time>2026-09-02T12:06:39Z</time>
					</trkpt>
					<trkpt lat="48.544140" lon="-3.797520">
						<ele>107</ele>
						<time>2026-09-02T12:06:44Z</time>
					</trkpt>
					<trkpt lat="48.544230" lon="-3.798420">
						<ele>110</ele>
						<time>2026-09-02T12:07:14Z</time>
					</trkpt>
					<trkpt lat="48.544220" lon="-3.798790">
						<ele>113</ele>
						<time>2026-09-02T12:07:27Z</time>
					</trkpt>
					<trkpt lat="48.544080" lon="-3.800130">
						<ele>118</ele>
						<time>2026-09-02T12:08:12Z</time>
					</trkpt>
					<trkpt lat="48.544040" lon="-3.801700">
						<ele>119</ele>
						<time>2026-09-02T12:09:04Z</time>
					</trkpt>
					<trkpt lat="48.544020" lon="-3.801820">
						<ele>119</ele>
						<time>2026-09-02T12:09:08Z</time>
					</trkpt>
					<trkpt lat="48.543820" lon="-3.801660">
						<ele>119</ele>
						<time>2026-09-02T12:09:19Z</time>
					</trkpt>
					<trkpt lat="48.543700" lon="-3.802060">
						<ele>119</ele>
						<time>2026-09-02T12:09:34Z</time>
					</trkpt>
					<trkpt lat="48.543700" lon="-3.802270">
						<ele>119</ele>
						<time>2026-09-02T12:09:41Z</time>
					</trkpt>
					<trkpt lat="48.543840" lon="-3.802820">
						<ele>118</ele>
						<time>2026-09-02T12:10:00Z</time>
					</trkpt>
					<trkpt lat="48.544380" lon="-3.804610">
						<ele>115</ele>
						<time>2026-09-02T12:11:05Z</time>
					</trkpt>
					<trkpt lat="48.544580" lon="-3.805940">
						<ele>114</ele>
						<time>2026-09-02T12:11:50Z</time>
					</trkpt>
					<trkpt lat="48.544750" lon="-3.807280">
						<ele>114</ele>
						<time>2026-09-02T12:12:36Z</time>
					</trkpt>
					<trkpt lat="48.544890" lon="-3.807810">
						<ele>115</ele>
						<time>2026-09-02T12:12:54Z</time>
					</trkpt>
					<trkpt lat="48.545170" lon="-3.808480">
						<ele>116</ele>
						<time>2026-09-02T12:13:21Z</time>
					</trkpt>
					<trkpt lat="48.545330" lon="-3.809260">
						<ele>117</ele>
						<time>2026-09-02T12:13:48Z</time>
					</trkpt>
					<trkpt lat="48.545950" lon="-3.811750">
						<ele>112</ele>
						<time>2026-09-02T12:15:16Z</time>
					</trkpt>
					<trkpt lat="48.546010" lon="-3.811890">
						<ele>111</ele>
						<time>2026-09-02T12:15:21Z</time>
					</trkpt>
					<trkpt lat="48.546070" lon="-3.811950">
						<ele>110</ele>
						<time>2026-09-02T12:15:25Z</time>
					</trkpt>
					<trkpt lat="48.546810" lon="-3.813290">
						<ele>105</ele>
						<time>2026-09-02T12:16:23Z</time>
					</trkpt>
					<trkpt lat="48.547180" lon="-3.814010">
						<ele>104</ele>
						<time>2026-09-02T12:16:53Z</time>
					</trkpt>
					<trkpt lat="48.547450" lon="-3.814380">
						<ele>103</ele>
						<time>2026-09-02T12:17:11Z</time>
					</trkpt>
					<trkpt lat="48.548060" lon="-3.815050">
						<ele>103</ele>
						<time>2026-09-02T12:17:49Z</time>
					</trkpt>
					<trkpt lat="48.548400" lon="-3.815370">
						<ele>101</ele>
						<time>2026-09-02T12:18:09Z</time>
					</trkpt>
					<trkpt lat="48.549270" lon="-3.816110">
						<ele>98</ele>
						<time>2026-09-02T12:18:59Z</time>
					</trkpt>
					<trkpt lat="48.549950" lon="-3.816540">
						<ele>98</ele>
						<time>2026-09-02T12:19:36Z</time>
					</trkpt>
					<trkpt lat="48.550210" lon="-3.816540">
						<ele>98</ele>
						<time>2026-09-02T12:19:49Z</time>
					</trkpt>
					<trkpt lat="48.550330" lon="-3.816570">
						<ele>98</ele>
						<time>2026-09-02T12:19:55Z</time>
					</trkpt>
					<trkpt lat="48.550810" lon="-3.816850">
						<ele>98</ele>
						<time>2026-09-02T12:20:21Z</time>
					</trkpt>
					<trkpt lat="48.551320" lon="-3.817020">
						<ele>98</ele>
						<time>2026-09-02T12:20:47Z</time>
					</trkpt>
					<trkpt lat="48.551770" lon="-3.817140">
						<ele>97</ele>
						<time>2026-09-02T12:21:10Z</time>
					</trkpt>
					<trkpt lat="48.551920" lon="-3.817230">
						<ele>96</ele>
						<time>2026-09-02T12:21:18Z</time>
					</trkpt>
					<trkpt lat="48.552760" lon="-3.817570">
						<ele>95</ele>
						<time>2026-09-02T12:22:01Z</time>
					</trkpt>
					<trkpt lat="48.553080" lon="-3.817770">
						<ele>95</ele>
						<time>2026-09-02T12:22:19Z</time>
					</trkpt>
					<trkpt lat="48.553860" lon="-3.818410">
						<ele>95</ele>
						<time>2026-09-02T12:23:03Z</time>
					</trkpt>
					<trkpt lat="48.554520" lon="-3.818880">
						<ele>94</ele>
						<time>2026-09-02T12:23:40Z</time>
					</trkpt>
					<trkpt lat="48.555070" lon="-3.819250">
						<ele>92</ele>
						<time>2026-09-02T12:24:10Z</time>
					</trkpt>
					<trkpt lat="48.555610" lon="-3.819560">
						<ele>92</ele>
						<time>2026-09-02T12:24:39Z</time>
					</trkpt>
					<trkpt lat="48.555900" lon="-3.819760">
						<ele>93</ele>
						<time>2026-09-02T12:24:55Z</time>
					</trkpt>
					<trkpt lat="48.556920" lon="-3.820600">
						<ele>94</ele>
						<time>2026-09-02T12:25:53Z</time>
					</trkpt>
					<trkpt lat="48.557460" lon="-3.820960">
						<ele>94</ele>
						<time>2026-09-02T12:26:22Z</time>
					</trkpt>
					<trkpt lat="48.558160" lon="-3.821360">
						<ele>93</ele>
						<time>2026-09-02T12:27:00Z</time>
					</trkpt>
					<trkpt lat="48.558840" lon="-3.821720">
						<ele>92</ele>
						<time>2026-09-02T12:27:36Z</time>
					</trkpt>
					<trkpt lat="48.559530" lon="-3.821980">
						<ele>91</ele>
						<time>2026-09-02T12:28:11Z</time>
					</trkpt>
					<trkpt lat="48.560060" lon="-3.822130">
						<ele>92</ele>
						<time>2026-09-02T12:28:38Z</time>
					</trkpt>
					<trkpt lat="48.560420" lon="-3.822180">
						<ele>92</ele>
						<time>2026-09-02T12:28:56Z</time>
					</trkpt>
					<trkpt lat="48.560590" lon="-3.822150">
						<ele>92</ele>
						<time>2026-09-02T12:29:05Z</time>
					</trkpt>
					<trkpt lat="48.561090" lon="-3.822420">
						<ele>93</ele>
						<time>2026-09-02T12:29:32Z</time>
					</trkpt>
					<trkpt lat="48.561120" lon="-3.822380">
						<ele>93</ele>
						<time>2026-09-02T12:29:34Z</time>
					</trkpt>
					<trkpt lat="48.561220" lon="-3.822360">
						<ele>93</ele>
						<time>2026-09-02T12:29:39Z</time>
					</trkpt>
					<trkpt lat="48.561790" lon="-3.822750">
						<ele>94</ele>
						<time>2026-09-02T12:30:10Z</time>
					</trkpt>
					<trkpt lat="48.562280" lon="-3.823160">
						<ele>95</ele>
						<time>2026-09-02T12:30:38Z</time>
					</trkpt>
					<trkpt lat="48.562510" lon="-3.823240">
						<ele>95</ele>
						<time>2026-09-02T12:30:50Z</time>
					</trkpt>
					<trkpt lat="48.563000" lon="-3.823530">
						<ele>93</ele>
						<time>2026-09-02T12:31:16Z</time>
					</trkpt>
					<trkpt lat="48.563290" lon="-3.823750">
						<ele>94</ele>
						<time>2026-09-02T12:31:32Z</time>
					</trkpt>
					<trkpt lat="48.563930" lon="-3.823110">
						<ele>87</ele>
						<time>2026-09-02T12:32:11Z</time>
					</trkpt>
					<trkpt lat="48.564110" lon="-3.820600">
						<ele>75</ele>
						<time>2026-09-02T12:33:34Z</time>
					</trkpt>
					<trkpt lat="48.564640" lon="-3.819100">
						<ele>68</ele>
						<time>2026-09-02T12:34:31Z</time>
					</trkpt>
					<trkpt lat="48.565030" lon="-3.818980">
						<ele>63</ele>
						<time>2026-09-02T12:34:51Z</time>
					</trkpt>
					<trkpt lat="48.565460" lon="-3.818760">
						<ele>62</ele>
						<time>2026-09-02T12:35:13Z</time>
					</trkpt>
					<trkpt lat="48.566160" lon="-3.818860">
						<ele>62</ele>
						<time>2026-09-02T12:35:49Z</time>
					</trkpt>
					<trkpt lat="48.566760" lon="-3.819180">
						<ele>62</ele>
						<time>2026-09-02T12:36:20Z</time>
					</trkpt>
					<trkpt lat="48.567140" lon="-3.819210">
						<ele>60</ele>
						<time>2026-09-02T12:36:39Z</time>
					</trkpt>
					<trkpt lat="48.567460" lon="-3.818520">
						<ele>50</ele>
						<time>2026-09-02T12:37:07Z</time>
					</trkpt>
					<trkpt lat="48.567670" lon="-3.817610">
						<ele>54</ele>
						<time>2026-09-02T12:37:39Z</time>
					</trkpt>
					<trkpt lat="48.568040" lon="-3.817370">
						<ele>53</ele>
						<time>2026-09-02T12:37:59Z</time>
					</trkpt>
					<trkpt lat="48.568380" lon="-3.817230">
						<ele>52</ele>
						<time>2026-09-02T12:38:17Z</time>
					</trkpt>
					<trkpt lat="48.568360" lon="-3.817710">
						<ele>52</ele>
						<time>2026-09-02T12:38:33Z</time>
					</trkpt>
					<trkpt lat="48.568870" lon="-3.817730">
						<ele>55</ele>
						<time>2026-09-02T12:38:58Z</time>
					</trkpt>
					<trkpt lat="48.569710" lon="-3.818110">
						<ele>55</ele>
						<time>2026-09-02T12:39:42Z</time>
					</trkpt>
					<trkpt lat="48.570770" lon="-3.819420">
						<ele>51</ele>
						<time>2026-09-02T12:40:51Z</time>
					</trkpt>
					<trkpt lat="48.571380" lon="-3.819820">
						<ele>43</ele>
						<time>2026-09-02T12:41:24Z</time>
					</trkpt>
					<trkpt lat="48.572050" lon="-3.820200">
						<ele>33</ele>
						<time>2026-09-02T12:42:00Z</time>
					</trkpt>
					<trkpt lat="48.572400" lon="-3.820470">
						<ele>28</ele>
						<time>2026-09-02T12:42:20Z</time>
					</trkpt>
					<trkpt lat="48.572670" lon="-3.820290">
						<ele>28</ele>
						<time>2026-09-02T12:42:34Z</time>
					</trkpt>
					<trkpt lat="48.572920" lon="-3.820790">
						<ele>27</ele>
						<time>2026-09-02T12:42:55Z</time>
					</trkpt>
					<trkpt lat="48.573370" lon="-3.821390">
						<ele>24</ele>
						<time>2026-09-02T12:43:25Z</time>
					</trkpt>
					<trkpt lat="48.573630" lon="-3.821570">
						<ele>23</ele>
						<time>2026-09-02T12:43:39Z</time>
					</trkpt>
					<trkpt lat="48.573810" lon="-3.821610">
						<ele>22</ele>
						<time>2026-09-02T12:43:49Z</time>
					</trkpt>
					<trkpt lat="48.574030" lon="-3.821550">
						<ele>22</ele>
						<time>2026-09-02T12:44:00Z</time>
					</trkpt>
					<trkpt lat="48.574390" lon="-3.821520">
						<ele>21</ele>
						<time>2026-09-02T12:44:18Z</time>
					</trkpt>
					<trkpt lat="48.574810" lon="-3.821440">
						<ele>20</ele>
						<time>2026-09-02T12:44:39Z</time>
					</trkpt>
					<trkpt lat="48.575070" lon="-3.821350">
						<ele>20</ele>
						<time>2026-09-02T12:44:52Z</time>
					</trkpt>
					<trkpt lat="48.575140" lon="-3.821300">
						<ele>19</ele>
						<time>2026-09-02T12:44:56Z</time>
					</trkpt>
					<trkpt lat="48.575260" lon="-3.821360">
						<ele>19</ele>
						<time>2026-09-02T12:45:03Z</time>
					</trkpt>
					<trkpt lat="48.575250" lon="-3.821640">
						<ele>18</ele>
						<time>2026-09-02T12:45:12Z</time>
					</trkpt>
					<trkpt lat="48.575300" lon="-3.821610">
						<ele>18</ele>
						<time>2026-09-02T12:45:15Z</time>
					</trkpt>
					</trkseg>
				</trk>
			</gpx>